Wetterdaten: Sonntag, 26.03.2017
Datum Zeit Temp. A. Temp. A. max Feuchte A. Luftdruck Regen Wind Richtung Richtung Sonnenschein ET UV Solar Taupunkt Windchill Windböen
26.03.2017 00:00 2,7 °C 2,7 °C 87 % 1019,3 hPa 0,0 mm 1,7 km/h (1 Bft) O 93 ° 0 min 0,000 mm 0,0 UV-I 0 W/m² 0,8 °C 2,7 °C 3,2 km/h (1 Bft)
26.03.2017 00:01 2,7 °C 2,7 °C 87 % 1019,2 hPa 0,0 mm 0,6 km/h (0 Bft) O 93 ° 0 min 0,000 mm 0,0 UV-I 0 W/m² 0,8 °C 2,7 °C 1,6 km/h (1 Bft)
26.03.2017 00:02 2,7 °C 2,7 °C 87 % 1019,2 hPa 0,0 mm 1,2 km/h (1 Bft) O 93 ° 0 min 0,000 mm 0,0 UV-I 0 W/m² 0,8 °C 2,7 °C 3,2 km/h (1 Bft)
26.03.2017 00:03 2,7 °C 2,7 °C 87 % 1019,2 hPa 0,0 mm 0,3 km/h (0 Bft) O 93 ° 0 min 0,000 mm 0,0 UV-I 0 W/m² 0,8 °C 2,7 °C 3,2 km/h (1 Bft)
26.03.2017 00:04 2,7 °C 2,7 °C 87 % 1019,2 hPa 0,0 mm 1,8 km/h (1 Bft) O 93 ° 0 min 0,000 mm 0,0 UV-I 0 W/m² 0,8 °C 2,7 °C 3,2 km/h (1 Bft)
26.03.2017 00:05 2,7 °C 2,7 °C 87 % 1019,2 hPa 0,0 mm 1,6 km/h (1 Bft) O 93 ° 0 min 0,000 mm 0,0 UV-I 0 W/m² 0,8 °C 2,7 °C 3,2 km/h (1 Bft)
26.03.2017 00:06 2,7 °C 2,7 °C 87 % 1019,2 hPa 0,0 mm 1,5 km/h (1 Bft) O 93 ° 0 min 0,000 mm 0,0 UV-I 0 W/m² 0,8 °C 2,7 °C 3,2 km/h (1 Bft)
26.03.2017 00:07 2,7 °C 2,7 °C 87 % 1019,2 hPa 0,0 mm 1,9 km/h (1 Bft) O 93 ° 0 min 0,000 mm 0,0 UV-I 0 W/m² 0,8 °C 2,7 °C 3,2 km/h (1 Bft)
26.03.2017 00:08 2,7 °C 2,7 °C 87 % 1019,3 hPa 0,0 mm 1,6 km/h (1 Bft) O 93 ° 0 min 0,000 mm 0,0 UV-I 0 W/m² 0,8 °C 2,7 °C 3,2 km/h (1 Bft)
26.03.2017 00:09 2,7 °C 2,7 °C 87 % 1019,2 hPa 0,0 mm 1,1 km/h (1 Bft) O 93 ° 0 min 0,000 mm 0,0 UV-I 0 W/m² 0,8 °C 2,7 °C 1,6 km/h (1 Bft)
26.03.2017 00:10 2,6 °C 2,7 °C 87 % 1019,3 hPa 0,0 mm 2,3 km/h (1 Bft) O 93 ° 0 min 0,000 mm 0,0 UV-I 0 W/m² 0,7 °C 2,6 °C 3,2 km/h (1 Bft)
26.03.2017 00:11 2,6 °C 2,6 °C 87 % 1019,2 hPa 0,0 mm 2,3 km/h (1 Bft) O 93 ° 0 min 0,000 mm 0,0 UV-I 0 W/m² 0,7 °C 2,6 °C 3,2 km/h (1 Bft)
26.03.2017 00:12 2,6 °C 2,6 °C 87 % 1019,2 hPa 0,0 mm 2,7 km/h (1 Bft) O 93 ° 0 min 0,000 mm 0,0 UV-I 0 W/m² 0,7 °C 2,6 °C 4,8 km/h (1 Bft)
26.03.2017 00:13 2,6 °C 2,6 °C 87 % 1019,2 hPa 0,0 mm 2,5 km/h (1 Bft) O 93 ° 0 min 0,000 mm 0,0 UV-I 0 W/m² 0,7 °C 2,6 °C 3,2 km/h (1 Bft)
26.03.2017 00:14 2,6 °C 2,7 °C 87 % 1019,1 hPa 0,0 mm 2,2 km/h (1 Bft) O 93 ° 0 min 0,000 mm 0,0 UV-I 0 W/m² 0,7 °C 2,6 °C 3,2 km/h (1 Bft)
26.03.2017 00:15 2,6 °C 2,6 °C 87 % 1019,0 hPa 0,0 mm 3,1 km/h (1 Bft) O 93 ° 0 min 0,000 mm 0,0 UV-I 0 W/m² 0,7 °C 2,6 °C 4,8 km/h (1 Bft)
26.03.2017 00:16 2,7 °C 2,7 °C 87 % 1019,0 hPa 0,0 mm 2,5 km/h (1 Bft) O 93 ° 0 min 0,000 mm 0,0 UV-I 0 W/m² 0,8 °C 2,7 °C 4,8 km/h (1 Bft)
26.03.2017 00:17 2,7 °C 2,7 °C 86 % 1019,0 hPa 0,0 mm 2,3 km/h (1 Bft) O 93 ° 0 min 0,000 mm 0,0 UV-I 0 W/m² 0,6 °C 2,7 °C 3,2 km/h (1 Bft)
26.03.2017 00:18 2,7 °C 2,7 °C 87 % 1018,9 hPa 0,0 mm 0,8 km/h (0 Bft) O 93 ° 0 min 0,000 mm 0,0 UV-I 0 W/m² 0,8 °C 2,7 °C 1,6 km/h (1 Bft)
26.03.2017 00:19 2,7 °C 2,7 °C 86 % 1018,9 hPa 0,0 mm 1,1 km/h (1 Bft) O 93 ° 0 min 0,000 mm 0,0 UV-I 0 W/m² 0,6 °C 2,7 °C 3,2 km/h (1 Bft)
26.03.2017 00:20 2,7 °C 2,7 °C 86 % 1018,9 hPa 0,0 mm 0,1 km/h (0 Bft) O 93 ° 0 min 0,000 mm 0,0 UV-I 0 W/m² 0,6 °C 2,7 °C 1,6 km/h (1 Bft)
26.03.2017 00:21 2,7 °C 2,7 °C 86 % 1018,8 hPa 0,0 mm 0,0 km/h (0 Bft) O 93 ° 0 min 0,000 mm 0,0 UV-I 0 W/m² 0,6 °C 2,7 °C 0,0 km/h (0 Bft)
26.03.2017 00:22 2,7 °C 2,8 °C 86 % 1018,8 hPa 0,0 mm 0,6 km/h (0 Bft) O 93 ° 0 min 0,000 mm 0,0 UV-I 0 W/m² 0,6 °C 2,7 °C 1,6 km/h (1 Bft)
26.03.2017 00:23 2,7 °C 2,7 °C 86 % 1018,8 hPa 0,0 mm 1,3 km/h (1 Bft) O 93 ° 0 min 0,000 mm 0,0 UV-I 0 W/m² 0,6 °C 2,7 °C 3,2 km/h (1 Bft)
26.03.2017 00:24 2,7 °C 2,7 °C 87 % 1018,8 hPa 0,0 mm 1,5 km/h (1 Bft) O 93 ° 0 min 0,000 mm 0,0 UV-I 0 W/m² 0,8 °C 2,7 °C 3,2 km/h (1 Bft)
26.03.2017 00:25 2,6 °C 2,7 °C 87 % 1018,8 hPa 0,0 mm 1,7 km/h (1 Bft) O 93 ° 0 min 0,000 mm 0,0 UV-I 0 W/m² 0,7 °C 2,6 °C 3,2 km/h (1 Bft)
26.03.2017 00:26 2,6 °C 2,6 °C 87 % 1018,7 hPa 0,0 mm 1,1 km/h (1 Bft) O 93 ° 0 min 0,000 mm 0,0 UV-I 0 W/m² 0,7 °C 2,6 °C 1,6 km/h (1 Bft)
26.03.2017 00:27 2,6 °C 2,6 °C 87 % 1018,7 hPa 0,0 mm 1,0 km/h (0 Bft) O 93 ° 0 min 0,000 mm 0,0 UV-I 0 W/m² 0,7 °C 2,6 °C 1,6 km/h (1 Bft)
26.03.2017 00:28 2,6 °C 2,7 °C 87 % 1018,7 hPa 0,0 mm 1,1 km/h (1 Bft) O 93 ° 0 min 0,000 mm 0,0 UV-I 0 W/m² 0,7 °C 2,6 °C 3,2 km/h (1 Bft)
26.03.2017 00:29 2,6 °C 2,6 °C 87 % 1018,7 hPa 0,0 mm 0,7 km/h (0 Bft) O 93 ° 0 min 0,000 mm 0,0 UV-I 0 W/m² 0,7 °C 2,6 °C 3,2 km/h (1 Bft)
26.03.2017 00:30 2,5 °C 2,6 °C 86 % 1018,7 hPa 0,0 mm 0,0 km/h (0 Bft) O 93 ° 0 min 0,000 mm 0,0 UV-I 0 W/m² 0,4 °C 2,5 °C 0,0 km/h (0 Bft)
26.03.2017 00:31 2,4 °C 2,5 °C 86 % 1018,7 hPa 0,0 mm 0,0 km/h (0 Bft) O 93 ° 0 min 0,000 mm 0,0 UV-I 0 W/m² 0,3 °C 2,4 °C 0,0 km/h (0 Bft)
26.03.2017 00:32 2,4 °C 2,4 °C 86 % 1018,7 hPa 0,0 mm 0,0 km/h (0 Bft) O 93 ° 0 min 0,000 mm 0,0 UV-I 0 W/m² 0,3 °C 2,4 °C 0,0 km/h (0 Bft)
26.03.2017 00:33 2,2 °C 2,4 °C 85 % 1018,6 hPa 0,0 mm 0,5 km/h (0 Bft) O 93 ° 0 min 0,000 mm 0,0 UV-I 0 W/m² -0,1 °C 2,2 °C 1,6 km/h (1 Bft)
26.03.2017 00:34 2,1 °C 2,2 °C 86 % 1018,6 hPa 0,0 mm 0,1 km/h (0 Bft) O 93 ° 0 min 0,000 mm 0,0 UV-I 0 W/m² 0,0 °C 2,1 °C 1,6 km/h (1 Bft)
26.03.2017 00:35 1,8 °C 2,1 °C 86 % 1018,6 hPa 0,0 mm 0,8 km/h (0 Bft) O 93 ° 0 min 0,000 mm 0,0 UV-I 0 W/m² -0,3 °C 1,8 °C 1,6 km/h (1 Bft)
26.03.2017 00:36 1,6 °C 1,8 °C 87 % 1018,6 hPa 0,0 mm 0,6 km/h (0 Bft) O 93 ° 0 min 0,000 mm 0,0 UV-I 0 W/m² -0,3 °C 1,6 °C 1,6 km/h (1 Bft)
26.03.2017 00:37 1,4 °C 1,6 °C 87 % 1018,6 hPa 0,0 mm 1,7 km/h (1 Bft) O 93 ° 0 min 0,000 mm 0,0 UV-I 0 W/m² -0,5 °C 1,4 °C 3,2 km/h (1 Bft)
26.03.2017 00:38 1,3 °C 1,4 °C 88 % 1018,6 hPa 0,0 mm 0,7 km/h (0 Bft) O 93 ° 0 min 0,000 mm 0,0 UV-I 0 W/m² -0,5 °C 1,3 °C 1,6 km/h (1 Bft)
26.03.2017 00:39 1,3 °C 1,3 °C 89 % 1018,5 hPa 0,0 mm 0,1 km/h (0 Bft) O 93 ° 0 min 0,000 mm 0,0 UV-I 0 W/m² -0,3 °C 1,3 °C 1,6 km/h (1 Bft)
26.03.2017 00:40 1,3 °C 1,3 °C 89 % 1018,5 hPa 0,0 mm 0,0 km/h (0 Bft) O 93 ° 0 min 0,000 mm 0,0 UV-I 0 W/m² -0,3 °C 1,3 °C 0,0 km/h (0 Bft)
26.03.2017 00:41 1,3 °C 1,3 °C 89 % 1018,5 hPa 0,0 mm 0,0 km/h (0 Bft) O 93 ° 0 min 0,000 mm 0,0 UV-I 0 W/m² -0,3 °C 1,3 °C 0,0 km/h (0 Bft)
26.03.2017 00:42 1,3 °C 1,3 °C 89 % 1018,5 hPa 0,0 mm 0,0 km/h (0 Bft) O 93 ° 0 min 0,000 mm 0,0 UV-I 0 W/m² -0,3 °C 1,3 °C 0,0 km/h (0 Bft)
26.03.2017 00:43 1,3 °C 1,3 °C 90 % 1018,4 hPa 0,0 mm 0,0 km/h (0 Bft) O 93 ° 0 min 0,000 mm 0,0 UV-I 0 W/m² -0,2 °C 1,3 °C 0,0 km/h (0 Bft)
26.03.2017 00:44 1,3 °C 1,3 °C 90 % 1018,3 hPa 0,0 mm 0,0 km/h (0 Bft) O 93 ° 0 min 0,000 mm 0,0 UV-I 0 W/m² -0,2 °C 1,3 °C 0,0 km/h (0 Bft)
26.03.2017 00:45 1,4 °C 1,4 °C 90 % 1018,3 hPa 0,0 mm 0,6 km/h (0 Bft) O 93 ° 0 min 0,000 mm 0,0 UV-I 0 W/m² -0,1 °C 1,4 °C 1,6 km/h (1 Bft)
26.03.2017 00:46 1,5 °C 1,5 °C 91 % 1018,3 hPa 0,0 mm 0,5 km/h (0 Bft) O 93 ° 0 min 0,000 mm 0,0 UV-I 0 W/m² 0,2 °C 1,5 °C 1,6 km/h (1 Bft)
26.03.2017 00:47 1,5 °C 1,5 °C 90 % 1018,3 hPa 0,0 mm 0,3 km/h (0 Bft) O 93 ° 0 min 0,000 mm 0,0 UV-I 0 W/m² 0,0 °C 1,5 °C 1,6 km/h (1 Bft)
26.03.2017 00:48 1,4 °C 1,5 °C 90 % 1018,3 hPa 0,0 mm 0,7 km/h (0 Bft) O 93 ° 0 min 0,000 mm 0,0 UV-I 0 W/m² -0,1 °C 1,4 °C 1,6 km/h (1 Bft)
26.03.2017 00:49 1,4 °C 1,4 °C 90 % 1018,3 hPa 0,0 mm 0,1 km/h (0 Bft) O 93 ° 0 min 0,000 mm 0,0 UV-I 0 W/m² -0,1 °C 1,4 °C 1,6 km/h (1 Bft)
26.03.2017 00:50 1,3 °C 1,4 °C 90 % 1018,3 hPa 0,0 mm 4,5 km/h (1 Bft) N-NW 348 ° 0 min 0,000 mm 0,0 UV-I 0 W/m² -0,2 °C 1,3 °C 6,4 km/h (2 Bft)
26.03.2017 00:51 1,2 °C 1,3 °C 90 % 1018,3 hPa 0,0 mm 0,3 km/h (0 Bft) N-NW 348 ° 0 min 0,000 mm 0,0 UV-I 0 W/m² -0,3 °C 1,2 °C 1,6 km/h (1 Bft)
26.03.2017 00:52 1,1 °C 1,2 °C 89 % 1018,4 hPa 0,0 mm 0,5 km/h (0 Bft) N-NW 348 ° 0 min 0,000 mm 0,0 UV-I 0 W/m² -0,5 °C 1,1 °C 1,6 km/h (1 Bft)
26.03.2017 00:53 0,9 °C 1,1 °C 89 % 1018,4 hPa 0,0 mm 0,0 km/h (0 Bft) N-NW 348 ° 0 min 0,000 mm 0,0 UV-I 0 W/m² -0,7 °C 0,9 °C 0,0 km/h (0 Bft)
26.03.2017 00:54 0,9 °C 0,9 °C 89 % 1018,4 hPa 0,0 mm 0,5 km/h (0 Bft) N-NW 348 ° 0 min 0,000 mm 0,0 UV-I 0 W/m² -0,7 °C 0,9 °C 1,6 km/h (1 Bft)
26.03.2017 00:55 0,8 °C 0,9 °C 90 % 1018,4 hPa 0,0 mm 0,3 km/h (0 Bft) N-NW 348 ° 0 min 0,000 mm 0,0 UV-I 0 W/m² -0,6 °C 0,8 °C 1,6 km/h (1 Bft)
26.03.2017 00:56 0,8 °C 0,8 °C 90 % 1018,4 hPa 0,0 mm 0,0 km/h (0 Bft) N-NW 348 ° 0 min 0,000 mm 0,0 UV-I 0 W/m² -0,6 °C 0,8 °C 0,0 km/h (0 Bft)
26.03.2017 00:57 0,8 °C 0,8 °C 91 % 1018,4 hPa 0,0 mm 0,4 km/h (0 Bft) N-NW 348 ° 0 min 0,000 mm 0,0 UV-I 0 W/m² -0,5 °C 0,8 °C 1,6 km/h (1 Bft)
26.03.2017 00:58 0,8 °C 0,8 °C 91 % 1018,5 hPa 0,0 mm 0,1 km/h (0 Bft) N-NW 348 ° 0 min 0,000 mm 0,0 UV-I 0 W/m² -0,5 °C 0,8 °C 1,6 km/h (1 Bft)
26.03.2017 00:59 0,9 °C 0,9 °C 91 % 1018,6 hPa 0,0 mm 1,0 km/h (0 Bft) N-NW 348 ° 0 min 0,000 mm 0,0 UV-I 0 W/m² -0,4 °C 0,9 °C 3,2 km/h (1 Bft)
26.03.2017 01:00 0,9 °C 0,9 °C 91 % 1018,5 hPa 0,0 mm 1,4 km/h (1 Bft) N-NW 348 ° 0 min 0,000 mm 0,0 UV-I 0 W/m² -0,4 °C 0,9 °C 1,6 km/h (1 Bft)
26.03.2017 01:01 1,1 °C 1,1 °C 92 % 1018,6 hPa 0,0 mm 1,1 km/h (1 Bft) N-NW 348 ° 0 min 0,000 mm 0,0 UV-I 0 W/m² -0,1 °C 1,1 °C 1,6 km/h (1 Bft)
26.03.2017 01:02 1,1 °C 1,1 °C 92 % 1018,6 hPa 0,0 mm 2,2 km/h (1 Bft) NO 44 ° 0 min 0,000 mm 0,0 UV-I 0 W/m² -0,1 °C 1,1 °C 3,2 km/h (1 Bft)
26.03.2017 01:03 1,2 °C 1,2 °C 91 % 1018,6 hPa 0,0 mm 2,5 km/h (1 Bft) NO 44 ° 0 min 0,000 mm 0,0 UV-I 0 W/m² -0,1 °C 1,2 °C 3,2 km/h (1 Bft)
26.03.2017 01:04 1,2 °C 1,2 °C 91 % 1018,6 hPa 0,0 mm 2,9 km/h (1 Bft) O 92 ° 0 min 0,000 mm 0,0 UV-I 0 W/m² -0,1 °C 1,2 °C 4,8 km/h (1 Bft)
26.03.2017 01:05 1,3 °C 1,3 °C 92 % 1018,6 hPa 0,0 mm 3,9 km/h (1 Bft) O 92 ° 0 min 0,000 mm 0,0 UV-I 0 W/m² 0,1 °C 1,3 °C 4,8 km/h (1 Bft)
26.03.2017 01:06 1,3 °C 1,4 °C 92 % 1018,6 hPa 0,0 mm 3,5 km/h (1 Bft) O 97 ° 0 min 0,000 mm 0,0 UV-I 0 W/m² 0,1 °C 1,3 °C 4,8 km/h (1 Bft)
26.03.2017 01:07 1,4 °C 1,4 °C 92 % 1018,6 hPa 0,0 mm 2,7 km/h (1 Bft) O 97 ° 0 min 0,000 mm 0,0 UV-I 0 W/m² 0,2 °C 1,4 °C 4,8 km/h (1 Bft)
26.03.2017 01:08 1,5 °C 1,5 °C 92 % 1018,6 hPa 0,0 mm 1,5 km/h (1 Bft) O 97 ° 0 min 0,000 mm 0,0 UV-I 0 W/m² 0,3 °C 1,5 °C 3,2 km/h (1 Bft)
26.03.2017 01:09 1,6 °C 1,6 °C 92 % 1018,7 hPa 0,0 mm 1,3 km/h (1 Bft) O 97 ° 0 min 0,000 mm 0,0 UV-I 0 W/m² 0,4 °C 1,6 °C 1,6 km/h (1 Bft)
26.03.2017 01:10 1,5 °C 1,6 °C 91 % 1018,7 hPa 0,0 mm 2,2 km/h (1 Bft) O 97 ° 0 min 0,000 mm 0,0 UV-I 0 W/m² 0,2 °C 1,5 °C 3,2 km/h (1 Bft)
26.03.2017 01:11 1,3 °C 1,5 °C 90 % 1018,7 hPa 0,0 mm 2,0 km/h (1 Bft) O 97 ° 0 min 0,000 mm 0,0 UV-I 0 W/m² -0,2 °C 1,3 °C 3,2 km/h (1 Bft)
26.03.2017 01:12 1,2 °C 1,3 °C 90 % 1018,7 hPa 0,0 mm 0,2 km/h (0 Bft) O 97 ° 0 min 0,000 mm 0,0 UV-I 0 W/m² -0,3 °C 1,2 °C 1,6 km/h (1 Bft)
26.03.2017 01:13 1,1 °C 1,2 °C 90 % 1018,7 hPa 0,0 mm 0,0 km/h (0 Bft) O 97 ° 0 min 0,000 mm 0,0 UV-I 0 W/m² -0,4 °C 1,1 °C 0,0 km/h (0 Bft)
26.03.2017 01:14 1,0 °C 1,1 °C 91 % 1018,7 hPa 0,0 mm 2,5 km/h (1 Bft) O 97 ° 0 min 0,000 mm 0,0 UV-I 0 W/m² -0,3 °C 1,0 °C 3,2 km/h (1 Bft)
26.03.2017 01:15 1,0 °C 1,0 °C 91 % 1018,7 hPa 0,0 mm 2,5 km/h (1 Bft) S-SW 198 ° 0 min 0,000 mm 0,0 UV-I 0 W/m² -0,3 °C 1,0 °C 4,8 km/h (1 Bft)
26.03.2017 01:16 1,0 °C 1,0 °C 92 % 1018,6 hPa 0,0 mm 4,1 km/h (1 Bft) S-SW 198 ° 0 min 0,000 mm 0,0 UV-I 0 W/m² -0,2 °C 1,0 °C 4,8 km/h (1 Bft)
26.03.2017 01:17 1,1 °C 1,1 °C 92 % 1018,7 hPa 0,0 mm 1,9 km/h (1 Bft) S-SW 198 ° 0 min 0,000 mm 0,0 UV-I 0 W/m² -0,1 °C 1,1 °C 6,4 km/h (2 Bft)
26.03.2017 01:18 1,1 °C 1,1 °C 92 % 1018,7 hPa 0,0 mm 1,7 km/h (1 Bft) S-SW 197 ° 0 min 0,000 mm 0,0 UV-I 0 W/m² -0,1 °C 1,1 °C 3,2 km/h (1 Bft)
26.03.2017 01:19 1,1 °C 1,1 °C 92 % 1018,7 hPa 0,0 mm 2,0 km/h (1 Bft) S-SW 198 ° 0 min 0,000 mm 0,0 UV-I 0 W/m² -0,1 °C 1,1 °C 4,8 km/h (1 Bft)
26.03.2017 01:20 1,0 °C 1,1 °C 91 % 1018,7 hPa 0,0 mm 1,9 km/h (1 Bft) SO 139 ° 0 min 0,000 mm 0,0 UV-I 0 W/m² -0,3 °C 1,0 °C 3,2 km/h (1 Bft)
26.03.2017 01:21 0,9 °C 1,0 °C 91 % 1018,8 hPa 0,0 mm 0,0 km/h (0 Bft) SO 139 ° 0 min 0,000 mm 0,0 UV-I 0 W/m² -0,4 °C 0,9 °C 0,0 km/h (0 Bft)
26.03.2017 01:22 0,8 °C 0,9 °C 91 % 1018,8 hPa 0,0 mm 0,0 km/h (0 Bft) SO 139 ° 0 min 0,000 mm 0,0 UV-I 0 W/m² -0,5 °C 0,8 °C 0,0 km/h (0 Bft)
26.03.2017 01:23 0,8 °C 0,8 °C 91 % 1018,8 hPa 0,0 mm 0,7 km/h (0 Bft) SO 139 ° 0 min 0,000 mm 0,0 UV-I 0 W/m² -0,5 °C 0,8 °C 1,6 km/h (1 Bft)
26.03.2017 01:24 0,8 °C 0,8 °C 92 % 1018,8 hPa 0,0 mm 0,1 km/h (0 Bft) SO 139 ° 0 min 0,000 mm 0,0 UV-I 0 W/m² -0,3 °C 0,8 °C 1,6 km/h (1 Bft)
26.03.2017 01:25 0,9 °C 0,9 °C 92 % 1018,8 hPa 0,0 mm 0,0 km/h (0 Bft) SO 139 ° 0 min 0,000 mm 0,0 UV-I 0 W/m² -0,2 °C 0,9 °C 0,0 km/h (0 Bft)
26.03.2017 01:26 0,8 °C 0,9 °C 92 % 1018,8 hPa 0,0 mm 0,0 km/h (0 Bft) SO 139 ° 0 min 0,000 mm 0,0 UV-I 0 W/m² -0,3 °C 0,8 °C 0,0 km/h (0 Bft)
26.03.2017 01:27 0,8 °C 0,8 °C 92 % 1018,8 hPa 0,0 mm 0,0 km/h (0 Bft) SO 139 ° 0 min 0,000 mm 0,0 UV-I 0 W/m² -0,3 °C 0,8 °C 0,0 km/h (0 Bft)
26.03.2017 01:28 0,7 °C 0,8 °C 92 % 1018,8 hPa 0,0 mm 0,5 km/h (0 Bft) SO 139 ° 0 min 0,000 mm 0,0 UV-I 0 W/m² -0,4 °C 0,7 °C 1,6 km/h (1 Bft)
26.03.2017 01:29 0,8 °C 0,8 °C 92 % 1018,8 hPa 0,0 mm 1,1 km/h (1 Bft) SO 139 ° 0 min 0,000 mm 0,0 UV-I 0 W/m² -0,3 °C 0,8 °C 1,6 km/h (1 Bft)
26.03.2017 01:30 0,7 °C 0,8 °C 92 % 1018,8 hPa 0,0 mm 0,7 km/h (0 Bft) SO 139 ° 0 min 0,000 mm 0,0 UV-I 0 W/m² -0,4 °C 0,7 °C 1,6 km/h (1 Bft)
26.03.2017 01:31 0,8 °C 0,8 °C 92 % 1018,8 hPa 0,0 mm 1,8 km/h (1 Bft) SO 139 ° 0 min 0,000 mm 0,0 UV-I 0 W/m² -0,3 °C 0,8 °C 3,2 km/h (1 Bft)
26.03.2017 01:32 0,8 °C 0,8 °C 92 % 1018,8 hPa 0,0 mm 1,7 km/h (1 Bft) SO 139 ° 0 min 0,000 mm 0,0 UV-I 0 W/m² -0,3 °C 0,8 °C 3,2 km/h (1 Bft)
26.03.2017 01:33 0,8 °C 0,8 °C 92 % 1018,8 hPa 0,0 mm 0,9 km/h (0 Bft) SO 139 ° 0 min 0,000 mm 0,0 UV-I 0 W/m² -0,3 °C 0,8 °C 1,6 km/h (1 Bft)
26.03.2017 01:34 0,8 °C 0,8 °C 92 % 1018,8 hPa 0,0 mm 1,1 km/h (1 Bft) SO 139 ° 0 min 0,000 mm 0,0 UV-I 0 W/m² -0,3 °C 0,8 °C 1,6 km/h (1 Bft)
26.03.2017 01:35 0,9 °C 0,9 °C 92 % 1018,7 hPa 0,0 mm 0,4 km/h (0 Bft) SO 139 ° 0 min 0,000 mm 0,0 UV-I 0 W/m² -0,2 °C 0,9 °C 1,6 km/h (1 Bft)
26.03.2017 01:36 1,0 °C 1,0 °C 93 % 1018,7 hPa 0,0 mm 4,2 km/h (1 Bft) O-SO 102 ° 0 min 0,000 mm 0,0 UV-I 0 W/m² -0,0 °C 1,0 °C 6,4 km/h (2 Bft)
26.03.2017 01:37 1,2 °C 1,2 °C 93 % 1018,7 hPa 0,0 mm 0,9 km/h (0 Bft) O-SO 102 ° 0 min 0,000 mm 0,0 UV-I 0 W/m² 0,2 °C 1,2 °C 3,2 km/h (1 Bft)
26.03.2017 01:38 1,4 °C 1,4 °C 92 % 1018,7 hPa 0,0 mm 1,1 km/h (1 Bft) O-SO 102 ° 0 min 0,000 mm 0,0 UV-I 0 W/m² 0,2 °C 1,4 °C 1,6 km/h (1 Bft)
26.03.2017 01:39 1,6 °C 1,6 °C 91 % 1018,7 hPa 0,0 mm 1,5 km/h (1 Bft) SO 138 ° 0 min 0,000 mm 0,0 UV-I 0 W/m² 0,3 °C 1,6 °C 3,2 km/h (1 Bft)
26.03.2017 01:40 1,7 °C 1,7 °C 90 % 1018,7 hPa 0,0 mm 2,1 km/h (1 Bft) S-SO 153 ° 0 min 0,000 mm 0,0 UV-I 0 W/m² 0,2 °C 1,7 °C 4,8 km/h (1 Bft)
26.03.2017 01:41 1,8 °C 1,8 °C 90 % 1018,7 hPa 0,0 mm 3,2 km/h (1 Bft) O-SO 123 ° 0 min 0,000 mm 0,0 UV-I 0 W/m² 0,3 °C 1,8 °C 6,4 km/h (2 Bft)
26.03.2017 01:42 1,9 °C 1,9 °C 89 % 1018,7 hPa 0,0 mm 2,4 km/h (1 Bft) O-SO 123 ° 0 min 0,000 mm 0,0 UV-I 0 W/m² 0,3 °C 1,9 °C 4,8 km/h (1 Bft)
26.03.2017 01:43 2,0 °C 2,0 °C 89 % 1018,7 hPa 0,0 mm 3,5 km/h (1 Bft) O-SO 123 ° 0 min 0,000 mm 0,0 UV-I 0 W/m² 0,4 °C 2,0 °C 4,8 km/h (1 Bft)
26.03.2017 01:44 2,1 °C 2,1 °C 88 % 1018,6 hPa 0,0 mm 2,3 km/h (1 Bft) O-SO 123 ° 0 min 0,000 mm 0,0 UV-I 0 W/m² 0,3 °C 2,1 °C 3,2 km/h (1 Bft)
26.03.2017 01:45 2,1 °C 2,1 °C 88 % 1018,7 hPa 0,0 mm 1,1 km/h (1 Bft) O-SO 123 ° 0 min 0,000 mm 0,0 UV-I 0 W/m² 0,3 °C 2,1 °C 3,2 km/h (1 Bft)
26.03.2017 01:46 2,1 °C 2,2 °C 88 % 1018,7 hPa 0,0 mm 1,9 km/h (1 Bft) O-SO 123 ° 0 min 0,000 mm 0,0 UV-I 0 W/m² 0,3 °C 2,1 °C 3,2 km/h (1 Bft)
26.03.2017 01:47 2,1 °C 2,2 °C 87 % 1018,6 hPa 0,0 mm 1,7 km/h (1 Bft) O-SO 123 ° 0 min 0,000 mm 0,0 UV-I 0 W/m² 0,2 °C 2,1 °C 3,2 km/h (1 Bft)
26.03.2017 01:48 2,2 °C 2,2 °C 87 % 1018,6 hPa 0,0 mm 1,9 km/h (1 Bft) O-SO 123 ° 0 min 0,000 mm 0,0 UV-I 0 W/m² 0,3 °C 2,2 °C 3,2 km/h (1 Bft)
26.03.2017 01:49 2,2 °C 2,2 °C 87 % 1018,5 hPa 0,0 mm 2,7 km/h (1 Bft) O-SO 123 ° 0 min 0,000 mm 0,0 UV-I 0 W/m² 0,3 °C 2,2 °C 3,2 km/h (1 Bft)
26.03.2017 01:50 2,2 °C 2,2 °C 87 % 1018,5 hPa 0,0 mm 3,3 km/h (1 Bft) S-SO 154 ° 0 min 0,000 mm 0,0 UV-I 0 W/m² 0,3 °C 2,2 °C 4,8 km/h (1 Bft)
26.03.2017 01:51 2,2 °C 2,2 °C 87 % 1018,5 hPa 0,0 mm 3,2 km/h (1 Bft) S-SO 154 ° 0 min 0,000 mm 0,0 UV-I 0 W/m² 0,3 °C 2,2 °C 4,8 km/h (1 Bft)
26.03.2017 01:52 2,2 °C 2,2 °C 86 % 1018,5 hPa 0,0 mm 3,2 km/h (1 Bft) S-SO 154 ° 0 min 0,000 mm 0,0 UV-I 0 W/m² 0,1 °C 2,2 °C 3,2 km/h (1 Bft)
26.03.2017 01:53 2,1 °C 2,2 °C 87 % 1018,4 hPa 0,0 mm 1,9 km/h (1 Bft) S-SO 154 ° 0 min 0,000 mm 0,0 UV-I 0 W/m² 0,2 °C 2,1 °C 3,2 km/h (1 Bft)
26.03.2017 01:54 2,1 °C 2,1 °C 87 % 1018,4 hPa 0,0 mm 0,1 km/h (0 Bft) S-SO 154 ° 0 min 0,000 mm 0,0 UV-I 0 W/m² 0,2 °C 2,1 °C 1,6 km/h (1 Bft)
26.03.2017 01:55 2,1 °C 2,1 °C 87 % 1018,4 hPa 0,0 mm 0,4 km/h (0 Bft) S-SO 154 ° 0 min 0,000 mm 0,0 UV-I 0 W/m² 0,2 °C 2,1 °C 1,6 km/h (1 Bft)
26.03.2017 01:56 2,0 °C 2,1 °C 87 % 1018,4 hPa 0,0 mm 0,1 km/h (0 Bft) S-SO 154 ° 0 min 0,000 mm 0,0 UV-I 0 W/m² 0,1 °C 2,0 °C 1,6 km/h (1 Bft)
26.03.2017 01:57 1,8 °C 2,0 °C 86 % 1018,5 hPa 0,0 mm 0,0 km/h (0 Bft) S-SO 154 ° 0 min 0,000 mm 0,0 UV-I 0 W/m² -0,3 °C 1,8 °C 0,0 km/h (0 Bft)
26.03.2017 01:58 1,5 °C 1,8 °C 85 % 1018,4 hPa 0,0 mm 0,0 km/h (0 Bft) S-SO 154 ° 0 min 0,000 mm 0,0 UV-I 0 W/m² -0,7 °C 1,5 °C 0,0 km/h (0 Bft)
26.03.2017 01:59 1,1 °C 1,5 °C 86 % 1018,5 hPa 0,0 mm 0,0 km/h (0 Bft) S-SO 154 ° 0 min 0,000 mm 0,0 UV-I 0 W/m² -1,0 °C 1,1 °C 0,0 km/h (0 Bft)
26.03.2017 03:00 0,8 °C 1,1 °C 86 % 1018,5 hPa 0,0 mm 0,0 km/h (0 Bft) S-SO 154 ° 0 min 0,000 mm 0,0 UV-I 0 W/m² -1,3 °C 0,8 °C 0,0 km/h (0 Bft)
26.03.2017 03:01 0,6 °C 0,8 °C 88 % 1018,4 hPa 0,0 mm 0,0 km/h (0 Bft) S-SO 154 ° 0 min 0,000 mm 0,0 UV-I 0 W/m² -1,2 °C 0,6 °C 0,0 km/h (0 Bft)
26.03.2017 03:02 0,5 °C 0,6 °C 88 % 1018,4 hPa 0,0 mm 0,0 km/h (0 Bft) S-SO 154 ° 0 min 0,000 mm 0,0 UV-I 0 W/m² -1,3 °C 0,5 °C 0,0 km/h (0 Bft)
26.03.2017 03:03 0,4 °C 0,5 °C 89 % 1018,4 hPa 0,0 mm 0,0 km/h (0 Bft) S-SO 154 ° 0 min 0,000 mm 0,0 UV-I 0 W/m² -1,2 °C 0,4 °C 0,0 km/h (0 Bft)
26.03.2017 03:04 0,3 °C 0,4 °C 89 % 1018,4 hPa 0,0 mm 0,0 km/h (0 Bft) S-SO 154 ° 0 min 0,000 mm 0,0 UV-I 0 W/m² -1,3 °C 0,3 °C 0,0 km/h (0 Bft)
26.03.2017 03:05 0,3 °C 0,3 °C 90 % 1018,4 hPa 0,0 mm 0,0 km/h (0 Bft) S-SO 154 ° 0 min 0,000 mm 0,0 UV-I 0 W/m² -1,1 °C 0,3 °C 0,0 km/h (0 Bft)
26.03.2017 03:06 0,4 °C 0,4 °C 90 % 1018,3 hPa 0,0 mm 0,0 km/h (0 Bft) S-SO 154 ° 0 min 0,000 mm 0,0 UV-I 0 W/m² -1,0 °C 0,4 °C 0,0 km/h (0 Bft)
26.03.2017 03:07 0,6 °C 0,6 °C 91 % 1018,3 hPa 0,0 mm 0,0 km/h (0 Bft) S-SO 154 ° 0 min 0,000 mm 0,0 UV-I 0 W/m² -0,7 °C 0,6 °C 0,0 km/h (0 Bft)
26.03.2017 03:08 0,7 °C 0,7 °C 91 % 1018,2 hPa 0,0 mm 0,0 km/h (0 Bft) S-SO 154 ° 0 min 0,000 mm 0,0 UV-I 0 W/m² -0,6 °C 0,7 °C 0,0 km/h (0 Bft)
26.03.2017 03:09 0,8 °C 0,8 °C 91 % 1018,2 hPa 0,0 mm 0,0 km/h (0 Bft) S-SO 154 ° 0 min 0,000 mm 0,0 UV-I 0 W/m² -0,5 °C 0,8 °C 0,0 km/h (0 Bft)
26.03.2017 03:10 0,9 °C 0,9 °C 90 % 1018,2 hPa 0,0 mm 1,9 km/h (1 Bft) S-SO 154 ° 0 min 0,000 mm 0,0 UV-I 0 W/m² -0,6 °C 0,9 °C 3,2 km/h (1 Bft)
26.03.2017 03:11 1,1 °C 1,1 °C 90 % 1018,2 hPa 0,0 mm 0,2 km/h (0 Bft) S-SO 154 ° 0 min 0,000 mm 0,0 UV-I 0 W/m² -0,4 °C 1,1 °C 1,6 km/h (1 Bft)
26.03.2017 03:12 1,3 °C 1,3 °C 90 % 1018,2 hPa 0,0 mm 1,2 km/h (1 Bft) S-SO 154 ° 0 min 0,000 mm 0,0 UV-I 0 W/m² -0,2 °C 1,3 °C 3,2 km/h (1 Bft)
26.03.2017 03:13 1,3 °C 1,3 °C 89 % 1018,2 hPa 0,0 mm 1,0 km/h (0 Bft) S-SO 154 ° 0 min 0,000 mm 0,0 UV-I 0 W/m² -0,3 °C 1,3 °C 1,6 km/h (1 Bft)
26.03.2017 03:14 1,3 °C 1,3 °C 88 % 1018,2 hPa 0,0 mm 0,0 km/h (0 Bft) S-SO 154 ° 0 min 0,000 mm 0,0 UV-I 0 W/m² -0,5 °C 1,3 °C 0,0 km/h (0 Bft)
26.03.2017 03:15 1,3 °C 1,3 °C 88 % 1018,2 hPa 0,0 mm 2,1 km/h (1 Bft) S-SO 154 ° 0 min 0,000 mm 0,0 UV-I 0 W/m² -0,5 °C 1,3 °C 3,2 km/h (1 Bft)
26.03.2017 03:16 1,3 °C 1,3 °C 89 % 1018,1 hPa 0,0 mm 2,5 km/h (1 Bft) S-SO 154 ° 0 min 0,000 mm 0,0 UV-I 0 W/m² -0,3 °C 1,3 °C 3,2 km/h (1 Bft)
26.03.2017 03:17 1,4 °C 1,4 °C 89 % 1018,1 hPa 0,0 mm 2,1 km/h (1 Bft) S-SO 154 ° 0 min 0,000 mm 0,0 UV-I 0 W/m² -0,2 °C 1,4 °C 3,2 km/h (1 Bft)
26.03.2017 03:18 1,4 °C 1,4 °C 89 % 1018,0 hPa 0,0 mm 2,4 km/h (1 Bft) S-SO 154 ° 0 min 0,000 mm 0,0 UV-I 0 W/m² -0,2 °C 1,4 °C 3,2 km/h (1 Bft)
26.03.2017 03:19 1,5 °C 1,5 °C 89 % 1018,0 hPa 0,0 mm 1,5 km/h (1 Bft) S-SO 154 ° 0 min 0,000 mm 0,0 UV-I 0 W/m² -0,1 °C 1,5 °C 3,2 km/h (1 Bft)
26.03.2017 03:20 1,5 °C 1,6 °C 89 % 1018,0 hPa 0,0 mm 0,4 km/h (0 Bft) S-SO 154 ° 0 min 0,000 mm 0,0 UV-I 0 W/m² -0,1 °C 1,5 °C 1,6 km/h (1 Bft)
26.03.2017 03:21 1,4 °C 1,6 °C 88 % 1018,0 hPa 0,0 mm 0,0 km/h (0 Bft) S-SO 154 ° 0 min 0,000 mm 0,0 UV-I 0 W/m² -0,4 °C 1,4 °C 0,0 km/h (0 Bft)
26.03.2017 03:22 1,2 °C 1,4 °C 87 % 1018,0 hPa 0,0 mm 0,1 km/h (0 Bft) S-SO 154 ° 0 min 0,000 mm 0,0 UV-I 0 W/m² -0,7 °C 1,2 °C 1,6 km/h (1 Bft)
26.03.2017 03:23 1,1 °C 1,2 °C 87 % 1018,0 hPa 0,0 mm 0,0 km/h (0 Bft) S-SO 154 ° 0 min 0,000 mm 0,0 UV-I 0 W/m² -0,8 °C 1,1 °C 0,0 km/h (0 Bft)
26.03.2017 03:24 0,8 °C 1,1 °C 88 % 1018,0 hPa 0,0 mm 0,0 km/h (0 Bft) S-SO 154 ° 0 min 0,000 mm 0,0 UV-I 0 W/m² -1,0 °C 0,8 °C 0,0 km/h (0 Bft)
26.03.2017 03:25 0,7 °C 0,8 °C 88 % 1018,1 hPa 0,0 mm 0,1 km/h (0 Bft) S-SO 154 ° 0 min 0,000 mm 0,0 UV-I 0 W/m² -1,1 °C 0,7 °C 1,6 km/h (1 Bft)
26.03.2017 03:26 0,6 °C 0,7 °C 88 % 1018,0 hPa 0,0 mm 0,0 km/h (0 Bft) S-SO 154 ° 0 min 0,000 mm 0,0 UV-I 0 W/m² -1,2 °C 0,6 °C 0,0 km/h (0 Bft)
26.03.2017 03:27 0,3 °C 0,6 °C 89 % 1018,0 hPa 0,0 mm 0,3 km/h (0 Bft) S-SO 154 ° 0 min 0,000 mm 0,0 UV-I 0 W/m² -1,3 °C 0,3 °C 1,6 km/h (1 Bft)
26.03.2017 03:28 0,2 °C 0,3 °C 89 % 1018,0 hPa 0,0 mm 0,4 km/h (0 Bft) S-SO 154 ° 0 min 0,000 mm 0,0 UV-I 0 W/m² -1,4 °C 0,2 °C 1,6 km/h (1 Bft)
26.03.2017 03:29 0,0 °C 0,2 °C 89 % 1018,0 hPa 0,0 mm 0,6 km/h (0 Bft) S-SO 154 ° 0 min 0,000 mm 0,0 UV-I 0 W/m² -1,6 °C 0,0 °C 1,6 km/h (1 Bft)
26.03.2017 03:30 -0,1 °C 0,0 °C 89 % 1018,0 hPa 0,0 mm 0,2 km/h (0 Bft) S-SO 154 ° 0 min 0,000 mm 0,0 UV-I 0 W/m² -1,7 °C -0,1 °C 1,6 km/h (1 Bft)
26.03.2017 03:31 -0,2 °C -0,1 °C 90 % 1018,0 hPa 0,0 mm 0,1 km/h (0 Bft) S-SO 154 ° 0 min 0,000 mm 0,0 UV-I 0 W/m² -1,6 °C -0,2 °C 1,6 km/h (1 Bft)
26.03.2017 03:32 -0,3 °C -0,2 °C 91 % 1018,0 hPa 0,0 mm 0,3 km/h (0 Bft) S-SO 154 ° 0 min 0,000 mm 0,0 UV-I 0 W/m² -1,6 °C -0,3 °C 1,6 km/h (1 Bft)
26.03.2017 03:33 -0,1 °C -0,1 °C 91 % 1018,0 hPa 0,0 mm 0,0 km/h (0 Bft) S-SO 154 ° 0 min 0,000 mm 0,0 UV-I 0 W/m² -1,4 °C -0,1 °C 0,0 km/h (0 Bft)
26.03.2017 03:34 -0,1 °C -0,1 °C 92 % 1018,0 hPa 0,0 mm 0,1 km/h (0 Bft) S-SO 154 ° 0 min 0,000 mm 0,0 UV-I 0 W/m² -1,2 °C -0,1 °C 1,6 km/h (1 Bft)
26.03.2017 03:35 -0,1 °C -0,1 °C 91 % 1018,0 hPa 0,0 mm 0,0 km/h (0 Bft) S-SO 154 ° 0 min 0,000 mm 0,0 UV-I 0 W/m² -1,4 °C -0,1 °C 0,0 km/h (0 Bft)
26.03.2017 03:36 -0,1 °C -0,1 °C 91 % 1018,1 hPa 0,0 mm 0,5 km/h (0 Bft) S-SO 154 ° 0 min 0,000 mm 0,0 UV-I 0 W/m² -1,4 °C -0,1 °C 1,6 km/h (1 Bft)
26.03.2017 03:37 -0,1 °C -0,1 °C 91 % 1018,1 hPa 0,0 mm 1,0 km/h (0 Bft) S-SO 154 ° 0 min 0,000 mm 0,0 UV-I 0 W/m² -1,4 °C -0,1 °C 1,6 km/h (1 Bft)
26.03.2017 03:38 0,1 °C 0,1 °C 92 % 1018,1 hPa 0,0 mm 2,6 km/h (1 Bft) S-SO 154 ° 0 min 0,000 mm 0,0 UV-I 0 W/m² -1,0 °C 0,1 °C 3,2 km/h (1 Bft)
26.03.2017 03:39 0,3 °C 0,3 °C 92 % 1018,1 hPa 0,0 mm 2,2 km/h (1 Bft) S-SO 154 ° 0 min 0,000 mm 0,0 UV-I 0 W/m² -0,8 °C 0,3 °C 4,8 km/h (1 Bft)
26.03.2017 03:40 0,6 °C 0,6 °C 92 % 1018,1 hPa 0,0 mm 3,0 km/h (1 Bft) S-SO 154 ° 0 min 0,000 mm 0,0 UV-I 0 W/m² -0,5 °C 0,6 °C 4,8 km/h (1 Bft)
26.03.2017 03:41 0,7 °C 0,7 °C 91 % 1018,1 hPa 0,0 mm 3,0 km/h (1 Bft) S-SO 154 ° 0 min 0,000 mm 0,0 UV-I 0 W/m² -0,6 °C 0,7 °C 3,2 km/h (1 Bft)
26.03.2017 03:42 0,8 °C 0,8 °C 91 % 1018,1 hPa 0,0 mm 2,1 km/h (1 Bft) S-SO 154 ° 0 min 0,000 mm 0,0 UV-I 0 W/m² -0,5 °C 0,8 °C 3,2 km/h (1 Bft)
26.03.2017 03:43 0,9 °C 0,9 °C 91 % 1018,1 hPa 0,0 mm 2,1 km/h (1 Bft) S-SO 154 ° 0 min 0,000 mm 0,0 UV-I 0 W/m² -0,4 °C 0,9 °C 3,2 km/h (1 Bft)
26.03.2017 03:44 1,0 °C 1,1 °C 91 % 1018,2 hPa 0,0 mm 1,8 km/h (1 Bft) S-SO 154 ° 0 min 0,000 mm 0,0 UV-I 0 W/m² -0,3 °C 1,0 °C 3,2 km/h (1 Bft)
26.03.2017 03:45 1,1 °C 1,1 °C 90 % 1018,2 hPa 0,0 mm 1,8 km/h (1 Bft) S-SO 154 ° 0 min 0,000 mm 0,0 UV-I 0 W/m² -0,4 °C 1,1 °C 3,2 km/h (1 Bft)
26.03.2017 03:46 1,2 °C 1,2 °C 90 % 1018,1 hPa 0,0 mm 2,5 km/h (1 Bft) SO 144 ° 0 min 0,000 mm 0,0 UV-I 0 W/m² -0,3 °C 1,2 °C 3,2 km/h (1 Bft)
26.03.2017 03:47 1,2 °C 1,2 °C 90 % 1018,1 hPa 0,0 mm 2,6 km/h (1 Bft) S 175 ° 0 min 0,000 mm 0,0 UV-I 0 W/m² -0,3 °C 1,2 °C 4,8 km/h (1 Bft)
26.03.2017 03:48 1,2 °C 1,2 °C 90 % 1018,1 hPa 0,0 mm 2,8 km/h (1 Bft) S 175 ° 0 min 0,000 mm 0,0 UV-I 0 W/m² -0,3 °C 1,2 °C 4,8 km/h (1 Bft)
26.03.2017 03:49 1,3 °C 1,3 °C 89 % 1018,1 hPa 0,0 mm 2,7 km/h (1 Bft) S 175 ° 0 min 0,000 mm 0,0 UV-I 0 W/m² -0,3 °C 1,3 °C 4,8 km/h (1 Bft)
26.03.2017 03:50 1,3 °C 1,3 °C 89 % 1018,0 hPa 0,0 mm 2,2 km/h (1 Bft) S 175 ° 0 min 0,000 mm 0,0 UV-I 0 W/m² -0,3 °C 1,3 °C 3,2 km/h (1 Bft)
26.03.2017 03:51 1,3 °C 1,3 °C 89 % 1018,0 hPa 0,0 mm 1,5 km/h (1 Bft) S 175 ° 0 min 0,000 mm 0,0 UV-I 0 W/m² -0,3 °C 1,3 °C 3,2 km/h (1 Bft)
26.03.2017 03:52 1,3 °C 1,3 °C 89 % 1017,9 hPa 0,0 mm 3,1 km/h (1 Bft) S 175 ° 0 min 0,000 mm 0,0 UV-I 0 W/m² -0,3 °C 1,3 °C 3,2 km/h (1 Bft)
26.03.2017 03:53 1,3 °C 1,3 °C 89 % 1018,0 hPa 0,0 mm 2,0 km/h (1 Bft) S 175 ° 0 min 0,000 mm 0,0 UV-I 0 W/m² -0,3 °C 1,3 °C 3,2 km/h (1 Bft)
26.03.2017 03:54 1,3 °C 1,4 °C 89 % 1017,9 hPa 0,0 mm 1,9 km/h (1 Bft) S 175 ° 0 min 0,000 mm 0,0 UV-I 0 W/m² -0,3 °C 1,3 °C 3,2 km/h (1 Bft)
26.03.2017 03:55 1,3 °C 1,4 °C 89 % 1018,0 hPa 0,0 mm 0,4 km/h (0 Bft) S 175 ° 0 min 0,000 mm 0,0 UV-I 0 W/m² -0,3 °C 1,3 °C 1,6 km/h (1 Bft)
26.03.2017 03:56 1,3 °C 1,3 °C 89 % 1018,0 hPa 0,0 mm 0,0 km/h (0 Bft) S 175 ° 0 min 0,000 mm 0,0 UV-I 0 W/m² -0,3 °C 1,3 °C 0,0 km/h (0 Bft)
26.03.2017 03:57 1,3 °C 1,3 °C 89 % 1018,0 hPa 0,0 mm 0,0 km/h (0 Bft) S 175 ° 0 min 0,000 mm 0,0 UV-I 0 W/m² -0,3 °C 1,3 °C 0,0 km/h (0 Bft)
26.03.2017 03:58 1,3 °C 1,3 °C 89 % 1018,0 hPa 0,0 mm 0,1 km/h (0 Bft) S 175 ° 0 min 0,000 mm 0,0 UV-I 0 W/m² -0,3 °C 1,3 °C 1,6 km/h (1 Bft)
26.03.2017 03:59 1,3 °C 1,3 °C 89 % 1018,0 hPa 0,0 mm 0,7 km/h (0 Bft) S 175 ° 0 min 0,000 mm 0,0 UV-I 0 W/m² -0,3 °C 1,3 °C 1,6 km/h (1 Bft)
26.03.2017 04:00 1,3 °C 1,3 °C 89 % 1018,1 hPa 0,0 mm 0,5 km/h (0 Bft) S 175 ° 0 min 0,000 mm 0,0 UV-I 0 W/m² -0,3 °C 1,3 °C 1,6 km/h (1 Bft)
26.03.2017 04:01 1,3 °C 1,3 °C 89 % 1018,1 hPa 0,0 mm 0,0 km/h (0 Bft) S 175 ° 0 min 0,000 mm 0,0 UV-I 0 W/m² -0,3 °C 1,3 °C 0,0 km/h (0 Bft)
26.03.2017 04:02 1,2 °C 1,3 °C 89 % 1018,1 hPa 0,0 mm 0,4 km/h (0 Bft) S 175 ° 0 min 0,000 mm 0,0 UV-I 0 W/m² -0,4 °C 1,2 °C 1,6 km/h (1 Bft)
26.03.2017 04:03 1,1 °C 1,2 °C 89 % 1018,0 hPa 0,0 mm 0,6 km/h (0 Bft) S 175 ° 0 min 0,000 mm 0,0 UV-I 0 W/m² -0,5 °C 1,1 °C 1,6 km/h (1 Bft)
26.03.2017 04:04 0,8 °C 1,1 °C 87 % 1018,0 hPa 0,0 mm 0,1 km/h (0 Bft) S 175 ° 0 min 0,000 mm 0,0 UV-I 0 W/m² -1,1 °C 0,8 °C 1,6 km/h (1 Bft)
26.03.2017 04:05 0,6 °C 0,8 °C 87 % 1018,0 hPa 0,0 mm 0,0 km/h (0 Bft) S 175 ° 0 min 0,000 mm 0,0 UV-I 0 W/m² -1,3 °C 0,6 °C 0,0 km/h (0 Bft)
26.03.2017 04:06 0,3 °C 0,6 °C 88 % 1018,0 hPa 0,0 mm 1,3 km/h (1 Bft) S 175 ° 0 min 0,000 mm 0,0 UV-I 0 W/m² -1,4 °C 0,3 °C 3,2 km/h (1 Bft)
26.03.2017 04:07 0,3 °C 0,3 °C 90 % 1017,9 hPa 0,0 mm 2,5 km/h (1 Bft) S 175 ° 0 min 0,000 mm 0,0 UV-I 0 W/m² -1,1 °C 0,3 °C 3,2 km/h (1 Bft)
26.03.2017 04:08 0,4 °C 0,4 °C 91 % 1018,0 hPa 0,0 mm 2,6 km/h (1 Bft) S 175 ° 0 min 0,000 mm 0,0 UV-I 0 W/m² -0,9 °C 0,4 °C 3,2 km/h (1 Bft)
26.03.2017 04:09 0,5 °C 0,5 °C 91 % 1017,9 hPa 0,0 mm 1,8 km/h (1 Bft) S 175 ° 0 min 0,000 mm 0,0 UV-I 0 W/m² -0,8 °C 0,5 °C 3,2 km/h (1 Bft)
26.03.2017 04:10 0,6 °C 0,6 °C 91 % 1017,9 hPa 0,0 mm 1,1 km/h (1 Bft) S 175 ° 0 min 0,000 mm 0,0 UV-I 0 W/m² -0,7 °C 0,6 °C 1,6 km/h (1 Bft)
26.03.2017 04:11 0,7 °C 0,7 °C 91 % 1018,0 hPa 0,0 mm 1,0 km/h (0 Bft) S 175 ° 0 min 0,000 mm 0,0 UV-I 0 W/m² -0,6 °C 0,7 °C 1,6 km/h (1 Bft)
26.03.2017 04:12 0,6 °C 0,7 °C 90 % 1018,0 hPa 0,0 mm 0,0 km/h (0 Bft) S 175 ° 0 min 0,000 mm 0,0 UV-I 0 W/m² -0,8 °C 0,6 °C 0,0 km/h (0 Bft)
26.03.2017 04:13 0,6 °C 0,6 °C 90 % 1018,1 hPa 0,0 mm 0,0 km/h (0 Bft) S 175 ° 0 min 0,000 mm 0,0 UV-I 0 W/m² -0,8 °C 0,6 °C 0,0 km/h (0 Bft)
26.03.2017 04:14 0,4 °C 0,6 °C 90 % 1018,1 hPa 0,0 mm 0,4 km/h (0 Bft) S 174 ° 0 min 0,000 mm 0,0 UV-I 0 W/m² -1,0 °C 0,4 °C 1,6 km/h (1 Bft)
26.03.2017 04:15 0,2 °C 0,4 °C 90 % 1018,1 hPa 0,0 mm 0,6 km/h (0 Bft) S 174 ° 0 min 0,000 mm 0,0 UV-I 0 W/m² -1,2 °C 0,2 °C 1,6 km/h (1 Bft)
26.03.2017 04:16 0,2 °C 0,2 °C 90 % 1018,2 hPa 0,0 mm 0,1 km/h (0 Bft) S 174 ° 0 min 0,000 mm 0,0 UV-I 0 W/m² -1,2 °C 0,2 °C 1,6 km/h (1 Bft)
26.03.2017 04:17 0,1 °C 0,2 °C 90 % 1018,2 hPa 0,0 mm 0,0 km/h (0 Bft) S 174 ° 0 min 0,000 mm 0,0 UV-I 0 W/m² -1,3 °C 0,1 °C 0,0 km/h (0 Bft)
26.03.2017 04:18 0,0 °C 0,1 °C 90 % 1018,2 hPa 0,0 mm 0,0 km/h (0 Bft) S 174 ° 0 min 0,000 mm 0,0 UV-I 0 W/m² -1,4 °C 0,0 °C 0,0 km/h (0 Bft)
26.03.2017 04:19 -0,1 °C 0,0 °C 90 % 1018,2 hPa 0,0 mm 0,0 km/h (0 Bft) S 174 ° 0 min 0,000 mm 0,0 UV-I 0 W/m² -1,5 °C -0,1 °C 0,0 km/h (0 Bft)
26.03.2017 04:20 -0,2 °C -0,1 °C 90 % 1018,2 hPa 0,0 mm 0,0 km/h (0 Bft) S 174 ° 0 min 0,000 mm 0,0 UV-I 0 W/m² -1,6 °C -0,2 °C 0,0 km/h (0 Bft)
26.03.2017 04:21 -0,2 °C -0,2 °C 91 % 1018,2 hPa 0,0 mm 0,2 km/h (0 Bft) S 174 ° 0 min 0,000 mm 0,0 UV-I 0 W/m² -1,5 °C -0,2 °C 1,6 km/h (1 Bft)
26.03.2017 04:22 -0,1 °C -0,1 °C 91 % 1018,2 hPa 0,0 mm 0,9 km/h (0 Bft) S 174 ° 0 min 0,000 mm 0,0 UV-I 0 W/m² -1,4 °C -0,1 °C 1,6 km/h (1 Bft)
26.03.2017 04:23 0,1 °C 0,1 °C 92 % 1018,2 hPa 0,0 mm 1,7 km/h (1 Bft) S 174 ° 0 min 0,000 mm 0,0 UV-I 0 W/m² -1,0 °C 0,1 °C 3,2 km/h (1 Bft)
26.03.2017 04:24 0,2 °C 0,2 °C 92 % 1018,2 hPa 0,0 mm 1,5 km/h (1 Bft) S 174 ° 0 min 0,000 mm 0,0 UV-I 0 W/m² -0,9 °C 0,2 °C 3,2 km/h (1 Bft)
26.03.2017 04:25 0,4 °C 0,4 °C 92 % 1018,1 hPa 0,0 mm 1,2 km/h (1 Bft) S 174 ° 0 min 0,000 mm 0,0 UV-I 0 W/m² -0,7 °C 0,4 °C 1,6 km/h (1 Bft)
26.03.2017 04:26 0,6 °C 0,6 °C 92 % 1018,1 hPa 0,0 mm 0,3 km/h (0 Bft) S 174 ° 0 min 0,000 mm 0,0 UV-I 0 W/m² -0,5 °C 0,6 °C 1,6 km/h (1 Bft)
26.03.2017 04:27 0,6 °C 0,6 °C 92 % 1018,1 hPa 0,0 mm 0,7 km/h (0 Bft) S 174 ° 0 min 0,000 mm 0,0 UV-I 0 W/m² -0,5 °C 0,6 °C 1,6 km/h (1 Bft)
26.03.2017 04:28 0,7 °C 0,7 °C 92 % 1018,1 hPa 0,0 mm 2,9 km/h (1 Bft) S 174 ° 0 min 0,000 mm 0,0 UV-I 0 W/m² -0,4 °C 0,7 °C 4,8 km/h (1 Bft)
26.03.2017 04:29 0,8 °C 0,8 °C 91 % 1018,1 hPa 0,0 mm 3,3 km/h (1 Bft) S 174 ° 0 min 0,000 mm 0,0 UV-I 0 W/m² -0,5 °C 0,8 °C 4,8 km/h (1 Bft)
26.03.2017 04:30 0,8 °C 0,8 °C 91 % 1018,1 hPa 0,0 mm 3,3 km/h (1 Bft) S 174 ° 0 min 0,000 mm 0,0 UV-I 0 W/m² -0,5 °C 0,8 °C 4,8 km/h (1 Bft)
26.03.2017 04:31 0,8 °C 0,8 °C 90 % 1018,1 hPa 0,0 mm 1,8 km/h (1 Bft) S 174 ° 0 min 0,000 mm 0,0 UV-I 0 W/m² -0,6 °C 0,8 °C 3,2 km/h (1 Bft)
26.03.2017 04:32 0,9 °C 0,9 °C 91 % 1018,1 hPa 0,0 mm 1,5 km/h (1 Bft) S 174 ° 0 min 0,000 mm 0,0 UV-I 0 W/m² -0,4 °C 0,9 °C 3,2 km/h (1 Bft)
26.03.2017 04:33 0,9 °C 0,9 °C 90 % 1018,0 hPa 0,0 mm 1,2 km/h (1 Bft) S 174 ° 0 min 0,000 mm 0,0 UV-I 0 W/m² -0,6 °C 0,9 °C 3,2 km/h (1 Bft)
26.03.2017 04:34 0,9 °C 0,9 °C 90 % 1018,0 hPa 0,0 mm 0,0 km/h (0 Bft) S 174 ° 0 min 0,000 mm 0,0 UV-I 0 W/m² -0,6 °C 0,9 °C 0,0 km/h (0 Bft)
26.03.2017 04:35 0,8 °C 0,9 °C 90 % 1018,0 hPa 0,0 mm 0,0 km/h (0 Bft) S 174 ° 0 min 0,000 mm 0,0 UV-I 0 W/m² -0,6 °C 0,8 °C 0,0 km/h (0 Bft)
26.03.2017 04:36 0,7 °C 0,8 °C 89 % 1018,0 hPa 0,0 mm 0,0 km/h (0 Bft) S 174 ° 0 min 0,000 mm 0,0 UV-I 0 W/m² -0,9 °C 0,7 °C 0,0 km/h (0 Bft)
26.03.2017 04:37 0,5 °C 0,7 °C 88 % 1018,0 hPa 0,0 mm 0,0 km/h (0 Bft) S 174 ° 0 min 0,000 mm 0,0 UV-I 0 W/m² -1,3 °C 0,5 °C 0,0 km/h (0 Bft)
26.03.2017 04:38 0,3 °C 0,5 °C 89 % 1018,0 hPa 0,0 mm 0,0 km/h (0 Bft) S 174 ° 0 min 0,000 mm 0,0 UV-I 0 W/m² -1,3 °C 0,3 °C 0,0 km/h (0 Bft)
26.03.2017 04:39 0,2 °C 0,3 °C 89 % 1018,0 hPa 0,0 mm 0,0 km/h (0 Bft) S 174 ° 0 min 0,000 mm 0,0 UV-I 0 W/m² -1,4 °C 0,2 °C 0,0 km/h (0 Bft)
26.03.2017 04:40 0,1 °C 0,2 °C 90 % 1017,9 hPa 0,0 mm 0,0 km/h (0 Bft) S 174 ° 0 min 0,000 mm 0,0 UV-I 0 W/m² -1,3 °C 0,1 °C 0,0 km/h (0 Bft)
26.03.2017 04:41 0,1 °C 0,1 °C 91 % 1018,0 hPa 0,0 mm 0,0 km/h (0 Bft) S 174 ° 0 min 0,000 mm 0,0 UV-I 0 W/m² -1,2 °C 0,1 °C 0,0 km/h (0 Bft)
26.03.2017 04:42 0,0 °C 0,1 °C 91 % 1018,0 hPa 0,0 mm 0,9 km/h (0 Bft) S 174 ° 0 min 0,000 mm 0,0 UV-I 0 W/m² -1,3 °C 0,0 °C 1,6 km/h (1 Bft)
26.03.2017 04:43 -0,1 °C 0,0 °C 90 % 1017,9 hPa 0,0 mm 0,4 km/h (0 Bft) S 174 ° 0 min 0,000 mm 0,0 UV-I 0 W/m² -1,5 °C -0,1 °C 1,6 km/h (1 Bft)
26.03.2017 04:44 -0,2 °C -0,1 °C 91 % 1017,9 hPa 0,0 mm 0,6 km/h (0 Bft) S 174 ° 0 min 0,000 mm 0,0 UV-I 0 W/m² -1,5 °C -0,2 °C 1,6 km/h (1 Bft)
26.03.2017 04:45 -0,2 °C -0,2 °C 91 % 1017,9 hPa 0,0 mm 0,7 km/h (0 Bft) S 174 ° 0 min 0,000 mm 0,0 UV-I 0 W/m² -1,5 °C -0,2 °C 1,6 km/h (1 Bft)
26.03.2017 04:46 -0,2 °C -0,2 °C 91 % 1017,9 hPa 0,0 mm 0,4 km/h (0 Bft) S 174 ° 0 min 0,000 mm 0,0 UV-I 0 W/m² -1,5 °C -0,2 °C 1,6 km/h (1 Bft)
26.03.2017 04:47 -0,3 °C -0,2 °C 91 % 1017,9 hPa 0,0 mm 0,2 km/h (0 Bft) S 174 ° 0 min 0,000 mm 0,0 UV-I 0 W/m² -1,6 °C -0,3 °C 1,6 km/h (1 Bft)
26.03.2017 04:48 -0,3 °C -0,3 °C 91 % 1017,9 hPa 0,0 mm 0,0 km/h (0 Bft) S 174 ° 0 min 0,000 mm 0,0 UV-I 0 W/m² -1,6 °C -0,3 °C 0,0 km/h (0 Bft)
26.03.2017 04:49 -0,4 °C -0,3 °C 91 % 1017,9 hPa 0,0 mm 0,0 km/h (0 Bft) S 174 ° 0 min 0,000 mm 0,0 UV-I 0 W/m² -1,7 °C -0,4 °C 0,0 km/h (0 Bft)
26.03.2017 04:50 -0,4 °C -0,4 °C 91 % 1017,9 hPa 0,0 mm 0,1 km/h (0 Bft) S 174 ° 0 min 0,000 mm 0,0 UV-I 0 W/m² -1,7 °C -0,4 °C 1,6 km/h (1 Bft)
26.03.2017 04:51 -0,4 °C -0,4 °C 91 % 1017,9 hPa 0,0 mm 0,0 km/h (0 Bft) S 174 ° 0 min 0,000 mm 0,0 UV-I 0 W/m² -1,7 °C -0,4 °C 0,0 km/h (0 Bft)
26.03.2017 04:52 -0,4 °C -0,4 °C 92 % 1017,8 hPa 0,0 mm 0,1 km/h (0 Bft) S 174 ° 0 min 0,000 mm 0,0 UV-I 0 W/m² -1,5 °C -0,4 °C 1,6 km/h (1 Bft)
26.03.2017 04:53 -0,4 °C -0,4 °C 91 % 1017,8 hPa 0,0 mm 0,7 km/h (0 Bft) S 174 ° 0 min 0,000 mm 0,0 UV-I 0 W/m² -1,7 °C -0,4 °C 1,6 km/h (1 Bft)
26.03.2017 04:54 -0,4 °C -0,4 °C 92 % 1017,7 hPa 0,0 mm 0,1 km/h (0 Bft) S 174 ° 0 min 0,000 mm 0,0 UV-I 0 W/m² -1,5 °C -0,4 °C 1,6 km/h (1 Bft)
26.03.2017 04:55 -0,2 °C -0,2 °C 92 % 1017,8 hPa 0,0 mm 0,0 km/h (0 Bft) S 174 ° 0 min 0,000 mm 0,0 UV-I 0 W/m² -1,3 °C -0,2 °C 0,0 km/h (0 Bft)
26.03.2017 04:56 0,0 °C 0,0 °C 93 % 1017,8 hPa 0,0 mm 0,0 km/h (0 Bft) S 174 ° 0 min 0,000 mm 0,0 UV-I 0 W/m² -1,0 °C 0,0 °C 0,0 km/h (0 Bft)
26.03.2017 04:57 0,2 °C 0,2 °C 93 % 1017,7 hPa 0,0 mm 0,0 km/h (0 Bft) S 174 ° 0 min 0,000 mm 0,0 UV-I 0 W/m² -0,8 °C 0,2 °C 0,0 km/h (0 Bft)
26.03.2017 04:58 0,2 °C 0,3 °C 92 % 1017,7 hPa 0,0 mm 0,0 km/h (0 Bft) S 174 ° 0 min 0,000 mm 0,0 UV-I 0 W/m² -0,9 °C 0,2 °C 0,0 km/h (0 Bft)
26.03.2017 04:59 0,1 °C 0,2 °C 91 % 1017,7 hPa 0,0 mm 0,1 km/h (0 Bft) S 174 ° 0 min 0,000 mm 0,0 UV-I 0 W/m² -1,2 °C 0,1 °C 1,6 km/h (1 Bft)
26.03.2017 05:00 -0,1 °C 0,1 °C 90 % 1017,7 hPa 0,0 mm 1,2 km/h (1 Bft) S 174 ° 0 min 0,000 mm 0,0 UV-I 0 W/m² -1,5 °C -0,1 °C 1,6 km/h (1 Bft)
26.03.2017 05:01 -0,3 °C -0,1 °C 90 % 1017,7 hPa 0,0 mm 0,8 km/h (0 Bft) S 174 ° 0 min 0,000 mm 0,0 UV-I 0 W/m² -1,7 °C -0,3 °C 1,6 km/h (1 Bft)
26.03.2017 05:02 -0,4 °C -0,3 °C 90 % 1017,8 hPa 0,0 mm 0,1 km/h (0 Bft) S 174 ° 0 min 0,000 mm 0,0 UV-I 0 W/m² -1,8 °C -0,4 °C 1,6 km/h (1 Bft)
26.03.2017 05:03 -0,5 °C -0,4 °C 91 % 1017,8 hPa 0,0 mm 0,0 km/h (0 Bft) S 174 ° 0 min 0,000 mm 0,0 UV-I 0 W/m² -1,8 °C -0,5 °C 0,0 km/h (0 Bft)
26.03.2017 05:04 -0,6 °C -0,5 °C 91 % 1017,7 hPa 0,0 mm 1,0 km/h (0 Bft) S 174 ° 0 min 0,000 mm 0,0 UV-I 0 W/m² -1,9 °C -0,6 °C 1,6 km/h (1 Bft)
26.03.2017 05:05 -0,5 °C -0,5 °C 92 % 1017,8 hPa 0,0 mm 0,9 km/h (0 Bft) S 174 ° 0 min 0,000 mm 0,0 UV-I 0 W/m² -1,6 °C -0,5 °C 1,6 km/h (1 Bft)
26.03.2017 05:06 -0,4 °C -0,4 °C 92 % 1017,8 hPa 0,0 mm 0,7 km/h (0 Bft) S 174 ° 0 min 0,000 mm 0,0 UV-I 0 W/m² -1,5 °C -0,4 °C 1,6 km/h (1 Bft)
26.03.2017 05:07 -0,3 °C -0,3 °C 93 % 1017,8 hPa 0,0 mm 1,1 km/h (1 Bft) S 174 ° 0 min 0,000 mm 0,0 UV-I 0 W/m² -1,3 °C -0,3 °C 1,6 km/h (1 Bft)
26.03.2017 05:08 -0,1 °C -0,1 °C 93 % 1017,8 hPa 0,0 mm 0,3 km/h (0 Bft) S 174 ° 0 min 0,000 mm 0,0 UV-I 0 W/m² -1,1 °C -0,1 °C 1,6 km/h (1 Bft)
26.03.2017 05:09 0,1 °C 0,1 °C 93 % 1017,8 hPa 0,0 mm 0,4 km/h (0 Bft) S 174 ° 0 min 0,000 mm 0,0 UV-I 0 W/m² -0,9 °C 0,1 °C 1,6 km/h (1 Bft)
26.03.2017 05:10 0,1 °C 0,1 °C 93 % 1017,7 hPa 0,0 mm 0,4 km/h (0 Bft) S 174 ° 0 min 0,000 mm 0,0 UV-I 0 W/m² -0,9 °C 0,1 °C 1,6 km/h (1 Bft)
26.03.2017 05:11 0,2 °C 0,2 °C 93 % 1017,8 hPa 0,0 mm 0,0 km/h (0 Bft) S 174 ° 0 min 0,000 mm 0,0 UV-I 0 W/m² -0,8 °C 0,2 °C 0,0 km/h (0 Bft)
26.03.2017 05:12 0,1 °C 0,2 °C 92 % 1017,7 hPa 0,0 mm 0,1 km/h (0 Bft) S 174 ° 0 min 0,000 mm 0,0 UV-I 0 W/m² -1,0 °C 0,1 °C 1,6 km/h (1 Bft)
26.03.2017 05:13 0,1 °C 0,1 °C 91 % 1017,7 hPa 0,0 mm 0,0 km/h (0 Bft) S 174 ° 0 min 0,000 mm 0,0 UV-I 0 W/m² -1,2 °C 0,1 °C 0,0 km/h (0 Bft)
26.03.2017 05:14 -0,1 °C 0,1 °C 91 % 1017,8 hPa 0,0 mm 0,0 km/h (0 Bft) S 174 ° 0 min 0,000 mm 0,0 UV-I 0 W/m² -1,4 °C -0,1 °C 0,0 km/h (0 Bft)
26.03.2017 05:15 -0,2 °C -0,1 °C 91 % 1017,7 hPa 0,0 mm 0,0 km/h (0 Bft) S 174 ° 0 min 0,000 mm 0,0 UV-I 0 W/m² -1,5 °C -0,2 °C 0,0 km/h (0 Bft)
26.03.2017 05:16 -0,3 °C -0,2 °C 91 % 1017,7 hPa 0,0 mm 0,0 km/h (0 Bft) S 174 ° 0 min 0,000 mm 0,0 UV-I 0 W/m² -1,6 °C -0,3 °C 0,0 km/h (0 Bft)
26.03.2017 05:17 -0,3 °C -0,3 °C 91 % 1017,6 hPa 0,0 mm 0,0 km/h (0 Bft) S 174 ° 0 min 0,000 mm 0,0 UV-I 0 W/m² -1,6 °C -0,3 °C 0,0 km/h (0 Bft)
26.03.2017 05:18 -0,4 °C -0,3 °C 91 % 1017,7 hPa 0,0 mm 0,0 km/h (0 Bft) S 174 ° 0 min 0,000 mm 0,0 UV-I 0 W/m² -1,7 °C -0,4 °C 0,0 km/h (0 Bft)
26.03.2017 05:19 -0,5 °C -0,4 °C 91 % 1017,7 hPa 0,0 mm 0,0 km/h (0 Bft) S 174 ° 0 min 0,000 mm 0,0 UV-I 0 W/m² -1,8 °C -0,5 °C 0,0 km/h (0 Bft)
26.03.2017 05:20 -0,4 °C -0,4 °C 91 % 1017,7 hPa 0,0 mm 0,0 km/h (0 Bft) S 174 ° 0 min 0,000 mm 0,0 UV-I 0 W/m² -1,7 °C -0,4 °C 0,0 km/h (0 Bft)
26.03.2017 05:21 -0,5 °C -0,4 °C 92 % 1017,7 hPa 0,0 mm 0,0 km/h (0 Bft) S 174 ° 0 min 0,000 mm 0,0 UV-I 0 W/m² -1,6 °C -0,5 °C 0,0 km/h (0 Bft)
26.03.2017 05:22 -0,5 °C -0,5 °C 92 % 1017,7 hPa 0,0 mm 0,0 km/h (0 Bft) S 174 ° 0 min 0,000 mm 0,0 UV-I 0 W/m² -1,6 °C -0,5 °C 0,0 km/h (0 Bft)
26.03.2017 05:23 -0,6 °C -0,5 °C 91 % 1017,7 hPa 0,0 mm 0,0 km/h (0 Bft) S 174 ° 0 min 0,000 mm 0,0 UV-I 0 W/m² -1,9 °C -0,6 °C 0,0 km/h (0 Bft)
26.03.2017 05:24 -0,7 °C -0,6 °C 91 % 1017,7 hPa 0,0 mm 0,0 km/h (0 Bft) S 174 ° 0 min 0,000 mm 0,0 UV-I 0 W/m² -2,0 °C -0,7 °C 0,0 km/h (0 Bft)
26.03.2017 05:25 -0,7 °C -0,7 °C 91 % 1017,7 hPa 0,0 mm 0,0 km/h (0 Bft) S 174 ° 0 min 0,000 mm 0,0 UV-I 0 W/m² -2,0 °C -0,7 °C 0,0 km/h (0 Bft)
26.03.2017 05:26 -0,8 °C -0,7 °C 92 % 1017,7 hPa 0,0 mm 0,8 km/h (0 Bft) S 174 ° 0 min 0,000 mm 0,0 UV-I 0 W/m² -1,9 °C -0,8 °C 3,2 km/h (1 Bft)
26.03.2017 05:27 -0,9 °C -0,8 °C 91 % 1017,8 hPa 0,0 mm 2,0 km/h (1 Bft) S 174 ° 0 min 0,000 mm 0,0 UV-I 0 W/m² -2,2 °C -0,9 °C 3,2 km/h (1 Bft)
26.03.2017 05:28 -0,9 °C -0,9 °C 91 % 1017,8 hPa 0,0 mm 0,7 km/h (0 Bft) S 174 ° 0 min 0,000 mm 0,0 UV-I 0 W/m² -2,2 °C -0,9 °C 1,6 km/h (1 Bft)
26.03.2017 05:29 -1,0 °C -0,9 °C 92 % 1017,7 hPa 0,0 mm 0,0 km/h (0 Bft) S 174 ° 0 min 0,000 mm 0,0 UV-I 0 W/m² -2,1 °C -1,0 °C 0,0 km/h (0 Bft)
26.03.2017 05:30 -1,1 °C -1,0 °C 92 % 1017,8 hPa 0,0 mm 0,0 km/h (0 Bft) S 174 ° 0 min 0,000 mm 0,0 UV-I 0 W/m² -2,2 °C -1,1 °C 0,0 km/h (0 Bft)
26.03.2017 05:31 -1,1 °C -1,1 °C 92 % 1017,8 hPa 0,0 mm 1,0 km/h (0 Bft) S 174 ° 0 min 0,000 mm 0,0 UV-I 0 W/m² -2,2 °C -1,1 °C 3,2 km/h (1 Bft)
26.03.2017 05:32 -1,1 °C -1,1 °C 92 % 1017,8 hPa 0,0 mm 2,4 km/h (1 Bft) S 174 ° 0 min 0,000 mm 0,0 UV-I 0 W/m² -2,2 °C -1,1 °C 3,2 km/h (1 Bft)
26.03.2017 05:33 -0,9 °C -0,9 °C 92 % 1017,8 hPa 0,0 mm 1,2 km/h (1 Bft) S 174 ° 0 min 0,000 mm 0,0 UV-I 0 W/m² -2,0 °C -0,9 °C 3,2 km/h (1 Bft)
26.03.2017 05:34 -0,8 °C -0,8 °C 93 % 1017,8 hPa 0,0 mm 0,3 km/h (0 Bft) S 174 ° 0 min 0,000 mm 0,0 UV-I 0 W/m² -1,8 °C -0,8 °C 1,6 km/h (1 Bft)
26.03.2017 05:35 -0,8 °C -0,7 °C 93 % 1017,8 hPa 0,0 mm 0,8 km/h (0 Bft) S 174 ° 0 min 0,000 mm 0,0 UV-I 0 W/m² -1,8 °C -0,8 °C 1,6 km/h (1 Bft)
26.03.2017 05:36 -0,8 °C -0,8 °C 93 % 1017,8 hPa 0,0 mm 0,0 km/h (0 Bft) S 174 ° 0 min 0,000 mm 0,0 UV-I 0 W/m² -1,8 °C -0,8 °C 0,0 km/h (0 Bft)
26.03.2017 05:37 -0,9 °C -0,8 °C 93 % 1017,8 hPa 0,0 mm 0,0 km/h (0 Bft) S 174 ° 0 min 0,000 mm 0,0 UV-I 0 W/m² -1,9 °C -0,9 °C 0,0 km/h (0 Bft)
26.03.2017 05:38 -0,9 °C -0,9 °C 92 % 1017,8 hPa 0,0 mm 0,1 km/h (0 Bft) S 174 ° 0 min 0,000 mm 0,0 UV-I 0 W/m² -2,0 °C -0,9 °C 1,6 km/h (1 Bft)
26.03.2017 05:39 -0,9 °C -0,9 °C 93 % 1017,8 hPa 0,0 mm 0,5 km/h (0 Bft) S 174 ° 0 min 0,000 mm 0,0 UV-I 0 W/m² -1,9 °C -0,9 °C 1,6 km/h (1 Bft)
26.03.2017 05:40 -0,9 °C -0,9 °C 93 % 1017,8 hPa 0,0 mm 0,0 km/h (0 Bft) S 174 ° 0 min 0,000 mm 0,0 UV-I 0 W/m² -1,9 °C -0,9 °C 0,0 km/h (0 Bft)
26.03.2017 05:41 -0,9 °C -0,8 °C 93 % 1017,9 hPa 0,0 mm 0,1 km/h (0 Bft) S 174 ° 0 min 0,000 mm 0,0 UV-I 0 W/m² -1,9 °C -0,9 °C 1,6 km/h (1 Bft)
26.03.2017 05:42 -0,8 °C -0,8 °C 93 % 1017,9 hPa 0,0 mm 0,0 km/h (0 Bft) S 174 ° 0 min 0,000 mm 0,0 UV-I 0 W/m² -1,8 °C -0,8 °C 0,0 km/h (0 Bft)
26.03.2017 05:43 -0,8 °C -0,8 °C 93 % 1017,9 hPa 0,0 mm 0,0 km/h (0 Bft) S 174 ° 0 min 0,000 mm 0,0 UV-I 0 W/m² -1,8 °C -0,8 °C 0,0 km/h (0 Bft)
26.03.2017 05:44 -0,8 °C -0,8 °C 93 % 1017,9 hPa 0,0 mm 0,0 km/h (0 Bft) S 174 ° 0 min 0,000 mm 0,0 UV-I 0 W/m² -1,8 °C -0,8 °C 0,0 km/h (0 Bft)
26.03.2017 05:45 -0,8 °C -0,8 °C 93 % 1018,0 hPa 0,0 mm 0,0 km/h (0 Bft) S 174 ° 0 min 0,000 mm 0,0 UV-I 0 W/m² -1,8 °C -0,8 °C 0,0 km/h (0 Bft)
26.03.2017 05:46 -0,8 °C -0,8 °C 93 % 1018,0 hPa 0,0 mm 0,0 km/h (0 Bft) S 174 ° 0 min 0,000 mm 0,0 UV-I 0 W/m² -1,8 °C -0,8 °C 0,0 km/h (0 Bft)
26.03.2017 05:47 -0,8 °C -0,8 °C 93 % 1018,0 hPa 0,0 mm 0,0 km/h (0 Bft) S 174 ° 0 min 0,000 mm 0,0 UV-I 0 W/m² -1,8 °C -0,8 °C 0,0 km/h (0 Bft)
26.03.2017 05:48 -0,9 °C -0,8 °C 93 % 1018,0 hPa 0,0 mm 0,0 km/h (0 Bft) S 174 ° 0 min 0,000 mm 0,0 UV-I 0 W/m² -1,9 °C -0,9 °C 0,0 km/h (0 Bft)
26.03.2017 05:49 -0,9 °C -0,9 °C 93 % 1018,0 hPa 0,0 mm 0,0 km/h (0 Bft) S 174 ° 0 min 0,000 mm 0,0 UV-I 0 W/m² -1,9 °C -0,9 °C 0,0 km/h (0 Bft)
26.03.2017 05:50 -0,9 °C -0,9 °C 93 % 1018,0 hPa 0,0 mm 0,0 km/h (0 Bft) S 174 ° 0 min 0,000 mm 0,0 UV-I 0 W/m² -1,9 °C -0,9 °C 0,0 km/h (0 Bft)
26.03.2017 05:51 -0,9 °C -0,9 °C 93 % 1018,0 hPa 0,0 mm 0,5 km/h (0 Bft) S 174 ° 0 min 0,000 mm 0,0 UV-I 0 W/m² -1,9 °C -0,9 °C 1,6 km/h (1 Bft)
26.03.2017 05:52 -0,8 °C -0,8 °C 93 % 1018,0 hPa 0,0 mm 0,3 km/h (0 Bft) S 174 ° 0 min 0,000 mm 0,0 UV-I 0 W/m² -1,8 °C -0,8 °C 1,6 km/h (1 Bft)
26.03.2017 05:53 -0,8 °C -0,8 °C 93 % 1018,0 hPa 0,0 mm 0,0 km/h (0 Bft) S 174 ° 0 min 0,000 mm 0,0 UV-I 0 W/m² -1,8 °C -0,8 °C 0,0 km/h (0 Bft)
26.03.2017 05:54 -0,8 °C -0,8 °C 93 % 1018,0 hPa 0,0 mm 0,0 km/h (0 Bft) S 174 ° 0 min 0,000 mm 0,0 UV-I 0 W/m² -1,8 °C -0,8 °C 0,0 km/h (0 Bft)
26.03.2017 05:55 -0,8 °C -0,7 °C 93 % 1017,9 hPa 0,0 mm 0,0 km/h (0 Bft) S 174 ° 0 min 0,000 mm 0,0 UV-I 0 W/m² -1,8 °C -0,8 °C 0,0 km/h (0 Bft)
26.03.2017 05:56 -0,7 °C -0,7 °C 93 % 1017,9 hPa 0,0 mm 0,2 km/h (0 Bft) S 174 ° 0 min 0,000 mm 0,0 UV-I 0 W/m² -1,7 °C -0,7 °C 1,6 km/h (1 Bft)
26.03.2017 05:57 -0,7 °C -0,7 °C 93 % 1017,9 hPa 0,0 mm 0,0 km/h (0 Bft) S 174 ° 0 min 0,000 mm 0,0 UV-I 0 W/m² -1,7 °C -0,7 °C 0,0 km/h (0 Bft)
26.03.2017 05:58 -0,7 °C -0,7 °C 93 % 1017,9 hPa 0,0 mm 0,0 km/h (0 Bft) S 174 ° 0 min 0,000 mm 0,0 UV-I 0 W/m² -1,7 °C -0,7 °C 0,0 km/h (0 Bft)
26.03.2017 05:59 -0,7 °C -0,7 °C 93 % 1017,9 hPa 0,0 mm 0,0 km/h (0 Bft) S 174 ° 0 min 0,000 mm 0,0 UV-I 0 W/m² -1,7 °C -0,7 °C 0,0 km/h (0 Bft)
26.03.2017 06:00 -0,7 °C -0,7 °C 93 % 1017,9 hPa 0,0 mm 0,0 km/h (0 Bft) S 174 ° 0 min 0,000 mm 0,0 UV-I 0 W/m² -1,7 °C -0,7 °C 0,0 km/h (0 Bft)
26.03.2017 06:01 -0,8 °C -0,7 °C 93 % 1017,9 hPa 0,0 mm 0,0 km/h (0 Bft) S 174 ° 0 min 0,000 mm 0,0 UV-I 0 W/m² -1,8 °C -0,8 °C 0,0 km/h (0 Bft)
26.03.2017 06:02 -0,8 °C -0,8 °C 93 % 1017,9 hPa 0,0 mm 0,1 km/h (0 Bft) S 174 ° 0 min 0,000 mm 0,0 UV-I 0 W/m² -1,8 °C -0,8 °C 1,6 km/h (1 Bft)
26.03.2017 06:03 -0,9 °C -0,8 °C 93 % 1018,0 hPa 0,0 mm 0,1 km/h (0 Bft) S 174 ° 0 min 0,000 mm 0,0 UV-I 0 W/m² -1,9 °C -0,9 °C 1,6 km/h (1 Bft)
26.03.2017 06:04 -1,0 °C -0,9 °C 92 % 1018,0 hPa 0,0 mm 0,0 km/h (0 Bft) S 174 ° 0 min 0,000 mm 0,0 UV-I 0 W/m² -2,1 °C -1,0 °C 0,0 km/h (0 Bft)
26.03.2017 06:05 -1,1 °C -1,0 °C 93 % 1018,1 hPa 0,0 mm 0,0 km/h (0 Bft) S 174 ° 0 min 0,000 mm 0,0 UV-I 0 W/m² -2,1 °C -1,1 °C 0,0 km/h (0 Bft)
26.03.2017 06:06 -1,1 °C -1,0 °C 93 % 1018,2 hPa 0,0 mm 0,0 km/h (0 Bft) S 174 ° 0 min 0,000 mm 0,0 UV-I 0 W/m² -2,1 °C -1,1 °C 0,0 km/h (0 Bft)
26.03.2017 06:07 -1,2 °C -1,1 °C 93 % 1018,2 hPa 0,0 mm 0,0 km/h (0 Bft) S 174 ° 0 min 0,000 mm 0,0 UV-I 0 W/m² -2,2 °C -1,2 °C 0,0 km/h (0 Bft)
26.03.2017 06:08 -1,3 °C -1,2 °C 92 % 1018,3 hPa 0,0 mm 0,0 km/h (0 Bft) S 174 ° 0 min 0,000 mm 0,0 UV-I 0 W/m² -2,4 °C -1,3 °C 0,0 km/h (0 Bft)
26.03.2017 06:09 -1,4 °C -1,3 °C 92 % 1018,2 hPa 0,0 mm 0,0 km/h (0 Bft) S 174 ° 0 min 0,000 mm 0,0 UV-I 0 W/m² -2,5 °C -1,4 °C 0,0 km/h (0 Bft)
26.03.2017 06:10 -1,4 °C -1,4 °C 92 % 1018,2 hPa 0,0 mm 0,0 km/h (0 Bft) S 174 ° 0 min 0,000 mm 0,0 UV-I 0 W/m² -2,5 °C -1,4 °C 0,0 km/h (0 Bft)
26.03.2017 06:11 -1,4 °C -1,4 °C 93 % 1018,2 hPa 0,0 mm 0,0 km/h (0 Bft) S 174 ° 0 min 0,000 mm 0,0 UV-I 0 W/m² -2,4 °C -1,4 °C 0,0 km/h (0 Bft)
26.03.2017 06:12 -1,5 °C -1,4 °C 93 % 1018,2 hPa 0,0 mm 0,0 km/h (0 Bft) S 174 ° 0 min 0,000 mm 0,0 UV-I 0 W/m² -2,5 °C -1,5 °C 0,0 km/h (0 Bft)
26.03.2017 06:13 -1,4 °C -1,4 °C 93 % 1018,1 hPa 0,0 mm 0,0 km/h (0 Bft) S 174 ° 0 min 0,000 mm 0,0 UV-I 0 W/m² -2,4 °C -1,4 °C 0,0 km/h (0 Bft)
26.03.2017 06:14 -1,3 °C -1,3 °C 93 % 1018,1 hPa 0,0 mm 0,0 km/h (0 Bft) S 174 ° 0 min 0,000 mm 0,0 UV-I 0 W/m² -2,3 °C -1,3 °C 0,0 km/h (0 Bft)
26.03.2017 06:15 -1,2 °C -1,2 °C 93 % 1018,1 hPa 0,0 mm 0,0 km/h (0 Bft) S 174 ° 0 min 0,000 mm 0,0 UV-I 0 W/m² -2,2 °C -1,2 °C 0,0 km/h (0 Bft)
26.03.2017 06:16 -1,1 °C -1,1 °C 94 % 1018,1 hPa 0,0 mm 0,0 km/h (0 Bft) S 174 ° 0 min 0,000 mm 0,0 UV-I 0 W/m² -1,9 °C -1,1 °C 0,0 km/h (0 Bft)
26.03.2017 06:17 -1,2 °C -1,1 °C 94 % 1018,2 hPa 0,0 mm 0,0 km/h (0 Bft) S 174 ° 0 min 0,000 mm 0,0 UV-I 0 W/m² -2,0 °C -1,2 °C 0,0 km/h (0 Bft)
26.03.2017 06:18 -1,3 °C -1,2 °C 93 % 1018,2 hPa 0,0 mm 0,0 km/h (0 Bft) S 174 ° 0 min 0,000 mm 0,0 UV-I 0 W/m² -2,3 °C -1,3 °C 0,0 km/h (0 Bft)
26.03.2017 06:19 -1,4 °C -1,3 °C 93 % 1018,2 hPa 0,0 mm 0,0 km/h (0 Bft) S 174 ° 0 min 0,000 mm 0,0 UV-I 0 W/m² -2,4 °C -1,4 °C 0,0 km/h (0 Bft)
26.03.2017 06:20 -1,4 °C -1,4 °C 93 % 1018,3 hPa 0,0 mm 0,0 km/h (0 Bft) S 174 ° 0 min 0,000 mm 0,0 UV-I 0 W/m² -2,4 °C -1,4 °C 0,0 km/h (0 Bft)
26.03.2017 06:21 -1,4 °C -1,4 °C 93 % 1018,3 hPa 0,0 mm 0,0 km/h (0 Bft) S 174 ° 0 min 0,000 mm 0,0 UV-I 0 W/m² -2,4 °C -1,4 °C 0,0 km/h (0 Bft)
26.03.2017 06:22 -1,4 °C -1,4 °C 93 % 1018,3 hPa 0,0 mm 0,5 km/h (0 Bft) S 174 ° 0 min 0,000 mm 0,0 UV-I 0 W/m² -2,4 °C -1,4 °C 1,6 km/h (1 Bft)
26.03.2017 06:23 -1,3 °C -1,3 °C 94 % 1018,2 hPa 0,0 mm 0,1 km/h (0 Bft) S 174 ° 0 min 0,000 mm 0,0 UV-I 0 W/m² -2,1 °C -1,3 °C 1,6 km/h (1 Bft)
26.03.2017 06:24 -1,1 °C -1,1 °C 94 % 1018,2 hPa 0,0 mm 0,0 km/h (0 Bft) S 174 ° 0 min 0,000 mm 0,0 UV-I 0 W/m² -1,9 °C -1,1 °C 0,0 km/h (0 Bft)
26.03.2017 06:25 -1,1 °C -1,1 °C 94 % 1018,2 hPa 0,0 mm 0,0 km/h (0 Bft) S 174 ° 0 min 0,000 mm 0,0 UV-I 0 W/m² -1,9 °C -1,1 °C 0,0 km/h (0 Bft)
26.03.2017 06:26 -1,2 °C -1,1 °C 94 % 1018,3 hPa 0,0 mm 0,0 km/h (0 Bft) S 174 ° 0 min 0,000 mm 0,0 UV-I 0 W/m² -2,0 °C -1,2 °C 0,0 km/h (0 Bft)
26.03.2017 06:27 -1,2 °C -1,2 °C 93 % 1018,3 hPa 0,0 mm 0,1 km/h (0 Bft) S 174 ° 0 min 0,000 mm 0,0 UV-I 0 W/m² -2,2 °C -1,2 °C 1,6 km/h (1 Bft)
26.03.2017 06:28 -1,3 °C -1,2 °C 93 % 1018,3 hPa 0,0 mm 0,0 km/h (0 Bft) S 174 ° 0 min 0,000 mm 0,0 UV-I 0 W/m² -2,3 °C -1,3 °C 0,0 km/h (0 Bft)
26.03.2017 06:29 -1,3 °C -1,3 °C 93 % 1018,3 hPa 0,0 mm 0,0 km/h (0 Bft) S 174 ° 0 min 0,000 mm 0,0 UV-I 0 W/m² -2,3 °C -1,3 °C 0,0 km/h (0 Bft)
26.03.2017 06:30 -1,4 °C -1,3 °C 93 % 1018,3 hPa 0,0 mm 0,0 km/h (0 Bft) S 174 ° 0 min 0,000 mm 0,0 UV-I 0 W/m² -2,4 °C -1,4 °C 0,0 km/h (0 Bft)
26.03.2017 06:31 -1,4 °C -1,4 °C 93 % 1018,3 hPa 0,0 mm 0,0 km/h (0 Bft) S 174 ° 0 min 0,000 mm 0,0 UV-I 0 W/m² -2,4 °C -1,4 °C 0,0 km/h (0 Bft)
26.03.2017 06:32 -1,4 °C -1,4 °C 93 % 1018,4 hPa 0,0 mm 0,0 km/h (0 Bft) S 174 ° 0 min 0,000 mm 0,0 UV-I 0 W/m² -2,4 °C -1,4 °C 0,0 km/h (0 Bft)
26.03.2017 06:33 -1,3 °C -1,3 °C 93 % 1018,4 hPa 0,0 mm 0,0 km/h (0 Bft) S 174 ° 0 min 0,000 mm 0,0 UV-I 0 W/m² -2,3 °C -1,3 °C 0,0 km/h (0 Bft)
26.03.2017 06:34 -1,2 °C -1,2 °C 94 % 1018,4 hPa 0,0 mm 0,0 km/h (0 Bft) S 174 ° 0 min 0,000 mm 0,0 UV-I 0 W/m² -2,0 °C -1,2 °C 0,0 km/h (0 Bft)
26.03.2017 06:35 -1,1 °C -1,1 °C 94 % 1018,4 hPa 0,0 mm 0,0 km/h (0 Bft) S 174 ° 0 min 0,000 mm 0,0 UV-I 0 W/m² -1,9 °C -1,1 °C 0,0 km/h (0 Bft)
26.03.2017 06:36 -0,9 °C -0,9 °C 94 % 1018,4 hPa 0,0 mm 0,0 km/h (0 Bft) S 174 ° 0 min 0,000 mm 0,0 UV-I 0 W/m² -1,7 °C -0,9 °C 0,0 km/h (0 Bft)
26.03.2017 06:37 -1,1 °C -0,9 °C 94 % 1018,4 hPa 0,0 mm 0,0 km/h (0 Bft) S 174 ° 0 min 0,000 mm 0,0 UV-I 0 W/m² -1,9 °C -1,1 °C 0,0 km/h (0 Bft)
26.03.2017 06:38 -1,1 °C -1,1 °C 93 % 1018,4 hPa 0,0 mm 0,0 km/h (0 Bft) S 174 ° 0 min 0,000 mm 0,0 UV-I 0 W/m² -2,1 °C -1,1 °C 0,0 km/h (0 Bft)
26.03.2017 06:39 -1,1 °C -1,1 °C 93 % 1018,3 hPa 0,0 mm 0,0 km/h (0 Bft) S 174 ° 0 min 0,000 mm 0,0 UV-I 0 W/m² -2,1 °C -1,1 °C 0,0 km/h (0 Bft)
26.03.2017 06:40 -1,2 °C -1,1 °C 93 % 1018,3 hPa 0,0 mm 0,0 km/h (0 Bft) S 174 ° 0 min 0,000 mm 0,0 UV-I 0 W/m² -2,2 °C -1,2 °C 0,0 km/h (0 Bft)
26.03.2017 06:41 -1,1 °C -1,1 °C 93 % 1018,3 hPa 0,0 mm 0,0 km/h (0 Bft) S 174 ° 0 min 0,000 mm 0,0 UV-I 0 W/m² -2,1 °C -1,1 °C 0,0 km/h (0 Bft)
26.03.2017 06:42 -1,0 °C -1,0 °C 94 % 1018,4 hPa 0,0 mm 0,0 km/h (0 Bft) S 174 ° 0 min 0,000 mm 0,0 UV-I 0 W/m² -1,8 °C -1,0 °C 0,0 km/h (0 Bft)
26.03.2017 06:43 -0,9 °C -0,9 °C 94 % 1018,4 hPa 0,0 mm 0,0 km/h (0 Bft) S 174 ° 0 min 0,000 mm 0,0 UV-I 0 W/m² -1,7 °C -0,9 °C 0,0 km/h (0 Bft)
26.03.2017 06:44 -1,0 °C -0,9 °C 94 % 1018,4 hPa 0,0 mm 0,0 km/h (0 Bft) S 174 ° 0 min 0,000 mm 0,0 UV-I 0 W/m² -1,8 °C -1,0 °C 0,0 km/h (0 Bft)
26.03.2017 06:45 -1,2 °C -1,0 °C 93 % 1018,5 hPa 0,0 mm 0,0 km/h (0 Bft) S 174 ° 0 min 0,000 mm 0,0 UV-I 0 W/m² -2,2 °C -1,2 °C 0,0 km/h (0 Bft)
26.03.2017 06:46 -1,3 °C -1,2 °C 93 % 1018,5 hPa 0,0 mm 0,0 km/h (0 Bft) S 174 ° 0 min 0,000 mm 0,0 UV-I 0 W/m² -2,3 °C -1,3 °C 0,0 km/h (0 Bft)
26.03.2017 06:47 -1,3 °C -1,3 °C 93 % 1018,5 hPa 0,0 mm 0,0 km/h (0 Bft) S 174 ° 0 min 0,000 mm 0,0 UV-I 0 W/m² -2,3 °C -1,3 °C 0,0 km/h (0 Bft)
26.03.2017 06:48 -1,3 °C -1,3 °C 93 % 1018,5 hPa 0,0 mm 0,0 km/h (0 Bft) S 174 ° 0 min 0,000 mm 0,0 UV-I 0 W/m² -2,3 °C -1,3 °C 0,0 km/h (0 Bft)
26.03.2017 06:49 -1,2 °C -1,2 °C 93 % 1018,5 hPa 0,0 mm 0,0 km/h (0 Bft) S 174 ° 0 min 0,000 mm 0,0 UV-I 0 W/m² -2,2 °C -1,2 °C 0,0 km/h (0 Bft)
26.03.2017 06:50 -1,1 °C -1,1 °C 94 % 1018,5 hPa 0,0 mm 0,0 km/h (0 Bft) S 174 ° 0 min 0,000 mm 0,0 UV-I 0 W/m² -1,9 °C -1,1 °C 0,0 km/h (0 Bft)
26.03.2017 06:51 -1,1 °C -1,0 °C 94 % 1018,5 hPa 0,0 mm 0,0 km/h (0 Bft) S 174 ° 0 min 0,000 mm 0,0 UV-I 0 W/m² -1,9 °C -1,1 °C 0,0 km/h (0 Bft)
26.03.2017 06:52 -1,1 °C -1,1 °C 94 % 1018,5 hPa 0,0 mm 0,0 km/h (0 Bft) S 174 ° 0 min 0,000 mm 0,0 UV-I 0 W/m² -1,9 °C -1,1 °C 0,0 km/h (0 Bft)
26.03.2017 06:53 -1,2 °C -1,1 °C 93 % 1018,5 hPa 0,0 mm 0,0 km/h (0 Bft) S 174 ° 0 min 0,000 mm 0,0 UV-I 0 W/m² -2,2 °C -1,2 °C 0,0 km/h (0 Bft)
26.03.2017 06:54 -1,3 °C -1,2 °C 93 % 1018,5 hPa 0,0 mm 0,0 km/h (0 Bft) S 174 ° 0 min 0,000 mm 0,0 UV-I 0 W/m² -2,3 °C -1,3 °C 0,0 km/h (0 Bft)
26.03.2017 06:55 -1,3 °C -1,3 °C 93 % 1018,5 hPa 0,0 mm 0,0 km/h (0 Bft) S 174 ° 0 min 0,000 mm 0,0 UV-I 0 W/m² -2,3 °C -1,3 °C 0,0 km/h (0 Bft)
26.03.2017 06:56 -1,4 °C -1,3 °C 93 % 1018,5 hPa 0,0 mm 0,0 km/h (0 Bft) S 174 ° 0 min 0,000 mm 0,0 UV-I 0 W/m² -2,4 °C -1,4 °C 0,0 km/h (0 Bft)
26.03.2017 06:57 -1,3 °C -1,3 °C 94 % 1018,6 hPa 0,0 mm 0,0 km/h (0 Bft) S 174 ° 0 min 0,000 mm 0,0 UV-I 0 W/m² -2,1 °C -1,3 °C 0,0 km/h (0 Bft)
26.03.2017 06:58 -1,4 °C -1,3 °C 94 % 1018,6 hPa 0,0 mm 0,0 km/h (0 Bft) S 174 ° 0 min 0,000 mm 0,0 UV-I 0 W/m² -2,2 °C -1,4 °C 0,0 km/h (0 Bft)
26.03.2017 06:59 -1,4 °C -1,4 °C 93 % 1018,6 hPa 0,0 mm 0,0 km/h (0 Bft) S 174 ° 0 min 0,000 mm 0,0 UV-I 0 W/m² -2,4 °C -1,4 °C 0,0 km/h (0 Bft)
26.03.2017 07:00 -1,4 °C -1,4 °C 93 % 1018,6 hPa 0,0 mm 0,0 km/h (0 Bft) S 174 ° 0 min 0,000 mm 0,0 UV-I 0 W/m² -2,4 °C -1,4 °C 0,0 km/h (0 Bft)
26.03.2017 07:01 -1,2 °C -1,2 °C 94 % 1018,6 hPa 0,0 mm 0,9 km/h (0 Bft) S 174 ° 0 min 0,000 mm 0,0 UV-I 0 W/m² -2,0 °C -1,2 °C 3,2 km/h (1 Bft)
26.03.2017 07:02 -0,9 °C -0,9 °C 94 % 1018,5 hPa 0,0 mm 2,1 km/h (1 Bft) S 174 ° 0 min 0,000 mm 0,0 UV-I 0 W/m² -1,7 °C -0,9 °C 3,2 km/h (1 Bft)
26.03.2017 07:03 -0,8 °C -0,8 °C 94 % 1018,5 hPa 0,0 mm 2,0 km/h (1 Bft) S 174 ° 0 min 0,000 mm 0,0 UV-I 0 W/m² -1,6 °C -0,8 °C 3,2 km/h (1 Bft)
26.03.2017 07:04 -0,6 °C -0,6 °C 95 % 1018,5 hPa 0,0 mm 1,9 km/h (1 Bft) S 174 ° 0 min 0,000 mm 0,0 UV-I 0 W/m² -1,3 °C -0,6 °C 3,2 km/h (1 Bft)
26.03.2017 07:05 -0,4 °C -0,4 °C 94 % 1018,5 hPa 0,0 mm 2,4 km/h (1 Bft) S 174 ° 0 min 0,000 mm 0,0 UV-I 0 W/m² -1,2 °C -0,4 °C 3,2 km/h (1 Bft)
26.03.2017 07:06 -0,4 °C -0,4 °C 94 % 1018,5 hPa 0,0 mm 1,7 km/h (1 Bft) S 174 ° 0 min 0,000 mm 0,0 UV-I 0 W/m² -1,2 °C -0,4 °C 3,2 km/h (1 Bft)
26.03.2017 07:07 -0,4 °C -0,4 °C 94 % 1018,6 hPa 0,0 mm 0,2 km/h (0 Bft) S 174 ° 0 min 0,000 mm 0,0 UV-I 0 W/m² -1,2 °C -0,4 °C 1,6 km/h (1 Bft)
26.03.2017 07:08 -0,3 °C -0,3 °C 94 % 1018,6 hPa 0,0 mm 0,1 km/h (0 Bft) S 174 ° 0 min 0,000 mm 0,0 UV-I 0 W/m² -1,1 °C -0,3 °C 1,6 km/h (1 Bft)
26.03.2017 07:09 -0,6 °C -0,3 °C 93 % 1018,6 hPa 0,0 mm 1,6 km/h (1 Bft) S 174 ° 0 min 0,000 mm 0,0 UV-I 0 W/m² -1,6 °C -0,6 °C 3,2 km/h (1 Bft)
26.03.2017 07:10 -0,8 °C -0,6 °C 92 % 1018,6 hPa 0,0 mm 0,0 km/h (0 Bft) S 174 ° 0 min 0,000 mm 0,0 UV-I 0 W/m² -1,9 °C -0,8 °C 0,0 km/h (0 Bft)
26.03.2017 07:11 -0,9 °C -0,8 °C 92 % 1018,7 hPa 0,0 mm 0,3 km/h (0 Bft) S 174 ° 0 min 0,000 mm 0,0 UV-I 0 W/m² -2,0 °C -0,9 °C 1,6 km/h (1 Bft)
26.03.2017 07:12 -1,1 °C -0,9 °C 92 % 1018,7 hPa 0,0 mm 0,7 km/h (0 Bft) S 174 ° 0 min 0,000 mm 0,0 UV-I 0 W/m² -2,2 °C -1,1 °C 1,6 km/h (1 Bft)
26.03.2017 07:13 -1,2 °C -1,1 °C 93 % 1018,7 hPa 0,0 mm 0,0 km/h (0 Bft) S 174 ° 0 min 0,000 mm 0,0 UV-I 0 W/m² -2,2 °C -1,2 °C 0,0 km/h (0 Bft)
26.03.2017 07:14 -1,1 °C -1,1 °C 93 % 1018,7 hPa 0,0 mm 0,0 km/h (0 Bft) S 174 ° 0 min 0,000 mm 0,0 UV-I 0 W/m² -2,1 °C -1,1 °C 0,0 km/h (0 Bft)
26.03.2017 07:15 -0,9 °C -0,9 °C 94 % 1018,7 hPa 0,0 mm 0,0 km/h (0 Bft) S 174 ° 0 min 0,000 mm 0,0 UV-I 0 W/m² -1,7 °C -0,9 °C 0,0 km/h (0 Bft)
26.03.2017 07:16 -1,1 °C -0,9 °C 93 % 1018,8 hPa 0,0 mm 0,0 km/h (0 Bft) S 174 ° 0 min 0,000 mm 0,0 UV-I 5 W/m² -2,1 °C -1,1 °C 0,0 km/h (0 Bft)
26.03.2017 07:17 -1,2 °C -1,1 °C 93 % 1018,8 hPa 0,0 mm 0,0 km/h (0 Bft) S 174 ° 0 min 0,000 mm 0,0 UV-I 5 W/m² -2,2 °C -1,2 °C 0,0 km/h (0 Bft)
26.03.2017 07:18 -1,3 °C -1,2 °C 92 % 1018,8 hPa 0,0 mm 0,0 km/h (0 Bft) S 174 ° 0 min 0,000 mm 0,0 UV-I 5 W/m² -2,4 °C -1,3 °C 0,0 km/h (0 Bft)
26.03.2017 07:19 -1,4 °C -1,3 °C 92 % 1018,8 hPa 0,0 mm 0,1 km/h (0 Bft) S 174 ° 0 min 0,000 mm 0,0 UV-I 7 W/m² -2,5 °C -1,4 °C 1,6 km/h (1 Bft)
26.03.2017 07:20 -1,4 °C -1,4 °C 93 % 1018,8 hPa 0,0 mm 0,3 km/h (0 Bft) S 174 ° 0 min 0,000 mm 0,0 UV-I 7 W/m² -2,4 °C -1,4 °C 1,6 km/h (1 Bft)
26.03.2017 07:21 -1,2 °C -1,2 °C 93 % 1018,7 hPa 0,0 mm 1,5 km/h (1 Bft) S 174 ° 0 min 0,000 mm 0,0 UV-I 7 W/m² -2,2 °C -1,2 °C 3,2 km/h (1 Bft)
26.03.2017 07:22 -1,1 °C -1,1 °C 94 % 1018,7 hPa 0,0 mm 1,5 km/h (1 Bft) S 174 ° 0 min 0,000 mm 0,0 UV-I 9 W/m² -1,9 °C -1,1 °C 3,2 km/h (1 Bft)
26.03.2017 07:23 -0,8 °C -0,8 °C 94 % 1018,7 hPa 0,0 mm 1,7 km/h (1 Bft) S 174 ° 0 min 0,000 mm 0,0 UV-I 9 W/m² -1,6 °C -0,8 °C 3,2 km/h (1 Bft)
26.03.2017 07:24 -0,7 °C -0,7 °C 94 % 1018,7 hPa 0,0 mm 0,5 km/h (0 Bft) S 174 ° 0 min 0,000 mm 0,0 UV-I 9 W/m² -1,5 °C -0,7 °C 1,6 km/h (1 Bft)
26.03.2017 07:25 -0,6 °C -0,6 °C 94 % 1018,7 hPa 0,0 mm 0,7 km/h (0 Bft) S 174 ° 0 min 0,000 mm 0,0 UV-I 11 W/m² -1,4 °C -0,6 °C 3,2 km/h (1 Bft)
26.03.2017 07:26 -0,5 °C -0,5 °C 94 % 1018,7 hPa 0,0 mm 1,7 km/h (1 Bft) S 174 ° 0 min 0,000 mm 0,0 UV-I 11 W/m² -1,3 °C -0,5 °C 3,2 km/h (1 Bft)
26.03.2017 07:27 -0,5 °C -0,5 °C 94 % 1018,8 hPa 0,0 mm 1,8 km/h (1 Bft) S 174 ° 0 min 0,000 mm 0,0 UV-I 12 W/m² -1,3 °C -0,5 °C 3,2 km/h (1 Bft)
26.03.2017 07:28 -0,4 °C -0,4 °C 94 % 1018,8 hPa 0,0 mm 1,3 km/h (1 Bft) S 174 ° 0 min 0,000 mm 0,0 UV-I 12 W/m² -1,2 °C -0,4 °C 3,2 km/h (1 Bft)
26.03.2017 07:29 -0,3 °C -0,3 °C 94 % 1018,8 hPa 0,0 mm 0,4 km/h (0 Bft) S 174 ° 0 min 0,000 mm 0,0 UV-I 12 W/m² -1,1 °C -0,3 °C 1,6 km/h (1 Bft)
26.03.2017 07:30 -0,3 °C -0,3 °C 94 % 1018,9 hPa 0,0 mm 0,7 km/h (0 Bft) S 174 ° 0 min 0,000 mm 0,0 UV-I 14 W/m² -1,1 °C -0,3 °C 1,6 km/h (1 Bft)
26.03.2017 07:31 -0,3 °C -0,3 °C 93 % 1018,9 hPa 0,0 mm 0,4 km/h (0 Bft) S 174 ° 0 min 0,000 mm 0,0 UV-I 14 W/m² -1,3 °C -0,3 °C 1,6 km/h (1 Bft)
26.03.2017 07:32 -0,3 °C -0,3 °C 93 % 1018,9 hPa 0,0 mm 0,3 km/h (0 Bft) S 174 ° 0 min 0,000 mm 0,0 UV-I 16 W/m² -1,3 °C -0,3 °C 1,6 km/h (1 Bft)
26.03.2017 07:33 -0,3 °C -0,3 °C 93 % 1019,0 hPa 0,0 mm 0,4 km/h (0 Bft) S 174 ° 0 min 0,000 mm 0,0 UV-I 16 W/m² -1,3 °C -0,3 °C 1,6 km/h (1 Bft)
26.03.2017 07:34 -0,4 °C -0,3 °C 93 % 1019,0 hPa 0,0 mm 0,0 km/h (0 Bft) S 174 ° 0 min 0,000 mm 0,0 UV-I 16 W/m² -1,4 °C -0,4 °C 0,0 km/h (0 Bft)
26.03.2017 07:35 -0,7 °C -0,4 °C 92 % 1019,1 hPa 0,0 mm 0,1 km/h (0 Bft) S 174 ° 0 min 0,000 mm 0,0 UV-I 18 W/m² -1,8 °C -0,7 °C 1,6 km/h (1 Bft)
26.03.2017 07:36 -0,7 °C -0,7 °C 91 % 1019,0 hPa 0,0 mm 1,0 km/h (0 Bft) S 174 ° 0 min 0,000 mm 0,0 UV-I 18 W/m² -2,0 °C -0,7 °C 1,6 km/h (1 Bft)
26.03.2017 07:37 -0,7 °C -0,7 °C 93 % 1019,0 hPa 0,0 mm 2,5 km/h (1 Bft) S 174 ° 0 min 0,000 mm 0,0 UV-I 19 W/m² -1,7 °C -0,7 °C 3,2 km/h (1 Bft)
26.03.2017 07:38 -0,6 °C -0,6 °C 93 % 1019,0 hPa 0,0 mm 2,8 km/h (1 Bft) S 174 ° 0 min 0,000 mm 0,0 UV-I 19 W/m² -1,6 °C -0,6 °C 4,8 km/h (1 Bft)
26.03.2017 07:39 -0,4 °C -0,4 °C 93 % 1019,0 hPa 0,0 mm 2,3 km/h (1 Bft) S 174 ° 0 min 0,000 mm 0,0 UV-I 21 W/m² -1,4 °C -0,4 °C 4,8 km/h (1 Bft)
26.03.2017 07:40 -0,4 °C -0,4 °C 93 % 1019,0 hPa 0,0 mm 3,1 km/h (1 Bft) S 174 ° 0 min 0,000 mm 0,0 UV-I 21 W/m² -1,4 °C -0,4 °C 4,8 km/h (1 Bft)
26.03.2017 07:41 -0,3 °C -0,3 °C 93 % 1019,0 hPa 0,0 mm 1,9 km/h (1 Bft) S 174 ° 0 min 0,000 mm 0,0 UV-I 21 W/m² -1,3 °C -0,3 °C 3,2 km/h (1 Bft)
26.03.2017 07:42 -0,2 °C -0,2 °C 93 % 1019,0 hPa 0,0 mm 1,5 km/h (1 Bft) S 174 ° 0 min 0,000 mm 0,0 UV-I 23 W/m² -1,2 °C -0,2 °C 3,2 km/h (1 Bft)
26.03.2017 07:43 -0,2 °C -0,2 °C 93 % 1019,0 hPa 0,0 mm 3,9 km/h (1 Bft) S 175 ° 0 min 0,000 mm 0,0 UV-I 23 W/m² -1,2 °C -0,2 °C 6,4 km/h (2 Bft)
26.03.2017 07:44 -0,1 °C -0,1 °C 93 % 1019,1 hPa 0,0 mm 4,2 km/h (1 Bft) S 175 ° 0 min 0,000 mm 0,0 UV-I 25 W/m² -1,1 °C -0,1 °C 6,4 km/h (2 Bft)
26.03.2017 07:45 -0,1 °C -0,1 °C 93 % 1019,1 hPa 0,0 mm 2,5 km/h (1 Bft) S 175 ° 0 min 0,000 mm 0,0 UV-I 26 W/m² -1,1 °C -0,1 °C 3,2 km/h (1 Bft)
26.03.2017 07:46 0,0 °C 0,0 °C 93 % 1019,1 hPa 0,0 mm 1,2 km/h (1 Bft) S 175 ° 0 min 0,000 mm 0,0 UV-I 26 W/m² -1,0 °C 0,0 °C 3,2 km/h (1 Bft)
26.03.2017 07:47 0,0 °C 0,0 °C 93 % 1019,2 hPa 0,0 mm 1,5 km/h (1 Bft) S 175 ° 0 min 0,000 mm 0,0 UV-I 28 W/m² -1,0 °C 0,0 °C 3,2 km/h (1 Bft)
26.03.2017 07:48 0,0 °C 0,0 °C 92 % 1019,2 hPa 0,0 mm 0,5 km/h (0 Bft) S 175 ° 0 min 0,000 mm 0,0 UV-I 30 W/m² -1,1 °C 0,0 °C 1,6 km/h (1 Bft)
26.03.2017 07:49 -0,1 °C 0,0 °C 92 % 1019,2 hPa 0,0 mm 0,0 km/h (0 Bft) S 175 ° 0 min 0,000 mm 0,0 UV-I 30 W/m² -1,2 °C -0,1 °C 0,0 km/h (0 Bft)
26.03.2017 07:50 -0,1 °C 0,0 °C 92 % 1019,2 hPa 0,0 mm 1,3 km/h (1 Bft) S 175 ° 0 min 0,000 mm 0,0 UV-I 30 W/m² -1,2 °C -0,1 °C 3,2 km/h (1 Bft)
26.03.2017 07:51 -0,1 °C -0,1 °C 92 % 1019,2 hPa 0,0 mm 1,6 km/h (1 Bft) S 175 ° 0 min 0,000 mm 0,0 UV-I 32 W/m² -1,2 °C -0,1 °C 3,2 km/h (1 Bft)
26.03.2017 07:52 0,0 °C 0,1 °C 92 % 1019,2 hPa 0,0 mm 2,2 km/h (1 Bft) S 175 ° 0 min 0,000 mm 0,0 UV-I 32 W/m² -1,1 °C 0,0 °C 3,2 km/h (1 Bft)
26.03.2017 07:53 0,1 °C 0,1 °C 92 % 1019,3 hPa 0,0 mm 3,6 km/h (1 Bft) S 175 ° 0 min 0,000 mm 0,0 UV-I 33 W/m² -1,0 °C 0,1 °C 4,8 km/h (1 Bft)
26.03.2017 07:54 0,1 °C 0,1 °C 92 % 1019,3 hPa 0,0 mm 5,0 km/h (1 Bft) S 177 ° 0 min 0,000 mm 0,0 UV-I 33 W/m² -1,0 °C -1,5 °C 6,4 km/h (2 Bft)
26.03.2017 07:55 0,2 °C 0,2 °C 92 % 1019,4 hPa 0,0 mm 5,3 km/h (1 Bft) S 187 ° 0 min 0,000 mm 0,0 UV-I 35 W/m² -0,9 °C -1,5 °C 6,4 km/h (2 Bft)
26.03.2017 07:56 0,2 °C 0,2 °C 92 % 1019,3 hPa 0,0 mm 4,7 km/h (1 Bft) S 187 ° 0 min 0,000 mm 0,0 UV-I 35 W/m² -0,9 °C -1,2 °C 6,4 km/h (2 Bft)
26.03.2017 07:57 0,2 °C 0,2 °C 92 % 1019,2 hPa 0,0 mm 4,1 km/h (1 Bft) S 187 ° 0 min 0,000 mm 0,0 UV-I 37 W/m² -0,9 °C 0,2 °C 6,4 km/h (2 Bft)
26.03.2017 07:58 0,2 °C 0,2 °C 92 % 1019,2 hPa 0,0 mm 4,8 km/h (1 Bft) S 183 ° 0 min 0,000 mm 0,0 UV-I 39 W/m² -0,9 °C -1,3 °C 6,4 km/h (2 Bft)
26.03.2017 07:59 0,2 °C 0,2 °C 92 % 1019,2 hPa 0,0 mm 4,5 km/h (1 Bft) S 184 ° 0 min 0,000 mm 0,0 UV-I 39 W/m² -0,9 °C 0,2 °C 6,4 km/h (2 Bft)
26.03.2017 08:00 0,2 °C 0,2 °C 91 % 1019,2 hPa 0,0 mm 2,7 km/h (1 Bft) S 184 ° 0 min 0,000 mm 0,0 UV-I 40 W/m² -1,1 °C 0,2 °C 4,8 km/h (1 Bft)
26.03.2017 08:01 0,1 °C 0,2 °C 91 % 1019,3 hPa 0,0 mm 2,2 km/h (1 Bft) S 184 ° 0 min 0,000 mm 0,0 UV-I 40 W/m² -1,2 °C 0,1 °C 3,2 km/h (1 Bft)
26.03.2017 08:02 0,1 °C 0,1 °C 92 % 1019,3 hPa 0,0 mm 3,0 km/h (1 Bft) S 184 ° 0 min 0,000 mm 0,0 UV-I 40 W/m² -1,0 °C 0,1 °C 3,2 km/h (1 Bft)
26.03.2017 08:03 0,1 °C 0,1 °C 92 % 1019,3 hPa 0,0 mm 2,3 km/h (1 Bft) S 184 ° 0 min 0,000 mm 0,0 UV-I 42 W/m² -1,0 °C 0,1 °C 3,2 km/h (1 Bft)
26.03.2017 08:04 0,1 °C 0,1 °C 92 % 1019,3 hPa 0,0 mm 1,9 km/h (1 Bft) S 184 ° 0 min 0,000 mm 0,0 UV-I 44 W/m² -1,0 °C 0,1 °C 3,2 km/h (1 Bft)
26.03.2017 08:05 0,1 °C 0,1 °C 92 % 1019,4 hPa 0,0 mm 1,7 km/h (1 Bft) S 184 ° 0 min 0,000 mm 0,0 UV-I 46 W/m² -1,0 °C 0,1 °C 3,2 km/h (1 Bft)
26.03.2017 08:06 0,1 °C 0,1 °C 92 % 1019,4 hPa 0,0 mm 1,9 km/h (1 Bft) S 184 ° 0 min 0,000 mm 0,0 UV-I 47 W/m² -1,0 °C 0,1 °C 3,2 km/h (1 Bft)
26.03.2017 08:07 0,1 °C 0,1 °C 92 % 1019,4 hPa 0,0 mm 2,2 km/h (1 Bft) S 184 ° 0 min 0,000 mm 0,0 UV-I 49 W/m² -1,0 °C 0,1 °C 3,2 km/h (1 Bft)
26.03.2017 08:08 0,1 °C 0,1 °C 92 % 1019,4 hPa 0,0 mm 1,4 km/h (1 Bft) S 184 ° 0 min 0,000 mm 0,0 UV-I 51 W/m² -1,0 °C 0,1 °C 3,2 km/h (1 Bft)
26.03.2017 08:09 0,1 °C 0,1 °C 92 % 1019,4 hPa 0,0 mm 2,6 km/h (1 Bft) S 184 ° 0 min 0,000 mm 0,0 UV-I 51 W/m² -1,0 °C 0,1 °C 3,2 km/h (1 Bft)
26.03.2017 08:10 0,2 °C 0,2 °C 92 % 1019,4 hPa 0,0 mm 3,3 km/h (1 Bft) S 184 ° 0 min 0,000 mm 0,0 UV-I 53 W/m² -0,9 °C 0,2 °C 4,8 km/h (1 Bft)
26.03.2017 08:11 0,2 °C 0,2 °C 92 % 1019,5 hPa 0,0 mm 1,2 km/h (1 Bft) S 184 ° 0 min 0,000 mm 0,0 UV-I 54 W/m² -0,9 °C 0,2 °C 3,2 km/h (1 Bft)
26.03.2017 08:12 0,3 °C 0,3 °C 92 % 1019,5 hPa 0,0 mm 0,3 km/h (0 Bft) S 184 ° 0 min 0,000 mm 0,0 UV-I 53 W/m² -0,8 °C 0,3 °C 1,6 km/h (1 Bft)
26.03.2017 08:13 0,3 °C 0,3 °C 92 % 1019,5 hPa 0,0 mm 0,0 km/h (0 Bft) S 184 ° 0 min 0,000 mm 0,0 UV-I 51 W/m² -0,8 °C 0,3 °C 0,0 km/h (0 Bft)
26.03.2017 08:14 0,3 °C 0,3 °C 92 % 1019,5 hPa 0,0 mm 1,2 km/h (1 Bft) S 184 ° 0 min 0,000 mm 0,0 UV-I 53 W/m² -0,8 °C 0,3 °C 3,2 km/h (1 Bft)
26.03.2017 08:15 0,2 °C 0,3 °C 92 % 1019,5 hPa 0,0 mm 0,9 km/h (0 Bft) S 184 ° 0 min 0,000 mm 0,0 UV-I 54 W/m² -0,9 °C 0,2 °C 1,6 km/h (1 Bft)
26.03.2017 08:16 0,1 °C 0,2 °C 91 % 1019,6 hPa 0,0 mm 0,9 km/h (0 Bft) S 184 ° 0 min 0,000 mm 0,0 UV-I 54 W/m² -1,2 °C 0,1 °C 1,6 km/h (1 Bft)
26.03.2017 08:17 0,0 °C 0,1 °C 91 % 1019,7 hPa 0,0 mm 0,0 km/h (0 Bft) S 184 ° 0 min 0,000 mm 0,0 UV-I 56 W/m² -1,3 °C 0,0 °C 0,0 km/h (0 Bft)
26.03.2017 08:18 -0,2 °C 0,0 °C 91 % 1019,7 hPa 0,0 mm 0,0 km/h (0 Bft) S 184 ° 0 min 0,000 mm 0,0 UV-I 58 W/m² -1,5 °C -0,2 °C 0,0 km/h (0 Bft)
26.03.2017 08:19 -0,2 °C -0,2 °C 92 % 1019,7 hPa 0,0 mm 0,0 km/h (0 Bft) S 184 ° 0 min 0,000 mm 0,0 UV-I 63 W/m² -1,3 °C -0,2 °C 0,0 km/h (0 Bft)
26.03.2017 08:20 -0,3 °C -0,2 °C 92 % 1019,6 hPa 0,0 mm 0,0 km/h (0 Bft) S 184 ° 0 min 0,000 mm 0,0 UV-I 62 W/m² -1,4 °C -0,3 °C 0,0 km/h (0 Bft)
26.03.2017 08:21 -0,3 °C -0,3 °C 92 % 1019,7 hPa 0,0 mm 0,0 km/h (0 Bft) S 184 ° 0 min 0,000 mm 0,5 UV-I 65 W/m² -1,4 °C -0,3 °C 0,0 km/h (0 Bft)
26.03.2017 08:22 -0,3 °C -0,2 °C 92 % 1019,7 hPa 0,0 mm 0,0 km/h (0 Bft) S 184 ° 0 min 0,000 mm 0,5 UV-I 67 W/m² -1,4 °C -0,3 °C 0,0 km/h (0 Bft)
26.03.2017 08:23 -0,3 °C -0,3 °C 92 % 1019,7 hPa 0,0 mm 0,0 km/h (0 Bft) S 184 ° 0 min 0,000 mm 0,5 UV-I 70 W/m² -1,4 °C -0,3 °C 0,0 km/h (0 Bft)
26.03.2017 08:24 -0,3 °C -0,2 °C 92 % 1019,8 hPa 0,0 mm 0,0 km/h (0 Bft) S 184 ° 0 min 0,000 mm 0,5 UV-I 74 W/m² -1,4 °C -0,3 °C 0,0 km/h (0 Bft)
26.03.2017 08:25 -0,2 °C -0,2 °C 92 % 1019,8 hPa 0,0 mm 0,0 km/h (0 Bft) S 184 ° 0 min 0,000 mm 0,5 UV-I 74 W/m² -1,3 °C -0,2 °C 0,0 km/h (0 Bft)
26.03.2017 08:26 -0,2 °C -0,2 °C 93 % 1019,9 hPa 0,0 mm 0,0 km/h (0 Bft) S 184 ° 0 min 0,000 mm 0,5 UV-I 74 W/m² -1,2 °C -0,2 °C 0,0 km/h (0 Bft)
26.03.2017 08:27 -0,1 °C -0,1 °C 93 % 1019,9 hPa 0,0 mm 0,0 km/h (0 Bft) S 184 ° 0 min 0,000 mm 0,5 UV-I 74 W/m² -1,1 °C -0,1 °C 0,0 km/h (0 Bft)
26.03.2017 08:28 0,0 °C 0,0 °C 93 % 1019,9 hPa 0,0 mm 0,0 km/h (0 Bft) S 184 ° 0 min 0,000 mm 0,5 UV-I 74 W/m² -1,0 °C 0,0 °C 0,0 km/h (0 Bft)
26.03.2017 08:29 0,2 °C 0,2 °C 93 % 1019,9 hPa 0,0 mm 0,0 km/h (0 Bft) S 184 ° 0 min 0,000 mm 0,5 UV-I 76 W/m² -0,8 °C 0,2 °C 0,0 km/h (0 Bft)
26.03.2017 08:30 0,4 °C 0,4 °C 93 % 1019,9 hPa 0,0 mm 0,0 km/h (0 Bft) S 184 ° 0 min 0,000 mm 0,6 UV-I 76 W/m² -0,6 °C 0,4 °C 0,0 km/h (0 Bft)
26.03.2017 08:31 0,6 °C 0,6 °C 93 % 1019,9 hPa 0,0 mm 0,0 km/h (0 Bft) S 184 ° 0 min 0,000 mm 0,6 UV-I 74 W/m² -0,4 °C 0,6 °C 0,0 km/h (0 Bft)
26.03.2017 08:32 0,7 °C 0,7 °C 92 % 1020,0 hPa 0,0 mm 0,0 km/h (0 Bft) S 184 ° 0 min 0,000 mm 0,6 UV-I 77 W/m² -0,4 °C 0,7 °C 0,0 km/h (0 Bft)
26.03.2017 08:33 0,7 °C 0,7 °C 92 % 1020,1 hPa 0,0 mm 0,0 km/h (0 Bft) S 184 ° 0 min 0,000 mm 0,6 UV-I 77 W/m² -0,4 °C 0,7 °C 0,0 km/h (0 Bft)
26.03.2017 08:34 0,7 °C 0,7 °C 91 % 1020,1 hPa 0,0 mm 0,0 km/h (0 Bft) S 184 ° 0 min 0,000 mm 0,6 UV-I 79 W/m² -0,6 °C 0,7 °C 0,0 km/h (0 Bft)
26.03.2017 08:35 0,7 °C 0,7 °C 91 % 1020,1 hPa 0,0 mm 0,0 km/h (0 Bft) S 184 ° 0 min 0,000 mm 0,6 UV-I 81 W/m² -0,6 °C 0,7 °C 0,0 km/h (0 Bft)
26.03.2017 08:36 0,7 °C 0,7 °C 91 % 1020,2 hPa 0,0 mm 0,0 km/h (0 Bft) S 184 ° 0 min 0,000 mm 0,6 UV-I 79 W/m² -0,6 °C 0,7 °C 0,0 km/h (0 Bft)
26.03.2017 08:37 0,7 °C 0,7 °C 91 % 1020,2 hPa 0,0 mm 0,0 km/h (0 Bft) S 184 ° 0 min 0,000 mm 0,6 UV-I 84 W/m² -0,6 °C 0,7 °C 0,0 km/h (0 Bft)
26.03.2017 08:38 0,7 °C 0,7 °C 91 % 1020,3 hPa 0,0 mm 1,1 km/h (1 Bft) S 184 ° 0 min 0,000 mm 0,6 UV-I 93 W/m² -0,6 °C 0,7 °C 3,2 km/h (1 Bft)
26.03.2017 08:39 0,7 °C 0,7 °C 91 % 1020,3 hPa 0,0 mm 2,7 km/h (1 Bft) W-NW 303 ° 0 min 0,000 mm 0,6 UV-I 95 W/m² -0,6 °C 0,7 °C 4,8 km/h (1 Bft)
26.03.2017 08:40 0,7 °C 0,7 °C 91 % 1020,4 hPa 0,0 mm 1,9 km/h (1 Bft) W-NW 303 ° 0 min 0,000 mm 0,7 UV-I 100 W/m² -0,6 °C 0,7 °C 3,2 km/h (1 Bft)
26.03.2017 08:41 0,8 °C 0,8 °C 91 % 1020,4 hPa 0,0 mm 0,2 km/h (0 Bft) W-NW 303 ° 0 min 0,000 mm 0,7 UV-I 102 W/m² -0,5 °C 0,8 °C 1,6 km/h (1 Bft)
26.03.2017 08:42 0,8 °C 0,8 °C 91 % 1020,4 hPa 0,0 mm 0,0 km/h (0 Bft) W-NW 303 ° 0 min 0,000 mm 0,7 UV-I 102 W/m² -0,5 °C 0,8 °C 0,0 km/h (0 Bft)
26.03.2017 08:43 0,8 °C 0,8 °C 91 % 1020,4 hPa 0,0 mm 0,0 km/h (0 Bft) W-NW 303 ° 0 min 0,000 mm 0,7 UV-I 95 W/m² -0,5 °C 0,8 °C 0,0 km/h (0 Bft)
26.03.2017 08:44 0,8 °C 0,8 °C 91 % 1020,5 hPa 0,0 mm 0,1 km/h (0 Bft) W-NW 303 ° 0 min 0,000 mm 0,6 UV-I 91 W/m² -0,5 °C 0,8 °C 1,6 km/h (1 Bft)
26.03.2017 08:45 0,8 °C 0,8 °C 91 % 1020,5 hPa 0,0 mm 0,0 km/h (0 Bft) W-NW 303 ° 0 min 0,000 mm 0,6 UV-I 91 W/m² -0,5 °C 0,8 °C 0,0 km/h (0 Bft)
26.03.2017 08:46 0,9 °C 0,9 °C 91 % 1020,6 hPa 0,0 mm 0,1 km/h (0 Bft) W-NW 303 ° 0 min 0,000 mm 0,7 UV-I 95 W/m² -0,4 °C 0,9 °C 1,6 km/h (1 Bft)
26.03.2017 08:47 0,9 °C 0,9 °C 91 % 1020,6 hPa 0,0 mm 0,0 km/h (0 Bft) W-NW 303 ° 0 min 0,000 mm 0,7 UV-I 97 W/m² -0,4 °C 0,9 °C 0,0 km/h (0 Bft)
26.03.2017 08:48 0,9 °C 0,9 °C 91 % 1020,6 hPa 0,0 mm 1,3 km/h (1 Bft) W-NW 303 ° 0 min 0,000 mm 0,7 UV-I 100 W/m² -0,4 °C 0,9 °C 3,2 km/h (1 Bft)
26.03.2017 08:49 0,9 °C 0,9 °C 91 % 1020,6 hPa 0,0 mm 2,3 km/h (1 Bft) W-NW 303 ° 0 min 0,000 mm 0,7 UV-I 109 W/m² -0,4 °C 0,9 °C 3,2 km/h (1 Bft)
26.03.2017 08:50 0,9 °C 0,9 °C 91 % 1020,6 hPa 0,0 mm 2,4 km/h (1 Bft) W-NW 302 ° 0 min 0,000 mm 0,7 UV-I 109 W/m² -0,4 °C 0,9 °C 3,2 km/h (1 Bft)
26.03.2017 08:51 1,1 °C 1,1 °C 91 % 1020,6 hPa 0,0 mm 3,2 km/h (1 Bft) W-SW 243 ° 0 min 0,000 mm 0,7 UV-I 109 W/m² -0,2 °C 1,1 °C 4,8 km/h (1 Bft)
26.03.2017 08:52 1,2 °C 1,2 °C 91 % 1020,6 hPa 0,0 mm 4,0 km/h (1 Bft) W-SW 244 ° 0 min 0,000 mm 0,8 UV-I 111 W/m² -0,1 °C 1,2 °C 4,8 km/h (1 Bft)
26.03.2017 08:53 1,2 °C 1,2 °C 90 % 1020,6 hPa 0,0 mm 3,2 km/h (1 Bft) W-SW 244 ° 0 min 0,000 mm 0,8 UV-I 114 W/m² -0,3 °C 1,2 °C 4,8 km/h (1 Bft)
26.03.2017 08:54 1,3 °C 1,3 °C 90 % 1020,5 hPa 0,0 mm 3,2 km/h (1 Bft) W-SW 244 ° 0 min 0,000 mm 0,8 UV-I 118 W/m² -0,2 °C 1,3 °C 3,2 km/h (1 Bft)
26.03.2017 08:55 1,4 °C 1,4 °C 90 % 1020,5 hPa 0,0 mm 4,4 km/h (1 Bft) W-SW 238 ° 0 min 0,000 mm 0,8 UV-I 123 W/m² -0,1 °C 1,4 °C 6,4 km/h (2 Bft)
26.03.2017 08:56 1,4 °C 1,4 °C 90 % 1020,6 hPa 0,0 mm 1,8 km/h (1 Bft) W-SW 238 ° 0 min 0,000 mm 0,8 UV-I 123 W/m² -0,1 °C 1,4 °C 4,8 km/h (1 Bft)
26.03.2017 08:57 1,6 °C 1,6 °C 89 % 1020,6 hPa 0,0 mm 2,2 km/h (1 Bft) W-SW 238 ° 0 min 0,000 mm 0,8 UV-I 125 W/m² -0,0 °C 1,6 °C 3,2 km/h (1 Bft)
26.03.2017 08:58 1,6 °C 1,6 °C 89 % 1020,6 hPa 0,0 mm 2,2 km/h (1 Bft) W-SW 238 ° 0 min 0,000 mm 0,9 UV-I 134 W/m² -0,0 °C 1,6 °C 3,2 km/h (1 Bft)
26.03.2017 08:59 1,7 °C 1,7 °C 89 % 1020,6 hPa 0,0 mm 3,4 km/h (1 Bft) W-SW 238 ° 0 min 0,000 mm 0,9 UV-I 139 W/m² 0,1 °C 1,7 °C 4,8 km/h (1 Bft)
26.03.2017 09:00 1,7 °C 1,8 °C 89 % 1020,6 hPa 0,0 mm 3,6 km/h (1 Bft) W-SW 240 ° 0 min 0,025 mm 0,9 UV-I 144 W/m² 0,1 °C 1,7 °C 4,8 km/h (1 Bft)
26.03.2017 09:01 1,8 °C 1,8 °C 89 % 1020,6 hPa 0,0 mm 5,3 km/h (1 Bft) W-SW 257 ° 0 min 0,000 mm 0,9 UV-I 179 W/m² 0,2 °C 0,3 °C 6,4 km/h (2 Bft)
26.03.2017 09:02 1,9 °C 1,9 °C 89 % 1020,6 hPa 0,0 mm 5,4 km/h (1 Bft) W-SW 252 ° 0 min 0,000 mm 0,9 UV-I 200 W/m² 0,3 °C 0,4 °C 6,4 km/h (2 Bft)
26.03.2017 09:03 2,1 °C 2,1 °C 89 % 1020,6 hPa 0,0 mm 3,0 km/h (1 Bft) W-SW 252 ° 0 min 0,000 mm 0,8 UV-I 156 W/m² 0,5 °C 2,1 °C 4,8 km/h (1 Bft)
26.03.2017 09:04 2,2 °C 2,2 °C 87 % 1020,6 hPa 0,0 mm 2,3 km/h (1 Bft) W-SW 252 ° 0 min 0,000 mm 0,7 UV-I 156 W/m² 0,3 °C 2,2 °C 3,2 km/h (1 Bft)
26.03.2017 09:05 2,2 °C 2,2 °C 87 % 1020,7 hPa 0,0 mm 1,9 km/h (1 Bft) W-SW 252 ° 0 min 0,000 mm 0,7 UV-I 132 W/m² 0,3 °C 2,2 °C 3,2 km/h (1 Bft)
26.03.2017 09:06 2,3 °C 2,3 °C 87 % 1020,6 hPa 0,0 mm 1,6 km/h (1 Bft) W-SW 252 ° 0 min 0,000 mm 0,6 UV-I 121 W/m² 0,4 °C 2,3 °C 3,2 km/h (1 Bft)
26.03.2017 09:07 2,3 °C 2,3 °C 86 % 1020,7 hPa 0,0 mm 2,1 km/h (1 Bft) W-SW 252 ° 0 min 0,000 mm 0,6 UV-I 111 W/m² 0,2 °C 2,3 °C 4,8 km/h (1 Bft)
26.03.2017 09:08 2,4 °C 2,4 °C 86 % 1020,8 hPa 0,0 mm 0,7 km/h (0 Bft) W-SW 252 ° 0 min 0,000 mm 0,5 UV-I 105 W/m² 0,3 °C 2,4 °C 1,6 km/h (1 Bft)
26.03.2017 09:09 2,4 °C 2,4 °C 87 % 1020,8 hPa 0,0 mm 0,8 km/h (0 Bft) W-SW 252 ° 0 min 0,000 mm 0,5 UV-I 98 W/m² 0,5 °C 2,4 °C 1,6 km/h (1 Bft)
26.03.2017 09:10 2,4 °C 2,4 °C 87 % 1020,8 hPa 0,0 mm 1,5 km/h (1 Bft) W-SW 252 ° 0 min 0,000 mm 0,5 UV-I 100 W/m² 0,5 °C 2,4 °C 3,2 km/h (1 Bft)
26.03.2017 09:11 2,4 °C 2,4 °C 87 % 1020,8 hPa 0,0 mm 0,1 km/h (0 Bft) W-SW 252 ° 0 min 0,000 mm 0,5 UV-I 93 W/m² 0,5 °C 2,4 °C 1,6 km/h (1 Bft)
26.03.2017 09:12 2,4 °C 2,5 °C 87 % 1020,8 hPa 0,0 mm 0,0 km/h (0 Bft) W-SW 252 ° 0 min 0,000 mm 0,5 UV-I 95 W/m² 0,5 °C 2,4 °C 0,0 km/h (0 Bft)
26.03.2017 09:13 2,6 °C 2,6 °C 87 % 1020,8 hPa 0,0 mm 0,4 km/h (0 Bft) W-SW 252 ° 0 min 0,000 mm 0,5 UV-I 100 W/m² 0,7 °C 2,6 °C 1,6 km/h (1 Bft)
26.03.2017 09:14 2,6 °C 2,6 °C 86 % 1020,9 hPa 0,0 mm 1,0 km/h (0 Bft) W-SW 252 ° 0 min 0,000 mm 0,6 UV-I 107 W/m² 0,5 °C 2,6 °C 3,2 km/h (1 Bft)
26.03.2017 09:15 2,6 °C 2,6 °C 85 % 1020,8 hPa 0,0 mm 2,1 km/h (1 Bft) W-SW 252 ° 0 min 0,000 mm 0,6 UV-I 114 W/m² 0,3 °C 2,6 °C 3,2 km/h (1 Bft)
26.03.2017 09:16 2,6 °C 2,6 °C 85 % 1020,8 hPa 0,0 mm 2,3 km/h (1 Bft) W-SW 252 ° 0 min 0,000 mm 0,6 UV-I 121 W/m² 0,3 °C 2,6 °C 3,2 km/h (1 Bft)
26.03.2017 09:17 2,6 °C 2,6 °C 85 % 1020,8 hPa 0,0 mm 3,1 km/h (1 Bft) W-SW 252 ° 0 min 0,000 mm 0,7 UV-I 125 W/m² 0,3 °C 2,6 °C 4,8 km/h (1 Bft)
26.03.2017 09:18 2,7 °C 2,7 °C 85 % 1020,8 hPa 0,0 mm 4,3 km/h (1 Bft) W 269 ° 0 min 0,000 mm 0,7 UV-I 123 W/m² 0,4 °C 2,7 °C 4,8 km/h (1 Bft)
26.03.2017 09:19 2,7 °C 2,7 °C 86 % 1020,9 hPa 0,0 mm 2,3 km/h (1 Bft) W 269 ° 0 min 0,000 mm 0,7 UV-I 123 W/m² 0,6 °C 2,7 °C 3,2 km/h (1 Bft)
26.03.2017 09:20 2,8 °C 2,8 °C 86 % 1020,8 hPa 0,0 mm 1,9 km/h (1 Bft) W 269 ° 0 min 0,000 mm 0,7 UV-I 127 W/m² 0,7 °C 2,8 °C 3,2 km/h (1 Bft)
26.03.2017 09:21 2,8 °C 2,8 °C 86 % 1020,8 hPa 0,0 mm 2,3 km/h (1 Bft) W 269 ° 0 min 0,000 mm 0,8 UV-I 137 W/m² 0,7 °C 2,8 °C 4,8 km/h (1 Bft)
26.03.2017 09:22 2,8 °C 2,8 °C 85 % 1020,8 hPa 0,0 mm 4,1 km/h (1 Bft) W 269 ° 0 min 0,000 mm 0,8 UV-I 149 W/m² 0,5 °C 2,8 °C 4,8 km/h (1 Bft)
26.03.2017 09:23 2,9 °C 2,9 °C 86 % 1020,8 hPa 0,0 mm 2,9 km/h (1 Bft) W 269 ° 0 min 0,000 mm 0,9 UV-I 165 W/m² 0,8 °C 2,9 °C 3,2 km/h (1 Bft)
26.03.2017 09:24 2,9 °C 2,9 °C 87 % 1020,7 hPa 0,0 mm 3,2 km/h (1 Bft) W-SW 254 ° 0 min 0,000 mm 0,9 UV-I 174 W/m² 1,0 °C 2,9 °C 4,8 km/h (1 Bft)
26.03.2017 09:25 2,9 °C 3,0 °C 86 % 1020,7 hPa 0,0 mm 3,9 km/h (1 Bft) W-SW 254 ° 0 min 0,000 mm 0,9 UV-I 174 W/m² 0,8 °C 2,9 °C 4,8 km/h (1 Bft)
26.03.2017 09:26 2,9 °C 3,0 °C 85 % 1020,7 hPa 0,0 mm 4,9 km/h (1 Bft) W-SW 244 ° 0 min 0,000 mm 0,9 UV-I 174 W/m² 0,6 °C 1,7 °C 8,0 km/h (2 Bft)
26.03.2017 09:27 2,9 °C 3,0 °C 85 % 1020,7 hPa 0,0 mm 3,0 km/h (1 Bft) W-SW 244 ° 0 min 0,000 mm 0,9 UV-I 172 W/m² 0,6 °C 2,9 °C 3,2 km/h (1 Bft)
26.03.2017 09:28 3,0 °C 3,0 °C 87 % 1020,7 hPa 0,0 mm 3,4 km/h (1 Bft) W-SW 244 ° 0 min 0,000 mm 0,9 UV-I 171 W/m² 1,1 °C 3,0 °C 4,8 km/h (1 Bft)
26.03.2017 09:29 3,0 °C 3,1 °C 85 % 1020,7 hPa 0,0 mm 2,9 km/h (1 Bft) W-SW 244 ° 0 min 0,000 mm 0,9 UV-I 172 W/m² 0,7 °C 3,0 °C 4,8 km/h (1 Bft)
26.03.2017 09:30 3,0 °C 3,1 °C 85 % 1020,7 hPa 0,0 mm 2,0 km/h (1 Bft) W-SW 244 ° 0 min 0,000 mm 1,0 UV-I 181 W/m² 0,7 °C 3,0 °C 4,8 km/h (1 Bft)
26.03.2017 09:31 3,1 °C 3,1 °C 86 % 1020,7 hPa 0,0 mm 2,9 km/h (1 Bft) W-SW 244 ° 0 min 0,000 mm 1,0 UV-I 174 W/m² 1,0 °C 3,1 °C 4,8 km/h (1 Bft)
26.03.2017 09:32 3,1 °C 3,1 °C 85 % 1020,7 hPa 0,0 mm 2,8 km/h (1 Bft) W-SW 244 ° 0 min 0,000 mm 1,0 UV-I 169 W/m² 0,8 °C 3,1 °C 4,8 km/h (1 Bft)
26.03.2017 09:33 3,0 °C 3,1 °C 85 % 1020,7 hPa 0,0 mm 2,0 km/h (1 Bft) W-SW 244 ° 0 min 0,000 mm 1,0 UV-I 163 W/m² 0,7 °C 3,0 °C 3,2 km/h (1 Bft)
26.03.2017 09:34 3,1 °C 3,1 °C 85 % 1020,7 hPa 0,0 mm 3,0 km/h (1 Bft) W-SW 244 ° 0 min 0,000 mm 0,9 UV-I 153 W/m² 0,8 °C 3,1 °C 3,2 km/h (1 Bft)
26.03.2017 09:35 3,1 °C 3,1 °C 85 % 1020,8 hPa 0,0 mm 2,0 km/h (1 Bft) W-SW 244 ° 0 min 0,000 mm 0,9 UV-I 146 W/m² 0,8 °C 3,1 °C 3,2 km/h (1 Bft)
26.03.2017 09:36 3,1 °C 3,1 °C 86 % 1020,8 hPa 0,0 mm 2,9 km/h (1 Bft) W-SW 244 ° 0 min 0,000 mm 0,9 UV-I 139 W/m² 1,0 °C 3,1 °C 4,8 km/h (1 Bft)
26.03.2017 09:37 3,1 °C 3,1 °C 86 % 1020,7 hPa 0,0 mm 2,2 km/h (1 Bft) W-SW 244 ° 0 min 0,000 mm 0,9 UV-I 141 W/m² 1,0 °C 3,1 °C 3,2 km/h (1 Bft)
26.03.2017 09:38 3,1 °C 3,1 °C 86 % 1020,7 hPa 0,0 mm 3,7 km/h (1 Bft) W-SW 244 ° 0 min 0,000 mm 0,9 UV-I 141 W/m² 1,0 °C 3,1 °C 4,8 km/h (1 Bft)
26.03.2017 09:39 3,2 °C 3,2 °C 86 % 1020,8 hPa 0,0 mm 3,0 km/h (1 Bft) SW 231 ° 0 min 0,000 mm 1,0 UV-I 165 W/m² 1,1 °C 3,2 °C 4,8 km/h (1 Bft)
26.03.2017 09:40 3,2 °C 3,2 °C 86 % 1020,7 hPa 0,0 mm 3,6 km/h (1 Bft) W-SW 257 ° 0 min 0,000 mm 1,0 UV-I 179 W/m² 1,1 °C 3,2 °C 4,8 km/h (1 Bft)
26.03.2017 09:41 3,3 °C 3,3 °C 86 % 1020,7 hPa 0,0 mm 1,2 km/h (1 Bft) W-SW 257 ° 0 min 0,000 mm 1,0 UV-I 167 W/m² 1,2 °C 3,3 °C 4,8 km/h (1 Bft)
26.03.2017 09:42 3,3 °C 3,3 °C 86 % 1020,7 hPa 0,0 mm 3,4 km/h (1 Bft) W 274 ° 0 min 0,000 mm 1,0 UV-I 185 W/m² 1,2 °C 3,3 °C 4,8 km/h (1 Bft)
26.03.2017 09:43 3,3 °C 3,3 °C 86 % 1020,6 hPa 0,0 mm 3,0 km/h (1 Bft) W-NW 288 ° 0 min 0,000 mm 1,1 UV-I 200 W/m² 1,2 °C 3,3 °C 4,8 km/h (1 Bft)
26.03.2017 09:44 3,3 °C 3,3 °C 85 % 1020,6 hPa 0,0 mm 2,7 km/h (1 Bft) W 261 ° 0 min 0,000 mm 1,1 UV-I 195 W/m² 1,0 °C 3,3 °C 4,8 km/h (1 Bft)
26.03.2017 09:45 3,3 °C 3,3 °C 85 % 1020,6 hPa 0,0 mm 3,8 km/h (1 Bft) SW 236 ° 0 min 0,000 mm 1,2 UV-I 190 W/m² 1,0 °C 3,3 °C 4,8 km/h (1 Bft)
26.03.2017 09:46 3,3 °C 3,3 °C 87 % 1020,5 hPa 0,0 mm 4,0 km/h (1 Bft) W-SW 258 ° 0 min 0,000 mm 1,3 UV-I 213 W/m² 1,3 °C 3,3 °C 6,4 km/h (2 Bft)
26.03.2017 09:47 3,4 °C 3,4 °C 87 % 1020,5 hPa 0,0 mm 4,7 km/h (1 Bft) W-SW 251 ° 0 min 0,000 mm 1,3 UV-I 223 W/m² 1,4 °C 2,4 °C 6,4 km/h (2 Bft)
26.03.2017 09:48 3,5 °C 3,5 °C 86 % 1020,4 hPa 0,0 mm 4,4 km/h (1 Bft) W-SW 248 ° 0 min 0,000 mm 1,3 UV-I 227 W/m² 1,4 °C 3,5 °C 6,4 km/h (2 Bft)
26.03.2017 09:49 3,6 °C 3,6 °C 87 % 1020,5 hPa 0,0 mm 4,8 km/h (1 Bft) W-SW 249 ° 0 min 0,000 mm 1,5 UV-I 227 W/m² 1,6 °C 2,6 °C 6,4 km/h (2 Bft)
26.03.2017 09:50 3,7 °C 3,7 °C 88 % 1020,5 hPa 0,0 mm 4,5 km/h (1 Bft) W-SW 255 ° 0 min 0,000 mm 1,2 UV-I 227 W/m² 1,9 °C 3,7 °C 8,0 km/h (2 Bft)
26.03.2017 09:51 3,7 °C 3,7 °C 88 % 1020,5 hPa 0,0 mm 4,0 km/h (1 Bft) W 269 ° 0 min 0,000 mm 1,3 UV-I 213 W/m² 1,9 °C 3,7 °C 9,7 km/h (2 Bft)
26.03.2017 09:52 3,8 °C 3,8 °C 88 % 1020,5 hPa 0,0 mm 6,3 km/h (2 Bft) W 273 ° 0 min 0,000 mm 1,3 UV-I 223 W/m² 2,0 °C 2,2 °C 9,7 km/h (2 Bft)
26.03.2017 09:53 3,7 °C 3,8 °C 87 % 1020,5 hPa 0,0 mm 5,2 km/h (1 Bft) W 281 ° 0 min 0,000 mm 1,3 UV-I 220 W/m² 1,7 °C 2,5 °C 9,7 km/h (2 Bft)
26.03.2017 09:54 3,7 °C 3,7 °C 87 % 1020,6 hPa 0,0 mm 6,1 km/h (2 Bft) W-NW 283 ° 0 min 0,000 mm 1,2 UV-I 218 W/m² 1,7 °C 2,2 °C 11,3 km/h (2 Bft)
26.03.2017 09:55 3,6 °C 3,7 °C 88 % 1020,6 hPa 0,0 mm 3,6 km/h (1 Bft) W-NW 288 ° 0 min 0,000 mm 1,3 UV-I 237 W/m² 1,8 °C 3,6 °C 4,8 km/h (1 Bft)
26.03.2017 09:56 3,6 °C 3,6 °C 88 % 1020,6 hPa 0,0 mm 5,8 km/h (2 Bft) W-NW 290 ° 0 min 0,000 mm 1,4 UV-I 253 W/m² 1,8 °C 2,2 °C 8,0 km/h (2 Bft)
26.03.2017 09:57 3,7 °C 3,7 °C 88 % 1020,6 hPa 0,0 mm 3,6 km/h (1 Bft) W-NW 290 ° 0 min 0,000 mm 1,6 UV-I 281 W/m² 1,9 °C 3,7 °C 6,4 km/h (2 Bft)
26.03.2017 09:58 3,6 °C 3,7 °C 88 % 1020,6 hPa 0,0 mm 4,3 km/h (1 Bft) W-NW 290 ° 0 min 0,000 mm 1,5 UV-I 260 W/m² 1,8 °C 3,6 °C 4,8 km/h (1 Bft)
26.03.2017 09:59 3,6 °C 3,6 °C 88 % 1020,6 hPa 0,0 mm 3,1 km/h (1 Bft) W-NW 290 ° 1 min 0,000 mm 1,6 UV-I 334 W/m² 1,8 °C 3,6 °C 4,8 km/h (1 Bft)
26.03.2017 10:00 3,7 °C 3,7 °C 89 % 1020,6 hPa 0,0 mm 3,2 km/h (1 Bft) NW 321 ° 1 min 0,000 mm 1,8 UV-I 381 W/m² 2,1 °C 3,7 °C 6,4 km/h (2 Bft)
26.03.2017 10:01 3,8 °C 3,8 °C 89 % 1020,6 hPa 0,0 mm 4,6 km/h (1 Bft) W-NW 292 ° 1 min 0,077 mm 1,6 UV-I 381 W/m² 2,2 °C 2,9 °C 6,4 km/h (2 Bft)
26.03.2017 10:02 3,9 °C 3,9 °C 90 % 1020,6 hPa 0,0 mm 5,4 km/h (1 Bft) NW 305 ° 1 min 0,000 mm 1,9 UV-I 381 W/m² 2,4 °C 2,7 °C 6,4 km/h (2 Bft)
26.03.2017 10:03 3,9 °C 3,9 °C 88 % 1020,6 hPa 0,0 mm 6,1 km/h (2 Bft) W-NW 282 ° 1 min 0,000 mm 1,9 UV-I 404 W/m² 2,1 °C 2,4 °C 11,3 km/h (2 Bft)
26.03.2017 10:04 3,9 °C 3,9 °C 87 % 1020,6 hPa 0,0 mm 1,6 km/h (1 Bft) W 281 ° 1 min 0,000 mm 1,8 UV-I 390 W/m² 1,9 °C 3,9 °C 4,8 km/h (1 Bft)
26.03.2017 10:05 3,8 °C 3,9 °C 88 % 1020,6 hPa 0,0 mm 4,1 km/h (1 Bft) NW 308 ° 1 min 0,000 mm 1,8 UV-I 360 W/m² 2,0 °C 3,8 °C 6,4 km/h (2 Bft)
26.03.2017 10:06 3,8 °C 3,8 °C 89 % 1020,6 hPa 0,0 mm 6,0 km/h (2 Bft) W 279 ° 1 min 0,000 mm 1,8 UV-I 403 W/m² 2,2 °C 2,3 °C 9,7 km/h (2 Bft)
26.03.2017 10:07 3,9 °C 3,9 °C 89 % 1020,7 hPa 0,0 mm 5,9 km/h (2 Bft) W 259 ° 1 min 0,000 mm 1,9 UV-I 385 W/m² 2,3 °C 2,5 °C 9,7 km/h (2 Bft)
26.03.2017 10:08 4,0 °C 4,0 °C 88 % 1020,7 hPa 0,0 mm 6,2 km/h (2 Bft) W 278 ° 1 min 0,000 mm 1,9 UV-I 404 W/m² 2,2 °C 2,5 °C 9,7 km/h (2 Bft)
26.03.2017 10:09 4,1 °C 4,2 °C 88 % 1020,7 hPa 0,0 mm 7,7 km/h (2 Bft) W-NW 282 ° 1 min 0,000 mm 1,9 UV-I 388 W/m² 2,3 °C 2,2 °C 9,7 km/h (2 Bft)
26.03.2017 10:10 4,2 °C 4,2 °C 88 % 1020,7 hPa 0,0 mm 6,1 km/h (2 Bft) NW 315 ° 1 min 0,000 mm 1,9 UV-I 413 W/m² 2,4 °C 2,8 °C 9,7 km/h (2 Bft)
26.03.2017 10:11 4,2 °C 4,2 °C 88 % 1020,7 hPa 0,0 mm 4,1 km/h (1 Bft) W-SW 254 ° 1 min 0,000 mm 1,9 UV-I 394 W/m² 2,4 °C 4,2 °C 6,4 km/h (2 Bft)
26.03.2017 10:12 4,2 °C 4,2 °C 87 % 1020,7 hPa 0,0 mm 4,4 km/h (1 Bft) W-SW 244 ° 1 min 0,000 mm 1,9 UV-I 369 W/m² 2,2 °C 4,2 °C 6,4 km/h (2 Bft)
26.03.2017 10:13 4,2 °C 4,2 °C 87 % 1020,8 hPa 0,0 mm 4,2 km/h (1 Bft) NW 304 ° 1 min 0,000 mm 1,9 UV-I 367 W/m² 2,2 °C 4,2 °C 6,4 km/h (2 Bft)
26.03.2017 10:14 4,2 °C 4,2 °C 88 % 1020,7 hPa 0,0 mm 6,2 km/h (2 Bft) W-NW 288 ° 1 min 0,000 mm 2,0 UV-I 394 W/m² 2,4 °C 2,7 °C 9,7 km/h (2 Bft)
26.03.2017 10:15 4,3 °C 4,3 °C 89 % 1020,7 hPa 0,0 mm 5,5 km/h (1 Bft) NW 306 ° 1 min 0,000 mm 2,0 UV-I 403 W/m² 2,7 °C 3,1 °C 8,0 km/h (2 Bft)
26.03.2017 10:16 4,3 °C 4,3 °C 89 % 1020,6 hPa 0,0 mm 4,2 km/h (1 Bft) NW 316 ° 1 min 0,000 mm 2,0 UV-I 415 W/m² 2,7 °C 4,3 °C 4,8 km/h (1 Bft)
26.03.2017 10:17 4,3 °C 4,3 °C 87 % 1020,6 hPa 0,0 mm 4,9 km/h (1 Bft) W-NW 290 ° 1 min 0,000 mm 2,1 UV-I 399 W/m² 2,3 °C 3,3 °C 6,4 km/h (2 Bft)
26.03.2017 10:18 4,3 °C 4,3 °C 86 % 1020,6 hPa 0,0 mm 4,0 km/h (1 Bft) W 281 ° 1 min 0,000 mm 2,0 UV-I 401 W/m² 2,2 °C 4,3 °C 6,4 km/h (2 Bft)
26.03.2017 10:19 4,2 °C 4,3 °C 87 % 1020,5 hPa 0,0 mm 3,3 km/h (1 Bft) W 277 ° 1 min 0,000 mm 2,0 UV-I 362 W/m² 2,2 °C 4,2 °C 6,4 km/h (2 Bft)
26.03.2017 10:20 4,2 °C 4,2 °C 87 % 1020,5 hPa 0,0 mm 5,0 km/h (1 Bft) W 279 ° 1 min 0,000 mm 2,1 UV-I 411 W/m² 2,2 °C 3,2 °C 9,7 km/h (2 Bft)
26.03.2017 10:21 4,3 °C 4,3 °C 89 % 1020,5 hPa 0,0 mm 3,2 km/h (1 Bft) W-NW 298 ° 1 min 0,000 mm 2,1 UV-I 429 W/m² 2,7 °C 4,3 °C 4,8 km/h (1 Bft)
26.03.2017 10:22 4,4 °C 4,4 °C 88 % 1020,5 hPa 0,0 mm 3,3 km/h (1 Bft) NW 312 ° 1 min 0,000 mm 2,2 UV-I 454 W/m² 2,6 °C 4,4 °C 6,4 km/h (2 Bft)
26.03.2017 10:23 4,6 °C 4,6 °C 88 % 1020,5 hPa 0,0 mm 4,8 km/h (1 Bft) W-NW 291 ° 1 min 0,000 mm 2,2 UV-I 452 W/m² 2,8 °C 3,7 °C 8,0 km/h (2 Bft)
26.03.2017 10:24 4,7 °C 4,7 °C 88 % 1020,5 hPa 0,0 mm 4,3 km/h (1 Bft) W-NW 286 ° 1 min 0,000 mm 1,8 UV-I 452 W/m² 2,9 °C 4,7 °C 6,4 km/h (2 Bft)
26.03.2017 10:25 4,7 °C 4,7 °C 86 % 1020,6 hPa 0,0 mm 4,8 km/h (1 Bft) NW 309 ° 1 min 0,000 mm 2,1 UV-I 369 W/m² 2,6 °C 3,8 °C 8,0 km/h (2 Bft)
26.03.2017 10:26 4,8 °C 4,8 °C 87 % 1020,6 hPa 0,0 mm 4,3 km/h (1 Bft) NW 310 ° 1 min 0,000 mm 2,0 UV-I 352 W/m² 2,8 °C 4,8 °C 6,4 km/h (2 Bft)
26.03.2017 10:27 4,9 °C 4,9 °C 87 % 1020,5 hPa 0,0 mm 2,7 km/h (1 Bft) NW 309 ° 1 min 0,000 mm 2,1 UV-I 383 W/m² 2,9 °C 4,9 °C 4,8 km/h (1 Bft)
26.03.2017 10:28 4,9 °C 4,9 °C 86 % 1020,5 hPa 0,0 mm 4,8 km/h (1 Bft) W-NW 302 ° 1 min 0,000 mm 2,1 UV-I 385 W/m² 2,8 °C 4,0 °C 6,4 km/h (2 Bft)
26.03.2017 10:29 4,9 °C 4,9 °C 87 % 1020,5 hPa 0,0 mm 3,2 km/h (1 Bft) NW 310 ° 1 min 0,000 mm 2,1 UV-I 404 W/m² 2,9 °C 4,9 °C 4,8 km/h (1 Bft)
26.03.2017 10:30 4,9 °C 4,9 °C 86 % 1020,5 hPa 0,0 mm 3,2 km/h (1 Bft) NW 308 ° 1 min 0,000 mm 2,2 UV-I 388 W/m² 2,8 °C 4,9 °C 6,4 km/h (2 Bft)
26.03.2017 10:31 5,0 °C 5,0 °C 87 % 1020,5 hPa 0,0 mm 4,8 km/h (1 Bft) N-NW 329 ° 1 min 0,000 mm 2,2 UV-I 415 W/m² 3,0 °C 4,2 °C 6,4 km/h (2 Bft)
26.03.2017 10:32 5,1 °C 5,1 °C 87 % 1020,5 hPa 0,0 mm 7,5 km/h (2 Bft) NW 308 ° 1 min 0,000 mm 2,2 UV-I 336 W/m² 3,1 °C 3,4 °C 9,7 km/h (2 Bft)
26.03.2017 10:33 5,2 °C 5,2 °C 86 % 1020,6 hPa 0,0 mm 2,6 km/h (1 Bft) W-NW 303 ° 1 min 0,000 mm 2,3 UV-I 434 W/m² 3,1 °C 5,2 °C 8,0 km/h (2 Bft)
26.03.2017 10:34 5,3 °C 5,3 °C 86 % 1020,6 hPa 0,0 mm 5,8 km/h (2 Bft) NW 314 ° 1 min 0,000 mm 2,4 UV-I 446 W/m² 3,2 °C 4,1 °C 9,7 km/h (2 Bft)
26.03.2017 10:35 5,5 °C 5,5 °C 87 % 1020,6 hPa 0,0 mm 5,2 km/h (1 Bft) NW 322 ° 1 min 0,000 mm 2,3 UV-I 464 W/m² 3,5 °C 4,6 °C 8,0 km/h (2 Bft)
26.03.2017 10:36 5,6 °C 5,6 °C 87 % 1020,6 hPa 0,0 mm 6,2 km/h (2 Bft) W-NW 294 ° 1 min 0,000 mm 2,4 UV-I 468 W/m² 3,6 °C 4,3 °C 8,0 km/h (2 Bft)
26.03.2017 10:37 5,8 °C 5,8 °C 87 % 1020,6 hPa 0,0 mm 5,3 km/h (1 Bft) N 355 ° 1 min 0,000 mm 2,4 UV-I 441 W/m² 3,8 °C 4,9 °C 8,0 km/h (2 Bft)
26.03.2017 10:38 5,9 °C 5,9 °C 87 % 1020,6 hPa 0,0 mm 6,2 km/h (2 Bft) N-NW 340 ° 1 min 0,000 mm 2,4 UV-I 464 W/m² 3,9 °C 4,7 °C 8,0 km/h (2 Bft)
26.03.2017 10:39 6,2 °C 6,2 °C 87 % 1020,6 hPa 0,0 mm 5,6 km/h (1 Bft) W-NW 284 ° 1 min 0,000 mm 2,4 UV-I 469 W/m² 4,2 °C 5,2 °C 9,7 km/h (2 Bft)
26.03.2017 10:40 6,2 °C 6,2 °C 85 % 1020,7 hPa 0,0 mm 4,8 km/h (1 Bft) NW 312 ° 1 min 0,000 mm 2,5 UV-I 492 W/m² 3,9 °C 5,5 °C 8,0 km/h (2 Bft)
26.03.2017 10:41 6,3 °C 6,3 °C 85 % 1020,7 hPa 0,0 mm 6,3 km/h (2 Bft) W 273 ° 1 min 0,000 mm 2,5 UV-I 445 W/m² 4,0 °C 5,1 °C 9,7 km/h (2 Bft)
26.03.2017 10:42 6,3 °C 6,3 °C 84 % 1020,7 hPa 0,0 mm 5,3 km/h (1 Bft) NW 321 ° 1 min 0,000 mm 2,5 UV-I 445 W/m² 3,8 °C 5,5 °C 6,4 km/h (2 Bft)
26.03.2017 10:43 6,3 °C 6,3 °C 84 % 1020,7 hPa 0,0 mm 3,3 km/h (1 Bft) N-NW 327 ° 1 min 0,000 mm 2,4 UV-I 448 W/m² 3,8 °C 6,3 °C 4,8 km/h (1 Bft)
26.03.2017 10:44 6,4 °C 6,4 °C 83 % 1020,7 hPa 0,0 mm 8,1 km/h (2 Bft) N-NW 342 ° 1 min 0,000 mm 2,5 UV-I 485 W/m² 3,7 °C 4,8 °C 12,9 km/h (3 Bft)
26.03.2017 10:45 6,3 °C 6,4 °C 83 % 1020,7 hPa 0,0 mm 3,9 km/h (1 Bft) NW 316 ° 1 min 0,000 mm 2,6 UV-I 492 W/m² 3,6 °C 6,3 °C 6,4 km/h (2 Bft)
26.03.2017 10:46 6,4 °C 6,4 °C 84 % 1020,7 hPa 0,0 mm 2,9 km/h (1 Bft) W-NW 300 ° 1 min 0,000 mm 2,6 UV-I 508 W/m² 3,9 °C 6,4 °C 6,4 km/h (2 Bft)
26.03.2017 10:47 6,6 °C 6,6 °C 85 % 1020,7 hPa 0,0 mm 6,6 km/h (2 Bft) NW 323 ° 1 min 0,000 mm 2,6 UV-I 499 W/m² 4,3 °C 5,4 °C 9,7 km/h (2 Bft)
26.03.2017 10:48 6,7 °C 6,7 °C 85 % 1020,7 hPa 0,0 mm 5,8 km/h (2 Bft) W-NW 298 ° 1 min 0,000 mm 2,6 UV-I 510 W/m² 4,4 °C 5,7 °C 6,4 km/h (2 Bft)
26.03.2017 10:49 6,7 °C 6,7 °C 85 % 1020,7 hPa 0,0 mm 7,3 km/h (2 Bft) NW 322 ° 1 min 0,000 mm 2,5 UV-I 510 W/m² 4,4 °C 5,3 °C 11,3 km/h (2 Bft)
26.03.2017 10:50 6,7 °C 6,7 °C 82 % 1020,7 hPa 0,0 mm 7,5 km/h (2 Bft) W 269 ° 1 min 0,000 mm 2,5 UV-I 471 W/m² 3,8 °C 5,3 °C 11,3 km/h (2 Bft)
26.03.2017 10:51 6,7 °C 6,7 °C 81 % 1020,7 hPa 0,0 mm 7,6 km/h (2 Bft) W-NW 299 ° 1 min 0,000 mm 2,6 UV-I 443 W/m² 3,7 °C 5,2 °C 12,9 km/h (3 Bft)
26.03.2017 10:52 6,5 °C 6,7 °C 81 % 1020,7 hPa 0,0 mm 5,4 km/h (1 Bft) W-NW 284 ° 1 min 0,000 mm 2,5 UV-I 482 W/m² 3,5 °C 5,6 °C 11,3 km/h (2 Bft)
26.03.2017 10:53 6,7 °C 6,7 °C 84 % 1020,7 hPa 0,0 mm 6,7 km/h (2 Bft) W-NW 285 ° 1 min 0,000 mm 2,8 UV-I 536 W/m² 4,2 °C 5,5 °C 11,3 km/h (2 Bft)
26.03.2017 10:54 6,8 °C 6,8 °C 83 % 1020,7 hPa 0,0 mm 7,5 km/h (2 Bft) W 270 ° 1 min 0,000 mm 2,8 UV-I 550 W/m² 4,1 °C 5,4 °C 12,9 km/h (3 Bft)
26.03.2017 10:55 6,9 °C 6,9 °C 84 % 1020,7 hPa 0,0 mm 8,4 km/h (2 Bft) W-NW 282 ° 1 min 0,000 mm 2,7 UV-I 504 W/m² 4,4 °C 5,3 °C 12,9 km/h (3 Bft)
26.03.2017 10:56 6,9 °C 7,0 °C 80 % 1020,8 hPa 0,0 mm 6,5 km/h (2 Bft) W 276 ° 1 min 0,000 mm 2,8 UV-I 520 W/m² 3,7 °C 5,8 °C 11,3 km/h (2 Bft)
26.03.2017 10:57 6,9 °C 6,9 °C 81 % 1020,8 hPa 0,0 mm 8,5 km/h (2 Bft) W-NW 293 ° 1 min 0,000 mm 2,8 UV-I 531 W/m² 3,9 °C 5,2 °C 12,9 km/h (3 Bft)
26.03.2017 10:58 6,9 °C 6,9 °C 82 % 1020,8 hPa 0,0 mm 8,4 km/h (2 Bft) NW 313 ° 1 min 0,000 mm 2,7 UV-I 473 W/m² 4,0 °C 5,3 °C 12,9 km/h (3 Bft)
26.03.2017 10:59 6,9 °C 6,9 °C 83 % 1020,8 hPa 0,0 mm 5,3 km/h (1 Bft) W-NW 301 ° 1 min 0,000 mm 2,7 UV-I 522 W/m² 4,2 °C 6,1 °C 8,0 km/h (2 Bft)
26.03.2017 11:00 6,9 °C 6,9 °C 82 % 1020,9 hPa 0,0 mm 4,7 km/h (1 Bft) W 269 ° 1 min 0,000 mm 2,6 UV-I 522 W/m² 4,0 °C 6,3 °C 8,0 km/h (2 Bft)
26.03.2017 11:01 6,9 °C 6,9 °C 82 % 1020,9 hPa 0,0 mm 10,6 km/h (2 Bft) W-SW 253 ° 1 min 0,177 mm 2,8 UV-I 522 W/m² 4,0 °C 4,8 °C 12,9 km/h (3 Bft)
26.03.2017 11:02 7,0 °C 7,0 °C 80 % 1020,9 hPa 0,0 mm 14,1 km/h (3 Bft) W-NW 294 ° 1 min 0,000 mm 2,8 UV-I 552 W/m² 3,8 °C 4,3 °C 19,3 km/h (3 Bft)
26.03.2017 11:03 7,1 °C 7,1 °C 81 % 1020,9 hPa 0,0 mm 9,5 km/h (2 Bft) W-NW 300 ° 1 min 0,000 mm 2,8 UV-I 547 W/m² 4,1 °C 5,3 °C 12,9 km/h (3 Bft)
26.03.2017 11:04 7,1 °C 7,1 °C 81 % 1020,9 hPa 0,0 mm 13,2 km/h (3 Bft) W-SW 253 ° 1 min 0,000 mm 2,6 UV-I 489 W/m² 4,1 °C 4,6 °C 19,3 km/h (3 Bft)
26.03.2017 11:05 7,0 °C 7,1 °C 80 % 1020,9 hPa 0,0 mm 15,8 km/h (3 Bft) W-NW 282 ° 1 min 0,000 mm 2,8 UV-I 526 W/m² 3,8 °C 4,1 °C 22,5 km/h (4 Bft)
26.03.2017 11:06 7,0 °C 7,1 °C 80 % 1020,9 hPa 0,0 mm 8,3 km/h (2 Bft) W-NW 292 ° 1 min 0,000 mm 2,4 UV-I 526 W/m² 3,8 °C 5,4 °C 11,3 km/h (2 Bft)
26.03.2017 11:07 7,1 °C 7,1 °C 81 % 1020,8 hPa 0,0 mm 10,0 km/h (2 Bft) NW 304 ° 1 min 0,000 mm 2,8 UV-I 526 W/m² 4,1 °C 5,2 °C 17,7 km/h (3 Bft)
26.03.2017 11:08 7,1 °C 7,1 °C 80 % 1020,9 hPa 0,0 mm 11,9 km/h (2 Bft) W 279 ° 1 min 0,000 mm 2,9 UV-I 561 W/m² 3,9 °C 4,8 °C 17,7 km/h (3 Bft)
26.03.2017 11:09 7,1 °C 7,1 °C 80 % 1020,8 hPa 0,0 mm 9,3 km/h (2 Bft) W-NW 301 ° 1 min 0,000 mm 2,9 UV-I 527 W/m² 3,9 °C 5,3 °C 14,5 km/h (3 Bft)
26.03.2017 11:10 7,1 °C 7,1 °C 79 % 1020,8 hPa 0,0 mm 9,5 km/h (2 Bft) N-NW 336 ° 1 min 0,000 mm 2,7 UV-I 513 W/m² 3,7 °C 5,3 °C 17,7 km/h (3 Bft)
26.03.2017 11:11 7,1 °C 7,1 °C 80 % 1020,8 hPa 0,0 mm 5,4 km/h (1 Bft) NW 306 ° 0 min 0,000 mm 2,2 UV-I 287 W/m² 3,9 °C 6,3 °C 8,0 km/h (2 Bft)
26.03.2017 11:12 7,2 °C 7,2 °C 81 % 1020,9 hPa 0,0 mm 6,4 km/h (2 Bft) W-NW 286 ° 0 min 0,000 mm 2,5 UV-I 287 W/m² 4,2 °C 6,1 °C 11,3 km/h (2 Bft)
26.03.2017 11:13 7,2 °C 7,2 °C 79 % 1020,9 hPa 0,0 mm 12,2 km/h (2 Bft) W-SW 256 ° 1 min 0,000 mm 2,6 UV-I 415 W/m² 3,8 °C 4,9 °C 17,7 km/h (3 Bft)
26.03.2017 11:14 7,1 °C 7,2 °C 79 % 1020,9 hPa 0,0 mm 12,4 km/h (3 Bft) W-NW 298 ° 1 min 0,000 mm 2,4 UV-I 318 W/m² 3,7 °C 4,7 °C 16,1 km/h (3 Bft)
26.03.2017 11:15 7,1 °C 7,1 °C 79 % 1020,9 hPa 0,0 mm 10,7 km/h (2 Bft) W 271 ° 1 min 0,000 mm 2,5 UV-I 406 W/m² 3,7 °C 5,0 °C 16,1 km/h (3 Bft)
26.03.2017 11:16 6,9 °C 7,1 °C 79 % 1020,9 hPa 0,0 mm 15,2 km/h (3 Bft) W-NW 288 ° 1 min 0,000 mm 2,7 UV-I 332 W/m² 3,5 °C 4,1 °C 17,7 km/h (3 Bft)
26.03.2017 11:17 6,9 °C 7,0 °C 79 % 1020,9 hPa 0,0 mm 11,9 km/h (2 Bft) SW 229 ° 1 min 0,000 mm 2,4 UV-I 332 W/m² 3,5 °C 4,6 °C 16,1 km/h (3 Bft)
26.03.2017 11:18 6,9 °C 6,9 °C 79 % 1020,9 hPa 0,0 mm 10,7 km/h (2 Bft) W 271 ° 1 min 0,000 mm 3,1 UV-I 332 W/m² 3,5 °C 4,8 °C 16,1 km/h (3 Bft)
26.03.2017 11:19 6,9 °C 6,9 °C 80 % 1020,9 hPa 0,0 mm 11,3 km/h (2 Bft) W 269 ° 1 min 0,000 mm 3,0 UV-I 561 W/m² 3,7 °C 4,7 °C 14,5 km/h (3 Bft)
26.03.2017 11:20 7,0 °C 7,0 °C 80 % 1020,9 hPa 0,0 mm 9,7 km/h (2 Bft) W 267 ° 1 min 0,000 mm 3,0 UV-I 538 W/m² 3,8 °C 5,1 °C 16,1 km/h (3 Bft)
26.03.2017 11:21 7,1 °C 7,2 °C 80 % 1020,9 hPa 0,0 mm 10,5 km/h (2 Bft) W-SW 253 ° 1 min 0,000 mm 3,1 UV-I 570 W/m² 3,9 °C 5,1 °C 16,1 km/h (3 Bft)
26.03.2017 11:22 7,2 °C 7,2 °C 79 % 1020,9 hPa 0,0 mm 12,1 km/h (2 Bft) W-NW 296 ° 1 min 0,000 mm 3,1 UV-I 570 W/m² 3,8 °C 4,9 °C 17,7 km/h (3 Bft)
26.03.2017 11:23 7,4 °C 7,4 °C 79 % 1020,9 hPa 0,0 mm 10,7 km/h (2 Bft) W-SW 250 ° 1 min 0,000 mm 2,9 UV-I 570 W/m² 4,0 °C 5,4 °C 14,5 km/h (3 Bft)
26.03.2017 11:24 7,5 °C 7,5 °C 80 % 1020,9 hPa 0,0 mm 11,0 km/h (2 Bft) W 259 ° 1 min 0,000 mm 2,5 UV-I 570 W/m² 4,3 °C 5,5 °C 14,5 km/h (3 Bft)
26.03.2017 11:25 7,7 °C 7,7 °C 79 % 1020,9 hPa 0,0 mm 7,6 km/h (2 Bft) NW 309 ° 1 min 0,000 mm 3,0 UV-I 441 W/m² 4,3 °C 6,4 °C 14,5 km/h (3 Bft)
26.03.2017 11:26 7,7 °C 7,7 °C 80 % 1021,0 hPa 0,0 mm 12,4 km/h (3 Bft) NW 323 ° 1 min 0,000 mm 2,6 UV-I 404 W/m² 4,5 °C 5,5 °C 17,7 km/h (3 Bft)
26.03.2017 11:27 7,7 °C 7,8 °C 78 % 1021,0 hPa 0,0 mm 9,2 km/h (2 Bft) W-NW 298 ° 1 min 0,000 mm 2,4 UV-I 297 W/m² 4,1 °C 6,0 °C 14,5 km/h (3 Bft)
26.03.2017 11:28 7,6 °C 7,7 °C 77 % 1021,0 hPa 0,0 mm 12,5 km/h (3 Bft) NW 321 ° 0 min 0,000 mm 2,1 UV-I 229 W/m² 3,8 °C 5,3 °C 17,7 km/h (3 Bft)
26.03.2017 11:29 7,6 °C 7,6 °C 78 % 1021,1 hPa 0,0 mm 13,3 km/h (3 Bft) W-NW 296 ° 0 min 0,000 mm 2,1 UV-I 244 W/m² 4,0 °C 5,2 °C 17,7 km/h (3 Bft)
26.03.2017 11:30 7,4 °C 7,6 °C 78 % 1021,0 hPa 0,0 mm 11,5 km/h (2 Bft) W-NW 292 ° 1 min 0,000 mm 2,2 UV-I 295 W/m² 3,8 °C 5,2 °C 14,5 km/h (3 Bft)
26.03.2017 11:31 7,3 °C 7,4 °C 78 % 1021,1 hPa 0,0 mm 12,1 km/h (2 Bft) W-NW 294 ° 1 min 0,000 mm 2,2 UV-I 325 W/m² 3,7 °C 5,0 °C 17,7 km/h (3 Bft)
26.03.2017 11:32 7,3 °C 7,3 °C 77 % 1021,1 hPa 0,0 mm 10,6 km/h (2 Bft) W-NW 299 ° 0 min 0,000 mm 2,2 UV-I 283 W/m² 3,5 °C 5,3 °C 12,9 km/h (3 Bft)
26.03.2017 11:33 7,1 °C 7,3 °C 78 % 1021,2 hPa 0,0 mm 6,4 km/h (2 Bft) NW 315 ° 1 min 0,000 mm 2,2 UV-I 316 W/m² 3,5 °C 6,0 °C 9,7 km/h (2 Bft)
26.03.2017 11:34 7,1 °C 7,1 °C 79 % 1021,1 hPa 0,0 mm 11,7 km/h (2 Bft) W 263 ° 1 min 0,000 mm 2,3 UV-I 301 W/m² 3,7 °C 4,9 °C 17,7 km/h (3 Bft)
26.03.2017 11:35 7,0 °C 7,1 °C 78 % 1021,2 hPa 0,0 mm 8,2 km/h (2 Bft) W-NW 290 ° 1 min 0,000 mm 2,2 UV-I 301 W/m² 3,4 °C 5,4 °C 12,9 km/h (3 Bft)
26.03.2017 11:36 7,0 °C 7,0 °C 78 % 1021,2 hPa 0,0 mm 8,8 km/h (2 Bft) W-NW 293 ° 1 min 0,000 mm 2,1 UV-I 301 W/m² 3,4 °C 5,3 °C 12,9 km/h (3 Bft)
26.03.2017 11:37 6,9 °C 7,0 °C 78 % 1021,2 hPa 0,0 mm 7,6 km/h (2 Bft) W 271 ° 1 min 0,000 mm 2,2 UV-I 299 W/m² 3,3 °C 5,5 °C 14,5 km/h (3 Bft)
26.03.2017 11:38 6,9 °C 6,9 °C 79 % 1021,2 hPa 0,0 mm 9,6 km/h (2 Bft) W 264 ° 1 min 0,000 mm 2,1 UV-I 315 W/m² 3,5 °C 5,0 °C 14,5 km/h (3 Bft)
26.03.2017 11:39 6,9 °C 6,9 °C 78 % 1021,2 hPa 0,0 mm 7,4 km/h (2 Bft) W 279 ° 1 min 0,000 mm 2,0 UV-I 297 W/m² 3,3 °C 5,5 °C 12,9 km/h (3 Bft)
26.03.2017 11:40 6,9 °C 6,9 °C 78 % 1021,2 hPa 0,0 mm 10,6 km/h (2 Bft) W 261 ° 1 min 0,000 mm 2,0 UV-I 294 W/m² 3,3 °C 4,8 °C 14,5 km/h (3 Bft)
26.03.2017 11:41 6,9 °C 6,9 °C 79 % 1021,2 hPa 0,0 mm 9,4 km/h (2 Bft) W 271 ° 1 min 0,000 mm 2,0 UV-I 295 W/m² 3,5 °C 5,1 °C 11,3 km/h (2 Bft)
26.03.2017 11:42 7,0 °C 7,1 °C 80 % 1021,2 hPa 0,0 mm 8,6 km/h (2 Bft) W-NW 297 ° 0 min 0,000 mm 1,9 UV-I 279 W/m² 3,8 °C 5,3 °C 11,3 km/h (2 Bft)
26.03.2017 11:43 7,1 °C 7,1 °C 79 % 1021,2 hPa 0,0 mm 7,4 km/h (2 Bft) W-NW 296 ° 0 min 0,000 mm 1,9 UV-I 279 W/m² 3,7 °C 5,7 °C 12,9 km/h (3 Bft)
26.03.2017 11:44 7,1 °C 7,1 °C 78 % 1021,3 hPa 0,0 mm 7,3 km/h (2 Bft) N-NW 327 ° 0 min 0,000 mm 1,7 UV-I 262 W/m² 3,5 °C 5,8 °C 11,3 km/h (2 Bft)
26.03.2017 11:45 7,2 °C 7,2 °C 79 % 1021,3 hPa 0,0 mm 8,2 km/h (2 Bft) W 271 ° 0 min 0,000 mm 1,6 UV-I 206 W/m² 3,8 °C 5,7 °C 12,9 km/h (3 Bft)
26.03.2017 11:46 7,2 °C 7,2 °C 79 % 1021,4 hPa 0,0 mm 7,8 km/h (2 Bft) W-NW 292 ° 0 min 0,000 mm 1,4 UV-I 186 W/m² 3,8 °C 5,8 °C 11,3 km/h (2 Bft)
26.03.2017 11:47 7,2 °C 7,2 °C 78 % 1021,4 hPa 0,0 mm 7,6 km/h (2 Bft) NW 311 ° 0 min 0,000 mm 1,4 UV-I 178 W/m² 3,6 °C 5,8 °C 12,9 km/h (3 Bft)
26.03.2017 11:48 7,2 °C 7,2 °C 79 % 1021,4 hPa 0,0 mm 13,9 km/h (3 Bft) NW 305 ° 0 min 0,000 mm 1,4 UV-I 185 W/m² 3,8 °C 4,6 °C 17,7 km/h (3 Bft)
26.03.2017 11:49 7,1 °C 7,2 °C 78 % 1021,5 hPa 0,0 mm 8,5 km/h (2 Bft) NW 306 ° 0 min 0,000 mm 1,4 UV-I 188 W/m² 3,5 °C 5,5 °C 14,5 km/h (3 Bft)
26.03.2017 11:50 7,1 °C 7,2 °C 78 % 1021,5 hPa 0,0 mm 11,1 km/h (2 Bft) N-NW 331 ° 0 min 0,000 mm 1,5 UV-I 206 W/m² 3,5 °C 5,0 °C 17,7 km/h (3 Bft)
26.03.2017 11:51 7,1 °C 7,1 °C 78 % 1021,5 hPa 0,0 mm 9,5 km/h (2 Bft) NW 313 ° 0 min 0,000 mm 1,4 UV-I 193 W/m² 3,5 °C 5,3 °C 14,5 km/h (3 Bft)
26.03.2017 11:52 7,1 °C 7,1 °C 79 % 1021,6 hPa 0,0 mm 9,1 km/h (2 Bft) NW 321 ° 0 min 0,000 mm 1,3 UV-I 192 W/m² 3,7 °C 5,4 °C 16,1 km/h (3 Bft)
26.03.2017 11:53 7,1 °C 7,1 °C 78 % 1021,6 hPa 0,0 mm 12,1 km/h (2 Bft) NW 323 ° 0 min 0,000 mm 1,4 UV-I 214 W/m² 3,5 °C 4,8 °C 17,7 km/h (3 Bft)
26.03.2017 11:54 7,1 °C 7,1 °C 77 % 1021,7 hPa 0,0 mm 10,4 km/h (2 Bft) W-NW 297 ° 0 min 0,000 mm 1,4 UV-I 220 W/m² 3,3 °C 5,1 °C 14,5 km/h (3 Bft)
26.03.2017 11:55 7,0 °C 7,1 °C 78 % 1021,7 hPa 0,0 mm 10,9 km/h (2 Bft) N-NW 340 ° 0 min 0,000 mm 1,4 UV-I 209 W/m² 3,4 °C 4,9 °C 14,5 km/h (3 Bft)
26.03.2017 11:56 7,1 °C 7,1 °C 79 % 1021,6 hPa 0,0 mm 8,3 km/h (2 Bft) W-NW 300 ° 0 min 0,000 mm 1,4 UV-I 200 W/m² 3,7 °C 5,5 °C 14,5 km/h (3 Bft)
26.03.2017 11:57 7,0 °C 7,1 °C 78 % 1021,6 hPa 0,0 mm 8,5 km/h (2 Bft) NW 313 ° 0 min 0,000 mm 1,4 UV-I 200 W/m² 3,4 °C 5,4 °C 12,9 km/h (3 Bft)
26.03.2017 11:58 7,1 °C 7,1 °C 78 % 1021,6 hPa 0,0 mm 9,1 km/h (2 Bft) W-NW 300 ° 0 min 0,000 mm 1,4 UV-I 188 W/m² 3,5 °C 5,4 °C 14,5 km/h (3 Bft)
26.03.2017 11:59 7,1 °C 7,1 °C 78 % 1021,6 hPa 0,0 mm 6,7 km/h (2 Bft) W 281 ° 0 min 0,000 mm 1,4 UV-I 186 W/m² 3,5 °C 5,9 °C 12,9 km/h (3 Bft)
26.03.2017 12:00 7,1 °C 7,1 °C 78 % 1021,6 hPa 0,0 mm 3,8 km/h (1 Bft) NW 324 ° 0 min 0,000 mm 1,4 UV-I 186 W/m² 3,5 °C 7,1 °C 6,4 km/h (2 Bft)
26.03.2017 12:01 7,0 °C 7,1 °C 77 % 1021,6 hPa 0,0 mm 3,6 km/h (1 Bft) NW 311 ° 0 min 0,178 mm 1,5 UV-I 197 W/m² 3,2 °C 7,0 °C 4,8 km/h (1 Bft)
26.03.2017 12:02 6,9 °C 7,1 °C 77 % 1021,6 hPa 0,0 mm 4,0 km/h (1 Bft) W 277 ° 0 min 0,000 mm 1,6 UV-I 216 W/m² 3,2 °C 6,9 °C 4,8 km/h (1 Bft)
26.03.2017 12:03 6,9 °C 6,9 °C 78 % 1021,6 hPa 0,0 mm 9,9 km/h (2 Bft) W 265 ° 0 min 0,000 mm 1,6 UV-I 220 W/m² 3,3 °C 4,9 °C 14,5 km/h (3 Bft)
26.03.2017 12:04 7,0 °C 7,0 °C 79 % 1021,6 hPa 0,0 mm 6,1 km/h (2 Bft) W 274 ° 0 min 0,000 mm 1,6 UV-I 211 W/m² 3,6 °C 6,0 °C 12,9 km/h (3 Bft)
26.03.2017 12:05 7,1 °C 7,1 °C 78 % 1021,6 hPa 0,0 mm 7,8 km/h (2 Bft) W-NW 298 ° 0 min 0,000 mm 1,7 UV-I 213 W/m² 3,5 °C 5,6 °C 11,3 km/h (2 Bft)
26.03.2017 12:06 7,1 °C 7,1 °C 78 % 1021,6 hPa 0,0 mm 6,3 km/h (2 Bft) W 274 ° 0 min 0,000 mm 1,7 UV-I 227 W/m² 3,5 °C 6,0 °C 11,3 km/h (2 Bft)
26.03.2017 12:07 7,1 °C 7,1 °C 78 % 1021,6 hPa 0,0 mm 8,4 km/h (2 Bft) W 266 ° 0 min 0,000 mm 1,7 UV-I 232 W/m² 3,5 °C 5,5 °C 14,5 km/h (3 Bft)
26.03.2017 12:08 7,1 °C 7,1 °C 77 % 1021,7 hPa 0,0 mm 9,6 km/h (2 Bft) N-NW 329 ° 0 min 0,000 mm 1,7 UV-I 223 W/m² 3,3 °C 5,2 °C 12,9 km/h (3 Bft)
26.03.2017 12:09 7,1 °C 7,1 °C 77 % 1021,6 hPa 0,0 mm 7,7 km/h (2 Bft) N 5 ° 0 min 0,000 mm 1,9 UV-I 248 W/m² 3,3 °C 5,7 °C 12,9 km/h (3 Bft)
26.03.2017 12:10 6,9 °C 7,1 °C 76 % 1021,6 hPa 0,0 mm 4,8 km/h (1 Bft) NO 35 ° 0 min 0,000 mm 2,0 UV-I 246 W/m² 3,0 °C 6,3 °C 6,4 km/h (2 Bft)
26.03.2017 12:11 7,0 °C 7,0 °C 77 % 1021,6 hPa 0,0 mm 6,1 km/h (2 Bft) N 355 ° 1 min 0,000 mm 2,2 UV-I 294 W/m² 3,2 °C 6,0 °C 8,0 km/h (2 Bft)
26.03.2017 12:12 6,9 °C 7,0 °C 76 % 1021,7 hPa 0,0 mm 5,3 km/h (1 Bft) N 5 ° 1 min 0,000 mm 2,4 UV-I 323 W/m² 3,0 °C 6,1 °C 6,4 km/h (2 Bft)
26.03.2017 12:13 6,9 °C 6,9 °C 77 % 1021,7 hPa 0,0 mm 4,3 km/h (1 Bft) N 355 ° 1 min 0,000 mm 2,4 UV-I 343 W/m² 3,2 °C 6,9 °C 6,4 km/h (2 Bft)
26.03.2017 12:14 6,9 °C 6,9 °C 76 % 1021,6 hPa 0,0 mm 6,1 km/h (2 Bft) N-NW 342 ° 1 min 0,000 mm 2,5 UV-I 367 W/m² 3,0 °C 5,9 °C 8,0 km/h (2 Bft)
26.03.2017 12:15 7,0 °C 7,0 °C 76 % 1021,6 hPa 0,0 mm 5,0 km/h (1 Bft) N-NW 327 ° 1 min 0,000 mm 2,6 UV-I 381 W/m² 3,1 °C 6,4 °C 6,4 km/h (2 Bft)
26.03.2017 12:16 7,1 °C 7,1 °C 76 % 1021,6 hPa 0,0 mm 3,9 km/h (1 Bft) N-NW 330 ° 1 min 0,000 mm 2,5 UV-I 380 W/m² 3,2 °C 7,1 °C 4,8 km/h (1 Bft)
26.03.2017 12:17 7,1 °C 7,1 °C 76 % 1021,6 hPa 0,0 mm 6,1 km/h (2 Bft) NW 307 ° 1 min 0,000 mm 2,5 UV-I 360 W/m² 3,2 °C 6,1 °C 11,3 km/h (2 Bft)
26.03.2017 12:18 7,2 °C 7,2 °C 75 % 1021,7 hPa 0,0 mm 2,6 km/h (1 Bft) W-NW 286 ° 1 min 0,000 mm 2,4 UV-I 330 W/m² 3,1 °C 7,2 °C 4,8 km/h (1 Bft)
26.03.2017 12:19 7,1 °C 7,2 °C 74 % 1021,6 hPa 0,0 mm 2,2 km/h (1 Bft) W-NW 287 ° 1 min 0,000 mm 2,5 UV-I 348 W/m² 2,8 °C 7,1 °C 3,2 km/h (1 Bft)
26.03.2017 12:20 7,1 °C 7,1 °C 75 % 1021,6 hPa 0,0 mm 1,5 km/h (1 Bft) W-NW 287 ° 1 min 0,000 mm 2,5 UV-I 376 W/m² 3,0 °C 7,1 °C 3,2 km/h (1 Bft)
26.03.2017 12:21 7,1 °C 7,1 °C 75 % 1021,6 hPa 0,0 mm 4,0 km/h (1 Bft) W-NW 293 ° 1 min 0,000 mm 2,8 UV-I 397 W/m² 3,0 °C 7,1 °C 6,4 km/h (2 Bft)
26.03.2017 12:22 7,2 °C 7,2 °C 76 % 1021,6 hPa 0,0 mm 5,1 km/h (1 Bft) N 5 ° 1 min 0,000 mm 2,9 UV-I 422 W/m² 3,3 °C 6,5 °C 6,4 km/h (2 Bft)
26.03.2017 12:23 7,3 °C 7,3 °C 78 % 1021,6 hPa 0,0 mm 4,2 km/h (1 Bft) N-NO 17 ° 1 min 0,000 mm 2,7 UV-I 404 W/m² 3,7 °C 7,3 °C 4,8 km/h (1 Bft)
26.03.2017 12:24 7,4 °C 7,4 °C 76 % 1021,6 hPa 0,0 mm 6,1 km/h (2 Bft) N 360 ° 1 min 0,000 mm 2,8 UV-I 494 W/m² 3,5 °C 6,5 °C 12,9 km/h (3 Bft)
26.03.2017 12:25 7,4 °C 7,5 °C 74 % 1021,6 hPa 0,0 mm 9,3 km/h (2 Bft) N 9 ° 1 min 0,000 mm 2,8 UV-I 494 W/m² 3,1 °C 5,7 °C 12,9 km/h (3 Bft)
26.03.2017 12:26 7,4 °C 7,5 °C 74 % 1021,6 hPa 0,0 mm 5,5 km/h (1 Bft) N-NW 335 ° 0 min 0,000 mm 2,2 UV-I 283 W/m² 3,1 °C 6,6 °C 6,4 km/h (2 Bft)
26.03.2017 12:27 7,6 °C 7,6 °C 76 % 1021,7 hPa 0,0 mm 5,7 km/h (1 Bft) N 355 ° 1 min 0,000 mm 2,3 UV-I 309 W/m² 3,6 °C 6,8 °C 8,0 km/h (2 Bft)
26.03.2017 12:28 7,6 °C 7,6 °C 75 % 1021,7 hPa 0,0 mm 5,6 km/h (1 Bft) N-NW 329 ° 1 min 0,000 mm 2,3 UV-I 316 W/m² 3,5 °C 6,8 °C 12,9 km/h (3 Bft)
26.03.2017 12:29 7,7 °C 7,7 °C 77 % 1021,7 hPa 0,0 mm 4,4 km/h (1 Bft) N-NW 340 ° 1 min 0,000 mm 2,3 UV-I 318 W/m² 3,9 °C 7,7 °C 4,8 km/h (1 Bft)
26.03.2017 12:30 7,8 °C 7,8 °C 74 % 1021,7 hPa 0,0 mm 4,6 km/h (1 Bft) N 349 ° 1 min 0,000 mm 2,2 UV-I 308 W/m² 3,5 °C 7,4 °C 8,0 km/h (2 Bft)
26.03.2017 12:31 7,7 °C 7,8 °C 74 % 1021,6 hPa 0,0 mm 8,9 km/h (2 Bft) N-NO 17 ° 1 min 0,000 mm 2,2 UV-I 308 W/m² 3,4 °C 6,1 °C 14,5 km/h (3 Bft)
26.03.2017 12:32 7,7 °C 7,7 °C 74 % 1021,6 hPa 0,0 mm 8,1 km/h (2 Bft) N 355 ° 0 min 0,000 mm 2,2 UV-I 283 W/m² 3,4 °C 6,3 °C 9,7 km/h (2 Bft)
26.03.2017 12:33 7,6 °C 7,7 °C 73 % 1021,7 hPa 0,0 mm 3,8 km/h (1 Bft) NW 324 ° 0 min 0,000 mm 2,2 UV-I 288 W/m² 3,1 °C 7,6 °C 6,4 km/h (2 Bft)
26.03.2017 12:34 7,5 °C 7,6 °C 73 % 1021,7 hPa 0,0 mm 4,7 km/h (1 Bft) N-NW 338 ° 1 min 0,000 mm 2,2 UV-I 302 W/m² 3,0 °C 7,0 °C 8,0 km/h (2 Bft)
26.03.2017 12:35 7,6 °C 7,6 °C 73 % 1021,6 hPa 0,0 mm 4,8 km/h (1 Bft) N-NO 17 ° 1 min 0,000 mm 2,1 UV-I 294 W/m² 3,1 °C 7,1 °C 8,0 km/h (2 Bft)
26.03.2017 12:36 7,4 °C 7,6 °C 74 % 1021,6 hPa 0,0 mm 4,9 km/h (1 Bft) N 350 ° 0 min 0,000 mm 2,0 UV-I 271 W/m² 3,1 °C 6,8 °C 6,4 km/h (2 Bft)
26.03.2017 12:37 7,4 °C 7,5 °C 73 % 1021,6 hPa 0,0 mm 5,0 km/h (1 Bft) N 355 ° 0 min 0,000 mm 1,9 UV-I 248 W/m² 2,9 °C 6,8 °C 6,4 km/h (2 Bft)
26.03.2017 12:38 7,4 °C 7,4 °C 73 % 1021,6 hPa 0,0 mm 5,0 km/h (1 Bft) N-NW 346 ° 0 min 0,000 mm 1,8 UV-I 243 W/m² 2,9 °C 6,8 °C 8,0 km/h (2 Bft)
26.03.2017 12:39 7,4 °C 7,4 °C 74 % 1021,7 hPa 0,0 mm 7,0 km/h (2 Bft) N-NO 16 ° 0 min 0,000 mm 1,8 UV-I 241 W/m² 3,1 °C 6,2 °C 8,0 km/h (2 Bft)
26.03.2017 12:40 7,5 °C 7,5 °C 75 % 1021,7 hPa 0,0 mm 4,6 km/h (1 Bft) NW 304 ° 0 min 0,000 mm 1,8 UV-I 239 W/m² 3,4 °C 7,1 °C 8,0 km/h (2 Bft)
26.03.2017 12:41 7,6 °C 7,6 °C 75 % 1021,7 hPa 0,0 mm 7,0 km/h (2 Bft) W-NW 290 ° 0 min 0,000 mm 1,8 UV-I 241 W/m² 3,5 °C 6,4 °C 9,7 km/h (2 Bft)
26.03.2017 12:42 7,5 °C 7,6 °C 74 % 1021,8 hPa 0,0 mm 1,9 km/h (1 Bft) W-NW 292 ° 0 min 0,000 mm 1,8 UV-I 243 W/m² 3,2 °C 7,5 °C 4,8 km/h (1 Bft)
26.03.2017 12:43 7,5 °C 7,5 °C 75 % 1021,8 hPa 0,0 mm 3,7 km/h (1 Bft) W 270 ° 0 min 0,000 mm 1,8 UV-I 237 W/m² 3,4 °C 7,5 °C 6,4 km/h (2 Bft)
26.03.2017 12:44 7,4 °C 7,5 °C 75 % 1021,9 hPa 0,0 mm 7,1 km/h (2 Bft) NW 325 ° 0 min 0,000 mm 1,7 UV-I 223 W/m² 3,3 °C 6,2 °C 9,7 km/h (2 Bft)
26.03.2017 12:45 7,4 °C 7,4 °C 74 % 1021,9 hPa 0,0 mm 5,7 km/h (1 Bft) W-NW 300 ° 0 min 0,000 mm 1,6 UV-I 221 W/m² 3,1 °C 6,6 °C 8,0 km/h (2 Bft)
26.03.2017 12:46 7,4 °C 7,4 °C 75 % 1021,9 hPa 0,0 mm 2,9 km/h (1 Bft) N-NO 31 ° 0 min 0,000 mm 1,7 UV-I 221 W/m² 3,3 °C 7,4 °C 8,0 km/h (2 Bft)
26.03.2017 12:47 7,4 °C 7,4 °C 75 % 1021,9 hPa 0,0 mm 4,8 km/h (1 Bft) NO 34 ° 0 min 0,000 mm 1,7 UV-I 225 W/m² 3,3 °C 6,9 °C 8,0 km/h (2 Bft)
26.03.2017 12:48 7,4 °C 7,4 °C 73 % 1021,8 hPa 0,0 mm 3,9 km/h (1 Bft) NO 39 ° 0 min 0,000 mm 1,7 UV-I 230 W/m² 2,9 °C 7,4 °C 6,4 km/h (2 Bft)
26.03.2017 12:49 7,3 °C 7,4 °C 74 % 1021,9 hPa 0,0 mm 3,7 km/h (1 Bft) O-NO 70 ° 0 min 0,000 mm 1,7 UV-I 243 W/m² 3,0 °C 7,3 °C 4,8 km/h (1 Bft)
26.03.2017 12:50 7,2 °C 7,3 °C 74 % 1021,9 hPa 0,0 mm 2,8 km/h (1 Bft) O-NO 70 ° 0 min 0,000 mm 1,8 UV-I 250 W/m² 2,9 °C 7,2 °C 4,8 km/h (1 Bft)
26.03.2017 12:51 7,2 °C 7,2 °C 75 % 1021,8 hPa 0,0 mm 3,2 km/h (1 Bft) O-NO 71 ° 0 min 0,000 mm 1,8 UV-I 253 W/m² 3,1 °C 7,2 °C 4,8 km/h (1 Bft)
26.03.2017 12:52 7,2 °C 7,2 °C 75 % 1021,8 hPa 0,0 mm 0,5 km/h (0 Bft) O-NO 71 ° 0 min 0,000 mm 1,8 UV-I 257 W/m² 3,1 °C 7,2 °C 1,6 km/h (1 Bft)
26.03.2017 12:53 7,2 °C 7,2 °C 74 % 1021,8 hPa 0,0 mm 1,9 km/h (1 Bft) O-NO 71 ° 0 min 0,000 mm 1,8 UV-I 260 W/m² 2,9 °C 7,2 °C 3,2 km/h (1 Bft)
26.03.2017 12:54 7,2 °C 7,2 °C 74 % 1021,8 hPa 0,0 mm 3,0 km/h (1 Bft) O-NO 71 ° 0 min 0,000 mm 1,8 UV-I 262 W/m² 2,9 °C 7,2 °C 3,2 km/h (1 Bft)
26.03.2017 12:55 7,2 °C 7,3 °C 74 % 1021,7 hPa 0,0 mm 2,6 km/h (1 Bft) O-NO 71 ° 0 min 0,000 mm 1,9 UV-I 269 W/m² 2,9 °C 7,2 °C 3,2 km/h (1 Bft)
26.03.2017 12:56 7,3 °C 7,3 °C 74 % 1021,8 hPa 0,0 mm 1,2 km/h (1 Bft) O-NO 71 ° 1 min 0,000 mm 2,1 UV-I 302 W/m² 3,0 °C 7,3 °C 3,2 km/h (1 Bft)
26.03.2017 12:57 7,3 °C 7,3 °C 74 % 1021,7 hPa 0,0 mm 3,1 km/h (1 Bft) N-NO 15 ° 1 min 0,000 mm 2,2 UV-I 327 W/m² 3,0 °C 7,3 °C 4,8 km/h (1 Bft)
26.03.2017 12:58 7,5 °C 7,5 °C 75 % 1021,8 hPa 0,0 mm 3,4 km/h (1 Bft) NW 310 ° 1 min 0,000 mm 2,5 UV-I 374 W/m² 3,4 °C 7,5 °C 4,8 km/h (1 Bft)
26.03.2017 12:59 7,6 °C 7,6 °C 76 % 1021,7 hPa 0,0 mm 5,2 km/h (1 Bft) NW 313 ° 1 min 0,000 mm 2,8 UV-I 374 W/m² 3,6 °C 7,0 °C 8,0 km/h (2 Bft)
26.03.2017 13:00 7,8 °C 7,8 °C 74 % 1021,7 hPa 0,0 mm 3,2 km/h (1 Bft) NW 313 ° 1 min 0,000 mm 3,3 UV-I 374 W/m² 3,5 °C 7,8 °C 4,8 km/h (1 Bft)
26.03.2017 13:01 8,0 °C 8,0 °C 76 % 1021,8 hPa 0,0 mm 3,4 km/h (1 Bft) W-NW 294 ° 1 min 0,127 mm 3,0 UV-I 374 W/m² 4,0 °C 8,0 °C 6,4 km/h (2 Bft)
26.03.2017 13:02 8,2 °C 8,2 °C 75 % 1021,8 hPa 0,0 mm 7,8 km/h (2 Bft) NW 313 ° 1 min 0,000 mm 3,3 UV-I 733 W/m² 4,0 °C 6,9 °C 11,3 km/h (2 Bft)
26.03.2017 13:03 8,3 °C 8,3 °C 74 % 1021,7 hPa 0,0 mm 7,2 km/h (2 Bft) NW 317 ° 1 min 0,000 mm 3,7 UV-I 814 W/m² 3,9 °C 7,2 °C 9,7 km/h (2 Bft)
26.03.2017 13:04 8,4 °C 8,4 °C 73 % 1021,8 hPa 0,0 mm 7,0 km/h (2 Bft) NW 311 ° 1 min 0,000 mm 3,6 UV-I 814 W/m² 3,8 °C 7,4 °C 8,0 km/h (2 Bft)
26.03.2017 13:05 8,4 °C 8,4 °C 73 % 1021,8 hPa 0,0 mm 6,6 km/h (2 Bft) NW 315 ° 1 min 0,000 mm 3,3 UV-I 582 W/m² 3,8 °C 7,5 °C 9,7 km/h (2 Bft)
26.03.2017 13:06 8,5 °C 8,5 °C 74 % 1021,8 hPa 0,0 mm 4,1 km/h (1 Bft) NW 313 ° 1 min 0,000 mm 3,9 UV-I 582 W/m² 4,1 °C 8,5 °C 6,4 km/h (2 Bft)
26.03.2017 13:07 8,4 °C 8,5 °C 73 % 1021,8 hPa 0,0 mm 6,0 km/h (2 Bft) NW 315 ° 1 min 0,000 mm 3,2 UV-I 575 W/m² 3,8 °C 7,6 °C 8,0 km/h (2 Bft)
26.03.2017 13:08 8,4 °C 8,4 °C 71 % 1021,8 hPa 0,0 mm 4,6 km/h (1 Bft) NW 305 ° 1 min 0,000 mm 4,1 UV-I 575 W/m² 3,5 °C 8,1 °C 6,4 km/h (2 Bft)
26.03.2017 13:09 8,3 °C 8,4 °C 72 % 1021,8 hPa 0,0 mm 3,2 km/h (1 Bft) N-NO 18 ° 1 min 0,000 mm 3,5 UV-I 705 W/m² 3,6 °C 8,3 °C 4,8 km/h (1 Bft)
26.03.2017 13:10 8,4 °C 8,4 °C 73 % 1021,7 hPa 0,0 mm 3,8 km/h (1 Bft) N-NO 31 ° 1 min 0,000 mm 3,1 UV-I 705 W/m² 3,8 °C 8,4 °C 6,4 km/h (2 Bft)
26.03.2017 13:11 8,3 °C 8,4 °C 72 % 1021,8 hPa 0,0 mm 5,5 km/h (1 Bft) N-NO 13 ° 1 min 0,000 mm 2,8 UV-I 323 W/m² 3,6 °C 7,7 °C 6,4 km/h (2 Bft)
26.03.2017 13:12 8,3 °C 8,3 °C 71 % 1021,8 hPa 0,0 mm 7,0 km/h (2 Bft) N 5 ° 0 min 0,000 mm 2,7 UV-I 288 W/m² 3,4 °C 7,2 °C 9,7 km/h (2 Bft)
26.03.2017 13:13 8,2 °C 8,3 °C 72 % 1021,8 hPa 0,0 mm 5,1 km/h (1 Bft) N 360 ° 0 min 0,000 mm 3,0 UV-I 288 W/m² 3,5 °C 7,7 °C 6,4 km/h (2 Bft)
26.03.2017 13:14 8,1 °C 8,2 °C 72 % 1021,7 hPa 0,0 mm 3,0 km/h (1 Bft) NO 50 ° 0 min 0,000 mm 2,7 UV-I 274 W/m² 3,4 °C 8,1 °C 4,8 km/h (1 Bft)
26.03.2017 13:15 8,1 °C 8,1 °C 72 % 1021,7 hPa 0,0 mm 2,2 km/h (1 Bft) N-NO 14 ° 0 min 0,000 mm 2,7 UV-I 279 W/m² 3,4 °C 8,1 °C 6,4 km/h (2 Bft)
26.03.2017 13:16 8,0 °C 8,1 °C 72 % 1021,7 hPa 0,0 mm 7,0 km/h (2 Bft) N 11 ° 1 min 0,000 mm 3,1 UV-I 360 W/m² 3,3 °C 6,9 °C 11,3 km/h (2 Bft)
26.03.2017 13:17 7,8 °C 8,0 °C 72 % 1021,7 hPa 0,0 mm 4,2 km/h (1 Bft) N 10 ° 1 min 0,000 mm 4,1 UV-I 360 W/m² 3,1 °C 7,8 °C 6,4 km/h (2 Bft)
26.03.2017 13:18 7,8 °C 7,8 °C 76 % 1021,7 hPa 0,0 mm 2,5 km/h (1 Bft) N 10 ° 1 min 0,000 mm 4,1 UV-I 768 W/m² 3,8 °C 7,8 °C 4,8 km/h (1 Bft)
26.03.2017 13:19 7,9 °C 7,9 °C 74 % 1021,7 hPa 0,0 mm 2,7 km/h (1 Bft) N 11 ° 1 min 0,000 mm 2,8 UV-I 768 W/m² 3,6 °C 7,9 °C 4,8 km/h (1 Bft)
26.03.2017 13:20 7,9 °C 7,9 °C 74 % 1021,7 hPa 0,0 mm 4,1 km/h (1 Bft) NW 320 ° 0 min 0,000 mm 2,4 UV-I 246 W/m² 3,6 °C 7,9 °C 6,4 km/h (2 Bft)
26.03.2017 13:21 7,9 °C 7,9 °C 73 % 1021,7 hPa 0,0 mm 1,2 km/h (1 Bft) NW 321 ° 0 min 0,000 mm 2,4 UV-I 230 W/m² 3,4 °C 7,9 °C 3,2 km/h (1 Bft)
26.03.2017 13:22 7,9 °C 7,9 °C 73 % 1021,7 hPa 0,0 mm 3,6 km/h (1 Bft) N-NW 329 ° 0 min 0,000 mm 2,4 UV-I 230 W/m² 3,4 °C 7,9 °C 6,4 km/h (2 Bft)
26.03.2017 13:23 7,9 °C 7,9 °C 74 % 1021,6 hPa 0,0 mm 3,6 km/h (1 Bft) W-SW 246 ° 0 min 0,000 mm 2,4 UV-I 234 W/m² 3,6 °C 7,9 °C 6,4 km/h (2 Bft)
26.03.2017 13:24 7,9 °C 7,9 °C 74 % 1021,6 hPa 0,0 mm 11,1 km/h (2 Bft) W-SW 253 ° 0 min 0,000 mm 2,5 UV-I 225 W/m² 3,6 °C 5,9 °C 12,9 km/h (3 Bft)
26.03.2017 13:25 7,8 °C 7,9 °C 74 % 1021,6 hPa 0,0 mm 7,3 km/h (2 Bft) W-SW 242 ° 0 min 0,000 mm 2,4 UV-I 204 W/m² 3,5 °C 6,6 °C 11,3 km/h (2 Bft)
26.03.2017 13:26 7,8 °C 7,8 °C 73 % 1021,6 hPa 0,0 mm 3,7 km/h (1 Bft) S-SO 167 ° 0 min 0,000 mm 2,6 UV-I 204 W/m² 3,3 °C 7,8 °C 6,4 km/h (2 Bft)
26.03.2017 13:27 7,7 °C 7,8 °C 73 % 1021,6 hPa 0,0 mm 5,4 km/h (1 Bft) S 182 ° 0 min 0,000 mm 4,1 UV-I 204 W/m² 3,2 °C 7,0 °C 8,0 km/h (2 Bft)
26.03.2017 13:28 7,8 °C 7,8 °C 75 % 1021,5 hPa 0,0 mm 4,5 km/h (1 Bft) W-SW 255 ° 1 min 0,000 mm 4,1 UV-I 708 W/m² 3,7 °C 7,8 °C 11,3 km/h (2 Bft)
26.03.2017 13:29 8,1 °C 8,1 °C 74 % 1021,5 hPa 0,0 mm 9,5 km/h (2 Bft) W 272 ° 1 min 0,000 mm 4,1 UV-I 708 W/m² 3,8 °C 6,5 °C 12,9 km/h (3 Bft)
26.03.2017 13:30 8,2 °C 8,2 °C 75 % 1021,6 hPa 0,0 mm 4,6 km/h (1 Bft) W 265 ° 1 min 0,000 mm 2,9 UV-I 708 W/m² 4,0 °C 7,9 °C 9,7 km/h (2 Bft)
26.03.2017 13:31 8,4 °C 8,4 °C 74 % 1021,5 hPa 0,0 mm 4,5 km/h (1 Bft) W-SW 248 ° 1 min 0,000 mm 3,0 UV-I 708 W/m² 4,0 °C 8,4 °C 9,7 km/h (2 Bft)
26.03.2017 13:32 8,6 °C 8,6 °C 75 % 1021,5 hPa 0,0 mm 3,8 km/h (1 Bft) W-NW 296 ° 1 min 0,000 mm 2,5 UV-I 708 W/m² 4,4 °C 8,6 °C 6,4 km/h (2 Bft)
26.03.2017 13:33 8,7 °C 8,7 °C 74 % 1021,6 hPa 0,0 mm 5,1 km/h (1 Bft) W-NW 297 ° 0 min 0,000 mm 2,4 UV-I 193 W/m² 4,3 °C 8,2 °C 6,4 km/h (2 Bft)
26.03.2017 13:34 8,6 °C 8,7 °C 72 % 1021,6 hPa 0,0 mm 3,2 km/h (1 Bft) W-NW 301 ° 0 min 0,000 mm 2,3 UV-I 193 W/m² 3,8 °C 8,6 °C 4,8 km/h (1 Bft)
26.03.2017 13:35 8,4 °C 8,6 °C 71 % 1021,6 hPa 0,0 mm 2,6 km/h (1 Bft) W-NW 301 ° 0 min 0,000 mm 2,3 UV-I 185 W/m² 3,5 °C 8,4 °C 3,2 km/h (1 Bft)
26.03.2017 13:36 8,3 °C 8,4 °C 72 % 1021,5 hPa 0,0 mm 1,2 km/h (1 Bft) W-NW 301 ° 0 min 0,000 mm 2,5 UV-I 223 W/m² 3,6 °C 8,3 °C 3,2 km/h (1 Bft)
26.03.2017 13:37 8,2 °C 8,3 °C 72 % 1021,5 hPa 0,0 mm 3,0 km/h (1 Bft) W-NW 301 ° 0 min 0,000 mm 2,7 UV-I 223 W/m² 3,5 °C 8,2 °C 4,8 km/h (1 Bft)
26.03.2017 13:38 8,3 °C 8,3 °C 74 % 1021,5 hPa 0,0 mm 4,0 km/h (1 Bft) NW 309 ° 0 min 0,000 mm 4,1 UV-I 223 W/m² 3,9 °C 8,3 °C 6,4 km/h (2 Bft)
26.03.2017 13:39 8,3 °C 8,3 °C 72 % 1021,5 hPa 0,0 mm 5,3 km/h (1 Bft) NW 325 ° 1 min 0,000 mm 4,2 UV-I 788 W/m² 3,6 °C 7,7 °C 6,4 km/h (2 Bft)
26.03.2017 13:40 8,7 °C 8,7 °C 76 % 1021,4 hPa 0,0 mm 4,8 km/h (1 Bft) W 274 ° 1 min 0,000 mm 4,3 UV-I 816 W/m² 4,7 °C 8,3 °C 9,7 km/h (2 Bft)
26.03.2017 13:41 8,9 °C 8,9 °C 72 % 1021,4 hPa 0,0 mm 5,5 km/h (1 Bft) W 280 ° 1 min 0,000 mm 4,3 UV-I 817 W/m² 4,1 °C 8,4 °C 11,3 km/h (2 Bft)
26.03.2017 13:42 8,9 °C 8,9 °C 71 % 1021,4 hPa 0,0 mm 7,2 km/h (2 Bft) W-NW 302 ° 1 min 0,000 mm 4,2 UV-I 809 W/m² 3,9 °C 7,9 °C 11,3 km/h (2 Bft)
26.03.2017 13:43 9,0 °C 9,0 °C 72 % 1021,4 hPa 0,0 mm 8,4 km/h (2 Bft) W 271 ° 1 min 0,000 mm 3,7 UV-I 809 W/m² 4,2 °C 7,7 °C 12,9 km/h (3 Bft)
26.03.2017 13:44 9,1 °C 9,1 °C 71 % 1021,5 hPa 0,0 mm 6,6 km/h (2 Bft) NW 308 ° 1 min 0,000 mm 4,0 UV-I 770 W/m² 4,1 °C 8,3 °C 11,3 km/h (2 Bft)
26.03.2017 13:45 9,2 °C 9,2 °C 73 % 1021,4 hPa 0,0 mm 5,6 km/h (1 Bft) W-NW 286 ° 1 min 0,000 mm 4,0 UV-I 796 W/m² 4,6 °C 8,7 °C 9,7 km/h (2 Bft)
26.03.2017 13:46 9,2 °C 9,2 °C 71 % 1021,5 hPa 0,0 mm 7,2 km/h (2 Bft) W-NW 283 ° 1 min 0,000 mm 3,3 UV-I 707 W/m² 4,2 °C 8,2 °C 11,3 km/h (2 Bft)
26.03.2017 13:47 9,2 °C 9,2 °C 71 % 1021,5 hPa 0,0 mm 9,1 km/h (2 Bft) W-NW 288 ° 1 min 0,000 mm 3,3 UV-I 659 W/m² 4,2 °C 7,8 °C 14,5 km/h (3 Bft)
26.03.2017 13:48 9,1 °C 9,2 °C 70 % 1021,5 hPa 0,0 mm 4,0 km/h (1 Bft) NW 308 ° 1 min 0,000 mm 3,7 UV-I 747 W/m² 3,9 °C 9,1 °C 6,4 km/h (2 Bft)
26.03.2017 13:49 9,0 °C 9,1 °C 70 % 1021,5 hPa 0,0 mm 5,7 km/h (1 Bft) NW 317 ° 1 min 0,000 mm 2,8 UV-I 747 W/m² 3,8 °C 8,4 °C 8,0 km/h (2 Bft)
26.03.2017 13:50 9,1 °C 9,1 °C 73 % 1021,5 hPa 0,0 mm 3,2 km/h (1 Bft) NW 324 ° 1 min 0,000 mm 2,5 UV-I 747 W/m² 4,5 °C 9,1 °C 4,8 km/h (1 Bft)
26.03.2017 13:51 9,2 °C 9,2 °C 70 % 1021,4 hPa 0,0 mm 3,1 km/h (1 Bft) NW 325 ° 0 min 0,000 mm 2,3 UV-I 262 W/m² 4,0 °C 9,2 °C 3,2 km/h (1 Bft)
26.03.2017 13:52 9,1 °C 9,2 °C 71 % 1021,5 hPa 0,0 mm 3,6 km/h (1 Bft) N-NW 339 ° 0 min 0,000 mm 2,3 UV-I 262 W/m² 4,1 °C 9,1 °C 4,8 km/h (1 Bft)
26.03.2017 13:53 8,9 °C 9,1 °C 70 % 1021,5 hPa 0,0 mm 5,1 km/h (1 Bft) W 281 ° 0 min 0,000 mm 2,3 UV-I 267 W/m² 3,7 °C 8,5 °C 9,7 km/h (2 Bft)
26.03.2017 13:54 8,8 °C 8,9 °C 71 % 1021,6 hPa 0,0 mm 6,6 km/h (2 Bft) W-NW 283 ° 1 min 0,000 mm 2,5 UV-I 292 W/m² 3,8 °C 7,9 °C 9,7 km/h (2 Bft)
26.03.2017 13:55 8,7 °C 8,8 °C 70 % 1021,6 hPa 0,0 mm 2,8 km/h (1 Bft) W-NW 297 ° 1 min 0,000 mm 3,0 UV-I 292 W/m² 3,5 °C 8,7 °C 3,2 km/h (1 Bft)
26.03.2017 13:56 8,7 °C 8,7 °C 72 % 1021,5 hPa 0,0 mm 4,7 km/h (1 Bft) NW 319 ° 1 min 0,000 mm 2,4 UV-I 292 W/m² 3,9 °C 8,4 °C 6,4 km/h (2 Bft)
26.03.2017 13:57 8,8 °C 8,8 °C 73 % 1021,6 hPa 0,0 mm 4,2 km/h (1 Bft) NW 312 ° 1 min 0,000 mm 3,1 UV-I 292 W/m² 4,2 °C 8,8 °C 6,4 km/h (2 Bft)
26.03.2017 13:58 8,9 °C 8,9 °C 73 % 1021,5 hPa 0,0 mm 5,5 km/h (1 Bft) NW 310 ° 1 min 0,000 mm 2,3 UV-I 292 W/m² 4,3 °C 8,4 °C 6,4 km/h (2 Bft)
26.03.2017 13:59 9,0 °C 9,0 °C 73 % 1021,5 hPa 0,0 mm 5,4 km/h (1 Bft) W-NW 293 ° 0 min 0,000 mm 2,2 UV-I 213 W/m² 4,4 °C 8,5 °C 6,4 km/h (2 Bft)
26.03.2017 14:00 9,0 °C 9,0 °C 72 % 1021,5 hPa 0,0 mm 3,0 km/h (1 Bft) W-NW 293 ° 0 min 0,000 mm 2,2 UV-I 200 W/m² 4,2 °C 9,0 °C 4,8 km/h (1 Bft)
26.03.2017 14:01 9,0 °C 9,0 °C 73 % 1021,6 hPa 0,0 mm 5,2 km/h (1 Bft) W 271 ° 0 min 0,229 mm 2,2 UV-I 200 W/m² 4,4 °C 8,6 °C 6,4 km/h (2 Bft)
26.03.2017 14:02 8,9 °C 9,0 °C 72 % 1021,5 hPa 0,0 mm 3,3 km/h (1 Bft) W 271 ° 0 min 0,000 mm 2,4 UV-I 232 W/m² 4,1 °C 8,9 °C 6,4 km/h (2 Bft)
26.03.2017 14:03 8,8 °C 8,9 °C 71 % 1021,5 hPa 0,0 mm 2,9 km/h (1 Bft) W-NW 302 ° 0 min 0,000 mm 2,5 UV-I 232 W/m² 3,8 °C 8,8 °C 4,8 km/h (1 Bft)
26.03.2017 14:04 8,8 °C 8,8 °C 72 % 1021,5 hPa 0,0 mm 4,1 km/h (1 Bft) W-NW 298 ° 0 min 0,000 mm 3,6 UV-I 232 W/m² 4,0 °C 8,8 °C 4,8 km/h (1 Bft)
26.03.2017 14:05 8,8 °C 8,8 °C 72 % 1021,5 hPa 0,0 mm 4,2 km/h (1 Bft) W-NW 298 ° 0 min 0,000 mm 2,5 UV-I 232 W/m² 4,0 °C 8,8 °C 6,4 km/h (2 Bft)
26.03.2017 14:06 8,7 °C 8,8 °C 70 % 1021,4 hPa 0,0 mm 3,9 km/h (1 Bft) W-NW 298 ° 0 min 0,000 mm 2,4 UV-I 211 W/m² 3,5 °C 8,7 °C 6,4 km/h (2 Bft)
26.03.2017 14:07 8,6 °C 8,7 °C 69 % 1021,5 hPa 0,0 mm 3,9 km/h (1 Bft) N-NW 339 ° 0 min 0,000 mm 3,0 UV-I 211 W/m² 3,2 °C 8,6 °C 4,8 km/h (1 Bft)
26.03.2017 14:08 8,6 °C 8,6 °C 70 % 1021,4 hPa 0,0 mm 2,3 km/h (1 Bft) N-NW 339 ° 0 min 0,000 mm 2,9 UV-I 211 W/m² 3,4 °C 8,6 °C 3,2 km/h (1 Bft)
26.03.2017 14:09 8,6 °C 8,6 °C 72 % 1021,4 hPa 0,0 mm 1,9 km/h (1 Bft) N-NW 339 ° 1 min 0,000 mm 2,9 UV-I 299 W/m² 3,8 °C 8,6 °C 3,2 km/h (1 Bft)
26.03.2017 14:10 8,7 °C 8,7 °C 72 % 1021,4 hPa 0,0 mm 3,0 km/h (1 Bft) NW 317 ° 1 min 0,000 mm 4,0 UV-I 299 W/m² 3,9 °C 8,7 °C 9,7 km/h (2 Bft)
26.03.2017 14:11 8,9 °C 8,9 °C 73 % 1021,4 hPa 0,0 mm 7,5 km/h (2 Bft) NW 305 ° 1 min 0,000 mm 4,0 UV-I 694 W/m² 4,3 °C 7,8 °C 11,3 km/h (2 Bft)
26.03.2017 14:12 9,2 °C 9,2 °C 72 % 1021,4 hPa 0,0 mm 3,6 km/h (1 Bft) NW 305 ° 1 min 0,000 mm 3,9 UV-I 726 W/m² 4,4 °C 9,2 °C 6,4 km/h (2 Bft)
26.03.2017 14:13 9,2 °C 9,2 °C 69 % 1021,4 hPa 0,0 mm 0,4 km/h (0 Bft) NW 305 ° 1 min 0,000 mm 4,0 UV-I 738 W/m² 3,8 °C 9,2 °C 3,2 km/h (1 Bft)
26.03.2017 14:14 9,2 °C 9,2 °C 69 % 1021,4 hPa 0,0 mm 0,9 km/h (0 Bft) NW 305 ° 1 min 0,000 mm 4,0 UV-I 737 W/m² 3,8 °C 9,2 °C 1,6 km/h (1 Bft)
26.03.2017 14:15 9,4 °C 9,4 °C 71 % 1021,4 hPa 0,0 mm 4,2 km/h (1 Bft) NW 315 ° 1 min 0,000 mm 4,1 UV-I 737 W/m² 4,4 °C 9,4 °C 8,0 km/h (2 Bft)
26.03.2017 14:16 9,6 °C 9,6 °C 69 % 1021,4 hPa 0,0 mm 5,5 km/h (1 Bft) NW 313 ° 1 min 0,000 mm 4,2 UV-I 773 W/m² 4,2 °C 9,2 °C 6,4 km/h (2 Bft)
26.03.2017 14:17 9,6 °C 9,6 °C 69 % 1021,5 hPa 0,0 mm 5,6 km/h (1 Bft) NW 306 ° 1 min 0,000 mm 4,2 UV-I 782 W/m² 4,2 °C 9,1 °C 6,4 km/h (2 Bft)
26.03.2017 14:18 9,4 °C 9,6 °C 67 % 1021,5 hPa 0,0 mm 4,0 km/h (1 Bft) NW 315 ° 1 min 0,000 mm 4,2 UV-I 791 W/m² 3,6 °C 9,4 °C 6,4 km/h (2 Bft)
26.03.2017 14:19 9,5 °C 9,6 °C 68 % 1021,4 hPa 0,0 mm 4,6 km/h (1 Bft) NW 326 ° 1 min 0,000 mm 4,3 UV-I 796 W/m² 3,9 °C 9,3 °C 6,4 km/h (2 Bft)
26.03.2017 14:20 9,4 °C 9,5 °C 66 % 1021,4 hPa 0,0 mm 2,9 km/h (1 Bft) N-NW 331 ° 1 min 0,000 mm 4,3 UV-I 800 W/m² 3,4 °C 9,4 °C 4,8 km/h (1 Bft)
26.03.2017 14:21 9,2 °C 9,4 °C 67 % 1021,5 hPa 0,0 mm 1,7 km/h (1 Bft) N-NW 331 ° 1 min 0,000 mm 4,2 UV-I 796 W/m² 3,4 °C 9,2 °C 3,2 km/h (1 Bft)
26.03.2017 14:22 9,1 °C 9,2 °C 68 % 1021,3 hPa 0,0 mm 0,3 km/h (0 Bft) N-NW 331 ° 1 min 0,000 mm 4,3 UV-I 803 W/m² 3,5 °C 9,1 °C 1,6 km/h (1 Bft)
26.03.2017 14:23 9,0 °C 9,1 °C 67 % 1021,3 hPa 0,0 mm 0,5 km/h (0 Bft) N-NW 331 ° 1 min 0,000 mm 4,3 UV-I 823 W/m² 3,2 °C 9,0 °C 1,6 km/h (1 Bft)
26.03.2017 14:24 9,1 °C 9,1 °C 69 % 1021,3 hPa 0,0 mm 2,7 km/h (1 Bft) S-SW 209 ° 1 min 0,000 mm 4,3 UV-I 821 W/m² 3,7 °C 9,1 °C 4,8 km/h (1 Bft)
26.03.2017 14:25 9,3 °C 9,3 °C 69 % 1021,3 hPa 0,0 mm 3,0 km/h (1 Bft) S-SW 209 ° 1 min 0,000 mm 4,3 UV-I 828 W/m² 3,9 °C 9,3 °C 4,8 km/h (1 Bft)
26.03.2017 14:26 9,4 °C 9,4 °C 69 % 1021,3 hPa 0,0 mm 0,4 km/h (0 Bft) S-SW 209 ° 1 min 0,000 mm 4,3 UV-I 828 W/m² 4,0 °C 9,4 °C 1,6 km/h (1 Bft)
26.03.2017 14:27 9,5 °C 9,5 °C 69 % 1021,3 hPa 0,0 mm 0,9 km/h (0 Bft) S-SW 209 ° 1 min 0,000 mm 4,2 UV-I 828 W/m² 4,1 °C 9,5 °C 1,6 km/h (1 Bft)
26.03.2017 14:28 9,4 °C 9,5 °C 67 % 1021,3 hPa 0,0 mm 4,3 km/h (1 Bft) N-NO 22 ° 1 min 0,000 mm 4,2 UV-I 817 W/m² 3,6 °C 9,4 °C 8,0 km/h (2 Bft)
26.03.2017 14:29 9,6 °C 9,6 °C 69 % 1021,3 hPa 0,0 mm 8,4 km/h (2 Bft) N-NO 29 ° 1 min 0,000 mm 4,0 UV-I 807 W/m² 4,2 °C 8,5 °C 12,9 km/h (3 Bft)
26.03.2017 14:30 9,6 °C 9,7 °C 65 % 1021,3 hPa 0,0 mm 5,3 km/h (1 Bft) NO 41 ° 1 min 0,000 mm 2,8 UV-I 807 W/m² 3,4 °C 9,2 °C 8,0 km/h (2 Bft)
26.03.2017 14:31 9,6 °C 9,6 °C 66 % 1021,4 hPa 0,0 mm 2,4 km/h (1 Bft) N 355 ° 1 min 0,000 mm 2,1 UV-I 807 W/m² 3,6 °C 9,6 °C 4,8 km/h (1 Bft)
26.03.2017 14:32 9,4 °C 9,6 °C 66 % 1021,3 hPa 0,0 mm 6,7 km/h (2 Bft) N 360 ° 0 min 0,000 mm 2,0 UV-I 190 W/m² 3,4 °C 8,6 °C 9,7 km/h (2 Bft)
26.03.2017 14:33 9,4 °C 9,4 °C 67 % 1021,3 hPa 0,0 mm 4,8 km/h (1 Bft) N 9 ° 0 min 0,000 mm 2,0 UV-I 181 W/m² 3,6 °C 9,1 °C 6,4 km/h (2 Bft)
26.03.2017 14:34 9,4 °C 9,4 °C 66 % 1021,2 hPa 0,0 mm 5,0 km/h (1 Bft) N-NW 333 ° 0 min 0,000 mm 1,9 UV-I 169 W/m² 3,4 °C 9,1 °C 8,0 km/h (2 Bft)
26.03.2017 14:35 9,3 °C 9,4 °C 66 % 1021,2 hPa 0,0 mm 3,4 km/h (1 Bft) N-NW 333 ° 0 min 0,000 mm 1,9 UV-I 156 W/m² 3,3 °C 9,3 °C 4,8 km/h (1 Bft)
26.03.2017 14:36 9,2 °C 9,3 °C 66 % 1021,1 hPa 0,0 mm 2,7 km/h (1 Bft) N 350 ° 0 min 0,000 mm 1,9 UV-I 156 W/m² 3,2 °C 9,2 °C 4,8 km/h (1 Bft)
26.03.2017 14:37 9,2 °C 9,2 °C 67 % 1021,2 hPa 0,0 mm 4,0 km/h (1 Bft) N-NW 340 ° 0 min 0,000 mm 2,0 UV-I 163 W/m² 3,4 °C 9,2 °C 6,4 km/h (2 Bft)
26.03.2017 14:38 9,2 °C 9,3 °C 65 % 1021,2 hPa 0,0 mm 3,3 km/h (1 Bft) N-NW 340 ° 0 min 0,000 mm 2,0 UV-I 178 W/m² 3,0 °C 9,2 °C 4,8 km/h (1 Bft)
26.03.2017 14:39 9,2 °C 9,2 °C 66 % 1021,1 hPa 0,0 mm 1,2 km/h (1 Bft) N-NW 340 ° 0 min 0,000 mm 2,1 UV-I 190 W/m² 3,2 °C 9,2 °C 3,2 km/h (1 Bft)
26.03.2017 14:40 9,2 °C 9,2 °C 66 % 1021,1 hPa 0,0 mm 0,5 km/h (0 Bft) N-NW 340 ° 0 min 0,000 mm 2,1 UV-I 197 W/m² 3,2 °C 9,2 °C 1,6 km/h (1 Bft)
26.03.2017 14:41 9,2 °C 9,2 °C 69 % 1021,1 hPa 0,0 mm 2,9 km/h (1 Bft) NW 311 ° 0 min 0,000 mm 2,2 UV-I 216 W/m² 3,8 °C 9,2 °C 8,0 km/h (2 Bft)
26.03.2017 14:42 9,3 °C 9,3 °C 68 % 1021,1 hPa 0,0 mm 5,0 km/h (1 Bft) W-NW 282 ° 0 min 0,000 mm 2,2 UV-I 227 W/m² 3,7 °C 9,0 °C 9,7 km/h (2 Bft)
26.03.2017 14:43 9,2 °C 9,3 °C 67 % 1021,1 hPa 0,0 mm 5,0 km/h (1 Bft) W 274 ° 0 min 0,000 mm 2,2 UV-I 241 W/m² 3,4 °C 8,8 °C 6,4 km/h (2 Bft)
26.03.2017 14:44 9,2 °C 9,2 °C 68 % 1021,1 hPa 0,0 mm 2,8 km/h (1 Bft) N-NW 338 ° 0 min 0,000 mm 3,5 UV-I 241 W/m² 3,6 °C 9,2 °C 4,8 km/h (1 Bft)
26.03.2017 14:45 9,2 °C 9,2 °C 69 % 1021,1 hPa 0,0 mm 4,3 km/h (1 Bft) N-NW 342 ° 1 min 0,000 mm 3,5 UV-I 770 W/m² 3,8 °C 9,2 °C 6,4 km/h (2 Bft)
26.03.2017 14:46 9,4 °C 9,4 °C 67 % 1021,1 hPa 0,0 mm 1,4 km/h (1 Bft) N-NW 342 ° 1 min 0,000 mm 3,5 UV-I 780 W/m² 3,6 °C 9,4 °C 3,2 km/h (1 Bft)
26.03.2017 14:47 9,3 °C 9,4 °C 66 % 1021,1 hPa 0,0 mm 0,8 km/h (0 Bft) N-NW 342 ° 1 min 0,000 mm 3,5 UV-I 779 W/m² 3,3 °C 9,3 °C 3,2 km/h (1 Bft)
26.03.2017 14:48 9,4 °C 9,4 °C 66 % 1021,1 hPa 0,0 mm 0,4 km/h (0 Bft) N-NW 342 ° 1 min 0,000 mm 3,4 UV-I 772 W/m² 3,4 °C 9,4 °C 1,6 km/h (1 Bft)
26.03.2017 14:49 9,6 °C 9,6 °C 67 % 1021,0 hPa 0,0 mm 0,7 km/h (0 Bft) N 355 ° 1 min 0,000 mm 3,5 UV-I 775 W/m² 3,8 °C 9,6 °C 1,6 km/h (1 Bft)
26.03.2017 14:50 9,8 °C 9,8 °C 68 % 1020,9 hPa 0,0 mm 5,6 km/h (1 Bft) NW 325 ° 1 min 0,000 mm 3,6 UV-I 765 W/m² 4,2 °C 9,4 °C 9,7 km/h (2 Bft)
26.03.2017 14:51 9,9 °C 9,9 °C 65 % 1021,0 hPa 0,0 mm 9,3 km/h (2 Bft) N 350 ° 1 min 0,000 mm 3,6 UV-I 765 W/m² 3,6 °C 8,6 °C 12,9 km/h (3 Bft)
26.03.2017 14:52 10,0 °C 10,0 °C 65 % 1021,0 hPa 0,0 mm 8,8 km/h (2 Bft) N-NW 329 ° 1 min 0,000 mm 3,5 UV-I 768 W/m² 3,7 °C 8,8 °C 12,9 km/h (3 Bft)
26.03.2017 14:53 10,1 °C 10,1 °C 64 % 1021,0 hPa 0,0 mm 7,8 km/h (2 Bft) N-NW 329 ° 1 min 0,000 mm 3,4 UV-I 768 W/m² 3,6 °C 10,1 °C 12,9 km/h (3 Bft)
26.03.2017 14:54 9,9 °C 10,1 °C 64 % 1021,0 hPa 0,0 mm 12,7 km/h (3 Bft) N 11 ° 1 min 0,000 mm 3,3 UV-I 768 W/m² 3,4 °C 8,1 °C 17,7 km/h (3 Bft)
26.03.2017 14:55 9,9 °C 9,9 °C 64 % 1021,1 hPa 0,0 mm 12,3 km/h (3 Bft) NO 46 ° 1 min 0,000 mm 3,2 UV-I 679 W/m² 3,4 °C 8,1 °C 16,1 km/h (3 Bft)
26.03.2017 14:56 9,8 °C 9,9 °C 64 % 1021,1 hPa 0,0 mm 9,4 km/h (2 Bft) N 355 ° 1 min 0,000 mm 2,2 UV-I 679 W/m² 3,3 °C 8,5 °C 14,5 km/h (3 Bft)
26.03.2017 14:57 9,7 °C 9,8 °C 65 % 1021,1 hPa 0,0 mm 8,0 km/h (2 Bft) N 360 ° 0 min 0,000 mm 2,1 UV-I 248 W/m² 3,4 °C 8,7 °C 9,7 km/h (2 Bft)
26.03.2017 14:58 9,5 °C 9,7 °C 64 % 1021,1 hPa 0,0 mm 6,6 km/h (2 Bft) NO 42 ° 0 min 0,000 mm 2,1 UV-I 248 W/m² 3,0 °C 8,7 °C 8,0 km/h (2 Bft)
26.03.2017 14:59 9,4 °C 9,5 °C 65 % 1021,1 hPa 0,0 mm 5,8 km/h (2 Bft) NO 35 ° 0 min 0,000 mm 2,0 UV-I 253 W/m² 3,2 °C 8,8 °C 6,4 km/h (2 Bft)
26.03.2017 15:00 9,4 °C 9,4 °C 66 % 1021,1 hPa 0,0 mm 7,6 km/h (2 Bft) N 5 ° 0 min 0,000 mm 2,0 UV-I 262 W/m² 3,4 °C 8,4 °C 11,3 km/h (2 Bft)
26.03.2017 15:01 9,2 °C 9,4 °C 65 % 1021,1 hPa 0,0 mm 3,3 km/h (1 Bft) N 5 ° 0 min 0,254 mm 2,0 UV-I 264 W/m² 3,0 °C 9,2 °C 4,8 km/h (1 Bft)
26.03.2017 15:02 9,2 °C 9,2 °C 66 % 1021,1 hPa 0,0 mm 5,9 km/h (2 Bft) N-NW 340 ° 0 min 0,000 mm 1,9 UV-I 260 W/m² 3,2 °C 8,6 °C 8,0 km/h (2 Bft)
26.03.2017 15:03 9,2 °C 9,2 °C 65 % 1021,1 hPa 0,0 mm 4,4 km/h (1 Bft) N-NW 342 ° 0 min 0,000 mm 1,9 UV-I 265 W/m² 3,0 °C 9,2 °C 6,4 km/h (2 Bft)
26.03.2017 15:04 9,2 °C 9,2 °C 67 % 1021,2 hPa 0,0 mm 6,4 km/h (2 Bft) O-NO 72 ° 1 min 0,000 mm 1,9 UV-I 359 W/m² 3,4 °C 8,4 °C 9,7 km/h (2 Bft)
26.03.2017 15:05 9,3 °C 9,3 °C 66 % 1021,1 hPa 0,0 mm 5,6 km/h (1 Bft) W-NW 300 ° 1 min 0,000 mm 2,3 UV-I 359 W/m² 3,3 °C 8,8 °C 9,7 km/h (2 Bft)
26.03.2017 15:06 9,4 °C 9,4 °C 66 % 1021,1 hPa 0,0 mm 5,3 km/h (1 Bft) N-NW 342 ° 1 min 0,000 mm 1,9 UV-I 359 W/m² 3,4 °C 9,0 °C 8,0 km/h (2 Bft)
26.03.2017 15:07 9,7 °C 9,7 °C 66 % 1021,2 hPa 0,0 mm 5,3 km/h (1 Bft) N 360 ° 1 min 0,000 mm 1,9 UV-I 290 W/m² 3,7 °C 9,3 °C 8,0 km/h (2 Bft)
26.03.2017 15:08 9,7 °C 9,7 °C 63 % 1021,1 hPa 0,0 mm 5,5 km/h (1 Bft) N-NW 327 ° 1 min 0,000 mm 3,0 UV-I 345 W/m² 3,0 °C 9,3 °C 8,0 km/h (2 Bft)
26.03.2017 15:09 9,9 °C 9,9 °C 65 % 1021,1 hPa 0,0 mm 4,2 km/h (1 Bft) W-NW 288 ° 1 min 0,000 mm 2,9 UV-I 345 W/m² 3,6 °C 9,9 °C 8,0 km/h (2 Bft)
26.03.2017 15:10 10,0 °C 10,0 °C 63 % 1021,1 hPa 0,0 mm 7,8 km/h (2 Bft) N-NW 338 ° 1 min 0,000 mm 2,0 UV-I 657 W/m² 3,3 °C 9,0 °C 12,9 km/h (3 Bft)
26.03.2017 15:11 10,2 °C 10,2 °C 65 % 1021,1 hPa 0,0 mm 8,5 km/h (2 Bft) N 355 ° 1 min 0,000 mm 1,8 UV-I 657 W/m² 3,9 °C 10,2 °C 12,9 km/h (3 Bft)
26.03.2017 15:12 10,2 °C 10,3 °C 64 % 1021,1 hPa 0,0 mm 7,3 km/h (2 Bft) N 360 ° 1 min 0,000 mm 1,6 UV-I 657 W/m² 3,7 °C 10,2 °C 12,9 km/h (3 Bft)
26.03.2017 15:13 10,1 °C 10,3 °C 62 % 1021,1 hPa 0,0 mm 8,0 km/h (2 Bft) N-NW 342 ° 0 min 0,000 mm 1,5 UV-I 241 W/m² 3,2 °C 10,1 °C 12,9 km/h (3 Bft)
26.03.2017 15:14 9,9 °C 10,1 °C 61 % 1021,1 hPa 0,0 mm 7,5 km/h (2 Bft) N 9 ° 0 min 0,000 mm 1,6 UV-I 253 W/m² 2,7 °C 9,0 °C 11,3 km/h (2 Bft)
26.03.2017 15:15 9,9 °C 9,9 °C 63 % 1021,1 hPa 0,0 mm 7,1 km/h (2 Bft) N-NW 336 ° 0 min 0,000 mm 2,3 UV-I 253 W/m² 3,2 °C 9,1 °C 8,0 km/h (2 Bft)
26.03.2017 15:16 9,9 °C 9,9 °C 63 % 1021,1 hPa 0,0 mm 7,4 km/h (2 Bft) N-NW 338 ° 0 min 0,000 mm 1,9 UV-I 253 W/m² 3,2 °C 9,0 °C 9,7 km/h (2 Bft)
26.03.2017 15:17 9,8 °C 9,9 °C 63 % 1021,1 hPa 0,0 mm 6,8 km/h (2 Bft) N-NW 340 ° 0 min 0,000 mm 1,2 UV-I 185 W/m² 3,1 °C 9,0 °C 11,3 km/h (2 Bft)
26.03.2017 15:18 9,7 °C 9,8 °C 62 % 1021,1 hPa 0,0 mm 4,8 km/h (1 Bft) N 9 ° 0 min 0,000 mm 1,1 UV-I 174 W/m² 2,8 °C 9,5 °C 6,4 km/h (2 Bft)
26.03.2017 15:19 9,7 °C 9,7 °C 62 % 1021,1 hPa 0,0 mm 5,5 km/h (1 Bft) N 355 ° 0 min 0,000 mm 1,0 UV-I 151 W/m² 2,8 °C 9,3 °C 8,0 km/h (2 Bft)
26.03.2017 15:20 9,7 °C 9,7 °C 64 % 1021,2 hPa 0,0 mm 6,3 km/h (2 Bft) N-NO 17 ° 0 min 0,000 mm 0,9 UV-I 135 W/m² 3,2 °C 9,0 °C 9,7 km/h (2 Bft)
26.03.2017 15:21 9,6 °C 9,7 °C 62 % 1021,2 hPa 0,0 mm 5,6 km/h (1 Bft) NO 42 ° 0 min 0,000 mm 0,9 UV-I 127 W/m² 2,7 °C 9,1 °C 8,0 km/h (2 Bft)
26.03.2017 15:22 9,6 °C 9,6 °C 62 % 1021,2 hPa 0,0 mm 5,3 km/h (1 Bft) NO 36 ° 0 min 0,000 mm 0,9 UV-I 121 W/m² 2,7 °C 9,2 °C 8,0 km/h (2 Bft)
26.03.2017 15:23 9,4 °C 9,6 °C 63 % 1021,2 hPa 0,0 mm 5,1 km/h (1 Bft) NO 44 ° 0 min 0,000 mm 0,9 UV-I 120 W/m² 2,7 °C 9,0 °C 8,0 km/h (2 Bft)
26.03.2017 15:24 9,4 °C 9,4 °C 62 % 1021,2 hPa 0,0 mm 5,6 km/h (1 Bft) NO 47 ° 0 min 0,000 mm 0,9 UV-I 120 W/m² 2,5 °C 8,9 °C 8,0 km/h (2 Bft)
26.03.2017 15:25 9,3 °C 9,4 °C 63 % 1021,2 hPa 0,0 mm 4,6 km/h (1 Bft) O 86 ° 0 min 0,000 mm 0,9 UV-I 120 W/m² 2,6 °C 9,1 °C 8,0 km/h (2 Bft)
26.03.2017 15:26 9,3 °C 9,3 °C 63 % 1021,2 hPa 0,0 mm 5,7 km/h (1 Bft) NO 35 ° 0 min 0,000 mm 0,9 UV-I 121 W/m² 2,6 °C 8,8 °C 8,0 km/h (2 Bft)
26.03.2017 15:27 9,2 °C 9,3 °C 64 % 1021,2 hPa 0,0 mm 6,4 km/h (2 Bft) NO 45 ° 0 min 0,000 mm 0,9 UV-I 123 W/m² 2,8 °C 8,4 °C 8,0 km/h (2 Bft)
26.03.2017 15:28 9,2 °C 9,2 °C 64 % 1021,3 hPa 0,0 mm 6,0 km/h (2 Bft) NO 49 ° 0 min 0,000 mm 0,9 UV-I 123 W/m² 2,8 °C 8,6 °C 9,7 km/h (2 Bft)
26.03.2017 15:29 9,1 °C 9,2 °C 64 % 1021,2 hPa 0,0 mm 4,5 km/h (1 Bft) O-NO 65 ° 0 min 0,000 mm 0,9 UV-I 121 W/m² 2,7 °C 9,1 °C 8,0 km/h (2 Bft)
26.03.2017 15:30 9,1 °C 9,2 °C 64 % 1021,2 hPa 0,0 mm 6,6 km/h (2 Bft) NO 55 ° 0 min 0,000 mm 0,9 UV-I 118 W/m² 2,7 °C 8,3 °C 8,0 km/h (2 Bft)
26.03.2017 15:31 9,1 °C 9,2 °C 64 % 1021,2 hPa 0,0 mm 6,0 km/h (2 Bft) N-NW 335 ° 0 min 0,000 mm 0,9 UV-I 113 W/m² 2,7 °C 8,4 °C 8,0 km/h (2 Bft)
26.03.2017 15:32 9,2 °C 9,2 °C 63 % 1021,2 hPa 0,0 mm 9,2 km/h (2 Bft) N 355 ° 0 min 0,000 mm 0,8 UV-I 107 W/m² 2,5 °C 7,8 °C 12,9 km/h (3 Bft)
26.03.2017 15:33 9,2 °C 9,2 °C 63 % 1021,2 hPa 0,0 mm 5,9 km/h (2 Bft) N-NO 31 ° 0 min 0,000 mm 0,9 UV-I 113 W/m² 2,5 °C 8,6 °C 11,3 km/h (2 Bft)
26.03.2017 15:34 9,2 °C 9,2 °C 63 % 1021,2 hPa 0,0 mm 4,2 km/h (1 Bft) O-NO 65 ° 0 min 0,000 mm 0,9 UV-I 113 W/m² 2,5 °C 9,2 °C 6,4 km/h (2 Bft)
26.03.2017 15:35 9,2 °C 9,2 °C 63 % 1021,2 hPa 0,0 mm 6,4 km/h (2 Bft) O-NO 61 ° 0 min 0,000 mm 0,9 UV-I 113 W/m² 2,5 °C 8,4 °C 9,7 km/h (2 Bft)
26.03.2017 15:36 9,2 °C 9,2 °C 63 % 1021,2 hPa 0,0 mm 5,6 km/h (1 Bft) O-NO 76 ° 0 min 0,000 mm 0,9 UV-I 114 W/m² 2,5 °C 8,7 °C 8,0 km/h (2 Bft)
26.03.2017 15:37 9,1 °C 9,2 °C 65 % 1021,2 hPa 0,0 mm 4,3 km/h (1 Bft) NO 47 ° 0 min 0,000 mm 0,9 UV-I 118 W/m² 2,9 °C 9,1 °C 4,8 km/h (1 Bft)
26.03.2017 15:38 9,2 °C 9,2 °C 65 % 1021,1 hPa 0,0 mm 3,4 km/h (1 Bft) O-NO 69 ° 0 min 0,000 mm 1,0 UV-I 120 W/m² 3,0 °C 9,2 °C 6,4 km/h (2 Bft)
26.03.2017 15:39 9,2 °C 9,2 °C 64 % 1021,2 hPa 0,0 mm 4,2 km/h (1 Bft) N-NO 26 ° 0 min 0,000 mm 1,0 UV-I 132 W/m² 2,8 °C 9,2 °C 6,4 km/h (2 Bft)
26.03.2017 15:40 9,2 °C 9,2 °C 64 % 1021,1 hPa 0,0 mm 6,3 km/h (2 Bft) O-NO 57 ° 0 min 0,000 mm 1,1 UV-I 142 W/m² 2,8 °C 8,5 °C 11,3 km/h (2 Bft)
26.03.2017 15:41 9,2 °C 9,2 °C 64 % 1021,1 hPa 0,0 mm 4,0 km/h (1 Bft) NO 40 ° 0 min 0,000 mm 1,2 UV-I 153 W/m² 2,8 °C 9,2 °C 8,0 km/h (2 Bft)
26.03.2017 15:42 9,2 °C 9,2 °C 63 % 1021,1 hPa 0,0 mm 7,1 km/h (2 Bft) NO 47 ° 0 min 0,000 mm 1,2 UV-I 160 W/m² 2,5 °C 8,3 °C 16,1 km/h (3 Bft)
26.03.2017 15:43 9,2 °C 9,2 °C 63 % 1021,2 hPa 0,0 mm 9,4 km/h (2 Bft) O-NO 59 ° 0 min 0,000 mm 1,2 UV-I 162 W/m² 2,5 °C 7,8 °C 17,7 km/h (3 Bft)
26.03.2017 15:44 9,1 °C 9,2 °C 64 % 1021,2 hPa 0,0 mm 6,4 km/h (2 Bft) O-NO 69 ° 0 min 0,000 mm 1,1 UV-I 162 W/m² 2,7 °C 8,3 °C 12,9 km/h (3 Bft)
26.03.2017 15:45 9,1 °C 9,1 °C 64 % 1021,2 hPa 0,0 mm 5,0 km/h (1 Bft) NO 53 ° 0 min 0,000 mm 1,1 UV-I 153 W/m² 2,7 °C 8,7 °C 8,0 km/h (2 Bft)
26.03.2017 15:46 9,1 °C 9,1 °C 64 % 1021,2 hPa 0,0 mm 5,2 km/h (1 Bft) O 86 ° 0 min 0,000 mm 1,0 UV-I 151 W/m² 2,7 °C 8,7 °C 8,0 km/h (2 Bft)
26.03.2017 15:47 9,0 °C 9,1 °C 64 % 1021,2 hPa 0,0 mm 11,9 km/h (2 Bft) NO 38 ° 0 min 0,000 mm 1,0 UV-I 151 W/m² 2,6 °C 7,1 °C 17,7 km/h (3 Bft)
26.03.2017 15:48 9,0 °C 9,0 °C 63 % 1021,2 hPa 0,0 mm 6,6 km/h (2 Bft) O-NO 63 ° 0 min 0,000 mm 0,9 UV-I 151 W/m² 2,3 °C 8,2 °C 11,3 km/h (2 Bft)
26.03.2017 15:49 8,9 °C 9,0 °C 65 % 1021,2 hPa 0,0 mm 7,8 km/h (2 Bft) O-NO 64 ° 0 min 0,000 mm 1,0 UV-I 174 W/m² 2,7 °C 7,8 °C 11,3 km/h (2 Bft)
26.03.2017 15:50 9,0 °C 9,0 °C 65 % 1021,2 hPa 0,0 mm 5,2 km/h (1 Bft) O-NO 61 ° 0 min 0,000 mm 1,7 UV-I 174 W/m² 2,8 °C 8,6 °C 9,7 km/h (2 Bft)
26.03.2017 15:51 9,1 °C 9,1 °C 64 % 1021,2 hPa 0,0 mm 4,8 km/h (1 Bft) N 5 ° 0 min 0,000 mm 0,9 UV-I 134 W/m² 2,7 °C 8,8 °C 6,4 km/h (2 Bft)
26.03.2017 15:52 9,1 °C 9,1 °C 64 % 1021,2 hPa 0,0 mm 8,5 km/h (2 Bft) NO 36 ° 0 min 0,000 mm 1,0 UV-I 139 W/m² 2,7 °C 7,8 °C 14,5 km/h (3 Bft)
26.03.2017 15:53 9,1 °C 9,1 °C 63 % 1021,2 hPa 0,0 mm 4,8 km/h (1 Bft) NO 42 ° 0 min 0,000 mm 1,1 UV-I 142 W/m² 2,4 °C 8,8 °C 6,4 km/h (2 Bft)
26.03.2017 15:54 9,1 °C 9,1 °C 64 % 1021,2 hPa 0,0 mm 6,3 km/h (2 Bft) N-NO 26 ° 0 min 0,000 mm 1,2 UV-I 153 W/m² 2,7 °C 8,4 °C 12,9 km/h (3 Bft)
26.03.2017 15:55 9,0 °C 9,1 °C 64 % 1021,2 hPa 0,0 mm 11,5 km/h (2 Bft) O-NO 66 ° 0 min 0,000 mm 1,2 UV-I 165 W/m² 2,6 °C 7,2 °C 14,5 km/h (3 Bft)
26.03.2017 15:56 9,0 °C 9,0 °C 65 % 1021,2 hPa 0,0 mm 8,3 km/h (2 Bft) O-NO 57 ° 0 min 0,000 mm 1,3 UV-I 181 W/m² 2,8 °C 7,8 °C 12,9 km/h (3 Bft)
26.03.2017 15:57 9,0 °C 9,0 °C 64 % 1021,2 hPa 0,0 mm 7,0 km/h (2 Bft) O 88 ° 0 min 0,000 mm 1,4 UV-I 213 W/m² 2,6 °C 8,1 °C 9,7 km/h (2 Bft)
26.03.2017 15:58 8,9 °C 9,0 °C 63 % 1021,1 hPa 0,0 mm 6,7 km/h (2 Bft) N-NO 26 ° 0 min 0,000 mm 1,6 UV-I 229 W/m² 2,2 °C 8,0 °C 12,9 km/h (3 Bft)
26.03.2017 15:59 8,9 °C 9,0 °C 64 % 1021,1 hPa 0,0 mm 6,1 km/h (2 Bft) NO 34 ° 0 min 0,000 mm 1,7 UV-I 246 W/m² 2,5 °C 8,2 °C 12,9 km/h (3 Bft)
26.03.2017 16:00 8,9 °C 8,9 °C 63 % 1021,1 hPa 0,0 mm 10,4 km/h (2 Bft) O-NO 61 ° 0 min 0,000 mm 1,7 UV-I 265 W/m² 2,2 °C 7,2 °C 14,5 km/h (3 Bft)
26.03.2017 16:01 9,1 °C 9,1 °C 63 % 1021,1 hPa 0,0 mm 8,4 km/h (2 Bft) NO 34 ° 0 min 0,127 mm 2,5 UV-I 265 W/m² 2,4 °C 7,9 °C 14,5 km/h (3 Bft)
26.03.2017 16:02 9,1 °C 9,1 °C 62 % 1021,1 hPa 0,0 mm 9,7 km/h (2 Bft) O-NO 69 ° 1 min 0,000 mm 2,4 UV-I 689 W/m² 2,2 °C 7,6 °C 12,9 km/h (3 Bft)
26.03.2017 16:03 9,2 °C 9,2 °C 64 % 1021,1 hPa 0,0 mm 7,5 km/h (2 Bft) O-NO 63 ° 1 min 0,000 mm 2,1 UV-I 631 W/m² 2,8 °C 8,2 °C 11,3 km/h (2 Bft)
26.03.2017 16:04 9,3 °C 9,3 °C 62 % 1021,1 hPa 0,0 mm 4,9 km/h (1 Bft) NO 48 ° 0 min 0,000 mm 1,4 UV-I 234 W/m² 2,4 °C 9,0 °C 8,0 km/h (2 Bft)
26.03.2017 16:05 9,4 °C 9,4 °C 62 % 1021,1 hPa 0,0 mm 7,2 km/h (2 Bft) O 82 ° 0 min 0,000 mm 1,3 UV-I 211 W/m² 2,5 °C 8,5 °C 12,9 km/h (3 Bft)
26.03.2017 16:06 9,3 °C 9,4 °C 61 % 1021,1 hPa 0,0 mm 13,2 km/h (3 Bft) O-NO 76 ° 0 min 0,000 mm 1,3 UV-I 199 W/m² 2,2 °C 7,3 °C 16,1 km/h (3 Bft)
26.03.2017 16:07 9,2 °C 9,3 °C 62 % 1021,1 hPa 0,0 mm 9,8 km/h (2 Bft) NO 51 ° 0 min 0,000 mm 1,3 UV-I 200 W/m² 2,3 °C 7,7 °C 16,1 km/h (3 Bft)
26.03.2017 16:08 9,1 °C 9,2 °C 63 % 1021,2 hPa 0,0 mm 7,6 km/h (2 Bft) O-NO 70 ° 0 min 0,000 mm 1,2 UV-I 199 W/m² 2,4 °C 8,0 °C 12,9 km/h (3 Bft)
26.03.2017 16:09 9,1 °C 9,2 °C 63 % 1021,2 hPa 0,0 mm 5,3 km/h (1 Bft) NO 36 ° 0 min 0,000 mm 1,3 UV-I 230 W/m² 2,4 °C 8,6 °C 8,0 km/h (2 Bft)
26.03.2017 16:10 9,1 °C 9,1 °C 64 % 1021,1 hPa 0,0 mm 6,8 km/h (2 Bft) NO 51 ° 0 min 0,000 mm 1,2 UV-I 230 W/m² 2,7 °C 8,2 °C 9,7 km/h (2 Bft)
26.03.2017 16:11 9,1 °C 9,1 °C 62 % 1021,2 hPa 0,0 mm 6,4 km/h (2 Bft) O-NO 64 ° 0 min 0,000 mm 1,1 UV-I 202 W/m² 2,2 °C 8,3 °C 9,7 km/h (2 Bft)
26.03.2017 16:12 9,1 °C 9,1 °C 62 % 1021,2 hPa 0,0 mm 8,9 km/h (2 Bft) O-NO 61 ° 0 min 0,000 mm 1,1 UV-I 200 W/m² 2,2 °C 7,8 °C 14,5 km/h (3 Bft)
26.03.2017 16:13 9,0 °C 9,1 °C 62 % 1021,2 hPa 0,0 mm 7,5 km/h (2 Bft) O-NO 62 ° 0 min 0,000 mm 1,6 UV-I 200 W/m² 2,1 °C 7,9 °C 11,3 km/h (2 Bft)
26.03.2017 16:14 9,1 °C 9,1 °C 62 % 1021,2 hPa 0,0 mm 8,5 km/h (2 Bft) N-NO 32 ° 0 min 0,000 mm 1,0 UV-I 156 W/m² 2,2 °C 7,8 °C 14,5 km/h (3 Bft)
26.03.2017 16:15 9,0 °C 9,1 °C 62 % 1021,2 hPa 0,0 mm 11,4 km/h (2 Bft) NO 42 ° 0 min 0,000 mm 0,9 UV-I 151 W/m² 2,1 °C 7,2 °C 14,5 km/h (3 Bft)
26.03.2017 16:16 9,0 °C 9,0 °C 63 % 1021,2 hPa 0,0 mm 4,7 km/h (1 Bft) O 82 ° 0 min 0,000 mm 0,9 UV-I 146 W/m² 2,3 °C 8,7 °C 8,0 km/h (2 Bft)
26.03.2017 16:17 8,9 °C 9,0 °C 62 % 1021,2 hPa 0,0 mm 3,4 km/h (1 Bft) NO 43 ° 0 min 0,000 mm 0,9 UV-I 144 W/m² 2,0 °C 8,9 °C 4,8 km/h (1 Bft)
26.03.2017 16:18 8,9 °C 8,9 °C 64 % 1021,2 hPa 0,0 mm 4,5 km/h (1 Bft) N-NO 22 ° 0 min 0,000 mm 0,9 UV-I 144 W/m² 2,5 °C 8,9 °C 6,4 km/h (2 Bft)
26.03.2017 16:19 9,0 °C 9,0 °C 64 % 1021,3 hPa 0,0 mm 6,9 km/h (2 Bft) NO 43 ° 0 min 0,000 mm 1,0 UV-I 144 W/m² 2,6 °C 8,1 °C 11,3 km/h (2 Bft)
26.03.2017 16:20 8,9 °C 9,0 °C 63 % 1021,2 hPa 0,0 mm 7,7 km/h (2 Bft) NO 34 ° 0 min 0,000 mm 1,0 UV-I 155 W/m² 2,2 °C 7,8 °C 11,3 km/h (2 Bft)
26.03.2017 16:21 8,9 °C 9,0 °C 64 % 1021,2 hPa 0,0 mm 6,8 km/h (2 Bft) O 82 ° 0 min 0,000 mm 1,0 UV-I 156 W/m² 2,5 °C 8,0 °C 9,7 km/h (2 Bft)
26.03.2017 16:22 8,9 °C 9,0 °C 64 % 1021,2 hPa 0,0 mm 7,7 km/h (2 Bft) NO 55 ° 0 min 0,000 mm 1,1 UV-I 165 W/m² 2,5 °C 7,8 °C 9,7 km/h (2 Bft)
26.03.2017 16:23 9,0 °C 9,0 °C 63 % 1021,3 hPa 0,0 mm 6,4 km/h (2 Bft) O-NO 78 ° 0 min 0,000 mm 1,2 UV-I 174 W/m² 2,3 °C 8,2 °C 11,3 km/h (2 Bft)
26.03.2017 16:24 9,0 °C 9,0 °C 64 % 1021,3 hPa 0,0 mm 7,4 km/h (2 Bft) O 86 ° 0 min 0,000 mm 1,2 UV-I 176 W/m² 2,6 °C 8,0 °C 14,5 km/h (3 Bft)
26.03.2017 16:25 9,0 °C 9,0 °C 64 % 1021,3 hPa 0,0 mm 7,4 km/h (2 Bft) NO 34 ° 0 min 0,000 mm 1,2 UV-I 176 W/m² 2,6 °C 8,0 °C 12,9 km/h (3 Bft)
26.03.2017 16:26 8,9 °C 9,0 °C 62 % 1021,3 hPa 0,0 mm 8,2 km/h (2 Bft) O-NO 71 ° 0 min 0,000 mm 1,2 UV-I 172 W/m² 2,0 °C 7,7 °C 12,9 km/h (3 Bft)
26.03.2017 16:27 8,9 °C 8,9 °C 62 % 1021,3 hPa 0,0 mm 7,8 km/h (2 Bft) O 84 ° 0 min 0,000 mm 1,3 UV-I 172 W/m² 2,0 °C 7,8 °C 11,3 km/h (2 Bft)
26.03.2017 16:28 8,9 °C 8,9 °C 64 % 1021,3 hPa 0,0 mm 7,2 km/h (2 Bft) O 87 ° 0 min 0,000 mm 1,3 UV-I 172 W/m² 2,5 °C 7,9 °C 11,3 km/h (2 Bft)
26.03.2017 16:29 8,8 °C 8,9 °C 63 % 1021,3 hPa 0,0 mm 8,2 km/h (2 Bft) O-NO 59 ° 0 min 0,000 mm 1,3 UV-I 178 W/m² 2,2 °C 7,6 °C 12,9 km/h (3 Bft)
26.03.2017 16:30 8,9 °C 8,9 °C 64 % 1021,3 hPa 0,0 mm 6,9 km/h (2 Bft) O-NO 73 ° 0 min 0,000 mm 1,3 UV-I 185 W/m² 2,5 °C 8,0 °C 12,9 km/h (3 Bft)
26.03.2017 16:31 8,9 °C 8,9 °C 65 % 1021,4 hPa 0,0 mm 4,7 km/h (1 Bft) O 87 ° 0 min 0,000 mm 1,4 UV-I 195 W/m² 2,7 °C 8,6 °C 8,0 km/h (2 Bft)
26.03.2017 16:32 8,9 °C 9,0 °C 64 % 1021,4 hPa 0,0 mm 8,4 km/h (2 Bft) O-NO 73 ° 0 min 0,000 mm 1,4 UV-I 193 W/m² 2,5 °C 7,6 °C 11,3 km/h (2 Bft)
26.03.2017 16:33 8,9 °C 8,9 °C 62 % 1021,4 hPa 0,0 mm 7,1 km/h (2 Bft) NO 51 ° 0 min 0,000 mm 1,4 UV-I 186 W/m² 2,0 °C 7,9 °C 12,9 km/h (3 Bft)
26.03.2017 16:34 9,0 °C 9,0 °C 63 % 1021,4 hPa 0,0 mm 6,0 km/h (2 Bft) O 79 ° 0 min 0,000 mm 1,4 UV-I 188 W/m² 2,3 °C 8,3 °C 11,3 km/h (2 Bft)
26.03.2017 16:35 9,0 °C 9,0 °C 63 % 1021,4 hPa 0,0 mm 8,2 km/h (2 Bft) N-NO 20 ° 0 min 0,000 mm 1,4 UV-I 209 W/m² 2,3 °C 7,8 °C 12,9 km/h (3 Bft)
26.03.2017 16:36 9,0 °C 9,0 °C 62 % 1021,4 hPa 0,0 mm 7,0 km/h (2 Bft) O 81 ° 0 min 0,000 mm 1,5 UV-I 237 W/m² 2,1 °C 8,1 °C 11,3 km/h (2 Bft)
26.03.2017 16:37 9,0 °C 9,0 °C 63 % 1021,3 hPa 0,0 mm 5,8 km/h (2 Bft) NO 37 ° 0 min 0,000 mm 1,6 UV-I 253 W/m² 2,3 °C 8,4 °C 9,7 km/h (2 Bft)
26.03.2017 16:38 9,0 °C 9,1 °C 63 % 1021,4 hPa 0,0 mm 7,1 km/h (2 Bft) O-NO 61 ° 0 min 0,000 mm 1,5 UV-I 207 W/m² 2,3 °C 8,0 °C 12,9 km/h (3 Bft)
26.03.2017 16:39 9,0 °C 9,1 °C 64 % 1021,4 hPa 0,0 mm 6,4 km/h (2 Bft) O-NO 67 ° 0 min 0,000 mm 1,4 UV-I 199 W/m² 2,6 °C 8,2 °C 12,9 km/h (3 Bft)
26.03.2017 16:40 9,0 °C 9,0 °C 63 % 1021,4 hPa 0,0 mm 7,7 km/h (2 Bft) O 92 ° 0 min 0,000 mm 1,4 UV-I 192 W/m² 2,3 °C 7,9 °C 11,3 km/h (2 Bft)
26.03.2017 16:41 8,9 °C 9,0 °C 62 % 1021,4 hPa 0,0 mm 6,0 km/h (2 Bft) O-NO 63 ° 0 min 0,000 mm 1,4 UV-I 195 W/m² 2,0 °C 8,2 °C 12,9 km/h (3 Bft)
26.03.2017 16:42 8,9 °C 8,9 °C 62 % 1021,4 hPa 0,0 mm 7,0 km/h (2 Bft) N 355 ° 0 min 0,000 mm 1,4 UV-I 178 W/m² 2,0 °C 7,9 °C 14,5 km/h (3 Bft)
26.03.2017 16:43 8,9 °C 8,9 °C 62 % 1021,4 hPa 0,0 mm 8,7 km/h (2 Bft) N-NW 340 ° 0 min 0,000 mm 1,4 UV-I 172 W/m² 2,0 °C 7,6 °C 12,9 km/h (3 Bft)
26.03.2017 16:44 9,0 °C 9,0 °C 63 % 1021,3 hPa 0,0 mm 6,4 km/h (2 Bft) N 5 ° 0 min 0,000 mm 1,4 UV-I 178 W/m² 2,3 °C 8,2 °C 9,7 km/h (2 Bft)
26.03.2017 16:45 9,1 °C 9,1 °C 61 % 1021,3 hPa 0,0 mm 7,1 km/h (2 Bft) N-NO 16 ° 0 min 0,000 mm 1,7 UV-I 178 W/m² 2,0 °C 8,2 °C 9,7 km/h (2 Bft)
26.03.2017 16:46 9,2 °C 9,2 °C 61 % 1021,3 hPa 0,0 mm 6,5 km/h (2 Bft) N-NO 15 ° 0 min 0,000 mm 1,5 UV-I 178 W/m² 2,1 °C 8,4 °C 8,0 km/h (2 Bft)
26.03.2017 16:47 9,2 °C 9,2 °C 61 % 1021,3 hPa 0,0 mm 5,1 km/h (1 Bft) O-NO 76 ° 1 min 0,000 mm 1,7 UV-I 295 W/m² 2,1 °C 8,8 °C 11,3 km/h (2 Bft)
26.03.2017 16:48 9,3 °C 9,3 °C 60 % 1021,3 hPa 0,0 mm 7,2 km/h (2 Bft) NO 36 ° 1 min 0,000 mm 1,7 UV-I 339 W/m² 1,9 °C 8,4 °C 11,3 km/h (2 Bft)
26.03.2017 16:49 9,3 °C 9,3 °C 59 % 1021,2 hPa 0,0 mm 7,8 km/h (2 Bft) N 11 ° 1 min 0,000 mm 1,6 UV-I 341 W/m² 1,7 °C 8,2 °C 12,9 km/h (3 Bft)
26.03.2017 16:50 9,2 °C 9,3 °C 60 % 1021,2 hPa 0,0 mm 7,7 km/h (2 Bft) O 82 ° 1 min 0,000 mm 1,6 UV-I 295 W/m² 1,8 °C 8,1 °C 11,3 km/h (2 Bft)
26.03.2017 16:51 9,3 °C 9,3 °C 61 % 1021,3 hPa 0,0 mm 13,1 km/h (3 Bft) O-NO 65 ° 0 min 0,000 mm 1,5 UV-I 244 W/m² 2,2 °C 7,3 °C 17,7 km/h (3 Bft)
26.03.2017 16:52 9,3 °C 9,3 °C 60 % 1021,2 hPa 0,0 mm 9,3 km/h (2 Bft) O-NO 69 ° 0 min 0,000 mm 1,5 UV-I 223 W/m² 1,9 °C 7,9 °C 14,5 km/h (3 Bft)
26.03.2017 16:53 9,3 °C 9,3 °C 61 % 1021,2 hPa 0,0 mm 4,8 km/h (1 Bft) O-NO 65 ° 0 min 0,000 mm 1,5 UV-I 243 W/m² 2,2 °C 9,0 °C 6,4 km/h (2 Bft)
26.03.2017 16:54 9,3 °C 9,3 °C 62 % 1021,2 hPa 0,0 mm 7,5 km/h (2 Bft) O-NO 75 ° 0 min 0,000 mm 1,5 UV-I 236 W/m² 2,4 °C 8,3 °C 12,9 km/h (3 Bft)
26.03.2017 16:55 9,3 °C 9,3 °C 61 % 1021,2 hPa 0,0 mm 6,2 km/h (2 Bft) O-NO 70 ° 0 min 0,000 mm 1,5 UV-I 279 W/m² 2,2 °C 8,6 °C 11,3 km/h (2 Bft)
26.03.2017 16:56 9,4 °C 9,4 °C 61 % 1021,2 hPa 0,0 mm 6,1 km/h (2 Bft) NO 46 ° 0 min 0,000 mm 1,5 UV-I 288 W/m² 2,3 °C 8,8 °C 8,0 km/h (2 Bft)
26.03.2017 16:57 9,4 °C 9,4 °C 63 % 1021,3 hPa 0,0 mm 5,5 km/h (1 Bft) O 86 ° 1 min 0,000 mm 1,5 UV-I 290 W/m² 2,7 °C 8,9 °C 8,0 km/h (2 Bft)
26.03.2017 16:58 9,4 °C 9,4 °C 60 % 1021,2 hPa 0,0 mm 11,9 km/h (2 Bft) NO 36 ° 0 min 0,000 mm 1,4 UV-I 267 W/m² 2,0 °C 7,6 °C 16,1 km/h (3 Bft)
26.03.2017 16:59 9,4 °C 9,4 °C 61 % 1021,2 hPa 0,0 mm 6,0 km/h (2 Bft) N 11 ° 0 min 0,000 mm 1,3 UV-I 183 W/m² 2,3 °C 8,8 °C 11,3 km/h (2 Bft)
26.03.2017 17:00 9,4 °C 9,4 °C 60 % 1021,2 hPa 0,0 mm 6,0 km/h (2 Bft) NO 38 ° 0 min 0,000 mm 1,3 UV-I 186 W/m² 2,0 °C 8,8 °C 8,0 km/h (2 Bft)
26.03.2017 17:01 9,4 °C 9,4 °C 60 % 1021,2 hPa 0,0 mm 4,3 km/h (1 Bft) O 87 ° 0 min 0,127 mm 1,3 UV-I 172 W/m² 2,0 °C 9,4 °C 6,4 km/h (2 Bft)
26.03.2017 17:02 9,4 °C 9,4 °C 60 % 1021,3 hPa 0,0 mm 3,6 km/h (1 Bft) NO 42 ° 0 min 0,000 mm 1,2 UV-I 172 W/m² 2,0 °C 9,4 °C 6,4 km/h (2 Bft)
26.03.2017 17:04 9,3 °C 9,4 °C 60 % 1021,2 hPa 0,0 mm 5,2 km/h (1 Bft) N-NO 19 ° 0 min 0,000 mm 1,1 UV-I 155 W/m² 1,9 °C 8,9 °C 12,9 km/h (3 Bft)
26.03.2017 17:05 9,3 °C 9,3 °C 61 % 1021,3 hPa 0,0 mm 4,7 km/h (1 Bft) N-NO 21 ° 0 min 0,000 mm 1,1 UV-I 149 W/m² 2,2 °C 9,1 °C 9,7 km/h (2 Bft)
26.03.2017 17:06 9,3 °C 9,3 °C 61 % 1021,2 hPa 0,0 mm 5,4 km/h (1 Bft) N 5 ° 0 min 0,000 mm 1,0 UV-I 146 W/m² 2,2 °C 8,8 °C 8,0 km/h (2 Bft)
26.03.2017 17:07 9,3 °C 9,3 °C 61 % 1021,2 hPa 0,0 mm 9,4 km/h (2 Bft) O-NO 67 ° 0 min 0,000 mm 1,0 UV-I 144 W/m² 2,2 °C 7,9 °C 16,1 km/h (3 Bft)
26.03.2017 17:08 9,3 °C 9,3 °C 61 % 1021,2 hPa 0,0 mm 5,0 km/h (1 Bft) N 5 ° 0 min 0,000 mm 1,0 UV-I 149 W/m² 2,2 °C 9,0 °C 8,0 km/h (2 Bft)
26.03.2017 17:09 9,3 °C 9,3 °C 60 % 1021,2 hPa 0,0 mm 7,4 km/h (2 Bft) NO 35 ° 0 min 0,000 mm 1,0 UV-I 146 W/m² 1,9 °C 8,3 °C 9,7 km/h (2 Bft)
26.03.2017 17:10 9,3 °C 9,3 °C 61 % 1021,2 hPa 0,0 mm 5,5 km/h (1 Bft) O-NO 71 ° 0 min 0,000 mm 1,0 UV-I 141 W/m² 2,2 °C 8,8 °C 8,0 km/h (2 Bft)
26.03.2017 17:11 9,3 °C 9,3 °C 60 % 1021,2 hPa 0,0 mm 3,0 km/h (1 Bft) O 81 ° 0 min 0,000 mm 1,0 UV-I 142 W/m² 1,9 °C 9,3 °C 6,4 km/h (2 Bft)
26.03.2017 17:12 9,2 °C 9,3 °C 60 % 1021,2 hPa 0,0 mm 3,9 km/h (1 Bft) N-NO 30 ° 0 min 0,000 mm 1,0 UV-I 144 W/m² 1,8 °C 9,2 °C 6,4 km/h (2 Bft)
26.03.2017 17:13 9,2 °C 9,2 °C 62 % 1021,2 hPa 0,0 mm 1,9 km/h (1 Bft) N-NO 24 ° 0 min 0,000 mm 1,0 UV-I 149 W/m² 2,3 °C 9,2 °C 3,2 km/h (1 Bft)
26.03.2017 17:14 9,3 °C 9,3 °C 62 % 1021,2 hPa 0,0 mm 5,0 km/h (1 Bft) N 11 ° 0 min 0,000 mm 1,0 UV-I 151 W/m² 2,4 °C 9,0 °C 8,0 km/h (2 Bft)
26.03.2017 17:15 9,3 °C 9,3 °C 61 % 1021,2 hPa 0,0 mm 4,8 km/h (1 Bft) O-NO 67 ° 0 min 0,000 mm 1,0 UV-I 153 W/m² 2,2 °C 9,0 °C 6,4 km/h (2 Bft)
26.03.2017 17:16 9,2 °C 9,3 °C 60 % 1021,2 hPa 0,0 mm 3,1 km/h (1 Bft) O 82 ° 0 min 0,000 mm 0,9 UV-I 151 W/m² 1,8 °C 9,2 °C 4,8 km/h (1 Bft)
26.03.2017 17:17 9,2 °C 9,2 °C 60 % 1021,2 hPa 0,0 mm 3,2 km/h (1 Bft) O 86 ° 0 min 0,000 mm 0,9 UV-I 139 W/m² 1,8 °C 9,2 °C 4,8 km/h (1 Bft)
26.03.2017 17:18 9,2 °C 9,2 °C 62 % 1021,2 hPa 0,0 mm 3,8 km/h (1 Bft) N-NW 337 ° 0 min 0,000 mm 0,9 UV-I 134 W/m² 2,3 °C 9,2 °C 4,8 km/h (1 Bft)
26.03.2017 17:19 9,2 °C 9,2 °C 62 % 1021,2 hPa 0,0 mm 8,6 km/h (2 Bft) N 360 ° 0 min 0,000 mm 0,9 UV-I 121 W/m² 2,3 °C 7,9 °C 12,9 km/h (3 Bft)
26.03.2017 17:20 9,2 °C 9,2 °C 60 % 1021,2 hPa 0,0 mm 7,0 km/h (2 Bft) N-NO 30 ° 0 min 0,000 mm 0,8 UV-I 118 W/m² 1,8 °C 8,3 °C 9,7 km/h (2 Bft)
26.03.2017 17:21 9,2 °C 9,2 °C 60 % 1021,2 hPa 0,0 mm 6,4 km/h (2 Bft) N 360 ° 0 min 0,000 mm 0,8 UV-I 120 W/m² 1,8 °C 8,4 °C 9,7 km/h (2 Bft)
26.03.2017 17:22 9,2 °C 9,2 °C 59 % 1021,2 hPa 0,0 mm 5,6 km/h (1 Bft) N-NO 19 ° 0 min 0,000 mm 0,8 UV-I 121 W/m² 1,6 °C 8,7 °C 8,0 km/h (2 Bft)
26.03.2017 17:23 9,2 °C 9,2 °C 60 % 1021,2 hPa 0,0 mm 4,2 km/h (1 Bft) N 355 ° 0 min 0,000 mm 0,8 UV-I 127 W/m² 1,8 °C 9,2 °C 6,4 km/h (2 Bft)
26.03.2017 17:24 9,2 °C 9,3 °C 60 % 1021,2 hPa 0,0 mm 6,9 km/h (2 Bft) N-NW 329 ° 0 min 0,000 mm 0,8 UV-I 130 W/m² 1,8 °C 8,3 °C 8,0 km/h (2 Bft)
26.03.2017 17:25 9,3 °C 9,3 °C 61 % 1021,2 hPa 0,0 mm 4,7 km/h (1 Bft) N 355 ° 0 min 0,000 mm 0,8 UV-I 132 W/m² 2,2 °C 9,1 °C 6,4 km/h (2 Bft)
26.03.2017 17:26 9,3 °C 9,3 °C 61 % 1021,3 hPa 0,0 mm 4,3 km/h (1 Bft) N 5 ° 0 min 0,000 mm 0,7 UV-I 127 W/m² 2,2 °C 9,3 °C 4,8 km/h (1 Bft)
26.03.2017 17:27 9,3 °C 9,3 °C 59 % 1021,3 hPa 0,0 mm 4,3 km/h (1 Bft) N 5 ° 0 min 0,000 mm 0,7 UV-I 121 W/m² 1,7 °C 9,3 °C 6,4 km/h (2 Bft)
26.03.2017 17:28 9,2 °C 9,3 °C 60 % 1021,3 hPa 0,0 mm 1,6 km/h (1 Bft) N-NO 30 ° 0 min 0,000 mm 0,6 UV-I 113 W/m² 1,8 °C 9,2 °C 3,2 km/h (1 Bft)
26.03.2017 17:29 9,2 °C 9,3 °C 61 % 1021,3 hPa 0,0 mm 1,6 km/h (1 Bft) N-NO 30 ° 0 min 0,000 mm 0,6 UV-I 105 W/m² 2,1 °C 9,2 °C 1,6 km/h (1 Bft)
26.03.2017 17:30 9,2 °C 9,2 °C 61 % 1021,2 hPa 0,0 mm 3,2 km/h (1 Bft) N-NO 30 ° 0 min 0,000 mm 0,6 UV-I 102 W/m² 2,1 °C 9,2 °C 4,8 km/h (1 Bft)
26.03.2017 17:31 9,2 °C 9,2 °C 61 % 1021,2 hPa 0,0 mm 3,1 km/h (1 Bft) N-NO 30 ° 0 min 0,000 mm 0,5 UV-I 95 W/m² 2,1 °C 9,2 °C 4,8 km/h (1 Bft)
26.03.2017 17:32 9,2 °C 9,3 °C 60 % 1021,2 hPa 0,0 mm 3,3 km/h (1 Bft) N-NO 30 ° 0 min 0,000 mm 0,5 UV-I 90 W/m² 1,8 °C 9,2 °C 4,8 km/h (1 Bft)
26.03.2017 17:33 9,2 °C 9,2 °C 60 % 1021,2 hPa 0,0 mm 3,2 km/h (1 Bft) N-NO 30 ° 0 min 0,000 mm 0,5 UV-I 86 W/m² 1,8 °C 9,2 °C 4,8 km/h (1 Bft)
26.03.2017 17:34 9,2 °C 9,2 °C 60 % 1021,2 hPa 0,0 mm 2,5 km/h (1 Bft) N-NO 30 ° 0 min 0,000 mm 0,5 UV-I 84 W/m² 1,8 °C 9,2 °C 3,2 km/h (1 Bft)
26.03.2017 17:35 9,2 °C 9,2 °C 60 % 1021,2 hPa 0,0 mm 3,1 km/h (1 Bft) N-NO 30 ° 0 min 0,000 mm 0,5 UV-I 81 W/m² 1,8 °C 9,2 °C 4,8 km/h (1 Bft)
26.03.2017 17:36 9,2 °C 9,2 °C 60 % 1021,2 hPa 0,0 mm 3,7 km/h (1 Bft) NO 44 ° 0 min 0,000 mm 0,5 UV-I 81 W/m² 1,8 °C 9,2 °C 4,8 km/h (1 Bft)
26.03.2017 17:37 9,2 °C 9,2 °C 59 % 1021,2 hPa 0,0 mm 3,4 km/h (1 Bft) NO 44 ° 0 min 0,000 mm 0,5 UV-I 77 W/m² 1,6 °C 9,2 °C 6,4 km/h (2 Bft)
26.03.2017 17:38 9,1 °C 9,2 °C 60 % 1021,2 hPa 0,0 mm 3,0 km/h (1 Bft) NO 44 ° 0 min 0,000 mm 0,0 UV-I 72 W/m² 1,8 °C 9,1 °C 4,8 km/h (1 Bft)
26.03.2017 17:39 9,1 °C 9,2 °C 60 % 1021,3 hPa 0,0 mm 1,7 km/h (1 Bft) NO 44 ° 0 min 0,000 mm 0,0 UV-I 69 W/m² 1,8 °C 9,1 °C 3,2 km/h (1 Bft)
26.03.2017 17:40 9,1 °C 9,1 °C 61 % 1021,3 hPa 0,0 mm 2,4 km/h (1 Bft) N-NO 15 ° 0 min 0,000 mm 0,0 UV-I 63 W/m² 2,0 °C 9,1 °C 4,8 km/h (1 Bft)
26.03.2017 17:41 9,1 °C 9,1 °C 60 % 1021,3 hPa 0,0 mm 6,7 km/h (2 Bft) N-NW 331 ° 0 min 0,000 mm 0,0 UV-I 62 W/m² 1,8 °C 8,3 °C 12,9 km/h (3 Bft)
26.03.2017 17:42 9,2 °C 9,2 °C 61 % 1021,2 hPa 0,0 mm 8,2 km/h (2 Bft) O-NO 58 ° 0 min 0,000 mm 0,0 UV-I 63 W/m² 2,1 °C 8,0 °C 14,5 km/h (3 Bft)
26.03.2017 17:43 9,1 °C 9,2 °C 60 % 1021,3 hPa 0,0 mm 13,4 km/h (3 Bft) O-NO 63 ° 0 min 0,000 mm 0,5 UV-I 63 W/m² 1,8 °C 7,0 °C 17,7 km/h (3 Bft)
26.03.2017 17:44 9,1 °C 9,2 °C 59 % 1021,3 hPa 0,0 mm 9,1 km/h (2 Bft) NO 42 ° 0 min 0,000 mm 0,5 UV-I 65 W/m² 1,5 °C 7,7 °C 14,5 km/h (3 Bft)
26.03.2017 17:45 9,0 °C 9,1 °C 59 % 1021,3 hPa 0,0 mm 8,3 km/h (2 Bft) NO 42 ° 0 min 0,000 mm 0,5 UV-I 65 W/m² 1,4 °C 7,8 °C 16,1 km/h (3 Bft)
26.03.2017 17:46 9,0 °C 9,1 °C 60 % 1021,3 hPa 0,0 mm 6,9 km/h (2 Bft) N-NO 19 ° 0 min 0,000 mm 0,5 UV-I 60 W/m² 1,7 °C 8,1 °C 11,3 km/h (2 Bft)
26.03.2017 17:47 9,0 °C 9,0 °C 59 % 1021,4 hPa 0,0 mm 7,8 km/h (2 Bft) NO 53 ° 0 min 0,000 mm 0,5 UV-I 58 W/m² 1,4 °C 7,9 °C 9,7 km/h (2 Bft)
26.03.2017 17:48 8,9 °C 9,0 °C 60 % 1021,4 hPa 0,0 mm 6,9 km/h (2 Bft) O-NO 64 ° 0 min 0,000 mm 0,6 UV-I 62 W/m² 1,6 °C 8,0 °C 12,9 km/h (3 Bft)
26.03.2017 17:49 8,9 °C 8,9 °C 60 % 1021,3 hPa 0,0 mm 8,0 km/h (2 Bft) O-NO 57 ° 0 min 0,000 mm 0,6 UV-I 62 W/m² 1,6 °C 7,7 °C 9,7 km/h (2 Bft)
26.03.2017 17:50 8,8 °C 8,9 °C 59 % 1021,3 hPa 0,0 mm 7,6 km/h (2 Bft) O-NO 70 ° 0 min 0,000 mm 0,6 UV-I 63 W/m² 1,2 °C 7,7 °C 11,3 km/h (2 Bft)
26.03.2017 17:51 8,8 °C 8,9 °C 60 % 1021,3 hPa 0,0 mm 5,7 km/h (1 Bft) NO 55 ° 0 min 0,000 mm 0,6 UV-I 63 W/m² 1,5 °C 8,2 °C 8,0 km/h (2 Bft)
26.03.2017 17:52 8,8 °C 8,8 °C 60 % 1021,3 hPa 0,0 mm 5,1 km/h (1 Bft) O-NO 59 ° 0 min 0,000 mm 0,6 UV-I 67 W/m² 1,5 °C 8,4 °C 11,3 km/h (2 Bft)
26.03.2017 17:53 8,7 °C 8,8 °C 60 % 1021,3 hPa 0,0 mm 8,9 km/h (2 Bft) O-NO 57 ° 0 min 0,000 mm 0,6 UV-I 69 W/m² 1,4 °C 7,3 °C 12,9 km/h (3 Bft)
26.03.2017 17:54 8,7 °C 8,8 °C 60 % 1021,4 hPa 0,0 mm 7,6 km/h (2 Bft) N-NO 19 ° 0 min 0,000 mm 0,6 UV-I 72 W/m² 1,4 °C 7,6 °C 11,3 km/h (2 Bft)
26.03.2017 17:55 8,7 °C 8,7 °C 60 % 1021,4 hPa 0,0 mm 6,4 km/h (2 Bft) NO 38 ° 0 min 0,000 mm 0,6 UV-I 74 W/m² 1,4 °C 7,9 °C 9,7 km/h (2 Bft)
26.03.2017 17:56 8,7 °C 8,7 °C 60 % 1021,4 hPa 0,0 mm 6,1 km/h (2 Bft) O-NO 68 ° 0 min 0,000 mm 0,6 UV-I 76 W/m² 1,4 °C 7,9 °C 8,0 km/h (2 Bft)
26.03.2017 17:57 8,7 °C 8,7 °C 60 % 1021,4 hPa 0,0 mm 6,9 km/h (2 Bft) NO 53 ° 0 min 0,000 mm 0,6 UV-I 77 W/m² 1,4 °C 7,7 °C 8,0 km/h (2 Bft)
26.03.2017 17:58 8,7 °C 8,7 °C 60 % 1021,4 hPa 0,0 mm 4,2 km/h (1 Bft) N-NO 33 ° 0 min 0,000 mm 0,6 UV-I 77 W/m² 1,4 °C 8,7 °C 6,4 km/h (2 Bft)
26.03.2017 17:59 8,7 °C 8,7 °C 61 % 1021,4 hPa 0,0 mm 6,1 km/h (2 Bft) NO 50 ° 0 min 0,000 mm 0,6 UV-I 79 W/m² 1,6 °C 7,9 °C 11,3 km/h (2 Bft)
26.03.2017 18:00 8,7 °C 8,7 °C 61 % 1021,4 hPa 0,0 mm 6,4 km/h (2 Bft) O-NO 63 ° 0 min 0,000 mm 0,6 UV-I 79 W/m² 1,6 °C 7,9 °C 9,7 km/h (2 Bft)
26.03.2017 18:01 8,7 °C 8,7 °C 62 % 1021,4 hPa 0,0 mm 4,0 km/h (1 Bft) NO 42 ° 0 min 0,076 mm 0,6 UV-I 76 W/m² 1,8 °C 8,7 °C 8,0 km/h (2 Bft)
26.03.2017 18:02 8,7 °C 8,7 °C 61 % 1021,4 hPa 0,0 mm 7,0 km/h (2 Bft) NO 51 ° 0 min 0,000 mm 0,6 UV-I 79 W/m² 1,6 °C 7,7 °C 9,7 km/h (2 Bft)
26.03.2017 18:03 8,7 °C 8,7 °C 61 % 1021,4 hPa 0,0 mm 5,4 km/h (1 Bft) NO 50 ° 0 min 0,000 mm 0,6 UV-I 83 W/m² 1,6 °C 8,2 °C 6,4 km/h (2 Bft)
26.03.2017 18:04 8,7 °C 8,7 °C 63 % 1021,4 hPa 0,0 mm 4,6 km/h (1 Bft) O-NO 59 ° 0 min 0,000 mm 0,6 UV-I 83 W/m² 2,1 °C 8,4 °C 6,4 km/h (2 Bft)
26.03.2017 18:05 8,7 °C 8,7 °C 63 % 1021,4 hPa 0,0 mm 2,4 km/h (1 Bft) O-NO 59 ° 0 min 0,000 mm 0,6 UV-I 81 W/m² 2,1 °C 8,7 °C 4,8 km/h (1 Bft)
26.03.2017 18:06 8,6 °C 8,7 °C 62 % 1021,4 hPa 0,0 mm 4,4 km/h (1 Bft) O-NO 62 ° 0 min 0,000 mm 0,6 UV-I 77 W/m² 1,7 °C 8,6 °C 6,4 km/h (2 Bft)
26.03.2017 18:07 8,6 °C 8,6 °C 62 % 1021,4 hPa 0,0 mm 6,9 km/h (2 Bft) NO 51 ° 0 min 0,000 mm 0,6 UV-I 69 W/m² 1,7 °C 7,6 °C 9,7 km/h (2 Bft)
26.03.2017 18:08 8,6 °C 8,6 °C 63 % 1021,4 hPa 0,0 mm 4,0 km/h (1 Bft) NO 55 ° 0 min 0,000 mm 0,6 UV-I 63 W/m² 2,0 °C 8,6 °C 8,0 km/h (2 Bft)
26.03.2017 18:09 8,6 °C 8,6 °C 63 % 1021,4 hPa 0,0 mm 2,7 km/h (1 Bft) NO 55 ° 0 min 0,000 mm 0,6 UV-I 65 W/m² 2,0 °C 8,6 °C 3,2 km/h (1 Bft)
26.03.2017 18:10 8,6 °C 8,6 °C 63 % 1021,4 hPa 0,0 mm 3,8 km/h (1 Bft) O-NO 66 ° 0 min 0,000 mm 0,6 UV-I 65 W/m² 2,0 °C 8,6 °C 6,4 km/h (2 Bft)
26.03.2017 18:11 8,6 °C 8,6 °C 63 % 1021,4 hPa 0,0 mm 6,3 km/h (2 Bft) O-NO 62 ° 0 min 0,000 mm 0,6 UV-I 63 W/m² 2,0 °C 7,8 °C 8,0 km/h (2 Bft)
26.03.2017 18:12 8,6 °C 8,6 °C 64 % 1021,4 hPa 0,0 mm 3,4 km/h (1 Bft) O-NO 60 ° 0 min 0,000 mm 0,5 UV-I 60 W/m² 2,2 °C 8,6 °C 4,8 km/h (1 Bft)
26.03.2017 18:13 8,5 °C 8,6 °C 64 % 1021,5 hPa 0,0 mm 4,8 km/h (1 Bft) N-NO 23 ° 0 min 0,000 mm 0,5 UV-I 58 W/m² 2,1 °C 8,1 °C 6,4 km/h (2 Bft)
26.03.2017 18:14 8,4 °C 8,5 °C 64 % 1021,5 hPa 0,0 mm 2,1 km/h (1 Bft) N 5 ° 0 min 0,000 mm 0,5 UV-I 58 W/m² 2,0 °C 8,4 °C 6,4 km/h (2 Bft)
26.03.2017 18:15 8,4 °C 8,4 °C 62 % 1021,5 hPa 0,0 mm 6,4 km/h (2 Bft) N 355 ° 0 min 0,000 mm 0,5 UV-I 65 W/m² 1,6 °C 7,5 °C 9,7 km/h (2 Bft)
26.03.2017 18:16 8,4 °C 8,4 °C 61 % 1021,5 hPa 0,0 mm 9,0 km/h (2 Bft) N 360 ° 0 min 0,000 mm 0,5 UV-I 62 W/m² 1,3 °C 6,9 °C 14,5 km/h (3 Bft)
26.03.2017 18:17 8,4 °C 8,5 °C 61 % 1021,5 hPa 0,0 mm 5,0 km/h (1 Bft) N-NO 22 ° 0 min 0,000 mm 0,5 UV-I 56 W/m² 1,3 °C 7,9 °C 8,0 km/h (2 Bft)
26.03.2017 18:18 8,6 °C 8,6 °C 61 % 1021,5 hPa 0,0 mm 4,5 km/h (1 Bft) NO 44 ° 0 min 0,000 mm 0,5 UV-I 51 W/m² 1,5 °C 8,6 °C 6,4 km/h (2 Bft)
26.03.2017 18:19 8,6 °C 8,6 °C 61 % 1021,5 hPa 0,0 mm 4,0 km/h (1 Bft) N 5 ° 0 min 0,000 mm 0,0 UV-I 47 W/m² 1,5 °C 8,6 °C 6,4 km/h (2 Bft)
26.03.2017 18:20 8,6 °C 8,6 °C 60 % 1021,5 hPa 0,0 mm 4,6 km/h (1 Bft) O-NO 61 ° 0 min 0,000 mm 0,0 UV-I 47 W/m² 1,3 °C 8,3 °C 9,7 km/h (2 Bft)
26.03.2017 18:21 8,6 °C 8,6 °C 61 % 1021,5 hPa 0,0 mm 9,5 km/h (2 Bft) NO 46 ° 0 min 0,000 mm 0,0 UV-I 47 W/m² 1,5 °C 7,1 °C 12,9 km/h (3 Bft)
26.03.2017 18:22 8,6 °C 8,6 °C 61 % 1021,5 hPa 0,0 mm 7,3 km/h (2 Bft) N-NO 28 ° 0 min 0,000 mm 0,0 UV-I 47 W/m² 1,5 °C 7,5 °C 11,3 km/h (2 Bft)
26.03.2017 18:23 8,5 °C 8,6 °C 61 % 1021,6 hPa 0,0 mm 4,9 km/h (1 Bft) NO 38 ° 0 min 0,000 mm 0,0 UV-I 47 W/m² 1,4 °C 8,1 °C 9,7 km/h (2 Bft)
26.03.2017 18:24 8,4 °C 8,6 °C 61 % 1021,5 hPa 0,0 mm 4,3 km/h (1 Bft) O-NO 67 ° 0 min 0,000 mm 0,0 UV-I 47 W/m² 1,3 °C 8,4 °C 6,4 km/h (2 Bft)
26.03.2017 18:25 8,4 °C 8,5 °C 59 % 1021,5 hPa 0,0 mm 5,6 km/h (1 Bft) N-NO 16 ° 0 min 0,000 mm 0,0 UV-I 46 W/m² 0,9 °C 7,7 °C 8,0 km/h (2 Bft)
26.03.2017 18:26 8,5 °C 8,5 °C 59 % 1021,5 hPa 0,0 mm 4,6 km/h (1 Bft) N-NO 30 ° 0 min 0,000 mm 0,0 UV-I 42 W/m² 1,0 °C 8,2 °C 8,0 km/h (2 Bft)
26.03.2017 18:27 8,4 °C 8,5 °C 60 % 1021,5 hPa 0,0 mm 6,2 km/h (2 Bft) N-NO 28 ° 0 min 0,000 mm 0,0 UV-I 42 W/m² 1,1 °C 7,6 °C 11,3 km/h (2 Bft)
26.03.2017 18:28 8,4 °C 8,5 °C 60 % 1021,5 hPa 0,0 mm 4,4 km/h (1 Bft) O 86 ° 0 min 0,000 mm 0,0 UV-I 40 W/m² 1,1 °C 8,4 °C 8,0 km/h (2 Bft)
26.03.2017 18:29 8,5 °C 8,5 °C 60 % 1021,5 hPa 0,0 mm 2,3 km/h (1 Bft) O 82 ° 0 min 0,000 mm 0,0 UV-I 40 W/m² 1,2 °C 8,5 °C 4,8 km/h (1 Bft)
26.03.2017 18:30 8,4 °C 8,5 °C 61 % 1021,5 hPa 0,0 mm 6,4 km/h (2 Bft) NO 56 ° 0 min 0,000 mm 0,0 UV-I 42 W/m² 1,3 °C 7,5 °C 9,7 km/h (2 Bft)
26.03.2017 18:31 8,4 °C 8,5 °C 60 % 1021,5 hPa 0,0 mm 6,1 km/h (2 Bft) O-NO 69 ° 0 min 0,000 mm 0,0 UV-I 44 W/m² 1,1 °C 7,6 °C 9,7 km/h (2 Bft)
26.03.2017 18:32 8,4 °C 8,4 °C 61 % 1021,5 hPa 0,0 mm 4,4 km/h (1 Bft) O 85 ° 0 min 0,000 mm 0,0 UV-I 46 W/m² 1,3 °C 8,4 °C 8,0 km/h (2 Bft)
26.03.2017 18:33 8,4 °C 8,4 °C 62 % 1021,5 hPa 0,0 mm 2,0 km/h (1 Bft) N 10 ° 0 min 0,000 mm 0,0 UV-I 49 W/m² 1,6 °C 8,4 °C 3,2 km/h (1 Bft)
26.03.2017 18:34 8,4 °C 8,4 °C 62 % 1021,5 hPa 0,0 mm 4,2 km/h (1 Bft) O-NO 71 ° 0 min 0,000 mm 0,0 UV-I 51 W/m² 1,6 °C 8,4 °C 6,4 km/h (2 Bft)
26.03.2017 18:35 8,4 °C 8,4 °C 61 % 1021,5 hPa 0,0 mm 6,1 km/h (2 Bft) N-NO 18 ° 0 min 0,000 mm 0,0 UV-I 47 W/m² 1,3 °C 7,6 °C 12,9 km/h (3 Bft)
26.03.2017 18:36 8,4 °C 8,4 °C 61 % 1021,6 hPa 0,0 mm 4,8 km/h (1 Bft) NO 47 ° 0 min 0,000 mm 0,0 UV-I 51 W/m² 1,3 °C 8,0 °C 8,0 km/h (2 Bft)
26.03.2017 18:37 8,4 °C 8,4 °C 62 % 1021,6 hPa 0,0 mm 6,6 km/h (2 Bft) O-NO 72 ° 0 min 0,000 mm 0,0 UV-I 53 W/m² 1,6 °C 7,5 °C 8,0 km/h (2 Bft)
26.03.2017 18:38 8,4 °C 8,4 °C 61 % 1021,6 hPa 0,0 mm 6,2 km/h (2 Bft) O-NO 65 ° 0 min 0,000 mm 0,0 UV-I 53 W/m² 1,3 °C 7,6 °C 9,7 km/h (2 Bft)
26.03.2017 18:39 8,3 °C 8,4 °C 60 % 1021,5 hPa 0,0 mm 5,8 km/h (2 Bft) O-NO 63 ° 0 min 0,000 mm 0,0 UV-I 53 W/m² 1,0 °C 7,6 °C 9,7 km/h (2 Bft)
26.03.2017 18:40 8,3 °C 8,4 °C 60 % 1021,6 hPa 0,0 mm 2,6 km/h (1 Bft) O-NO 63 ° 0 min 0,000 mm 0,0 UV-I 53 W/m² 1,0 °C 8,3 °C 4,8 km/h (1 Bft)
26.03.2017 18:41 8,4 °C 8,4 °C 61 % 1021,6 hPa 0,0 mm 5,2 km/h (1 Bft) O-NO 69 ° 0 min 0,000 mm 0,0 UV-I 49 W/m² 1,3 °C 7,9 °C 8,0 km/h (2 Bft)
26.03.2017 18:42 8,4 °C 8,4 °C 60 % 1021,5 hPa 0,0 mm 5,6 km/h (1 Bft) O-NO 57 ° 0 min 0,000 mm 0,0 UV-I 51 W/m² 1,1 °C 7,7 °C 8,0 km/h (2 Bft)
26.03.2017 18:43 8,3 °C 8,4 °C 61 % 1021,6 hPa 0,0 mm 6,6 km/h (2 Bft) O-NO 66 ° 0 min 0,000 mm 0,0 UV-I 49 W/m² 1,2 °C 7,4 °C 9,7 km/h (2 Bft)
26.03.2017 18:44 8,3 °C 8,3 °C 61 % 1021,6 hPa 0,0 mm 4,9 km/h (1 Bft) O 82 ° 0 min 0,000 mm 0,0 UV-I 47 W/m² 1,2 °C 7,9 °C 8,0 km/h (2 Bft)
26.03.2017 18:45 8,3 °C 8,3 °C 61 % 1021,6 hPa 0,0 mm 5,5 km/h (1 Bft) O-NO 63 ° 0 min 0,000 mm 0,0 UV-I 47 W/m² 1,2 °C 7,7 °C 8,0 km/h (2 Bft)
26.03.2017 18:46 8,3 °C 8,3 °C 61 % 1021,6 hPa 0,0 mm 3,6 km/h (1 Bft) O-NO 75 ° 0 min 0,000 mm 0,0 UV-I 47 W/m² 1,2 °C 8,3 °C 4,8 km/h (1 Bft)
26.03.2017 18:47 8,3 °C 8,3 °C 61 % 1021,7 hPa 0,0 mm 2,7 km/h (1 Bft) O 87 ° 0 min 0,000 mm 0,0 UV-I 49 W/m² 1,2 °C 8,3 °C 4,8 km/h (1 Bft)
26.03.2017 18:48 8,2 °C 8,3 °C 62 % 1021,6 hPa 0,0 mm 3,6 km/h (1 Bft) NO 48 ° 0 min 0,000 mm 0,0 UV-I 47 W/m² 1,4 °C 8,2 °C 4,8 km/h (1 Bft)
26.03.2017 18:49 8,2 °C 8,2 °C 62 % 1021,7 hPa 0,0 mm 2,6 km/h (1 Bft) NO 48 ° 0 min 0,000 mm 0,0 UV-I 46 W/m² 1,4 °C 8,2 °C 4,8 km/h (1 Bft)
26.03.2017 18:50 8,1 °C 8,2 °C 64 % 1021,7 hPa 0,0 mm 3,5 km/h (1 Bft) O 79 ° 0 min 0,000 mm 0,0 UV-I 40 W/m² 1,7 °C 8,1 °C 6,4 km/h (2 Bft)
26.03.2017 18:51 8,0 °C 8,1 °C 62 % 1021,8 hPa 0,0 mm 7,1 km/h (2 Bft) O 86 ° 0 min 0,000 mm 0,0 UV-I 39 W/m² 1,2 °C 6,9 °C 11,3 km/h (2 Bft)
26.03.2017 18:52 7,9 °C 8,0 °C 63 % 1021,8 hPa 0,0 mm 6,3 km/h (2 Bft) NO 51 ° 0 min 0,000 mm 0,0 UV-I 35 W/m² 1,3 °C 7,0 °C 9,7 km/h (2 Bft)
26.03.2017 18:53 8,0 °C 8,0 °C 62 % 1021,8 hPa 0,0 mm 5,7 km/h (1 Bft) NO 51 ° 0 min 0,000 mm 0,0 UV-I 35 W/m² 1,2 °C 7,3 °C 6,4 km/h (2 Bft)
26.03.2017 18:54 8,0 °C 8,0 °C 63 % 1021,8 hPa 0,0 mm 3,7 km/h (1 Bft) NO 50 ° 0 min 0,000 mm 0,0 UV-I 33 W/m² 1,4 °C 8,0 °C 6,4 km/h (2 Bft)
26.03.2017 18:55 8,0 °C 8,0 °C 62 % 1021,8 hPa 0,0 mm 3,7 km/h (1 Bft) O-NO 57 ° 0 min 0,000 mm 0,0 UV-I 33 W/m² 1,2 °C 8,0 °C 6,4 km/h (2 Bft)
26.03.2017 18:56 8,0 °C 8,1 °C 63 % 1021,8 hPa 0,0 mm 3,4 km/h (1 Bft) O-NO 57 ° 0 min 0,000 mm 0,0 UV-I 35 W/m² 1,4 °C 8,0 °C 6,4 km/h (2 Bft)
26.03.2017 18:57 8,0 °C 8,0 °C 64 % 1021,8 hPa 0,0 mm 3,4 km/h (1 Bft) O 80 ° 0 min 0,000 mm 0,0 UV-I 37 W/m² 1,6 °C 8,0 °C 6,4 km/h (2 Bft)
26.03.2017 18:58 7,9 °C 8,0 °C 64 % 1021,7 hPa 0,0 mm 1,5 km/h (1 Bft) O 80 ° 0 min 0,000 mm 0,0 UV-I 35 W/m² 1,5 °C 7,9 °C 3,2 km/h (1 Bft)
26.03.2017 18:59 7,8 °C 7,9 °C 65 % 1021,8 hPa 0,0 mm 3,4 km/h (1 Bft) O 80 ° 0 min 0,000 mm 0,0 UV-I 32 W/m² 1,6 °C 7,8 °C 4,8 km/h (1 Bft)
26.03.2017 19:00 7,8 °C 7,8 °C 64 % 1021,8 hPa 0,0 mm 1,6 km/h (1 Bft) O 80 ° 0 min 0,000 mm 0,0 UV-I 32 W/m² 1,4 °C 7,8 °C 3,2 km/h (1 Bft)
26.03.2017 19:01 7,8 °C 7,8 °C 64 % 1021,8 hPa 0,0 mm 4,8 km/h (1 Bft) O-NO 61 ° 0 min 0,051 mm 0,0 UV-I 30 W/m² 1,4 °C 7,3 °C 6,4 km/h (2 Bft)
26.03.2017 19:02 7,8 °C 7,8 °C 65 % 1021,8 hPa 0,0 mm 4,8 km/h (1 Bft) O-NO 58 ° 0 min 0,000 mm 0,0 UV-I 30 W/m² 1,6 °C 7,3 °C 6,4 km/h (2 Bft)
26.03.2017 19:03 7,7 °C 7,8 °C 65 % 1021,8 hPa 0,0 mm 2,3 km/h (1 Bft) O-NO 58 ° 0 min 0,000 mm 0,0 UV-I 28 W/m² 1,5 °C 7,7 °C 3,2 km/h (1 Bft)
26.03.2017 19:04 7,6 °C 7,7 °C 64 % 1021,8 hPa 0,0 mm 3,8 km/h (1 Bft) NO 49 ° 0 min 0,000 mm 0,0 UV-I 28 W/m² 1,2 °C 7,6 °C 6,4 km/h (2 Bft)
26.03.2017 19:05 7,6 °C 7,7 °C 65 % 1021,8 hPa 0,0 mm 2,3 km/h (1 Bft) NO 38 ° 0 min 0,000 mm 0,0 UV-I 26 W/m² 1,5 °C 7,6 °C 4,8 km/h (1 Bft)
26.03.2017 19:06 7,5 °C 7,6 °C 66 % 1021,8 hPa 0,0 mm 2,5 km/h (1 Bft) NO 38 ° 0 min 0,000 mm 0,0 UV-I 25 W/m² 1,6 °C 7,5 °C 3,2 km/h (1 Bft)
26.03.2017 19:07 7,4 °C 7,5 °C 66 % 1021,8 hPa 0,0 mm 1,8 km/h (1 Bft) NO 38 ° 0 min 0,000 mm 0,0 UV-I 25 W/m² 1,5 °C 7,4 °C 3,2 km/h (1 Bft)
26.03.2017 19:08 7,3 °C 7,4 °C 66 % 1021,8 hPa 0,0 mm 0,9 km/h (0 Bft) NO 38 ° 0 min 0,000 mm 0,0 UV-I 23 W/m² 1,4 °C 7,3 °C 1,6 km/h (1 Bft)
26.03.2017 19:09 7,3 °C 7,3 °C 66 % 1021,8 hPa 0,0 mm 2,2 km/h (1 Bft) NO 38 ° 0 min 0,000 mm 0,0 UV-I 23 W/m² 1,4 °C 7,3 °C 4,8 km/h (1 Bft)
26.03.2017 19:10 7,2 °C 7,3 °C 68 % 1021,8 hPa 0,0 mm 2,1 km/h (1 Bft) NO 38 ° 0 min 0,000 mm 0,0 UV-I 21 W/m² 1,7 °C 7,2 °C 3,2 km/h (1 Bft)
26.03.2017 19:11 7,1 °C 7,2 °C 68 % 1021,9 hPa 0,0 mm 1,3 km/h (1 Bft) NO 38 ° 0 min 0,000 mm 0,0 UV-I 21 W/m² 1,6 °C 7,1 °C 3,2 km/h (1 Bft)
26.03.2017 19:12 7,0 °C 7,1 °C 68 % 1021,9 hPa 0,0 mm 1,7 km/h (1 Bft) NO 38 ° 0 min 0,000 mm 0,0 UV-I 19 W/m² 1,5 °C 7,0 °C 3,2 km/h (1 Bft)
26.03.2017 19:13 6,9 °C 7,0 °C 68 % 1022,0 hPa 0,0 mm 1,2 km/h (1 Bft) NO 38 ° 0 min 0,000 mm 0,0 UV-I 19 W/m² 1,4 °C 6,9 °C 1,6 km/h (1 Bft)
26.03.2017 19:14 6,8 °C 6,9 °C 70 % 1021,9 hPa 0,0 mm 1,3 km/h (1 Bft) NO 38 ° 0 min 0,000 mm 0,0 UV-I 18 W/m² 1,7 °C 6,8 °C 3,2 km/h (1 Bft)
26.03.2017 19:15 6,7 °C 6,8 °C 70 % 1021,9 hPa 0,0 mm 0,8 km/h (0 Bft) NO 38 ° 0 min 0,000 mm 0,0 UV-I 18 W/m² 1,6 °C 6,7 °C 1,6 km/h (1 Bft)
26.03.2017 19:16 6,6 °C 6,7 °C 71 % 1021,9 hPa 0,0 mm 2,5 km/h (1 Bft) NO 38 ° 0 min 0,000 mm 0,0 UV-I 16 W/m² 1,7 °C 6,6 °C 4,8 km/h (1 Bft)
26.03.2017 19:17 6,6 °C 6,7 °C 70 % 1022,0 hPa 0,0 mm 3,8 km/h (1 Bft) NO 40 ° 0 min 0,000 mm 0,0 UV-I 14 W/m² 1,5 °C 6,6 °C 4,8 km/h (1 Bft)
26.03.2017 19:18 6,7 °C 6,7 °C 69 % 1022,0 hPa 0,0 mm 2,6 km/h (1 Bft) NO 40 ° 0 min 0,000 mm 0,0 UV-I 14 W/m² 1,4 °C 6,7 °C 3,2 km/h (1 Bft)
26.03.2017 19:19 6,7 °C 6,7 °C 69 % 1022,1 hPa 0,0 mm 3,5 km/h (1 Bft) O-NO 69 ° 0 min 0,000 mm 0,0 UV-I 14 W/m² 1,4 °C 6,7 °C 4,8 km/h (1 Bft)
26.03.2017 19:20 6,6 °C 6,7 °C 69 % 1022,1 hPa 0,0 mm 3,8 km/h (1 Bft) O 80 ° 0 min 0,000 mm 0,0 UV-I 14 W/m² 1,3 °C 6,6 °C 6,4 km/h (2 Bft)
26.03.2017 19:21 6,6 °C 6,6 °C 71 % 1022,0 hPa 0,0 mm 4,7 km/h (1 Bft) O 84 ° 0 min 0,000 mm 0,0 UV-I 12 W/m² 1,7 °C 6,0 °C 6,4 km/h (2 Bft)
26.03.2017 19:22 6,5 °C 6,6 °C 71 % 1022,1 hPa 0,0 mm 1,3 km/h (1 Bft) O 84 ° 0 min 0,000 mm 0,0 UV-I 11 W/m² 1,6 °C 6,5 °C 3,2 km/h (1 Bft)
26.03.2017 19:23 6,4 °C 6,5 °C 71 % 1022,1 hPa 0,0 mm 0,9 km/h (0 Bft) O 84 ° 0 min 0,000 mm 0,0 UV-I 11 W/m² 1,5 °C 6,4 °C 1,6 km/h (1 Bft)
26.03.2017 19:24 6,4 °C 6,4 °C 71 % 1022,1 hPa 0,0 mm 0,4 km/h (0 Bft) O 84 ° 0 min 0,000 mm 0,0 UV-I 11 W/m² 1,5 °C 6,4 °C 1,6 km/h (1 Bft)
26.03.2017 19:25 6,3 °C 6,4 °C 72 % 1022,0 hPa 0,0 mm 2,0 km/h (1 Bft) O 84 ° 0 min 0,000 mm 0,0 UV-I 9 W/m² 1,6 °C 6,3 °C 3,2 km/h (1 Bft)
26.03.2017 19:26 6,2 °C 6,3 °C 70 % 1022,0 hPa 0,0 mm 1,6 km/h (1 Bft) O 84 ° 0 min 0,000 mm 0,0 UV-I 9 W/m² 1,1 °C 6,2 °C 3,2 km/h (1 Bft)
26.03.2017 19:27 6,2 °C 6,2 °C 71 % 1022,0 hPa 0,0 mm 2,9 km/h (1 Bft) O-NO 59 ° 0 min 0,000 mm 0,0 UV-I 7 W/m² 1,3 °C 6,2 °C 4,8 km/h (1 Bft)
26.03.2017 19:28 6,1 °C 6,2 °C 72 % 1022,1 hPa 0,0 mm 1,9 km/h (1 Bft) O-NO 59 ° 0 min 0,000 mm 0,0 UV-I 7 W/m² 1,4 °C 6,1 °C 3,2 km/h (1 Bft)
26.03.2017 19:29 6,1 °C 6,1 °C 71 % 1022,1 hPa 0,0 mm 2,2 km/h (1 Bft) O-SO 107 ° 0 min 0,000 mm 0,0 UV-I 7 W/m² 1,2 °C 6,1 °C 4,8 km/h (1 Bft)
26.03.2017 19:30 6,1 °C 6,1 °C 71 % 1022,1 hPa 0,0 mm 1,7 km/h (1 Bft) O-SO 104 ° 0 min 0,000 mm 0,0 UV-I 7 W/m² 1,2 °C 6,1 °C 3,2 km/h (1 Bft)
26.03.2017 19:31 6,2 °C 6,2 °C 70 % 1022,1 hPa 0,0 mm 0,9 km/h (0 Bft) O-SO 104 ° 0 min 0,000 mm 0,0 UV-I 5 W/m² 1,1 °C 6,2 °C 1,6 km/h (1 Bft)
26.03.2017 19:32 6,2 °C 6,2 °C 70 % 1022,1 hPa 0,0 mm 2,1 km/h (1 Bft) O-SO 104 ° 0 min 0,000 mm 0,0 UV-I 5 W/m² 1,1 °C 6,2 °C 3,2 km/h (1 Bft)
26.03.2017 19:33 6,1 °C 6,2 °C 71 % 1022,2 hPa 0,0 mm 2,7 km/h (1 Bft) O-SO 104 ° 0 min 0,000 mm 0,0 UV-I 5 W/m² 1,2 °C 6,1 °C 3,2 km/h (1 Bft)
26.03.2017 19:34 6,1 °C 6,1 °C 72 % 1022,2 hPa 0,0 mm 1,7 km/h (1 Bft) O-SO 104 ° 0 min 0,000 mm 0,0 UV-I 5 W/m² 1,4 °C 6,1 °C 3,2 km/h (1 Bft)
26.03.2017 19:35 6,0 °C 6,1 °C 71 % 1022,2 hPa 0,0 mm 2,8 km/h (1 Bft) O-SO 104 ° 0 min 0,000 mm 0,0 UV-I 0 W/m² 1,1 °C 6,0 °C 3,2 km/h (1 Bft)
26.03.2017 19:36 5,9 °C 6,0 °C 71 % 1022,3 hPa 0,0 mm 2,1 km/h (1 Bft) O-SO 104 ° 0 min 0,000 mm 0,0 UV-I 0 W/m² 1,1 °C 5,9 °C 3,2 km/h (1 Bft)
26.03.2017 19:37 5,8 °C 5,9 °C 74 % 1022,4 hPa 0,0 mm 2,1 km/h (1 Bft) O-SO 104 ° 0 min 0,000 mm 0,0 UV-I 0 W/m² 1,5 °C 5,8 °C 4,8 km/h (1 Bft)
26.03.2017 19:38 5,8 °C 5,8 °C 73 % 1022,3 hPa 0,0 mm 1,5 km/h (1 Bft) O-SO 104 ° 0 min 0,000 mm 0,0 UV-I 0 W/m² 1,3 °C 5,8 °C 3,2 km/h (1 Bft)
26.03.2017 19:39 5,8 °C 5,8 °C 72 % 1022,4 hPa 0,0 mm 2,3 km/h (1 Bft) O 93 ° 0 min 0,000 mm 0,0 UV-I 0 W/m² 1,2 °C 5,8 °C 4,8 km/h (1 Bft)
26.03.2017 19:40 5,7 °C 5,8 °C 73 % 1022,4 hPa 0,0 mm 1,7 km/h (1 Bft) O 93 ° 0 min 0,000 mm 0,0 UV-I 0 W/m² 1,2 °C 5,7 °C 4,8 km/h (1 Bft)
26.03.2017 19:41 5,6 °C 5,7 °C 72 % 1022,5 hPa 0,0 mm 0,8 km/h (0 Bft) O 93 ° 0 min 0,000 mm 0,0 UV-I 0 W/m² 1,0 °C 5,6 °C 1,6 km/h (1 Bft)
26.03.2017 19:42 5,6 °C 5,6 °C 73 % 1022,4 hPa 0,0 mm 2,2 km/h (1 Bft) O-NO 76 ° 0 min 0,000 mm 0,0 UV-I 0 W/m² 1,2 °C 5,6 °C 4,8 km/h (1 Bft)
26.03.2017 19:43 5,4 °C 5,6 °C 74 % 1022,5 hPa 0,0 mm 5,2 km/h (1 Bft) O 91 ° 0 min 0,000 mm 0,0 UV-I 0 W/m² 1,1 °C 4,5 °C 9,7 km/h (2 Bft)
26.03.2017 19:44 5,4 °C 5,4 °C 74 % 1022,4 hPa 0,0 mm 3,2 km/h (1 Bft) O 80 ° 0 min 0,000 mm 0,0 UV-I 0 W/m² 1,1 °C 5,4 °C 4,8 km/h (1 Bft)
26.03.2017 19:45 5,3 °C 5,4 °C 73 % 1022,5 hPa 0,0 mm 2,0 km/h (1 Bft) O 80 ° 0 min 0,000 mm 0,0 UV-I 0 W/m² 0,9 °C 5,3 °C 3,2 km/h (1 Bft)
26.03.2017 19:46 5,3 °C 5,3 °C 73 % 1022,5 hPa 0,0 mm 1,4 km/h (1 Bft) O 80 ° 0 min 0,000 mm 0,0 UV-I 0 W/m² 0,9 °C 5,3 °C 3,2 km/h (1 Bft)
26.03.2017 19:47 5,2 °C 5,3 °C 73 % 1022,5 hPa 0,0 mm 3,2 km/h (1 Bft) O 80 ° 0 min 0,000 mm 0,0 UV-I 0 W/m² 0,8 °C 5,2 °C 4,8 km/h (1 Bft)
26.03.2017 19:48 5,2 °C 5,3 °C 73 % 1022,5 hPa 0,0 mm 3,0 km/h (1 Bft) O-NO 77 ° 0 min 0,000 mm 0,0 UV-I 0 W/m² 0,8 °C 5,2 °C 6,4 km/h (2 Bft)
26.03.2017 19:49 5,2 °C 5,2 °C 72 % 1022,4 hPa 0,0 mm 2,5 km/h (1 Bft) O-NO 62 ° 0 min 0,000 mm 0,0 UV-I 0 W/m² 0,6 °C 5,2 °C 4,8 km/h (1 Bft)
26.03.2017 19:50 5,2 °C 5,2 °C 73 % 1022,5 hPa 0,0 mm 0,8 km/h (0 Bft) O-NO 62 ° 0 min 0,000 mm 0,0 UV-I 0 W/m² 0,8 °C 5,2 °C 1,6 km/h (1 Bft)
26.03.2017 19:51 5,2 °C 5,2 °C 72 % 1022,5 hPa 0,0 mm 2,0 km/h (1 Bft) O-NO 62 ° 0 min 0,000 mm 0,0 UV-I 0 W/m² 0,6 °C 5,2 °C 3,2 km/h (1 Bft)
26.03.2017 19:52 5,3 °C 5,3 °C 71 % 1022,5 hPa 0,0 mm 1,3 km/h (1 Bft) O-NO 62 ° 0 min 0,000 mm 0,0 UV-I 0 W/m² 0,5 °C 5,3 °C 3,2 km/h (1 Bft)
26.03.2017 19:53 5,3 °C 5,3 °C 71 % 1022,5 hPa 0,0 mm 1,0 km/h (0 Bft) O-NO 62 ° 0 min 0,000 mm 0,0 UV-I 0 W/m² 0,5 °C 5,3 °C 3,2 km/h (1 Bft)
26.03.2017 19:54 5,4 °C 5,4 °C 71 % 1022,5 hPa 0,0 mm 2,2 km/h (1 Bft) O-NO 62 ° 0 min 0,000 mm 0,0 UV-I 0 W/m² 0,6 °C 5,4 °C 4,8 km/h (1 Bft)
26.03.2017 19:55 5,3 °C 5,4 °C 71 % 1022,5 hPa 0,0 mm 2,1 km/h (1 Bft) O-NO 62 ° 0 min 0,000 mm 0,0 UV-I 0 W/m² 0,5 °C 5,3 °C 4,8 km/h (1 Bft)
26.03.2017 19:56 5,3 °C 5,3 °C 70 % 1022,5 hPa 0,0 mm 1,2 km/h (1 Bft) O-NO 62 ° 0 min 0,000 mm 0,0 UV-I 0 W/m² 0,3 °C 5,3 °C 1,6 km/h (1 Bft)
26.03.2017 19:57 5,3 °C 5,3 °C 69 % 1022,5 hPa 0,0 mm 2,0 km/h (1 Bft) O-NO 62 ° 0 min 0,000 mm 0,0 UV-I 0 W/m² 0,1 °C 5,3 °C 4,8 km/h (1 Bft)
26.03.2017 19:58 5,3 °C 5,3 °C 69 % 1022,6 hPa 0,0 mm 2,9 km/h (1 Bft) O-NO 62 ° 0 min 0,000 mm 0,0 UV-I 0 W/m² 0,1 °C 5,3 °C 4,8 km/h (1 Bft)
26.03.2017 19:59 5,2 °C 5,3 °C 69 % 1022,6 hPa 0,0 mm 1,8 km/h (1 Bft) O-NO 62 ° 0 min 0,000 mm 0,0 UV-I 0 W/m² -0,0 °C 5,2 °C 4,8 km/h (1 Bft)
26.03.2017 20:00 5,1 °C 5,2 °C 70 % 1022,6 hPa 0,0 mm 1,8 km/h (1 Bft) O-NO 62 ° 0 min 0,000 mm 0,0 UV-I 0 W/m² 0,1 °C 5,1 °C 3,2 km/h (1 Bft)
26.03.2017 20:01 4,9 °C 5,1 °C 70 % 1022,6 hPa 0,0 mm 1,6 km/h (1 Bft) O-NO 62 ° 0 min 0,025 mm 0,0 UV-I 0 W/m² -0,1 °C 4,9 °C 1,6 km/h (1 Bft)
26.03.2017 20:02 4,9 °C 4,9 °C 70 % 1022,6 hPa 0,0 mm 1,7 km/h (1 Bft) O-NO 62 ° 0 min 0,000 mm 0,0 UV-I 0 W/m² -0,1 °C 4,9 °C 3,2 km/h (1 Bft)
26.03.2017 20:03 4,8 °C 4,9 °C 72 % 1022,6 hPa 0,0 mm 0,9 km/h (0 Bft) O-NO 62 ° 0 min 0,000 mm 0,0 UV-I 0 W/m² 0,2 °C 4,8 °C 1,6 km/h (1 Bft)
26.03.2017 20:04 4,8 °C 4,9 °C 71 % 1022,6 hPa 0,0 mm 2,0 km/h (1 Bft) O-NO 62 ° 0 min 0,000 mm 0,0 UV-I 0 W/m² -0,0 °C 4,8 °C 3,2 km/h (1 Bft)
26.03.2017 20:05 4,8 °C 4,8 °C 71 % 1022,7 hPa 0,0 mm 1,6 km/h (1 Bft) O-NO 62 ° 0 min 0,000 mm 0,0 UV-I 0 W/m² -0,0 °C 4,8 °C 3,2 km/h (1 Bft)
26.03.2017 20:06 4,8 °C 4,8 °C 70 % 1022,8 hPa 0,0 mm 1,4 km/h (1 Bft) O-NO 62 ° 0 min 0,000 mm 0,0 UV-I 0 W/m² -0,2 °C 4,8 °C 3,2 km/h (1 Bft)
26.03.2017 20:07 4,8 °C 4,8 °C 70 % 1022,7 hPa 0,0 mm 2,3 km/h (1 Bft) O-NO 62 ° 0 min 0,000 mm 0,0 UV-I 0 W/m² -0,2 °C 4,8 °C 3,2 km/h (1 Bft)
26.03.2017 20:08 4,8 °C 4,9 °C 70 % 1022,7 hPa 0,0 mm 2,0 km/h (1 Bft) O-NO 62 ° 0 min 0,000 mm 0,0 UV-I 0 W/m² -0,2 °C 4,8 °C 4,8 km/h (1 Bft)
26.03.2017 20:09 4,9 °C 4,9 °C 69 % 1022,7 hPa 0,0 mm 0,7 km/h (0 Bft) O-NO 62 ° 0 min 0,000 mm 0,0 UV-I 0 W/m² -0,3 °C 4,9 °C 3,2 km/h (1 Bft)
26.03.2017 20:10 4,9 °C 4,9 °C 69 % 1022,8 hPa 0,0 mm 1,3 km/h (1 Bft) O-NO 62 ° 0 min 0,000 mm 0,0 UV-I 0 W/m² -0,3 °C 4,9 °C 1,6 km/h (1 Bft)
26.03.2017 20:11 5,0 °C 5,0 °C 68 % 1022,8 hPa 0,0 mm 1,1 km/h (1 Bft) O-NO 62 ° 0 min 0,000 mm 0,0 UV-I 0 W/m² -0,4 °C 5,0 °C 1,6 km/h (1 Bft)
26.03.2017 20:12 5,0 °C 5,0 °C 68 % 1022,8 hPa 0,0 mm 1,5 km/h (1 Bft) O-NO 62 ° 0 min 0,000 mm 0,0 UV-I 0 W/m² -0,4 °C 5,0 °C 3,2 km/h (1 Bft)
26.03.2017 20:13 4,9 °C 5,0 °C 69 % 1022,8 hPa 0,0 mm 1,5 km/h (1 Bft) O-NO 62 ° 0 min 0,000 mm 0,0 UV-I 0 W/m² -0,3 °C 4,9 °C 3,2 km/h (1 Bft)
26.03.2017 20:14 4,9 °C 5,0 °C 69 % 1022,8 hPa 0,0 mm 2,8 km/h (1 Bft) O 86 ° 0 min 0,000 mm 0,0 UV-I 0 W/m² -0,3 °C 4,9 °C 4,8 km/h (1 Bft)
26.03.2017 20:15 4,8 °C 4,9 °C 68 % 1022,8 hPa 0,0 mm 1,3 km/h (1 Bft) O 86 ° 0 min 0,000 mm 0,0 UV-I 0 W/m² -0,6 °C 4,8 °C 3,2 km/h (1 Bft)
26.03.2017 20:16 4,7 °C 4,8 °C 69 % 1022,8 hPa 0,0 mm 1,7 km/h (1 Bft) O 86 ° 0 min 0,000 mm 0,0 UV-I 0 W/m² -0,5 °C 4,7 °C 3,2 km/h (1 Bft)
26.03.2017 20:17 4,6 °C 4,7 °C 69 % 1022,8 hPa 0,0 mm 4,3 km/h (1 Bft) O-NO 65 ° 0 min 0,000 mm 0,0 UV-I 0 W/m² -0,6 °C 4,6 °C 8,0 km/h (2 Bft)
26.03.2017 20:18 4,6 °C 4,6 °C 68 % 1022,8 hPa 0,0 mm 2,2 km/h (1 Bft) O-NO 65 ° 0 min 0,000 mm 0,0 UV-I 0 W/m² -0,8 °C 4,6 °C 3,2 km/h (1 Bft)
26.03.2017 20:19 4,6 °C 4,6 °C 67 % 1022,8 hPa 0,0 mm 2,1 km/h (1 Bft) O-NO 65 ° 0 min 0,000 mm 0,0 UV-I 0 W/m² -1,0 °C 4,6 °C 3,2 km/h (1 Bft)
26.03.2017 20:20 4,6 °C 4,6 °C 69 % 1022,8 hPa 0,0 mm 3,7 km/h (1 Bft) O 88 ° 0 min 0,000 mm 0,0 UV-I 0 W/m² -0,6 °C 4,6 °C 9,7 km/h (2 Bft)
26.03.2017 20:21 4,5 °C 4,6 °C 69 % 1022,8 hPa 0,0 mm 2,9 km/h (1 Bft) O 88 ° 0 min 0,000 mm 0,0 UV-I 0 W/m² -0,7 °C 4,5 °C 6,4 km/h (2 Bft)
26.03.2017 20:22 4,5 °C 4,5 °C 68 % 1022,8 hPa 0,0 mm 1,3 km/h (1 Bft) O 88 ° 0 min 0,000 mm 0,0 UV-I 0 W/m² -0,9 °C 4,5 °C 3,2 km/h (1 Bft)
26.03.2017 20:23 4,5 °C 4,5 °C 69 % 1022,8 hPa 0,0 mm 1,2 km/h (1 Bft) O 88 ° 0 min 0,000 mm 0,0 UV-I 0 W/m² -0,7 °C 4,5 °C 3,2 km/h (1 Bft)
26.03.2017 20:24 4,5 °C 4,6 °C 68 % 1022,9 hPa 0,0 mm 1,9 km/h (1 Bft) O 88 ° 0 min 0,000 mm 0,0 UV-I 0 W/m² -0,9 °C 4,5 °C 3,2 km/h (1 Bft)
26.03.2017 20:25 4,4 °C 4,5 °C 67 % 1022,8 hPa 0,0 mm 1,5 km/h (1 Bft) O 89 ° 0 min 0,000 mm 0,0 UV-I 0 W/m² -1,2 °C 4,4 °C 4,8 km/h (1 Bft)
26.03.2017 20:26 4,5 °C 4,5 °C 66 % 1022,9 hPa 0,0 mm 3,0 km/h (1 Bft) S-SO 150 ° 0 min 0,000 mm 0,0 UV-I 0 W/m² -1,3 °C 4,5 °C 4,8 km/h (1 Bft)
26.03.2017 20:27 4,6 °C 4,6 °C 67 % 1022,9 hPa 0,0 mm 3,0 km/h (1 Bft) SO 138 ° 0 min 0,000 mm 0,0 UV-I 0 W/m² -1,0 °C 4,6 °C 4,8 km/h (1 Bft)
26.03.2017 20:28 4,6 °C 4,6 °C 66 % 1022,9 hPa 0,0 mm 2,0 km/h (1 Bft) SO 138 ° 0 min 0,000 mm 0,0 UV-I 0 W/m² -1,2 °C 4,6 °C 3,2 km/h (1 Bft)
26.03.2017 20:29 4,5 °C 4,6 °C 66 % 1022,9 hPa 0,0 mm 2,8 km/h (1 Bft) SO 138 ° 0 min 0,000 mm 0,0 UV-I 0 W/m² -1,3 °C 4,5 °C 3,2 km/h (1 Bft)
26.03.2017 20:30 4,4 °C 4,5 °C 67 % 1022,9 hPa 0,0 mm 2,8 km/h (1 Bft) O 86 ° 0 min 0,000 mm 0,0 UV-I 0 W/m² -1,2 °C 4,4 °C 3,2 km/h (1 Bft)
26.03.2017 20:31 4,4 °C 4,4 °C 68 % 1022,9 hPa 0,0 mm 3,3 km/h (1 Bft) O 86 ° 0 min 0,000 mm 0,0 UV-I 0 W/m² -1,0 °C 4,4 °C 4,8 km/h (1 Bft)
26.03.2017 20:32 4,4 °C 4,4 °C 67 % 1022,9 hPa 0,0 mm 2,5 km/h (1 Bft) O 86 ° 0 min 0,000 mm 0,0 UV-I 0 W/m² -1,2 °C 4,4 °C 3,2 km/h (1 Bft)
26.03.2017 20:33 4,3 °C 4,4 °C 68 % 1023,0 hPa 0,0 mm 1,8 km/h (1 Bft) O 86 ° 0 min 0,000 mm 0,0 UV-I 0 W/m² -1,1 °C 4,3 °C 3,2 km/h (1 Bft)
26.03.2017 20:34 4,3 °C 4,3 °C 68 % 1023,0 hPa 0,0 mm 2,2 km/h (1 Bft) O 86 ° 0 min 0,000 mm 0,0 UV-I 0 W/m² -1,1 °C 4,3 °C 3,2 km/h (1 Bft)
26.03.2017 20:35 4,3 °C 4,3 °C 68 % 1023,0 hPa 0,0 mm 3,2 km/h (1 Bft) SO 140 ° 0 min 0,000 mm 0,0 UV-I 0 W/m² -1,1 °C 4,3 °C 6,4 km/h (2 Bft)
26.03.2017 20:36 4,3 °C 4,3 °C 67 % 1023,0 hPa 0,0 mm 2,1 km/h (1 Bft) SO 140 ° 0 min 0,000 mm 0,0 UV-I 0 W/m² -1,3 °C 4,3 °C 4,8 km/h (1 Bft)
26.03.2017 20:37 4,3 °C 4,3 °C 66 % 1023,0 hPa 0,0 mm 2,5 km/h (1 Bft) O-SO 103 ° 0 min 0,000 mm 0,0 UV-I 0 W/m² -1,5 °C 4,3 °C 6,4 km/h (2 Bft)
26.03.2017 20:38 4,3 °C 4,3 °C 65 % 1023,0 hPa 0,0 mm 3,1 km/h (1 Bft) SO 126 ° 0 min 0,000 mm 0,0 UV-I 0 W/m² -1,7 °C 4,3 °C 4,8 km/h (1 Bft)
26.03.2017 20:39 4,3 °C 4,3 °C 65 % 1023,0 hPa 0,0 mm 5,6 km/h (1 Bft) SO 129 ° 0 min 0,000 mm 0,0 UV-I 0 W/m² -1,7 °C 3,1 °C 8,0 km/h (2 Bft)
26.03.2017 20:40 4,3 °C 4,3 °C 66 % 1023,1 hPa 0,0 mm 4,0 km/h (1 Bft) O-SO 112 ° 0 min 0,000 mm 0,0 UV-I 0 W/m² -1,5 °C 4,3 °C 6,4 km/h (2 Bft)
26.03.2017 20:41 4,3 °C 4,3 °C 64 % 1023,1 hPa 0,0 mm 3,0 km/h (1 Bft) O-SO 121 ° 0 min 0,000 mm 0,0 UV-I 0 W/m² -1,9 °C 4,3 °C 6,4 km/h (2 Bft)
26.03.2017 20:42 4,2 °C 4,3 °C 65 % 1023,1 hPa 0,0 mm 1,8 km/h (1 Bft) O-SO 121 ° 0 min 0,000 mm 0,0 UV-I 0 W/m² -1,8 °C 4,2 °C 3,2 km/h (1 Bft)
26.03.2017 20:43 4,2 °C 4,2 °C 67 % 1023,1 hPa 0,0 mm 2,1 km/h (1 Bft) O-SO 121 ° 0 min 0,000 mm 0,0 UV-I 0 W/m² -1,4 °C 4,2 °C 3,2 km/h (1 Bft)
26.03.2017 20:44 4,2 °C 4,2 °C 66 % 1023,1 hPa 0,0 mm 2,7 km/h (1 Bft) O 100 ° 0 min 0,000 mm 0,0 UV-I 0 W/m² -1,6 °C 4,2 °C 4,8 km/h (1 Bft)
26.03.2017 20:45 4,1 °C 4,2 °C 67 % 1023,1 hPa 0,0 mm 3,7 km/h (1 Bft) SO 126 ° 0 min 0,000 mm 0,0 UV-I 0 W/m² -1,5 °C 4,1 °C 4,8 km/h (1 Bft)
26.03.2017 20:46 4,1 °C 4,1 °C 66 % 1023,1 hPa 0,0 mm 3,6 km/h (1 Bft) S-SO 147 ° 0 min 0,000 mm 0,0 UV-I 0 W/m² -1,7 °C 4,1 °C 4,8 km/h (1 Bft)
26.03.2017 20:47 4,1 °C 4,1 °C 66 % 1023,2 hPa 0,0 mm 2,9 km/h (1 Bft) O 101 ° 0 min 0,000 mm 0,0 UV-I 0 W/m² -1,7 °C 4,1 °C 4,8 km/h (1 Bft)
26.03.2017 20:48 4,1 °C 4,1 °C 65 % 1023,2 hPa 0,0 mm 2,4 km/h (1 Bft) O 101 ° 0 min 0,000 mm 0,0 UV-I 0 W/m² -1,9 °C 4,1 °C 4,8 km/h (1 Bft)
26.03.2017 20:49 4,1 °C 4,1 °C 67 % 1023,2 hPa 0,0 mm 5,0 km/h (1 Bft) SO 128 ° 0 min 0,000 mm 0,0 UV-I 0 W/m² -1,5 °C 3,1 °C 6,4 km/h (2 Bft)
26.03.2017 20:50 4,1 °C 4,1 °C 66 % 1023,2 hPa 0,0 mm 1,9 km/h (1 Bft) SO 128 ° 0 min 0,000 mm 0,0 UV-I 0 W/m² -1,7 °C 4,1 °C 3,2 km/h (1 Bft)
26.03.2017 20:51 4,0 °C 4,1 °C 67 % 1023,2 hPa 0,0 mm 1,6 km/h (1 Bft) SO 127 ° 0 min 0,000 mm 0,0 UV-I 0 W/m² -1,6 °C 4,0 °C 3,2 km/h (1 Bft)
26.03.2017 20:52 4,0 °C 4,1 °C 66 % 1023,2 hPa 0,0 mm 1,4 km/h (1 Bft) SO 127 ° 0 min 0,000 mm 0,0 UV-I 0 W/m² -1,8 °C 4,0 °C 3,2 km/h (1 Bft)
26.03.2017 20:53 3,9 °C 4,0 °C 65 % 1023,2 hPa 0,0 mm 2,7 km/h (1 Bft) O-NO 71 ° 0 min 0,000 mm 0,0 UV-I 0 W/m² -2,1 °C 3,9 °C 4,8 km/h (1 Bft)
26.03.2017 20:54 4,0 °C 4,0 °C 64 % 1023,2 hPa 0,0 mm 2,2 km/h (1 Bft) O-NO 71 ° 0 min 0,000 mm 0,0 UV-I 0 W/m² -2,2 °C 4,0 °C 3,2 km/h (1 Bft)
26.03.2017 20:55 4,0 °C 4,0 °C 64 % 1023,2 hPa 0,0 mm 2,5 km/h (1 Bft) O-NO 71 ° 0 min 0,000 mm 0,0 UV-I 0 W/m² -2,2 °C 4,0 °C 3,2 km/h (1 Bft)
26.03.2017 20:56 4,0 °C 4,0 °C 65 % 1023,2 hPa 0,0 mm 1,5 km/h (1 Bft) O-NO 71 ° 0 min 0,000 mm 0,0 UV-I 0 W/m² -2,0 °C 4,0 °C 3,2 km/h (1 Bft)
26.03.2017 20:57 4,1 °C 4,1 °C 63 % 1023,3 hPa 0,0 mm 3,5 km/h (1 Bft) O 88 ° 0 min 0,000 mm 0,0 UV-I 0 W/m² -2,3 °C 4,1 °C 9,7 km/h (2 Bft)
26.03.2017 20:58 4,1 °C 4,1 °C 63 % 1023,2 hPa 0,0 mm 4,3 km/h (1 Bft) O-NO 76 ° 0 min 0,000 mm 0,0 UV-I 0 W/m² -2,3 °C 4,1 °C 6,4 km/h (2 Bft)
26.03.2017 20:59 4,1 °C 4,1 °C 63 % 1023,2 hPa 0,0 mm 2,9 km/h (1 Bft) O-NO 76 ° 0 min 0,000 mm 0,0 UV-I 0 W/m² -2,3 °C 4,1 °C 4,8 km/h (1 Bft)
26.03.2017 21:00 4,1 °C 4,1 °C 63 % 1023,2 hPa 0,0 mm 2,1 km/h (1 Bft) O-SO 110 ° 0 min 0,000 mm 0,0 UV-I 0 W/m² -2,3 °C 4,1 °C 4,8 km/h (1 Bft)
26.03.2017 21:01 4,0 °C 4,1 °C 62 % 1023,2 hPa 0,0 mm 4,9 km/h (1 Bft) O-NO 70 ° 0 min 0,026 mm 0,0 UV-I 0 W/m² -2,6 °C 3,0 °C 9,7 km/h (2 Bft)
26.03.2017 21:02 4,0 °C 4,0 °C 62 % 1023,2 hPa 0,0 mm 1,7 km/h (1 Bft) O-NO 70 ° 0 min 0,000 mm 0,0 UV-I 0 W/m² -2,6 °C 4,0 °C 3,2 km/h (1 Bft)
26.03.2017 21:03 3,9 °C 4,0 °C 63 % 1023,2 hPa 0,0 mm 1,3 km/h (1 Bft) O-NO 70 ° 0 min 0,000 mm 0,0 UV-I 0 W/m² -2,5 °C 3,9 °C 3,2 km/h (1 Bft)
26.03.2017 21:04 3,9 °C 3,9 °C 64 % 1023,2 hPa 0,0 mm 0,7 km/h (0 Bft) O-NO 70 ° 0 min 0,000 mm 0,0 UV-I 0 W/m² -2,3 °C 3,9 °C 3,2 km/h (1 Bft)
26.03.2017 21:05 3,8 °C 3,9 °C 63 % 1023,2 hPa 0,0 mm 1,0 km/h (0 Bft) O-NO 70 ° 0 min 0,000 mm 0,0 UV-I 0 W/m² -2,6 °C 3,8 °C 3,2 km/h (1 Bft)
26.03.2017 21:06 3,8 °C 3,8 °C 64 % 1023,2 hPa 0,0 mm 1,7 km/h (1 Bft) O-NO 70 ° 0 min 0,000 mm 0,0 UV-I 0 W/m² -2,4 °C 3,8 °C 3,2 km/h (1 Bft)
26.03.2017 21:07 3,7 °C 3,8 °C 65 % 1023,2 hPa 0,0 mm 1,2 km/h (1 Bft) O-NO 70 ° 0 min 0,000 mm 0,0 UV-I 0 W/m² -2,3 °C 3,7 °C 1,6 km/h (1 Bft)
26.03.2017 21:08 3,7 °C 3,7 °C 64 % 1023,3 hPa 0,0 mm 1,1 km/h (1 Bft) O-NO 70 ° 0 min 0,000 mm 0,0 UV-I 0 W/m² -2,5 °C 3,7 °C 1,6 km/h (1 Bft)
26.03.2017 21:09 3,7 °C 3,7 °C 64 % 1023,3 hPa 0,0 mm 2,3 km/h (1 Bft) O-NO 70 ° 0 min 0,000 mm 0,0 UV-I 0 W/m² -2,5 °C 3,7 °C 3,2 km/h (1 Bft)
26.03.2017 21:10 3,7 °C 3,7 °C 64 % 1023,3 hPa 0,0 mm 0,9 km/h (0 Bft) O-NO 70 ° 0 min 0,000 mm 0,0 UV-I 0 W/m² -2,5 °C 3,7 °C 1,6 km/h (1 Bft)
26.03.2017 21:11 3,7 °C 3,7 °C 65 % 1023,3 hPa 0,0 mm 0,6 km/h (0 Bft) O-NO 70 ° 0 min 0,000 mm 0,0 UV-I 0 W/m² -2,3 °C 3,7 °C 1,6 km/h (1 Bft)
26.03.2017 21:12 3,7 °C 3,7 °C 64 % 1023,3 hPa 0,0 mm 0,0 km/h (0 Bft) O-NO 70 ° 0 min 0,000 mm 0,0 UV-I 0 W/m² -2,5 °C 3,7 °C 0,0 km/h (0 Bft)
26.03.2017 21:13 3,7 °C 3,7 °C 64 % 1023,3 hPa 0,0 mm 0,0 km/h (0 Bft) O-NO 70 ° 0 min 0,000 mm 0,0 UV-I 0 W/m² -2,5 °C 3,7 °C 0,0 km/h (0 Bft)
26.03.2017 21:14 3,7 °C 3,7 °C 64 % 1023,3 hPa 0,0 mm 0,0 km/h (0 Bft) O-NO 70 ° 0 min 0,000 mm 0,0 UV-I 0 W/m² -2,5 °C 3,7 °C 0,0 km/h (0 Bft)
26.03.2017 21:15 3,7 °C 3,7 °C 64 % 1023,3 hPa 0,0 mm 0,6 km/h (0 Bft) O-NO 70 ° 0 min 0,000 mm 0,0 UV-I 0 W/m² -2,5 °C 3,7 °C 1,6 km/h (1 Bft)
26.03.2017 21:16 3,7 °C 3,7 °C 64 % 1023,3 hPa 0,0 mm 0,9 km/h (0 Bft) O-NO 70 ° 0 min 0,000 mm 0,0 UV-I 0 W/m² -2,5 °C 3,7 °C 1,6 km/h (1 Bft)
26.03.2017 21:17 3,7 °C 3,7 °C 64 % 1023,3 hPa 0,0 mm 1,4 km/h (1 Bft) O-NO 70 ° 0 min 0,000 mm 0,0 UV-I 0 W/m² -2,5 °C 3,7 °C 3,2 km/h (1 Bft)
26.03.2017 21:18 3,7 °C 3,7 °C 63 % 1023,3 hPa 0,0 mm 0,7 km/h (0 Bft) O-NO 70 ° 0 min 0,000 mm 0,0 UV-I 0 W/m² -2,7 °C 3,7 °C 1,6 km/h (1 Bft)
26.03.2017 21:19 3,6 °C 3,7 °C 63 % 1023,3 hPa 0,0 mm 1,0 km/h (0 Bft) O-NO 70 ° 0 min 0,000 mm 0,0 UV-I 0 W/m² -2,8 °C 3,6 °C 3,2 km/h (1 Bft)
26.03.2017 21:20 3,6 °C 3,6 °C 64 % 1023,3 hPa 0,0 mm 0,3 km/h (0 Bft) O-NO 70 ° 0 min 0,000 mm 0,0 UV-I 0 W/m² -2,6 °C 3,6 °C 1,6 km/h (1 Bft)
26.03.2017 21:21 3,6 °C 3,6 °C 65 % 1023,3 hPa 0,0 mm 0,3 km/h (0 Bft) O-NO 70 ° 0 min 0,000 mm 0,0 UV-I 0 W/m² -2,4 °C 3,6 °C 1,6 km/h (1 Bft)
26.03.2017 21:22 3,4 °C 3,6 °C 66 % 1023,3 hPa 0,0 mm 0,0 km/h (0 Bft) O-NO 70 ° 0 min 0,000 mm 0,0 UV-I 0 W/m² -2,3 °C 3,4 °C 0,0 km/h (0 Bft)
26.03.2017 21:23 3,2 °C 3,4 °C 67 % 1023,3 hPa 0,0 mm 0,0 km/h (0 Bft) O-NO 70 ° 0 min 0,000 mm 0,0 UV-I 0 W/m² -2,3 °C 3,2 °C 0,0 km/h (0 Bft)
26.03.2017 21:24 2,9 °C 3,2 °C 67 % 1023,3 hPa 0,0 mm 0,0 km/h (0 Bft) O-NO 70 ° 0 min 0,000 mm 0,0 UV-I 0 W/m² -2,6 °C 2,9 °C 0,0 km/h (0 Bft)
26.03.2017 21:25 2,7 °C 2,9 °C 68 % 1023,3 hPa 0,0 mm 0,0 km/h (0 Bft) O-NO 70 ° 0 min 0,000 mm 0,0 UV-I 0 W/m² -2,6 °C 2,7 °C 0,0 km/h (0 Bft)
26.03.2017 21:26 2,5 °C 2,7 °C 68 % 1023,3 hPa 0,0 mm 0,0 km/h (0 Bft) O-NO 70 ° 0 min 0,000 mm 0,0 UV-I 0 W/m² -2,8 °C 2,5 °C 0,0 km/h (0 Bft)
26.03.2017 21:27 2,4 °C 2,5 °C 69 % 1023,3 hPa 0,0 mm 0,4 km/h (0 Bft) O-NO 70 ° 0 min 0,000 mm 0,0 UV-I 0 W/m² -2,7 °C 2,4 °C 1,6 km/h (1 Bft)
26.03.2017 21:28 2,3 °C 2,4 °C 69 % 1023,4 hPa 0,0 mm 1,0 km/h (0 Bft) O-NO 70 ° 0 min 0,000 mm 0,0 UV-I 0 W/m² -2,8 °C 2,3 °C 1,6 km/h (1 Bft)
26.03.2017 21:29 2,3 °C 2,3 °C 70 % 1023,4 hPa 0,0 mm 1,3 km/h (1 Bft) O-NO 70 ° 0 min 0,000 mm 0,0 UV-I 0 W/m² -2,6 °C 2,3 °C 1,6 km/h (1 Bft)
26.03.2017 21:30 2,4 °C 2,4 °C 71 % 1023,3 hPa 0,0 mm 0,2 km/h (0 Bft) O-NO 70 ° 0 min 0,000 mm 0,0 UV-I 0 W/m² -2,3 °C 2,4 °C 1,6 km/h (1 Bft)
26.03.2017 21:31 2,5 °C 2,5 °C 71 % 1023,3 hPa 0,0 mm 0,0 km/h (0 Bft) O-NO 70 ° 0 min 0,000 mm 0,0 UV-I 0 W/m² -2,2 °C 2,5 °C 0,0 km/h (0 Bft)
26.03.2017 21:32 2,5 °C 2,6 °C 71 % 1023,3 hPa 0,0 mm 0,7 km/h (0 Bft) O-NO 70 ° 0 min 0,000 mm 0,0 UV-I 0 W/m² -2,2 °C 2,5 °C 1,6 km/h (1 Bft)
26.03.2017 21:33 2,4 °C 2,5 °C 71 % 1023,4 hPa 0,0 mm 1,0 km/h (0 Bft) O-NO 70 ° 0 min 0,000 mm 0,0 UV-I 0 W/m² -2,3 °C 2,4 °C 1,6 km/h (1 Bft)
26.03.2017 21:34 2,4 °C 2,4 °C 70 % 1023,4 hPa 0,0 mm 0,9 km/h (0 Bft) O-NO 70 ° 0 min 0,000 mm 0,0 UV-I 0 W/m² -2,5 °C 2,4 °C 1,6 km/h (1 Bft)
26.03.2017 21:35 2,5 °C 2,5 °C 69 % 1023,4 hPa 0,0 mm 2,0 km/h (1 Bft) O-NO 70 ° 0 min 0,000 mm 0,0 UV-I 0 W/m² -2,6 °C 2,5 °C 3,2 km/h (1 Bft)
26.03.2017 21:36 2,6 °C 2,6 °C 70 % 1023,4 hPa 0,0 mm 1,4 km/h (1 Bft) O-NO 70 ° 0 min 0,000 mm 0,0 UV-I 0 W/m² -2,3 °C 2,6 °C 1,6 km/h (1 Bft)
26.03.2017 21:37 2,7 °C 2,7 °C 69 % 1023,4 hPa 0,0 mm 0,5 km/h (0 Bft) O-NO 70 ° 0 min 0,000 mm 0,0 UV-I 0 W/m² -2,4 °C 2,7 °C 1,6 km/h (1 Bft)
26.03.2017 21:38 2,7 °C 2,7 °C 69 % 1023,4 hPa 0,0 mm 0,4 km/h (0 Bft) O-NO 70 ° 0 min 0,000 mm 0,0 UV-I 0 W/m² -2,4 °C 2,7 °C 1,6 km/h (1 Bft)
26.03.2017 21:39 2,4 °C 2,7 °C 70 % 1023,4 hPa 0,0 mm 1,3 km/h (1 Bft) O-NO 70 ° 0 min 0,000 mm 0,0 UV-I 0 W/m² -2,5 °C 2,4 °C 1,6 km/h (1 Bft)
26.03.2017 21:40 2,3 °C 2,4 °C 71 % 1023,4 hPa 0,0 mm 1,6 km/h (1 Bft) O-NO 70 ° 0 min 0,000 mm 0,0 UV-I 0 W/m² -2,4 °C 2,3 °C 1,6 km/h (1 Bft)
26.03.2017 21:41 2,2 °C 2,3 °C 71 % 1023,4 hPa 0,0 mm 1,3 km/h (1 Bft) O-NO 70 ° 0 min 0,000 mm 0,0 UV-I 0 W/m² -2,5 °C 2,2 °C 1,6 km/h (1 Bft)
26.03.2017 21:42 2,2 °C 2,2 °C 70 % 1023,5 hPa 0,0 mm 1,4 km/h (1 Bft) O-NO 70 ° 0 min 0,000 mm 0,0 UV-I 0 W/m² -2,7 °C 2,2 °C 1,6 km/h (1 Bft)
26.03.2017 21:43 2,3 °C 2,3 °C 72 % 1023,5 hPa 0,0 mm 1,9 km/h (1 Bft) O-NO 70 ° 0 min 0,000 mm 0,0 UV-I 0 W/m² -2,2 °C 2,3 °C 3,2 km/h (1 Bft)
26.03.2017 21:44 2,3 °C 2,4 °C 71 % 1023,5 hPa 0,0 mm 1,3 km/h (1 Bft) O-NO 70 ° 0 min 0,000 mm 0,0 UV-I 0 W/m² -2,4 °C 2,3 °C 3,2 km/h (1 Bft)
26.03.2017 21:45 2,4 °C 2,4 °C 70 % 1023,5 hPa 0,0 mm 0,1 km/h (0 Bft) O-NO 70 ° 0 min 0,000 mm 0,0 UV-I 0 W/m² -2,5 °C 2,4 °C 1,6 km/h (1 Bft)
26.03.2017 21:46 2,4 °C 2,4 °C 70 % 1023,5 hPa 0,0 mm 1,0 km/h (0 Bft) O-NO 70 ° 0 min 0,000 mm 0,0 UV-I 0 W/m² -2,5 °C 2,4 °C 1,6 km/h (1 Bft)
26.03.2017 21:47 2,3 °C 2,4 °C 71 % 1023,5 hPa 0,0 mm 0,7 km/h (0 Bft) O-NO 70 ° 0 min 0,000 mm 0,0 UV-I 0 W/m² -2,4 °C 2,3 °C 1,6 km/h (1 Bft)
26.03.2017 21:48 2,0 °C 2,3 °C 71 % 1023,6 hPa 0,0 mm 0,5 km/h (0 Bft) O-NO 70 ° 0 min 0,000 mm 0,0 UV-I 0 W/m² -2,7 °C 2,0 °C 1,6 km/h (1 Bft)
26.03.2017 21:49 1,9 °C 2,0 °C 72 % 1023,6 hPa 0,0 mm 0,7 km/h (0 Bft) O-NO 70 ° 0 min 0,000 mm 0,0 UV-I 0 W/m² -2,6 °C 1,9 °C 1,6 km/h (1 Bft)
26.03.2017 21:50 1,8 °C 1,9 °C 73 % 1023,6 hPa 0,0 mm 0,8 km/h (0 Bft) O-NO 70 ° 0 min 0,000 mm 0,0 UV-I 0 W/m² -2,5 °C 1,8 °C 1,6 km/h (1 Bft)
26.03.2017 21:51 1,8 °C 1,8 °C 73 % 1023,6 hPa 0,0 mm 0,4 km/h (0 Bft) O-NO 70 ° 0 min 0,000 mm 0,0 UV-I 0 W/m² -2,5 °C 1,8 °C 1,6 km/h (1 Bft)
26.03.2017 21:52 2,0 °C 2,0 °C 71 % 1023,6 hPa 0,0 mm 0,8 km/h (0 Bft) O-NO 70 ° 0 min 0,000 mm 0,0 UV-I 0 W/m² -2,7 °C 2,0 °C 1,6 km/h (1 Bft)
26.03.2017 21:53 2,1 °C 2,1 °C 70 % 1023,6 hPa 0,0 mm 0,7 km/h (0 Bft) O-NO 70 ° 0 min 0,000 mm 0,0 UV-I 0 W/m² -2,8 °C 2,1 °C 1,6 km/h (1 Bft)
26.03.2017 21:54 2,3 °C 2,3 °C 70 % 1023,6 hPa 0,0 mm 0,0 km/h (0 Bft) O-NO 70 ° 0 min 0,000 mm 0,0 UV-I 0 W/m² -2,6 °C 2,3 °C 0,0 km/h (0 Bft)
26.03.2017 21:55 2,3 °C 2,3 °C 70 % 1023,6 hPa 0,0 mm 0,0 km/h (0 Bft) O-NO 70 ° 0 min 0,000 mm 0,0 UV-I 0 W/m² -2,6 °C 2,3 °C 0,0 km/h (0 Bft)
26.03.2017 21:56 2,3 °C 2,3 °C 69 % 1023,6 hPa 0,0 mm 0,0 km/h (0 Bft) O-NO 70 ° 0 min 0,000 mm 0,0 UV-I 0 W/m² -2,8 °C 2,3 °C 0,0 km/h (0 Bft)
26.03.2017 21:57 2,2 °C 2,3 °C 70 % 1023,6 hPa 0,0 mm 0,0 km/h (0 Bft) O-NO 70 ° 0 min 0,000 mm 0,0 UV-I 0 W/m² -2,7 °C 2,2 °C 0,0 km/h (0 Bft)
26.03.2017 21:58 1,8 °C 2,2 °C 71 % 1023,6 hPa 0,0 mm 0,0 km/h (0 Bft) O-NO 70 ° 0 min 0,000 mm 0,0 UV-I 0 W/m² -2,9 °C 1,8 °C 0,0 km/h (0 Bft)
26.03.2017 21:59 1,6 °C 1,8 °C 72 % 1023,6 hPa 0,0 mm 0,0 km/h (0 Bft) O-NO 70 ° 0 min 0,000 mm 0,0 UV-I 0 W/m² -2,9 °C 1,6 °C 0,0 km/h (0 Bft)
26.03.2017 22:00 1,4 °C 1,6 °C 73 % 1023,6 hPa 0,0 mm 0,0 km/h (0 Bft) O-NO 70 ° 0 min 0,000 mm 0,0 UV-I 0 W/m² -2,9 °C 1,4 °C 0,0 km/h (0 Bft)
26.03.2017 22:01 1,4 °C 1,4 °C 73 % 1023,6 hPa 0,0 mm 0,0 km/h (0 Bft) O-NO 70 ° 0 min 0,025 mm 0,0 UV-I 0 W/m² -2,9 °C 1,4 °C 0,0 km/h (0 Bft)
26.03.2017 22:02 1,4 °C 1,4 °C 73 % 1023,6 hPa 0,0 mm 0,0 km/h (0 Bft) O-NO 70 ° 0 min 0,000 mm 0,0 UV-I 0 W/m² -2,9 °C 1,4 °C 0,0 km/h (0 Bft)
26.03.2017 22:03 1,3 °C 1,4 °C 74 % 1023,6 hPa 0,0 mm 0,0 km/h (0 Bft) O-NO 70 ° 0 min 0,000 mm 0,0 UV-I 0 W/m² -2,8 °C 1,3 °C 0,0 km/h (0 Bft)
26.03.2017 22:04 1,1 °C 1,3 °C 77 % 1023,6 hPa 0,0 mm 0,0 km/h (0 Bft) O-NO 70 ° 0 min 0,000 mm 0,0 UV-I 0 W/m² -2,5 °C 1,1 °C 0,0 km/h (0 Bft)
26.03.2017 22:05 0,9 °C 1,1 °C 77 % 1023,7 hPa 0,0 mm 0,0 km/h (0 Bft) O-NO 70 ° 0 min 0,000 mm 0,0 UV-I 0 W/m² -2,7 °C 0,9 °C 0,0 km/h (0 Bft)
26.03.2017 22:06 0,8 °C 0,9 °C 77 % 1023,7 hPa 0,0 mm 0,0 km/h (0 Bft) O-NO 70 ° 0 min 0,000 mm 0,0 UV-I 0 W/m² -2,8 °C 0,8 °C 0,0 km/h (0 Bft)
26.03.2017 22:07 0,8 °C 0,8 °C 77 % 1023,7 hPa 0,0 mm 0,0 km/h (0 Bft) O-NO 70 ° 0 min 0,000 mm 0,0 UV-I 0 W/m² -2,8 °C 0,8 °C 0,0 km/h (0 Bft)
26.03.2017 22:08 0,8 °C 0,8 °C 77 % 1023,6 hPa 0,0 mm 0,0 km/h (0 Bft) O-NO 70 ° 0 min 0,000 mm 0,0 UV-I 0 W/m² -2,8 °C 0,8 °C 0,0 km/h (0 Bft)
26.03.2017 22:09 0,7 °C 0,8 °C 77 % 1023,7 hPa 0,0 mm 0,0 km/h (0 Bft) O-NO 70 ° 0 min 0,000 mm 0,0 UV-I 0 W/m² -2,9 °C 0,7 °C 0,0 km/h (0 Bft)
26.03.2017 22:10 0,7 °C 0,7 °C 78 % 1023,6 hPa 0,0 mm 0,4 km/h (0 Bft) O-NO 70 ° 0 min 0,000 mm 0,0 UV-I 0 W/m² -2,7 °C 0,7 °C 1,6 km/h (1 Bft)
26.03.2017 22:11 0,8 °C 0,8 °C 77 % 1023,7 hPa 0,0 mm 1,5 km/h (1 Bft) O-NO 70 ° 0 min 0,000 mm 0,0 UV-I 0 W/m² -2,8 °C 0,8 °C 1,6 km/h (1 Bft)
26.03.2017 22:12 1,0 °C 1,0 °C 76 % 1023,7 hPa 0,0 mm 1,4 km/h (1 Bft) O-NO 70 ° 0 min 0,000 mm 0,0 UV-I 0 W/m² -2,7 °C 1,0 °C 1,6 km/h (1 Bft)
26.03.2017 22:13 1,2 °C 1,2 °C 76 % 1023,7 hPa 0,0 mm 2,0 km/h (1 Bft) O-NO 70 ° 0 min 0,000 mm 0,0 UV-I 0 W/m² -2,5 °C 1,2 °C 3,2 km/h (1 Bft)
26.03.2017 22:14 1,3 °C 1,3 °C 76 % 1023,7 hPa 0,0 mm 2,1 km/h (1 Bft) O-NO 70 ° 0 min 0,000 mm 0,0 UV-I 0 W/m² -2,5 °C 1,3 °C 3,2 km/h (1 Bft)
26.03.2017 22:15 1,4 °C 1,4 °C 73 % 1023,8 hPa 0,0 mm 1,0 km/h (0 Bft) O-NO 70 ° 0 min 0,000 mm 0,0 UV-I 0 W/m² -2,9 °C 1,4 °C 1,6 km/h (1 Bft)
26.03.2017 22:16 1,6 °C 1,6 °C 74 % 1023,8 hPa 0,0 mm 0,0 km/h (0 Bft) O-NO 70 ° 0 min 0,000 mm 0,0 UV-I 0 W/m² -2,5 °C 1,6 °C 0,0 km/h (0 Bft)
26.03.2017 22:17 1,7 °C 1,7 °C 74 % 1023,8 hPa 0,0 mm 0,0 km/h (0 Bft) O-NO 70 ° 0 min 0,000 mm 0,0 UV-I 0 W/m² -2,4 °C 1,7 °C 0,0 km/h (0 Bft)
26.03.2017 22:18 1,6 °C 1,7 °C 74 % 1023,8 hPa 0,0 mm 0,0 km/h (0 Bft) O-NO 70 ° 0 min 0,000 mm 0,0 UV-I 0 W/m² -2,5 °C 1,6 °C 0,0 km/h (0 Bft)
26.03.2017 22:19 1,2 °C 1,6 °C 74 % 1023,8 hPa 0,0 mm 0,0 km/h (0 Bft) O-NO 70 ° 0 min 0,000 mm 0,0 UV-I 0 W/m² -2,9 °C 1,2 °C 0,0 km/h (0 Bft)
26.03.2017 22:20 0,9 °C 1,2 °C 74 % 1023,8 hPa 0,0 mm 0,0 km/h (0 Bft) O-NO 70 ° 0 min 0,000 mm 0,0 UV-I 0 W/m² -3,2 °C 0,9 °C 0,0 km/h (0 Bft)
26.03.2017 22:21 0,6 °C 0,9 °C 76 % 1023,7 hPa 0,0 mm 0,0 km/h (0 Bft) O-NO 70 ° 0 min 0,000 mm 0,0 UV-I 0 W/m² -3,1 °C 0,6 °C 0,0 km/h (0 Bft)
26.03.2017 22:22 0,4 °C 0,6 °C 77 % 1023,8 hPa 0,0 mm 0,0 km/h (0 Bft) O-NO 70 ° 0 min 0,000 mm 0,0 UV-I 0 W/m² -3,1 °C 0,4 °C 0,0 km/h (0 Bft)
26.03.2017 22:23 0,3 °C 0,4 °C 78 % 1023,7 hPa 0,0 mm 0,0 km/h (0 Bft) O-NO 70 ° 0 min 0,000 mm 0,0 UV-I 0 W/m² -3,1 °C 0,3 °C 0,0 km/h (0 Bft)
26.03.2017 22:24 0,3 °C 0,3 °C 78 % 1023,8 hPa 0,0 mm 0,0 km/h (0 Bft) O-NO 70 ° 0 min 0,000 mm 0,0 UV-I 0 W/m² -3,1 °C 0,3 °C 0,0 km/h (0 Bft)
26.03.2017 22:25 0,2 °C 0,3 °C 78 % 1023,7 hPa 0,0 mm 0,0 km/h (0 Bft) O-NO 70 ° 0 min 0,000 mm 0,0 UV-I 0 W/m² -3,2 °C 0,2 °C 0,0 km/h (0 Bft)
26.03.2017 22:26 0,2 °C 0,2 °C 78 % 1023,8 hPa 0,0 mm 0,0 km/h (0 Bft) O-NO 70 ° 0 min 0,000 mm 0,0 UV-I 0 W/m² -3,2 °C 0,2 °C 0,0 km/h (0 Bft)
26.03.2017 22:27 0,2 °C 0,2 °C 79 % 1023,7 hPa 0,0 mm 0,0 km/h (0 Bft) O-NO 70 ° 0 min 0,000 mm 0,0 UV-I 0 W/m² -3,0 °C 0,2 °C 0,0 km/h (0 Bft)
26.03.2017 22:28 0,2 °C 0,2 °C 78 % 1023,8 hPa 0,0 mm 0,0 km/h (0 Bft) O-NO 70 ° 0 min 0,000 mm 0,0 UV-I 0 W/m² -3,2 °C 0,2 °C 0,0 km/h (0 Bft)
26.03.2017 22:29 0,2 °C 0,2 °C 78 % 1023,7 hPa 0,0 mm 0,0 km/h (0 Bft) O-NO 70 ° 0 min 0,000 mm 0,0 UV-I 0 W/m² -3,2 °C 0,2 °C 0,0 km/h (0 Bft)
26.03.2017 22:30 0,2 °C 0,2 °C 78 % 1023,7 hPa 0,0 mm 0,0 km/h (0 Bft) O-NO 70 ° 0 min 0,000 mm 0,0 UV-I 0 W/m² -3,2 °C 0,2 °C 0,0 km/h (0 Bft)
26.03.2017 22:31 0,3 °C 0,3 °C 78 % 1023,7 hPa 0,0 mm 0,0 km/h (0 Bft) O-NO 70 ° 0 min 0,000 mm 0,0 UV-I 0 W/m² -3,1 °C 0,3 °C 0,0 km/h (0 Bft)
26.03.2017 22:32 0,5 °C 0,5 °C 77 % 1023,8 hPa 0,0 mm 0,0 km/h (0 Bft) O-NO 70 ° 0 min 0,000 mm 0,0 UV-I 0 W/m² -3,1 °C 0,5 °C 0,0 km/h (0 Bft)
26.03.2017 22:33 0,6 °C 0,6 °C 77 % 1023,8 hPa 0,0 mm 0,3 km/h (0 Bft) O-NO 70 ° 0 min 0,000 mm 0,0 UV-I 0 W/m² -3,0 °C 0,6 °C 1,6 km/h (1 Bft)
26.03.2017 22:34 0,7 °C 0,7 °C 76 % 1023,8 hPa 0,0 mm 2,0 km/h (1 Bft) O-NO 70 ° 0 min 0,000 mm 0,0 UV-I 0 W/m² -3,0 °C 0,7 °C 3,2 km/h (1 Bft)
26.03.2017 22:35 0,9 °C 0,9 °C 75 % 1023,8 hPa 0,0 mm 1,9 km/h (1 Bft) O-NO 70 ° 0 min 0,000 mm 0,0 UV-I 0 W/m² -3,0 °C 0,9 °C 3,2 km/h (1 Bft)
26.03.2017 22:36 1,0 °C 1,0 °C 75 % 1023,8 hPa 0,0 mm 1,7 km/h (1 Bft) O-NO 70 ° 0 min 0,000 mm 0,0 UV-I 0 W/m² -2,9 °C 1,0 °C 3,2 km/h (1 Bft)
26.03.2017 22:37 1,1 °C 1,1 °C 74 % 1023,8 hPa 0,0 mm 0,9 km/h (0 Bft) O-NO 70 ° 0 min 0,000 mm 0,0 UV-I 0 W/m² -3,0 °C 1,1 °C 1,6 km/h (1 Bft)
26.03.2017 22:38 1,2 °C 1,2 °C 74 % 1023,8 hPa 0,0 mm 0,5 km/h (0 Bft) O-NO 70 ° 0 min 0,000 mm 0,0 UV-I 0 W/m² -2,9 °C 1,2 °C 1,6 km/h (1 Bft)
26.03.2017 22:39 1,1 °C 1,2 °C 75 % 1023,8 hPa 0,0 mm 0,0 km/h (0 Bft) O-NO 70 ° 0 min 0,000 mm 0,0 UV-I 0 W/m² -2,8 °C 1,1 °C 0,0 km/h (0 Bft)
26.03.2017 22:40 1,0 °C 1,2 °C 76 % 1023,9 hPa 0,0 mm 0,5 km/h (0 Bft) O-NO 70 ° 0 min 0,000 mm 0,0 UV-I 0 W/m² -2,7 °C 1,0 °C 1,6 km/h (1 Bft)
26.03.2017 22:41 0,9 °C 1,0 °C 76 % 1023,9 hPa 0,0 mm 0,1 km/h (0 Bft) O-NO 70 ° 0 min 0,000 mm 0,0 UV-I 0 W/m² -2,8 °C 0,9 °C 1,6 km/h (1 Bft)
26.03.2017 22:42 0,7 °C 0,9 °C 76 % 1023,9 hPa 0,0 mm 0,8 km/h (0 Bft) O-NO 70 ° 0 min 0,000 mm 0,0 UV-I 0 W/m² -3,0 °C 0,7 °C 1,6 km/h (1 Bft)
26.03.2017 22:43 0,6 °C 0,7 °C 77 % 1023,9 hPa 0,0 mm 0,9 km/h (0 Bft) O-NO 70 ° 0 min 0,000 mm 0,0 UV-I 0 W/m² -3,0 °C 0,6 °C 1,6 km/h (1 Bft)
26.03.2017 22:44 0,5 °C 0,6 °C 78 % 1023,9 hPa 0,0 mm 0,9 km/h (0 Bft) O-NO 70 ° 0 min 0,000 mm 0,0 UV-I 0 W/m² -2,9 °C 0,5 °C 1,6 km/h (1 Bft)
26.03.2017 22:45 0,4 °C 0,5 °C 78 % 1024,0 hPa 0,0 mm 0,5 km/h (0 Bft) O-NO 70 ° 0 min 0,000 mm 0,0 UV-I 0 W/m² -3,0 °C 0,4 °C 1,6 km/h (1 Bft)
26.03.2017 22:46 0,3 °C 0,4 °C 77 % 1024,0 hPa 0,0 mm 0,0 km/h (0 Bft) O-NO 70 ° 0 min 0,000 mm 0,0 UV-I 0 W/m² -3,2 °C 0,3 °C 0,0 km/h (0 Bft)
26.03.2017 22:47 0,2 °C 0,3 °C 77 % 1024,0 hPa 0,0 mm 0,0 km/h (0 Bft) O-NO 70 ° 0 min 0,000 mm 0,0 UV-I 0 W/m² -3,3 °C 0,2 °C 0,0 km/h (0 Bft)
26.03.2017 22:48 0,0 °C 0,2 °C 79 % 1024,0 hPa 0,0 mm 0,0 km/h (0 Bft) O-NO 70 ° 0 min 0,000 mm 0,0 UV-I 0 W/m² -3,2 °C 0,0 °C 0,0 km/h (0 Bft)
26.03.2017 22:49 -0,1 °C 0,0 °C 79 % 1024,0 hPa 0,0 mm 0,0 km/h (0 Bft) O-NO 70 ° 0 min 0,000 mm 0,0 UV-I 0 W/m² -3,3 °C -0,1 °C 0,0 km/h (0 Bft)
26.03.2017 22:50 -0,2 °C -0,1 °C 80 % 1024,0 hPa 0,0 mm 0,0 km/h (0 Bft) O-NO 70 ° 0 min 0,000 mm 0,0 UV-I 0 W/m² -3,2 °C -0,2 °C 0,0 km/h (0 Bft)
26.03.2017 22:51 -0,2 °C -0,2 °C 80 % 1024,0 hPa 0,0 mm 0,0 km/h (0 Bft) O-NO 70 ° 0 min 0,000 mm 0,0 UV-I 0 W/m² -3,2 °C -0,2 °C 0,0 km/h (0 Bft)
26.03.2017 22:52 -0,3 °C -0,2 °C 79 % 1024,0 hPa 0,0 mm 0,0 km/h (0 Bft) O-NO 70 ° 0 min 0,000 mm 0,0 UV-I 0 W/m² -3,5 °C -0,3 °C 0,0 km/h (0 Bft)
26.03.2017 22:53 -0,3 °C -0,3 °C 80 % 1024,0 hPa 0,0 mm 0,0 km/h (0 Bft) O-NO 70 ° 0 min 0,000 mm 0,0 UV-I 0 W/m² -3,3 °C -0,3 °C 0,0 km/h (0 Bft)
26.03.2017 22:54 -0,2 °C -0,2 °C 80 % 1024,0 hPa 0,0 mm 0,0 km/h (0 Bft) O-NO 70 ° 0 min 0,000 mm 0,0 UV-I 0 W/m² -3,2 °C -0,2 °C 0,0 km/h (0 Bft)
26.03.2017 22:55 -0,3 °C -0,2 °C 80 % 1023,9 hPa 0,0 mm 0,0 km/h (0 Bft) O-NO 70 ° 0 min 0,000 mm 0,0 UV-I 0 W/m² -3,3 °C -0,3 °C 0,0 km/h (0 Bft)
26.03.2017 22:56 -0,3 °C -0,3 °C 80 % 1024,0 hPa 0,0 mm 0,0 km/h (0 Bft) O-NO 70 ° 0 min 0,000 mm 0,0 UV-I 0 W/m² -3,3 °C -0,3 °C 0,0 km/h (0 Bft)
26.03.2017 22:57 -0,3 °C -0,3 °C 80 % 1024,0 hPa 0,0 mm 0,0 km/h (0 Bft) O-NO 70 ° 0 min 0,000 mm 0,0 UV-I 0 W/m² -3,3 °C -0,3 °C 0,0 km/h (0 Bft)
26.03.2017 22:58 -0,3 °C -0,3 °C 81 % 1024,0 hPa 0,0 mm 0,0 km/h (0 Bft) O-NO 70 ° 0 min 0,000 mm 0,0 UV-I 0 W/m² -3,2 °C -0,3 °C 0,0 km/h (0 Bft)
26.03.2017 22:59 -0,3 °C -0,3 °C 81 % 1024,0 hPa 0,0 mm 0,0 km/h (0 Bft) O-NO 70 ° 0 min 0,000 mm 0,0 UV-I 0 W/m² -3,2 °C -0,3 °C 0,0 km/h (0 Bft)
26.03.2017 23:00 -0,4 °C -0,3 °C 81 % 1024,0 hPa 0,0 mm 0,0 km/h (0 Bft) O-NO 70 ° 0 min 0,000 mm 0,0 UV-I 0 W/m² -3,3 °C -0,4 °C 0,0 km/h (0 Bft)
26.03.2017 23:01 -0,4 °C -0,4 °C 81 % 1024,0 hPa 0,0 mm 0,1 km/h (0 Bft) O-NO 70 ° 0 min 0,000 mm 0,0 UV-I 0 W/m² -3,3 °C -0,4 °C 1,6 km/h (1 Bft)
26.03.2017 23:03 -0,2 °C -0,2 °C 80 % 1024,0 hPa 0,0 mm 0,9 km/h (0 Bft) O-NO 70 ° 0 min 0,000 mm 0,0 UV-I 0 W/m² -3,2 °C -0,2 °C 1,6 km/h (1 Bft)
26.03.2017 23:04 -0,1 °C -0,1 °C 79 % 1024,1 hPa 0,0 mm 0,7 km/h (0 Bft) O-NO 70 ° 0 min 0,000 mm 0,0 UV-I 0 W/m² -3,3 °C -0,1 °C 1,6 km/h (1 Bft)
26.03.2017 23:05 0,1 °C 0,1 °C 79 % 1024,1 hPa 0,0 mm 0,2 km/h (0 Bft) O-NO 70 ° 0 min 0,000 mm 0,0 UV-I 0 W/m² -3,1 °C 0,1 °C 1,6 km/h (1 Bft)
26.03.2017 23:06 0,2 °C 0,2 °C 78 % 1024,1 hPa 0,0 mm 0,0 km/h (0 Bft) O-NO 70 ° 0 min 0,000 mm 0,0 UV-I 0 W/m² -3,2 °C 0,2 °C 0,0 km/h (0 Bft)
26.03.2017 23:07 0,1 °C 0,2 °C 78 % 1024,1 hPa 0,0 mm 0,1 km/h (0 Bft) O-NO 70 ° 0 min 0,000 mm 0,0 UV-I 0 W/m² -3,3 °C 0,1 °C 1,6 km/h (1 Bft)
26.03.2017 23:08 0,0 °C 0,1 °C 79 % 1024,1 hPa 0,0 mm 0,0 km/h (0 Bft) O-NO 70 ° 0 min 0,000 mm 0,0 UV-I 0 W/m² -3,2 °C 0,0 °C 0,0 km/h (0 Bft)
26.03.2017 23:09 0,0 °C 0,0 °C 79 % 1024,1 hPa 0,0 mm 0,1 km/h (0 Bft) O-NO 70 ° 0 min 0,000 mm 0,0 UV-I 0 W/m² -3,2 °C 0,0 °C 1,6 km/h (1 Bft)
26.03.2017 23:10 0,1 °C 0,1 °C 79 % 1024,1 hPa 0,0 mm 0,0 km/h (0 Bft) O-NO 70 ° 0 min 0,000 mm 0,0 UV-I 0 W/m² -3,1 °C 0,1 °C 0,0 km/h (0 Bft)
26.03.2017 23:11 0,1 °C 0,1 °C 79 % 1024,1 hPa 0,0 mm 0,8 km/h (0 Bft) O-NO 70 ° 0 min 0,000 mm 0,0 UV-I 0 W/m² -3,1 °C 0,1 °C 1,6 km/h (1 Bft)
26.03.2017 23:12 0,2 °C 0,2 °C 79 % 1024,1 hPa 0,0 mm 2,0 km/h (1 Bft) O-NO 70 ° 0 min 0,000 mm 0,0 UV-I 0 W/m² -3,0 °C 0,2 °C 3,2 km/h (1 Bft)
26.03.2017 23:13 0,3 °C 0,3 °C 79 % 1024,2 hPa 0,0 mm 1,0 km/h (0 Bft) O-NO 70 ° 0 min 0,000 mm 0,0 UV-I 0 W/m² -2,9 °C 0,3 °C 3,2 km/h (1 Bft)
26.03.2017 23:14 0,3 °C 0,3 °C 79 % 1024,1 hPa 0,0 mm 0,1 km/h (0 Bft) O-NO 70 ° 0 min 0,000 mm 0,0 UV-I 0 W/m² -2,9 °C 0,3 °C 1,6 km/h (1 Bft)
26.03.2017 23:15 0,3 °C 0,3 °C 79 % 1024,1 hPa 0,0 mm 0,1 km/h (0 Bft) O-NO 70 ° 0 min 0,000 mm 0,0 UV-I 0 W/m² -2,9 °C 0,3 °C 1,6 km/h (1 Bft)
26.03.2017 23:16 0,2 °C 0,3 °C 79 % 1024,1 hPa 0,0 mm 0,0 km/h (0 Bft) O-NO 70 ° 0 min 0,000 mm 0,0 UV-I 0 W/m² -3,0 °C 0,2 °C 0,0 km/h (0 Bft)
26.03.2017 23:17 0,1 °C 0,2 °C 79 % 1024,1 hPa 0,0 mm 0,0 km/h (0 Bft) O-NO 70 ° 0 min 0,000 mm 0,0 UV-I 0 W/m² -3,1 °C 0,1 °C 0,0 km/h (0 Bft)
26.03.2017 23:18 -0,1 °C 0,1 °C 80 % 1024,1 hPa 0,0 mm 0,0 km/h (0 Bft) O-NO 70 ° 0 min 0,000 mm 0,0 UV-I 0 W/m² -3,1 °C -0,1 °C 0,0 km/h (0 Bft)
26.03.2017 23:19 -0,2 °C -0,1 °C 80 % 1024,1 hPa 0,0 mm 0,0 km/h (0 Bft) O-NO 70 ° 0 min 0,000 mm 0,0 UV-I 0 W/m² -3,2 °C -0,2 °C 0,0 km/h (0 Bft)
26.03.2017 23:20 -0,3 °C -0,2 °C 81 % 1024,0 hPa 0,0 mm 0,2 km/h (0 Bft) O-NO 70 ° 0 min 0,000 mm 0,0 UV-I 0 W/m² -3,2 °C -0,3 °C 1,6 km/h (1 Bft)
26.03.2017 23:21 -0,3 °C -0,3 °C 81 % 1024,0 hPa 0,0 mm 0,1 km/h (0 Bft) O-NO 70 ° 0 min 0,000 mm 0,0 UV-I 0 W/m² -3,2 °C -0,3 °C 1,6 km/h (1 Bft)
26.03.2017 23:22 -0,3 °C -0,3 °C 82 % 1024,0 hPa 0,0 mm 1,2 km/h (1 Bft) O-NO 70 ° 0 min 0,000 mm 0,0 UV-I 0 W/m² -3,0 °C -0,3 °C 1,6 km/h (1 Bft)
26.03.2017 23:23 -0,1 °C -0,1 °C 83 % 1024,0 hPa 0,0 mm 1,9 km/h (1 Bft) O-NO 70 ° 0 min 0,000 mm 0,0 UV-I 0 W/m² -2,6 °C -0,1 °C 3,2 km/h (1 Bft)
26.03.2017 23:24 0,2 °C 0,2 °C 82 % 1024,0 hPa 0,0 mm 1,6 km/h (1 Bft) O-NO 70 ° 0 min 0,000 mm 0,0 UV-I 0 W/m² -2,5 °C 0,2 °C 3,2 km/h (1 Bft)
26.03.2017 23:25 0,4 °C 0,4 °C 82 % 1024,0 hPa 0,0 mm 0,5 km/h (0 Bft) O-NO 70 ° 0 min 0,000 mm 0,0 UV-I 0 W/m² -2,3 °C 0,4 °C 1,6 km/h (1 Bft)
26.03.2017 23:26 0,5 °C 0,5 °C 80 % 1024,0 hPa 0,0 mm 0,4 km/h (0 Bft) O-NO 70 ° 0 min 0,000 mm 0,0 UV-I 0 W/m² -2,5 °C 0,5 °C 1,6 km/h (1 Bft)
26.03.2017 23:27 0,4 °C 0,5 °C 80 % 1024,0 hPa 0,0 mm 0,2 km/h (0 Bft) O-NO 70 ° 0 min 0,000 mm 0,0 UV-I 0 W/m² -2,6 °C 0,4 °C 1,6 km/h (1 Bft)
26.03.2017 23:28 0,3 °C 0,4 °C 80 % 1024,0 hPa 0,0 mm 0,0 km/h (0 Bft) O-NO 70 ° 0 min 0,000 mm 0,0 UV-I 0 W/m² -2,7 °C 0,3 °C 0,0 km/h (0 Bft)
26.03.2017 23:29 0,2 °C 0,3 °C 80 % 1024,0 hPa 0,0 mm 0,0 km/h (0 Bft) O-NO 70 ° 0 min 0,000 mm 0,0 UV-I 0 W/m² -2,8 °C 0,2 °C 0,0 km/h (0 Bft)
26.03.2017 23:30 0,1 °C 0,2 °C 80 % 1024,0 hPa 0,0 mm 0,0 km/h (0 Bft) O-NO 70 ° 0 min 0,000 mm 0,0 UV-I 0 W/m² -2,9 °C 0,1 °C 0,0 km/h (0 Bft)
26.03.2017 23:31 0,1 °C 0,1 °C 82 % 1024,0 hPa 0,0 mm 0,1 km/h (0 Bft) O-NO 70 ° 0 min 0,000 mm 0,0 UV-I 0 W/m² -2,6 °C 0,1 °C 1,6 km/h (1 Bft)
26.03.2017 23:32 0,1 °C 0,1 °C 81 % 1024,0 hPa 0,0 mm 0,6 km/h (0 Bft) O-NO 70 ° 0 min 0,000 mm 0,0 UV-I 0 W/m² -2,8 °C 0,1 °C 1,6 km/h (1 Bft)
26.03.2017 23:33 0,1 °C 0,1 °C 82 % 1024,0 hPa 0,0 mm 0,7 km/h (0 Bft) O-NO 70 ° 0 min 0,000 mm 0,0 UV-I 0 W/m² -2,6 °C 0,1 °C 1,6 km/h (1 Bft)
26.03.2017 23:34 0,1 °C 0,1 °C 82 % 1024,0 hPa 0,0 mm 1,9 km/h (1 Bft) O-NO 70 ° 0 min 0,000 mm 0,0 UV-I 0 W/m² -2,6 °C 0,1 °C 3,2 km/h (1 Bft)
26.03.2017 23:35 0,0 °C 0,1 °C 82 % 1024,0 hPa 0,0 mm 1,1 km/h (1 Bft) O-NO 70 ° 0 min 0,000 mm 0,0 UV-I 0 W/m² -2,7 °C 0,0 °C 3,2 km/h (1 Bft)
26.03.2017 23:36 0,1 °C 0,1 °C 83 % 1024,0 hPa 0,0 mm 0,1 km/h (0 Bft) O-NO 70 ° 0 min 0,000 mm 0,0 UV-I 0 W/m² -2,4 °C 0,1 °C 1,6 km/h (1 Bft)
26.03.2017 23:37 0,1 °C 0,2 °C 81 % 1024,0 hPa 0,0 mm 1,3 km/h (1 Bft) O-NO 70 ° 0 min 0,000 mm 0,0 UV-I 0 W/m² -2,8 °C 0,1 °C 3,2 km/h (1 Bft)
26.03.2017 23:38 0,1 °C 0,1 °C 81 % 1024,0 hPa 0,0 mm 1,5 km/h (1 Bft) O-NO 70 ° 0 min 0,000 mm 0,0 UV-I 0 W/m² -2,8 °C 0,1 °C 3,2 km/h (1 Bft)
26.03.2017 23:39 -0,2 °C 0,1 °C 81 % 1024,0 hPa 0,0 mm 1,0 km/h (0 Bft) O-NO 70 ° 0 min 0,000 mm 0,0 UV-I 0 W/m² -3,1 °C -0,2 °C 1,6 km/h (1 Bft)
26.03.2017 23:40 -0,3 °C -0,2 °C 82 % 1024,0 hPa 0,0 mm 0,0 km/h (0 Bft) O-NO 70 ° 0 min 0,000 mm 0,0 UV-I 0 W/m² -3,0 °C -0,3 °C 0,0 km/h (0 Bft)
26.03.2017 23:41 -0,5 °C -0,3 °C 82 % 1024,0 hPa 0,0 mm 0,0 km/h (0 Bft) O-NO 70 ° 0 min 0,000 mm 0,0 UV-I 0 W/m² -3,2 °C -0,5 °C 0,0 km/h (0 Bft)
26.03.2017 23:42 -0,6 °C -0,5 °C 83 % 1024,1 hPa 0,0 mm 0,0 km/h (0 Bft) O-NO 70 ° 0 min 0,000 mm 0,0 UV-I 0 W/m² -3,1 °C -0,6 °C 0,0 km/h (0 Bft)
26.03.2017 23:43 -0,6 °C -0,6 °C 83 % 1024,1 hPa 0,0 mm 0,0 km/h (0 Bft) O-NO 70 ° 0 min 0,000 mm 0,0 UV-I 0 W/m² -3,1 °C -0,6 °C 0,0 km/h (0 Bft)
26.03.2017 23:44 -0,6 °C -0,6 °C 84 % 1024,1 hPa 0,0 mm 0,5 km/h (0 Bft) O-NO 70 ° 0 min 0,000 mm 0,0 UV-I 0 W/m² -3,0 °C -0,6 °C 1,6 km/h (1 Bft)
26.03.2017 23:45 -0,7 °C -0,6 °C 84 % 1024,1 hPa 0,0 mm 0,6 km/h (0 Bft) O-NO 70 ° 0 min 0,000 mm 0,0 UV-I 0 W/m² -3,1 °C -0,7 °C 1,6 km/h (1 Bft)
26.03.2017 23:46 -0,6 °C -0,6 °C 84 % 1024,1 hPa 0,0 mm 0,0 km/h (0 Bft) O-NO 70 ° 0 min 0,000 mm 0,0 UV-I 0 W/m² -3,0 °C -0,6 °C 0,0 km/h (0 Bft)
26.03.2017 23:47 -0,7 °C -0,6 °C 84 % 1024,1 hPa 0,0 mm 0,0 km/h (0 Bft) O-NO 70 ° 0 min 0,000 mm 0,0 UV-I 0 W/m² -3,1 °C -0,7 °C 0,0 km/h (0 Bft)
26.03.2017 23:48 -0,7 °C -0,7 °C 84 % 1024,1 hPa 0,0 mm 0,0 km/h (0 Bft) O-NO 70 ° 0 min 0,000 mm 0,0 UV-I 0 W/m² -3,1 °C -0,7 °C 0,0 km/h (0 Bft)
26.03.2017 23:49 -0,8 °C -0,7 °C 84 % 1024,0 hPa 0,0 mm 0,0 km/h (0 Bft) O-NO 70 ° 0 min 0,000 mm 0,0 UV-I 0 W/m² -3,2 °C -0,8 °C 0,0 km/h (0 Bft)
26.03.2017 23:50 -0,8 °C -0,8 °C 84 % 1024,1 hPa 0,0 mm 0,0 km/h (0 Bft) O-NO 70 ° 0 min 0,000 mm 0,0 UV-I 0 W/m² -3,2 °C -0,8 °C 0,0 km/h (0 Bft)
26.03.2017 23:51 -0,8 °C -0,8 °C 84 % 1024,1 hPa 0,0 mm 0,0 km/h (0 Bft) O-NO 70 ° 0 min 0,000 mm 0,0 UV-I 0 W/m² -3,2 °C -0,8 °C 0,0 km/h (0 Bft)
26.03.2017 23:52 -0,8 °C -0,8 °C 84 % 1024,1 hPa 0,0 mm 0,0 km/h (0 Bft) O-NO 70 ° 0 min 0,000 mm 0,0 UV-I 0 W/m² -3,2 °C -0,8 °C 0,0 km/h (0 Bft)
26.03.2017 23:53 -0,8 °C -0,8 °C 85 % 1024,2 hPa 0,0 mm 0,0 km/h (0 Bft) O-NO 70 ° 0 min 0,000 mm 0,0 UV-I 0 W/m² -3,0 °C -0,8 °C 0,0 km/h (0 Bft)
26.03.2017 23:54 -0,7 °C -0,7 °C 85 % 1024,1 hPa 0,0 mm 0,0 km/h (0 Bft) O-NO 70 ° 0 min 0,000 mm 0,0 UV-I 0 W/m² -2,9 °C -0,7 °C 0,0 km/h (0 Bft)
26.03.2017 23:55 -0,7 °C -0,7 °C 84 % 1024,1 hPa 0,0 mm 0,0 km/h (0 Bft) O-NO 70 ° 0 min 0,000 mm 0,0 UV-I 0 W/m² -3,1 °C -0,7 °C 0,0 km/h (0 Bft)
26.03.2017 23:56 -0,8 °C -0,7 °C 85 % 1024,1 hPa 0,0 mm 0,0 km/h (0 Bft) O-NO 70 ° 0 min 0,000 mm 0,0 UV-I 0 W/m² -3,0 °C -0,8 °C 0,0 km/h (0 Bft)
26.03.2017 23:57 -0,7 °C -0,7 °C 85 % 1024,1 hPa 0,0 mm 0,0 km/h (0 Bft) O-NO 70 ° 0 min 0,000 mm 0,0 UV-I 0 W/m² -2,9 °C -0,7 °C 0,0 km/h (0 Bft)
26.03.2017 23:58 -0,8 °C -0,7 °C 85 % 1024,1 hPa 0,0 mm 0,0 km/h (0 Bft) O-NO 70 ° 0 min 0,000 mm 0,0 UV-I 0 W/m² -3,0 °C -0,8 °C 0,0 km/h (0 Bft)
26.03.2017 23:59 -0,8 °C -0,8 °C 85 % 1024,1 hPa 0,0 mm 0,0 km/h (0 Bft) O-NO 70 ° 0 min 0,000 mm 0,0 UV-I 0 W/m² -3,0 °C -0,8 °C 0,0 km/h (0 Bft)
_ Min-Zeit 06:12 07:20 18:26 05:17 - 23:59 - - - - - - 22:52 06:12 23:59
Minimum _ -1,5 °C -1,4 °C 59 % 1017,6 hPa - 0,0 km/h (0 Bft) - - - - - - -3,5 °C -1,5 °C 0,0 km/h (0 Bft)
_ Max-Zeit 15:12 15:13 07:04 23:53 23:59 11:05 - - 16:57 15:01 14:26 14:27 13:40 15:12 11:05
Maximum _ 10,3 °C 10,3 °C 95 % 1024,2 hPa 0,0 mm 15,8 km/h
W-NW (3 Bft)
- - 1 min 0,254 mm 4,3 UV-I 828 W/m² 4,7 °C 10,2 °C 22,5 km/h
W-SW (4 Bft)
Durchschnitt _ 3,9 °C 4,0 °C 79 % 1020,6 hPa #0,0 mm 2,9 km/h (1 Bft) O-NO - #3:33 h #1,524 mm 1,8 UV-I 122 W/m² 0,4 °C 3,6 °C 4,7 km/h (1 Bft)